# Wetter Temperatur Luftdruck Luftfeuchtigkeit Sichtweite Windgeschwindigkeit Windrichtung Zeit
1 Clouds 17 1024 59 10000 4.12 340 17:25 01.02.2023
2 Clouds 17 1025 59 10000 3.09 340 14:22 01.02.2023
3 Clear 16 1027 65 10000 2.06 340 13:20 01.02.2023
4 Clear 15 1027 67 8000 2.06 220 12:27 01.02.2023
5 Clear 12 1026 71 8000 2.06 200 11:52 01.02.2023
6 Clouds 7 1025 81 6000 3.09 220 08:42 01.02.2023
7 Clouds 8 1025 65 10000 3.53 65 23:58 31.01.2023
8 Clouds 14 1020 71 10000 1.79 60 21:28 31.01.2023
9 Clouds 15 1022 62 8000 2.06 80 19:32 31.01.2023
10 Clouds 18 1021 36 8000 2.06 60 17:54 31.01.2023
11 Clouds 17 1023 36 8000 2.06 40 15:36 31.01.2023
12 Clouds 17 1023 36 8000 2.06 40 15:18 31.01.2023
13 Clouds 17 1025 39 10000 2.06 80 13:45 31.01.2023
14 Clouds 13 1025 58 8000 1.03 80 11:41 31.01.2023
15 Clouds 10 1018 71 6000 1.03 220 10:26 31.01.2023
16 Clouds 7 1024 81 6000 1.03 180 09:44 31.01.2023
17 Clouds 7 1023 81 6000 2.06 220 08:56 31.01.2023
18 Clouds 8 1022 75 6000 2.06 220 07:59 31.01.2023
19 Clouds 11 1021 71 10000 1.79 20 03:39 31.01.2023
20 Clear 11 1021 71 10000 1.79 20 23:36 30.01.2023
21 Clear 11 1021 71 10000 1.79 20 22:50 30.01.2023
22 Clear 12 1021 71 10000 1.79 20 21:48 30.01.2023
23 Clouds 12 1021 71 10000 2.06 20 20:44 30.01.2023
24 Clouds 15 1020 63 10000 1.03 40 18:55 30.01.2023
25 Clouds 16 1020 59 10000 2.06 340 17:25 30.01.2023
26 Clear 15 1020 58 10000 3.09 340 14:48 30.01.2023
27 Clear 15 1020 58 10000 3.09 340 14:48 30.01.2023
28 Clear 15 1021 51 10000 1.03 360 13:56 30.01.2023
29 Clear 13 1022 54 10000 1.03 260 12:20 30.01.2023
30 Clear 7 1021 76 10000 2.06 200 10:24 30.01.2023
31 Clear 5 1021 87 8000 3.09 200 09:53 30.01.2023
32 Clear 5 1010 86 8000 2.06 200 08:35 30.01.2023
33 Clear 1 1020 75 10000 1.85 139 06:23 30.01.2023
34 Clear 10 1011 62 10000 2.24 104 00:55 30.01.2023
35 Clear 10 1012 62 10000 2.26 99 23:32 29.01.2023
36 Clear 10 1020 62 10000 2.43 82 22:36 29.01.2023
37 Clouds 11 1020 62 10000 1.03 0 20:54 29.01.2023
38 Clouds 11 1020 62 10000 1.03 0 20:22 29.01.2023
39 Clouds 12 1019 58 10000 2.06 40 19:33 29.01.2023
40 Clouds 13 1019 54 10000 2.06 40 18:26 29.01.2023
41 Clouds 13 1018 50 10000 2.06 20 16:48 29.01.2023
42 Clouds 13 1018 50 10000 2.06 20 16:20 29.01.2023
43 Clouds 14 1019 44 10000 2.06 60 14:20 29.01.2023
44 Clouds 13 1020 47 10000 3.09 40 13:18 29.01.2023
45 Clouds 13 1021 54 8000 3.09 180 12:38 29.01.2023
46 Clouds 13 1021 54 8000 3.09 180 12:19 29.01.2023
47 Clouds 10 1021 61 8000 3.09 180 11:37 29.01.2023
48 Clouds 8 1020 70 6000 4.12 200 10:53 29.01.2023
49 Clouds 6 1019 75 6000 4.12 180 08:45 29.01.2023
50 Clouds 2 1019 67 10000 2.81 130 04:45 29.01.2023
51 Clouds 7 1021 59 10000 2.22 56 23:51 28.01.2023
52 Clouds 10 1020 57 10000 4.07 30 21:28 28.01.2023
53 Clouds 12 1019 54 10000 3.09 40 19:58 28.01.2023
54 Clouds 12 1019 54 10000 3.09 40 19:24 28.01.2023
55 Clouds 14 1018 47 10000 4.12 40 17:46 28.01.2023
56 Clouds 13 1017 54 8000 3.09 60 16:57 28.01.2023
57 Clouds 13 1017 54 8000 3.09 60 16:19 28.01.2023
58 Clouds 12 1017 62 8000 4.12 60 15:37 28.01.2023
59 Clouds 12 1017 62 8000 4.12 60 15:37 28.01.2023
60 Rain 14 1017 67 10000 2.06 280 13:50 28.01.2023
61 Rain 12 1019 76 6000 2.06 220 12:31 28.01.2023
62 Rain 9 1018 87 6000 3.09 240 10:35 28.01.2023
63 Clouds 9 1019 87 6000 3.09 220 09:54 28.01.2023
64 Rain 6 1018 63 10000 2.71 291 05:50 28.01.2023
65 Clouds 11 1012 58 10000 0.89 340 01:32 28.01.2023
66 Clouds 11 1012 58 10000 0.89 340 00:21 28.01.2023
67 Clouds 12 1015 58 10000 1.03 340 20:35 27.01.2023
68 Clouds 15 1014 51 10000 3.09 40 17:58 27.01.2023
69 Clouds 15 1014 51 10000 3.09 40 17:21 27.01.2023
70 Clouds 14 1014 54 10000 3.09 20 16:58 27.01.2023
71 Clouds 14 1014 54 10000 3.09 20 16:21 27.01.2023
72 Clouds 15 1021 51 10000 4.12 20 14:45 27.01.2023
73 Clouds 15 1014 51 10000 4.12 20 14:22 27.01.2023
74 Clouds 14 1019 72 10000 1.03 300 12:40 27.01.2023
75 Clouds 10 1017 93 6000 3.09 240 08:35 27.01.2023
76 Rain 14 1024 50 10000 4.02 320 02:36 27.01.2023
77 Clouds 14 1022 50 10000 4.02 320 22:51 26.01.2023
78 Clouds 13 1013 50 10000 4.02 320 21:21 26.01.2023
79 Clouds 14 1022 50 10000 4.12 320 20:34 26.01.2023
80 Clouds 14 1023 58 10000 3.09 320 18:23 26.01.2023
81 Clouds 15 1022 54 10000 3.09 300 17:42 26.01.2023
82 Clear 16 1023 48 10000 4.12 340 16:27 26.01.2023
83 Clear 16 1023 48 10000 2.06 360 15:50 26.01.2023
84 Clear 16 1023 48 10000 2.06 360 15:30 26.01.2023
85 Clear 15 1025 47 10000 2.06 60 13:58 26.01.2023
86 Clear 15 1025 47 10000 1.03 0 12:44 26.01.2023
87 Clear 11 1025 57 8000 2.06 200 11:26 26.01.2023
88 Clear 8 1024 65 6000 2.06 180 10:29 26.01.2023
89 Clear 6 1023 75 6000 3.09 200 09:44 26.01.2023
90 Clear 6 1023 75 6000 3.09 180 08:25 26.01.2023
91 Clear 6 1023 75 6000 3.09 180 08:25 26.01.2023
92 Clouds 11 1021 58 10000 2.68 60 02:26 26.01.2023
93 Clear 12 1021 58 10000 2.68 60 23:38 25.01.2023
94 Clear 12 1021 58 10000 2.68 60 21:59 25.01.2023
95 Clear 12 1021 58 10000 2.68 60 21:21 25.01.2023
96 Clouds 14 1018 50 10000 3.09 60 18:59 25.01.2023
97 Clouds 14 1018 50 10000 3.09 60 18:23 25.01.2023
98 Clouds 14 1018 54 10000 3.09 40 15:51 25.01.2023
99 Clouds 14 1019 58 8000 3.09 60 13:33 25.01.2023
100 Clouds 12 1020 71 6000 2.06 180 11:25 25.01.2023
101 Clouds 8 1020 93 6000 2.06 180 09:49 25.01.2023
102 Rain 9 1019 87 5000 2.06 180 07:45 25.01.2023
103 Clouds 12 1020 54 10000 2.68 40 01:37 25.01.2023
104 Clouds 12 1020 54 10000 2.68 40 00:25 25.01.2023
105 Clear 13 1020 54 10000 2.68 40 21:35 24.01.2023
106 Clouds 13 1020 54 8000 3.09 40 20:39 24.01.2023
107 Clouds 14 1019 50 10000 3.09 40 18:50 24.01.2023
108 Clouds 14 1018 50 10000 3.09 40 18:29 24.01.2023
109 Clouds 15 1018 51 10000 3.09 40 16:53 24.01.2023
110 Clouds 15 1018 51 10000 3.09 40 16:53 24.01.2023
111 -273 0 0 0 0 0 16:30 24.01.2023
112 Clouds 15 1020 44 10000 3.09 40 13:50 24.01.2023
113 Clouds 12 1020 62 10000 2.06 200 11:46 24.01.2023
114 Clear 7 1018 76 10000 2.06 200 08:43 24.01.2023
115 Clear 7 1018 76 10000 2.06 200 08:18 24.01.2023
116 Clear 7 1018 76 10000 3.09 220 07:48 24.01.2023
117 Clear 12 1018 58 10000 1.79 60 02:43 24.01.2023
118 Clear 12 1018 58 10000 1.79 60 00:40 24.01.2023
119 Clear 13 1018 58 10000 1.79 60 22:32 23.01.2023
120 Clear 13 1018 58 10000 2.06 60 20:45 23.01.2023
121 Clear 14 1018 62 10000 3.09 60 19:23 23.01.2023
122 Clouds 15 1018 62 10000 3.09 60 17:20 23.01.2023
123 Clouds 16 1018 63 10000 4.12 60 15:32 23.01.2023
124 Clouds 15 1020 67 10000 4.12 60 13:56 23.01.2023
125 Clouds 16 1020 63 8000 1.03 40 12:56 23.01.2023
126 Clouds 16 1020 63 8000 1.03 40 12:21 23.01.2023
127 Clouds 14 1020 62 8000 1.03 180 11:29 23.01.2023
128 Clouds 9 1020 71 6000 1.03 220 08:25 23.01.2023
129 Clear 16 1020 72 10000 1.79 40 00:27 23.01.2023
130 Clear 16 1020 72 10000 1.79 40 22:20 22.01.2023
131 Clear 16 1020 72 10000 1.79 40 21:19 22.01.2023
132 Clear 16 1020 72 10000 2.06 40 20:22 22.01.2023
133 Clouds 16 1020 77 10000 3.09 40 19:45 22.01.2023
134 Clouds 17 1019 72 10000 2.06 40 18:48 22.01.2023
135 Clear 18 1019 67 10000 2.68 360 17:56 22.01.2023
136 Clear 18 1019 67 10000 2.68 360 17:25 22.01.2023
137 Clouds 18 1021 67 10000 4.02 40 15:34 22.01.2023
138 Clouds 18 1021 67 10000 4.12 40 14:47 22.01.2023
139 Clouds 18 1021 63 10000 2.06 20 13:28 22.01.2023
140 Clouds 18 1022 67 8000 1.03 0 12:34 22.01.2023
141 Clouds 15 1022 77 8000 2.06 200 11:34 22.01.2023
142 Clouds 11 1021 87 6000 3.09 200 09:35 22.01.2023
143 Clouds 8 1020 79 10000 1.5 86 06:40 22.01.2023
144 Clouds 15 1022 77 10000 1.79 20 01:46 22.01.2023
145 Clouds 15 1022 77 10000 1.79 20 23:31 21.01.2023
146 Clouds 16 1021 77 10000 1.79 20 21:40 21.01.2023
147 Clouds 16 1021 77 8000 2.06 20 19:46 21.01.2023
148 Clouds 18 1021 68 8000 2.06 20 17:22 21.01.2023
149 Clouds 18 1015 72 8000 2.06 360 14:34 21.01.2023
150 Clouds 17 1023 77 6000 3.09 280 12:57 21.01.2023
151 Clouds 17 1023 77 6000 3.09 280 12:35 21.01.2023
152 Clouds 12 1022 82 6000 3.09 220 10:56 21.01.2023
153 Clouds 11 1022 85 6000 3.09 200 09:29 21.01.2023
154 Clear 13 1023 76 10000 1.79 40 04:34 21.01.2023
155 Clear 14 1023 76 10000 1.79 40 22:29 20.01.2023
156 Clear 14 1023 76 10000 1.79 40 21:38 20.01.2023
157 Clouds 14 1023 76 8000 2.06 40 20:57 20.01.2023
158 Clouds 15 1023 72 8000 3.09 40 19:45 20.01.2023
159 Clouds 17 1023 59 10000 2.68 40 16:44 20.01.2023
160 Clouds 17 1024 55 8000 3.09 60 14:46 20.01.2023
161 Clouds 17 1025 55 8000 3.09 120 13:51 20.01.2023
162 Clouds 10 1026 71 8000 2.06 200 10:24 20.01.2023
163 Clouds 9 1025 71 8000 4.12 180 08:54 20.01.2023
164 Clouds 5 1026 72 10000 2.86 124 05:54 20.01.2023
165 Clear 12 1025 62 10000 4.92 80 02:30 20.01.2023
166 Clear 13 1025 62 10000 4.92 80 22:35 19.01.2023
167 Clear 13 1025 62 10000 5.14 80 20:44 19.01.2023
168 Clear 14 1025 58 10000 3.09 60 19:29 19.01.2023
169 Clouds 16 1024 55 10000 5.14 60 16:51 19.01.2023
170 Clouds 15 1026 54 10000 4.12 80 13:29 19.01.2023
171 Clouds 9 1025 87 8000 2.06 180 09:37 19.01.2023
172 Clouds 14 1012 71 10000 4.92 40 02:59 19.01.2023
173 Rain 14 1013 71 10000 4.92 40 22:24 18.01.2023
174 Clouds 14 1017 71 10000 5.14 40 20:20 18.01.2023
175 Clouds 14 1016 71 10000 3.09 60 19:38 18.01.2023
176 Clouds 14 1016 76 10000 5.14 40 18:30 18.01.2023
177 Rain 16 1020 72 8000 2.06 20 15:56 18.01.2023
178 Clouds 14 1021 82 8000 2.06 260 13:49 18.01.2023
179 Rain 14 1020 88 6000 1.03 0 11:28 18.01.2023
180 Rain 14 1019 82 6000 2.06 340 09:27 18.01.2023
181 Rain 15 1019 82 10000 2.68 240 02:59 18.01.2023
182 Rain 15 1019 82 10000 2.68 240 00:20 18.01.2023
183 Clouds 15 1019 82 8000 3.09 240 20:56 17.01.2023
184 Rain 15 1018 82 8000 3.09 240 19:36 17.01.2023
185 Clouds 16 1018 72 8000 3.09 260 18:41 17.01.2023
186 Rain 16 1013 77 8000 4.12 280 17:37 17.01.2023
187 Clouds 17 1021 72 8000 5.14 260 15:26 17.01.2023
188 Clouds 16 1022 77 8000 4.12 240 14:25 17.01.2023
189 Clouds 16 1020 72 10000 5.64 252 13:31 17.01.2023
190 Clouds 15 1022 67 6000 3.09 200 11:45 17.01.2023
191 Clouds 11 1016 76 6000 4.12 220 09:36 17.01.2023
192 Clouds 12 1022 76 6000 4.12 200 08:20 17.01.2023
193 Clouds 7 1022 80 10000 3.64 199 06:51 17.01.2023
194 Clouds 13 1025 76 10000 1.79 60 00:58 17.01.2023
195 Clouds 14 1025 76 10000 1.79 60 23:57 16.01.2023
196 Clouds 14 1025 76 10000 1.79 60 22:26 16.01.2023
197 Clouds 14 1024 76 8000 2.06 60 20:50 16.01.2023
198 Clouds 15 1025 72 8000 3.09 40 19:45 16.01.2023
199 Clouds 15 1024 72 8000 3.09 60 18:56 16.01.2023
200 Clouds 15 1024 72 8000 3.09 40 18:28 16.01.2023
201 Clouds 16 1025 72 8000 3.09 80 17:57 16.01.2023
202 Clouds 16 1025 72 8000 3.09 80 17:19 16.01.2023
203 Clouds 17 1027 67 8000 2.06 60 13:40 16.01.2023
204 Clouds 14 1027 76 6000 1.03 180 11:58 16.01.2023
205 Drizzle 11 1027 87 6000 1.03 200 10:21 16.01.2023
206 Clouds 11 1026 81 6000 3.09 200 07:35 16.01.2023
207 Clouds 14 1027 76 10000 1.79 60 22:42 15.01.2023
208 Clouds 14 1027 76 8000 2.06 60 20:48 15.01.2023
209 Clouds 14 1027 76 8000 2.06 60 20:24 15.01.2023
210 Clouds 16 1026 72 8000 3.09 60 18:40 15.01.2023
211 Clouds 18 1026 67 8000 2.06 340 16:42 15.01.2023
212 Clouds 18 1027 63 6000 2.06 340 13:25 15.01.2023
213 Clouds 15 1026 77 6000 2.06 140 11:40 15.01.2023
214 Clouds 13 1027 82 6000 2.06 160 10:52 15.01.2023
215 Mist 12 1027 87 3000 2.06 180 10:21 15.01.2023
216 Mist 12 1027 87 3000 2.06 180 10:21 15.01.2023
217 Clear 9 1025 83 10000 1.6 74 06:59 15.01.2023
218 Clear 15 1025 77 10000 2.68 40 23:28 14.01.2023
219 Clear 15 1025 77 10000 2.68 40 22:42 14.01.2023
220 Clear 15 1025 77 10000 2.68 40 21:36 14.01.2023
221 Clear 15 1025 77 10000 2.68 40 21:18 14.01.2023
222 Clear 15 1025 77 10000 2.68 40 21:18 14.01.2023
223 Clouds 15 1024 77 8000 3.09 40 20:40 14.01.2023
224 Clouds 15 1024 77 8000 3.09 40 19:53 14.01.2023
225 Clear 17 1024 67 10000 3.09 60 17:42 14.01.2023
226 Clear 18 1024 63 10000 3.09 60 15:30 14.01.2023
227 Clear 18 1025 63 10000 3.09 60 14:26 14.01.2023
228 Clear 17 1027 63 10000 3.09 60 13:43 14.01.2023
229 Clear 17 1028 67 8000 3.09 120 12:23 14.01.2023
230 Clear 13 1027 82 6000 2.06 140 10:47 14.01.2023
231 Clear 11 1027 93 6000 1.03 0 08:19 14.01.2023
232 Clear 15 1027 82 10000 1.79 60 23:49 13.01.2023
233 Clear 16 1027 82 10000 1.79 60 22:53 13.01.2023
234 Clear 16 1027 82 10000 1.79 60 22:34 13.01.2023
235 Clear 16 1024 82 10000 1.79 60 21:46 13.01.2023
236 Clouds 17 1025 77 8000 2.06 60 19:49 13.01.2023
237 Clouds 17 1026 77 10000 3.09 40 18:47 13.01.2023
238 Clouds 19 1026 68 10000 4.12 40 16:57 13.01.2023
239 Clouds 19 1026 68 10000 2.06 80 14:22 13.01.2023
240 Clear 17 1027 70 10000 1.79 180 12:21 13.01.2023
241 Clear 13 1027 82 8000 1.03 180 10:28 13.01.2023
242 Clear 11 1027 93 8000 1.03 240 09:47 13.01.2023
243 Clear 11 1026 93 8000 2.06 200 08:56 13.01.2023
244 Clear 11 1026 93 8000 2.06 200 08:27 13.01.2023
245 Clear 8 1026 83 10000 2.3 82 06:53 13.01.2023
246 Clear 8 1026 83 10000 2.83 68 05:23 13.01.2023
247 Clear 15 1026 77 10000 2.68 60 00:45 13.01.2023
248 Clear 15 1026 77 10000 2.68 60 22:44 12.01.2023
249 Clouds 16 1026 77 10000 3.09 60 20:56 12.01.2023
250 Clouds 16 1026 72 10000 3.09 60 19:54 12.01.2023
251 Clouds 18 1026 63 10000 4.12 20 17:53 12.01.2023
252 Clouds 17 1025 72 10000 3.09 40 16:47 12.01.2023
253 Clouds 18 1026 59 10000 4.12 20 14:45 12.01.2023
254 Clouds 18 1026 59 10000 4.12 20 14:45 12.01.2023
255 Clouds 18 1026 59 10000 4.12 20 14:45 12.01.2023
256 Clouds 18 1026 59 10000 4.12 20 14:23 12.01.2023
257 Clouds 18 1028 63 10000 3.09 120 12:56 12.01.2023
258 Clouds 15 1027 77 8000 2.06 180 10:54 12.01.2023
259 Clouds 13 1027 87 8000 3.09 180 09:29 12.01.2023
260 Clouds 9 1027 85 10000 2.74 88 05:27 12.01.2023
261 Clouds 14 1029 81 10000 4.32 51 00:21 12.01.2023
262 Clouds 14 1029 81 10000 4.32 51 23:41 11.01.2023
263 Clouds 14 1029 81 10000 3.82 50 23:22 11.01.2023
264 Clouds 14 1029 81 10000 3.82 50 22:42 11.01.2023
265 Clouds 16 1028 82 10000 1.03 40 20:37 11.01.2023
266 Clouds 18 1027 68 10000 3.09 40 18:40 11.01.2023
267 Clouds 19 1027 59 10000 2.06 60 17:24 11.01.2023
268 Clouds 18 1027 63 10000 3.09 60 15:23 11.01.2023
269 Clear 19 1029 63 10000 2.06 80 13:51 11.01.2023
270 Clear 19 1030 68 10000 2.06 100 12:20 11.01.2023
271 Clouds 15 1030 88 6000 1.03 0 10:45 11.01.2023
272 Clouds 14 1029 93 6000 1.03 0 08:21 11.01.2023
273 Clouds 14 1024 88 6000 1.03 0 07:26 11.01.2023
274 Clouds 14 1030 85 10000 2.71 48 01:46 11.01.2023
275 Clear 15 1031 87 10000 3.43 50 22:46 10.01.2023
276 Clear 16 1030 86 10000 3.62 45 21:36 10.01.2023
277 Clouds 17 1029 82 8000 3.09 60 20:43 10.01.2023
278 Clear 17 1029 82 8000 2.06 80 19:47 10.01.2023
279 Clear 18 1028 77 10000 3.09 60 18:48 10.01.2023
280 Clear 19 1028 68 10000 4.12 60 17:59 10.01.2023
281 Clouds 19 1028 68 10000 3.09 60 16:42 10.01.2023
282 Clouds 20 1028 63 10000 4.12 40 15:31 10.01.2023
283 Clouds 19 1029 68 10000 3.09 40 14:32 10.01.2023
284 Clouds 18 1031 72 6000 2.06 120 12:25 10.01.2023
285 Mist 13 1030 94 3000 2.06 160 09:29 10.01.2023
286 Clouds 12 1029 94 6000 2.06 120 08:30 10.01.2023
287 Clouds 13 1029 88 6000 2.06 180 07:28 10.01.2023
288 Clear 9 1029 87 10000 2.74 63 04:55 10.01.2023
289 Clear 17 1029 82 10000 1.79 40 23:37 09.01.2023
290 Clear 17 1028 82 10000 1.79 40 21:51 09.01.2023
291 Clouds 17 1022 82 6000 2.06 40 20:46 09.01.2023
292 Clouds 18 1028 77 8000 2.06 20 19:33 09.01.2023
293 Clouds 19 1029 63 8000 2.06 360 17:55 09.01.2023
294 Clouds 19 1029 63 8000 2.06 360 17:28 09.01.2023
295 Clouds 21 1028 60 8000 2.06 20 16:32 09.01.2023
296 Clouds 20 1029 68 8000 2.06 340 15:30 09.01.2023
297 Clouds 18 1030 82 8000 2.06 340 14:46 09.01.2023
298 Clouds 18 1031 77 8000 3.09 360 13:39 09.01.2023
299 Clouds 20 1031 72 8000 2.06 220 12:49 09.01.2023
300 Clouds 17 1031 82 8000 3.09 220 11:43 09.01.2023
301 Clouds 15 1030 93 6000 3.09 200 10:35 09.01.2023
302 Clouds 13 1029 89 10000 3.56 211 06:44 09.01.2023
303 Clouds 16 1028 82 10000 1.79 260 02:54 09.01.2023
304 Clouds 16 1028 82 10000 1.79 260 23:53 08.01.2023
305 Clouds 17 1028 82 10000 1.79 260 21:33 08.01.2023
306 Clear 17 1028 82 10000 2.06 260 20:58 08.01.2023
307 Clear 17 1028 82 10000 2.06 260 20:29 08.01.2023
308 Clear 20 1027 64 10000 1.03 320 17:53 08.01.2023
309 Clear 20 1027 64 10000 1.03 320 17:20 08.01.2023
310 Clear 20 1027 64 10000 3.09 320 15:43 08.01.2023
311 Clear 20 1027 64 10000 3.09 320 15:23 08.01.2023
312 Clouds 19 1029 63 8000 3.09 260 13:57 08.01.2023
313 Clouds 19 1029 63 8000 3.09 260 13:28 08.01.2023
314 Clouds 16 1029 72 8000 4.12 220 12:20 08.01.2023
315 Clouds 11 1019 81 6000 4.12 200 09:39 08.01.2023
316 Clouds 11 1028 87 6000 4.12 200 08:45 08.01.2023
317 Clouds 11 1027 87 6000 4.12 200 07:22 08.01.2023
318 Clouds 15 1027 82 10000 1.38 195 23:40 07.01.2023
319 Clouds 15 1027 82 10000 1.3 211 22:46 07.01.2023
320 Clouds 16 1027 82 10000 1.05 264 22:20 07.01.2023
321 Clouds 16 1027 82 10000 1.05 264 21:40 07.01.2023
322 Clear 16 1027 82 8000 1.03 0 20:31 07.01.2023
323 Clear 18 1026 69 10000 2.68 360 19:28 07.01.2023
324 Clear 18 1026 67 10000 3.09 360 18:22 07.01.2023
325 Clear 20 1025 60 10000 1.03 0 17:43 07.01.2023
326 Clear 21 1026 43 10000 1.03 0 16:54 07.01.2023
327 Clear 21 1026 43 10000 1.03 0 16:29 07.01.2023
328 Clear 20 1026 52 10000 2.06 140 15:45 07.01.2023
329 Clear 20 1026 52 10000 2.06 140 15:22 07.01.2023
330 Clear 20 1026 52 10000 2.06 140 15:22 07.01.2023
331 Clear 20 1027 56 10000 2.06 120 14:26 07.01.2023
332 Clouds 19 1028 68 6000 1.03 0 13:43 07.01.2023
333 Clouds 19 1028 68 6000 1.03 0 13:22 07.01.2023
334 Clouds 16 1029 74 6000 2.68 200 12:21 07.01.2023
335 Mist 11 1028 87 3000 4.12 200 10:41 07.01.2023
336 Mist 11 1028 87 3000 4.12 200 10:18 07.01.2023
337 Mist 10 1027 93 3000 4.12 200 08:18 07.01.2023
338 Clouds 11 1026 87 6000 4.12 200 07:43 07.01.2023
339 Clear 9 1026 81 10000 1.9 158 06:46 07.01.2023
340 Clear 16 1025 87 10000 1.79 360 23:53 06.01.2023
341 Clear 16 1025 87 10000 1.79 360 22:22 06.01.2023
342 Clear 16 1025 87 10000 1.79 360 21:58 06.01.2023
343 Clouds 16 1025 87 6000 2.06 360 20:38 06.01.2023
344 Clouds 16 1025 87 6000 2.06 360 19:56 06.01.2023
345 Clouds 16 1025 85 6000 2.68 360 19:38 06.01.2023
346 Clouds 17 1025 85 6000 2.68 360 19:20 06.01.2023
347 Clouds 19 1024 72 6000 2.06 340 17:56 06.01.2023
348 Clouds 19 1024 72 6000 2.06 340 16:53 06.01.2023
349 Clouds 19 1024 72 6000 2.06 340 16:23 06.01.2023
350 Clouds 19 1024 68 6000 2.06 40 15:52 06.01.2023
351 Clouds 19 1024 68 6000 2.06 40 15:30 06.01.2023
352 Clouds 17 1026 82 6000 2.06 220 13:46 06.01.2023
353 Mist 13 1027 100 400 2.06 220 11:55 06.01.2023
354 Mist 12 1026 100 400 3.09 220 10:57 06.01.2023
355 Mist 12 1025 100 3000 3.09 220 08:51 06.01.2023
356 Clear 13 1025 80 10000 2.66 194 05:23 06.01.2023
357 Clear 17 1024 88 10000 2.68 320 23:38 05.01.2023
358 Clear 17 1024 88 10000 2.68 320 22:44 05.01.2023
359 Clear 17 1024 88 10000 2.68 320 21:19 05.01.2023
360 Clear 20 1023 72 10000 2.06 320 17:39 05.01.2023
361 Clear 20 1023 72 10000 2.06 320 17:21 05.01.2023
362 Clear 20 1024 72 10000 2.06 320 15:58 05.01.2023
363 Clear 20 1024 72 10000 2.06 320 15:34 05.01.2023
364 Clear 20 1024 68 10000 2.06 320 14:33 05.01.2023
365 Clear 18 1026 59 10000 2.06 240 12:41 05.01.2023
366 Clear 16 1026 59 10000 3.09 220 11:42 05.01.2023
367 Clouds 11 1025 87 8000 3.09 220 09:48 05.01.2023
368 Clouds 10 1025 93 8000 3.09 220 08:23 05.01.2023
369 Clear 6 1025 77 10000 1.4 140 06:50 05.01.2023
370 Clear 14 1026 82 10000 0.89 100 03:34 05.01.2023
371 Clear 15 1026 82 10000 0.89 100 22:27 04.01.2023
372 Clear 15 1026 82 10000 0.89 100 21:32 04.01.2023
373 Clouds 15 1026 82 10000 1.03 100 20:26 04.01.2023
374 Clouds 16 1026 77 10000 1.03 80 19:48 04.01.2023
375 Clouds 16 1026 77 10000 1.03 80 19:30 04.01.2023
376 Clouds 18 1026 70 10000 2.06 60 18:18 04.01.2023
377 Clouds 18 1026 72 10000 3.09 40 16:31 04.01.2023
378 Clouds 18 1027 72 10000 2.06 60 14:52 04.01.2023
379 Clouds 18 1028 77 8000 2.06 60 13:31 04.01.2023
380 Clouds 15 1029 82 6000 1.03 0 11:26 04.01.2023
381 Clear 13 1029 88 6000 2.06 180 10:59 04.01.2023
382 Clear 13 1029 88 6000 2.06 180 10:40 04.01.2023
383 Clouds 13 1029 88 6000 2.06 180 10:20 04.01.2023
384 Clouds 12 1027 86 10000 3.07 63 05:39 04.01.2023
385 Clouds 16 1028 82 10000 2.68 80 01:41 04.01.2023
386 Clouds 16 1028 82 10000 2.68 80 23:43 03.01.2023
387 Clouds 16 1028 82 10000 2.68 80 23:22 03.01.2023
388 Clouds 16 1028 82 10000 2.68 80 21:43 03.01.2023
389 Clouds 16 1026 82 8000 3.09 80 20:51 03.01.2023
390 Clouds 17 1025 77 8000 4.12 60 18:40 03.01.2023
391 Clouds 18 1017 77 8000 3.09 60 16:43 03.01.2023
392 Clouds 18 1025 77 8000 3.09 60 15:41 03.01.2023
393 Clouds 18 1018 77 8000 4.12 60 13:48 03.01.2023
394 Clouds 18 1018 77 8000 4.12 60 13:29 03.01.2023
395 Clouds 18 1018 77 6000 2.06 80 12:57 03.01.2023
396 Clouds 18 1018 77 6000 2.06 80 12:28 03.01.2023
397 Clouds 15 1027 87 6000 2.06 120 09:58 03.01.2023
398 Clouds 16 1023 82 10000 2.68 60 04:29 03.01.2023
399 Clouds 16 1023 82 10000 2.68 60 03:53 03.01.2023
400 Clouds 16 1023 82 10000 2.68 60 03:33 03.01.2023
401 Clouds 14 1026 68 10000 2.09 20 23:20 02.01.2023
402 Clouds 14 1026 68 10000 2.09 20 22:40 02.01.2023
403 Clouds 16 1026 65 10000 1.57 21 21:30 02.01.2023
404 Clouds 17 1025 82 10000 3.09 60 20:35 02.01.2023
405 Clouds 18 1023 69 10000 3.09 40 19:20 02.01.2023
406 Clear 20 1024 49 10000 3.09 20 16:54 02.01.2023
407 Clear 21 1025 33 10000 3.09 360 14:27 02.01.2023
408 Clouds 19 1025 37 8000 2.06 200 12:57 02.01.2023
409 Clouds 16 1025 41 8000 4.12 200 11:39 02.01.2023
410 Clouds 11 1024 62 8000 2.06 200 09:35 02.01.2023
411 Clouds 7 1024 54 10000 2.98 176 06:59 02.01.2023
412 Clouds 18 1024 48 10000 0.89 300 00:22 02.01.2023
413 Clouds 19 1024 48 10000 0.89 300 21:55 01.01.2023
414 Clouds 19 1024 48 8000 1.03 300 20:50 01.01.2023
415 Clouds 19 1024 48 8000 1.03 300 20:31 01.01.2023
416 Clouds 20 1024 63 10000 2.5 265 18:54 01.01.2023
417 Clouds 24 1022 27 8000 4.12 340 17:39 01.01.2023
418 Clouds 23 1022 27 8000 4.12 340 17:19 01.01.2023
419 Clouds 25 1022 25 8000 1.03 240 15:53 01.01.2023
420 Clouds 23 1023 33 8000 3.09 200 14:18 01.01.2023
421 Clouds 20 1023 49 8000 3.09 200 13:18 01.01.2023
422 Clouds 17 1023 48 6000 3.09 200 11:45 01.01.2023
423 Clouds 17 1023 48 6000 3.09 200 11:21 01.01.2023
424 Clouds 14 1022 58 6000 3.09 200 09:39 01.01.2023
425 Clouds 14 1022 54 8000 3.09 220 08:44 01.01.2023
426 Clouds 14 1022 56 8000 3.09 220 08:18 01.01.2023
427 Clouds 11 1023 44 10000 2.13 173 06:50 01.01.2023
428 Clouds 19 1023 45 10000 1.66 155 23:58 31.12.2022
429 Clouds 19 1023 45 10000 1.66 155 23:38 31.12.2022
430 Clouds 19 1023 45 10000 1.14 149 22:29 31.12.2022
431 Clouds 19 1022 45 10000 1.16 157 21:24 31.12.2022
432 Clouds 19 1023 45 6000 1.03 0 20:31 31.12.2022
433 Clouds 22 1022 43 6000 1.03 0 18:57 31.12.2022
434 Clouds 22 1019 43 6000 1.03 0 18:38 31.12.2022
435 Clouds 23 1022 38 6000 2.06 80 17:57 31.12.2022
436 Clouds 23 1019 38 6000 2.06 80 17:34 31.12.2022
437 Clouds 24 1024 31 8000 3.09 200 16:32 31.12.2022
438 Clear 25 1024 25 10000 3.09 260 15:37 31.12.2022
439 Clear 22 1025 35 10000 3.09 200 14:00 31.12.2022
440 Clear 22 1025 35 10000 3.09 200 13:27 31.12.2022
441 Clear 20 1026 37 10000 3.09 200 12:24 31.12.2022
442 Clear 17 1026 42 10000 4.12 200 11:56 31.12.2022
443 Clear 17 1026 42 10000 4.12 200 11:38 31.12.2022
444 Clouds 14 1025 47 8000 4.12 200 10:18 31.12.2022
445 Clouds 13 1025 50 8000 4.12 200 09:50 31.12.2022
446 Clouds 13 1024 50 8000 4.12 200 08:30 31.12.2022
447 Clouds 8 1024 34 10000 2.63 163 05:39 31.12.2022
448 Clear 15 1025 72 10000 2.33 129 00:34 31.12.2022
449 Clear 15 1025 72 10000 2.46 129 23:24 30.12.2022
450 Clear 15 1025 72 10000 2.48 99 22:19 30.12.2022
451 Clear 16 1025 72 10000 2.48 99 21:39 30.12.2022
452 Clear 16 1025 72 10000 2.42 82 21:21 30.12.2022
453 Clear 20 1024 52 10000 1.03 0 18:35 30.12.2022
454 Clear 22 1024 40 10000 1.03 0 17:35 30.12.2022
455 Clear 25 1024 35 10000 1.03 0 16:49 30.12.2022
456 Clear 23 1025 35 10000 1.03 0 14:55 30.12.2022
457 Clear 21 1026 40 10000 1.03 180 13:29 30.12.2022
458 Clear 10 1026 71 6000 3.09 200 08:25 30.12.2022
459 Clear 15 1026 77 10000 1.79 100 04:24 30.12.2022
460 Clear 15 1026 77 10000 1.79 100 02:27 30.12.2022
461 Clear 15 1026 77 10000 1.79 100 23:46 29.12.2022
462 Clear 15 1026 77 10000 1.79 100 22:28 29.12.2022
463 Clear 16 1026 77 10000 1.79 100 21:28 29.12.2022
464 Clear 16 1026 77 10000 2.06 100 20:53 29.12.2022
465 Clear 16 1026 77 10000 1.03 80 19:31 29.12.2022
466 Clear 19 1025 68 10000 3.09 40 17:53 29.12.2022
467 Clear 19 1025 68 10000 3.09 40 17:27 29.12.2022
468 Clear 20 1025 64 10000 1.03 60 16:54 29.12.2022
469 Clear 20 1026 64 10000 2.06 20 15:57 29.12.2022
470 Clouds 19 1027 68 10000 1.03 120 13:42 29.12.2022
471 Clouds 14 1028 87 6000 3.09 200 11:57 29.12.2022
472 Clouds 12 1027 87 6000 4.12 200 10:19 29.12.2022
473 Clear 8 1026 81 10000 1.23 176 05:20 29.12.2022
474 Clouds 15 1022 82 10000 1.79 280 23:29 28.12.2022
475 Clouds 15 1022 82 10000 1.79 280 22:21 28.12.2022
476 Clouds 15 1022 82 10000 1.79 280 21:20 28.12.2022
477 Clouds 17 1023 74 8000 2.06 280 20:20 28.12.2022
478 Clouds 18 1022 67 8000 1.03 350 18:47 28.12.2022
479 Clouds 18 1024 67 6000 3.09 240 16:22 28.12.2022
480 Clouds 17 1025 82 6000 3.09 220 14:26 28.12.2022
481 Clouds 16 1026 72 6000 3.09 220 12:48 28.12.2022
482 Clouds 13 1026 71 6000 4.12 240 11:33 28.12.2022
483 Mist 12 1025 94 3000 4.12 220 10:26 28.12.2022
484 Clouds 10 1024 87 6000 2.06 200 07:48 28.12.2022
485 Clear 5 1025 67 10000 2.29 209 06:46 28.12.2022
486 Clouds 15 1024 82 10000 1.79 40 01:18 28.12.2022
487 Clouds 15 1024 82 10000 1.79 40 22:28 27.12.2022
488 Clouds 17 1024 72 8000 2.06 40 19:51 27.12.2022
489 Clouds 19 1024 68 8000 2.06 40 18:55 27.12.2022
490 Clouds 20 1024 64 8000 3.09 20 16:59 27.12.2022
491 Clouds 21 1024 68 8000 2.06 360 15:55 27.12.2022
492 Clouds 21 1025 56 8000 1.03 0 14:44 27.12.2022
493 Clear 17 1026 63 10000 2.06 200 12:27 27.12.2022
494 Clouds 12 1025 82 6000 2.06 200 10:30 27.12.2022
495 Clouds 12 1025 82 6000 1.03 0 09:41 27.12.2022
496 Clouds 12 1024 82 6000 1.03 0 08:47 27.12.2022
497 Clouds 9 1023 58 10000 2.58 57 04:55 27.12.2022
498 Clouds 17 1024 88 10000 1.79 80 23:39 26.12.2022
499 Clouds 17 1024 88 10000 1.79 80 21:51 26.12.2022
500 Clear 17 1018 88 8000 2.06 80 20:44 26.12.2022
501 Clear 18 1023 77 10000 2.06 60 19:51 26.12.2022
502 Clear 20 1023 60 10000 2.06 60 18:42 26.12.2022
503 Clear 22 1022 43 10000 2.06 80 17:18 26.12.2022
504 Clear 23 1022 38 10000 3.09 60 15:38 26.12.2022
505 Clear 21 1023 40 10000 2.06 140 12:59 26.12.2022
506 Clear 16 1022 59 10000 3.09 180 10:49 26.12.2022
507 Clouds 10 1020 58 10000 5.11 91 05:43 26.12.2022
508 Clouds 18 1019 59 10000 0.89 160 23:41 25.12.2022
509 Clouds 18 1019 59 10000 0.89 160 22:50 25.12.2022
510 Clouds 18 1019 59 10000 0.89 160 22:22 25.12.2022
511 Clear 19 1019 55 10000 1.03 20 19:56 25.12.2022
512 Clear 19 1019 55 10000 1.03 20 19:56 25.12.2022
513 Clear 22 1019 37 10000 3.09 300 17:52 25.12.2022
514 Clear 22 1019 37 10000 3.09 300 17:34 25.12.2022
515 Clear 23 1019 40 10000 3.09 320 16:40 25.12.2022
516 Clouds 22 1021 43 8000 3.09 200 13:30 25.12.2022
517 Clouds 22 1021 43 8000 3.09 200 13:30 25.12.2022
518 Clouds 22 1021 43 8000 3.09 200 13:30 25.12.2022
519 Clouds 22 1021 43 8000 3.09 200 13:30 25.12.2022
520 Clouds 18 1021 55 8000 3.09 200 11:38 25.12.2022
521 Clear 17 1022 77 10000 0.89 120 04:19 25.12.2022
522 Clear 18 1022 77 10000 0.89 120 22:47 24.12.2022
523 Clear 19 1022 72 10000 1.03 40 19:53 24.12.2022
524 Clear 25 1021 38 10000 2.06 280 16:59 24.12.2022
525 Clear 23 1021 56 10000 2.06 320 15:37 24.12.2022
526 Clear 22 1022 56 10000 2.06 320 14:28 24.12.2022
527 Clear 20 1024 60 10000 1.03 240 12:20 24.12.2022
528 Clear 15 1024 72 8000 2.06 200 10:23 24.12.2022
529 Clear 13 1024 82 6000 2.06 220 09:37 24.12.2022
530 Clear 13 1024 82 6000 2.06 220 08:36 24.12.2022
531 Clear 16 1025 88 10000 1.79 80 02:51 24.12.2022
532 Clear 17 1025 88 10000 1.79 80 00:29 24.12.2022
533 Clear 17 1025 88 10000 1.79 80 22:30 23.12.2022
534 Clear 17 1025 88 10000 1.79 80 21:33 23.12.2022
535 Clear 18 1024 82 6000 1.03 80 19:40 23.12.2022
536 Clear 18 1024 82 6000 1.03 80 19:22 23.12.2022
537 Clear 19 1024 77 8000 1.03 80 18:53 23.12.2022
538 Clear 20 1024 74 8000 1.79 60 18:21 23.12.2022
539 Clear 20 1024 72 8000 2.06 60 17:41 23.12.2022
540 Clear 22 1024 60 8000 1.03 40 15:45 23.12.2022
541 Clear 19 1027 77 8000 2.06 120 12:31 23.12.2022
542 Mist 13 1026 94 4000 2.06 200 09:53 23.12.2022
543 Mist 13 1026 94 4000 2.06 200 09:34 23.12.2022
544 Mist 13 1026 93 4000 0 0 07:29 23.12.2022
545 Clear 12 1026 74 10000 2.85 59 06:49 23.12.2022
546 Clear 17 1027 93 10000 2.68 60 23:36 22.12.2022
547 Clear 17 1027 93 10000 2.68 60 23:18 22.12.2022
548 Clear 17 1026 93 10000 2.68 60 21:49 22.12.2022
549 Clouds 17 1026 88 8000 3.09 60 19:47 22.12.2022
550 Clouds 18 1026 85 8000 3.09 60 19:18 22.12.2022
551 Clear 19 1026 77 10000 3.09 60 17:58 22.12.2022
552 Clear 19 1026 77 10000 3.09 60 16:48 22.12.2022
553 Clear 19 1027 74 10000 3.09 80 15:38 22.12.2022
554 Clear 19 1027 74 10000 3.09 80 15:18 22.12.2022
555 Clouds 19 1028 75 10000 4.92 60 14:18 22.12.2022
556 Clouds 19 1028 77 6000 5.14 60 13:19 22.12.2022
557 Clouds 17 1029 77 6000 2.06 160 11:40 22.12.2022
558 Clouds 16 1020 77 6000 2.06 160 10:31 22.12.2022
559 Clouds 13 1019 87 6000 3.09 180 09:22 22.12.2022
560 Mist 13 1028 93 3000 3.09 180 08:36 22.12.2022
561 Clouds 13 1028 94 6000 3.09 180 07:28 22.12.2022
562 Clouds 17 1028 88 10000 1.79 20 04:19 22.12.2022
563 Clouds 17 1028 88 10000 1.79 20 00:25 22.12.2022
564 Clouds 17 1028 88 10000 1.79 20 22:26 21.12.2022
565 Clouds 17 1028 88 10000 1.79 20 21:35 21.12.2022
566 Clouds 17 1028 88 8000 2.06 20 20:57 21.12.2022
567 Clouds 18 1028 85 8000 2.06 20 20:31 21.12.2022
568 Clouds 18 1028 82 8000 2.06 40 19:46 21.12.2022
569 Clear 18 1028 82 8000 2.06 40 19:27 21.12.2022
570 Clouds 19 1027 77 8000 3.09 20 18:48 21.12.2022
571 Clouds 19 1027 77 8000 3.09 20 18:28 21.12.2022
572 Clouds 21 1027 64 8000 3.09 360 15:38 21.12.2022
573 Clear 20 1029 68 8000 1.03 340 13:46 21.12.2022
574 Clouds 17 1029 59 8000 2.06 220 11:48 21.12.2022
575 Clouds 17 1029 59 8000 2.06 220 11:20 21.12.2022
576 Clouds 12 1028 76 6000 3.09 200 09:50 21.12.2022
577 Clouds 12 1028 76 6000 3.09 220 08:48 21.12.2022
578 Clouds 9 1027 58 10000 2.61 182 06:29 21.12.2022
579 Clouds 18 1026 45 10000 1.79 260 00:22 21.12.2022
580 Clear 19 1026 45 10000 1.79 260 21:47 20.12.2022
581 Clear 19 1026 45 8000 2.06 260 20:33 20.12.2022
582 Clear 17 1027 58 10000 3.74 234 19:43 20.12.2022
583 Clouds 23 1026 40 8000 1.03 260 18:41 20.12.2022
584 Clouds 23 1026 40 8000 1.03 260 18:21 20.12.2022
585 Clouds 24 1025 38 8000 1.03 260 17:46 20.12.2022
586 Clouds 24 1025 41 8000 2.06 260 16:57 20.12.2022
587 Clouds 23 1025 46 8000 1.03 240 15:49 20.12.2022
588 Clouds 22 1025 49 8000 2.06 200 14:50 20.12.2022
589 Clouds 22 1025 49 8000 2.06 200 14:29 20.12.2022
590 Clouds 22 1026 49 8000 3.09 200 13:25 20.12.2022
591 Clouds 20 1027 49 8000 4.12 220 12:32 20.12.2022
592 Clouds 17 1026 63 8000 2.06 220 11:38 20.12.2022
593 Clouds 13 1024 76 6000 3.09 200 08:51 20.12.2022
594 Clouds 11 1024 56 10000 2.13 149 04:38 20.12.2022
595 Clouds 20 1024 52 10000 0.89 240 23:46 19.12.2022
596 Clouds 20 1024 52 10000 0.89 240 21:56 19.12.2022
597 Clouds 21 1024 52 6000 1.03 240 20:41 19.12.2022
598 Clouds 21 1024 52 6000 1.03 240 19:39 19.12.2022
599 Clear 23 1023 43 10000 1.03 240 18:42 19.12.2022
600 Clear 25 1023 38 10000 1.03 220 17:36 19.12.2022
601 Clear 22 1024 49 10000 2.06 220 13:55 19.12.2022
602 Clear 19 1025 58 10000 4.02 200 12:21 19.12.2022
603 Clouds 16 1024 63 8000 4.12 200 10:56 19.12.2022
604 Clouds 13 1023 82 8000 4.12 200 07:45 19.12.2022
605 Clear 16 1023 82 10000 0.89 140 03:48 19.12.2022
606 Clear 16 1023 82 10000 0.89 140 22:40 18.12.2022
607 Clear 16 1023 82 10000 0.89 140 21:46 18.12.2022
608 Clear 16 1023 82 10000 0.89 140 21:23 18.12.2022
609 Clear 16 1023 82 10000 1.03 140 20:32 18.12.2022
610 Clear 18 1023 72 10000 1.03 60 19:41 18.12.2022
611 Clear 19 1022 72 10000 2.06 40 18:29 18.12.2022
612 Clear 20 1022 68 10000 2.06 40 17:22 18.12.2022
613 Clear 21 1022 64 10000 1.03 360 15:40 18.12.2022
614 Clear 22 1022 60 10000 1.03 360 15:20 18.12.2022
615 Clear 22 1022 56 10000 0 200 14:20 18.12.2022
616 Clouds 18 1023 72 6000 2.06 220 12:57 18.12.2022
617 Clouds 18 1023 72 6000 2.06 220 12:30 18.12.2022
618 Clouds 16 1023 77 6000 2.06 180 11:20 18.12.2022
619 Clouds 12 1022 94 6000 2.06 160 08:47 18.12.2022
620 Clouds 12 1022 93 6000 2.06 160 08:20 18.12.2022
621 Clear 10 1021 81 10000 2.72 83 06:23 18.12.2022
622 Clear 15 1020 82 10000 2.21 90 03:40 18.12.2022
623 Clear 15 1020 82 10000 2.93 99 01:48 18.12.2022
624 Clear 16 1020 82 10000 3.07 58 22:24 17.12.2022
625 Clear 17 1019 82 8000 1.03 0 19:46 17.12.2022
626 Clouds 20 1019 64 10000 2.06 360 17:19 17.12.2022
627 Clouds 20 1019 64 10000 2.06 280 14:44 17.12.2022
628 Clouds 19 1020 72 8000 2.06 240 12:28 17.12.2022
629 Clouds 15 1019 82 6000 3.09 220 10:50 17.12.2022
630 Clouds 13 1019 94 6000 3.09 200 09:48 17.12.2022
631 Clouds 13 1019 94 6000 2.06 220 08:34 17.12.2022
632 Clouds 12 1018 84 10000 3.46 210 06:46 17.12.2022
633 Clouds 15 1015 93 10000 1.79 220 23:58 16.12.2022
634 Clouds 15 1015 93 10000 1.79 220 21:38 16.12.2022
635 Clouds 15 1015 93 8000 2.06 220 20:24 16.12.2022
636 Clouds 17 1014 88 8000 2.06 240 17:19 16.12.2022
637 Clouds 18 1015 83 10000 4.92 240 14:50 16.12.2022
638 Clouds 17 1010 88 10000 5.14 240 13:50 16.12.2022
639 Clouds 16 1016 87 8000 4.12 240 12:20 16.12.2022
640 Clouds 16 1016 82 10000 4.12 220 10:47 16.12.2022
641 Clouds 15 1015 87 10000 4.12 220 09:32 16.12.2022
642 Rain 14 1015 90 8000 4.12 220 08:26 16.12.2022
643 Clouds 14 1015 87 8000 4.12 220 07:54 16.12.2022
644 Rain 14 1013 81 10000 7.13 228 23:53 15.12.2022
645 Rain 14 1013 77 10000 6.92 237 22:31 15.12.2022
646 Clouds 15 1011 82 6000 4.12 260 20:41 15.12.2022
647 Clouds 14 1011 94 6000 2.06 240 19:37 15.12.2022
648 Clouds 15 1010 88 8000 3.09 260 18:30 15.12.2022
649 Clouds 15 1010 82 8000 4.12 300 17:27 15.12.2022
650 Clouds 16 1009 88 8000 5.14 280 15:39 15.12.2022
651 Clouds 18 1008 72 8000 6.17 280 14:37 15.12.2022
652 Clouds 15 1014 87 6000 5.14 260 12:43 15.12.2022
653 Clouds 15 1013 93 6000 7.2 240 10:33 15.12.2022
654 Clouds 15 1013 93 6000 3.09 240 08:54 15.12.2022
655 Rain 16 1009 82 10000 9.69 242 06:28 15.12.2022
656 Rain 16 1009 82 10000 9.69 242 05:35 15.12.2022
657 Rain 17 1012 77 10000 9.17 245 21:45 14.12.2022
658 Rain 16 1011 76 10000 8.88 242 21:18 14.12.2022
659 Clouds 16 1010 93 8000 5.14 300 20:31 14.12.2022
660 Clouds 16 1010 93 8000 5.14 300 20:31 14.12.2022
661 Clouds 16 1013 93 6000 4.12 300 18:38 14.12.2022
662 Rain 20 1008 88 3000 5.14 260 16:58 14.12.2022
663 Clouds 20 1013 88 6000 6.17 260 15:58 14.12.2022
664 Clouds 19 1010 88 6000 5.14 280 14:49 14.12.2022
665 Thunderstorm 16 1013 94 8000 5.14 260 12:49 14.12.2022
666 Clouds 19 1015 75 8000 5.14 240 10:44 14.12.2022
667 Clouds 18 1012 77 8000 5.14 240 09:26 14.12.2022
668 Rain 18 1013 82 10000 8.14 219 05:52 14.12.2022
669 Clouds 22 1015 73 10000 1.79 240 21:52 13.12.2022
670 Clouds 22 1015 73 10000 1.79 240 21:32 13.12.2022
671 Clouds 22 1015 73 10000 2.06 240 20:47 13.12.2022
672 Clouds 24 1015 64 10000 4.12 240 18:42 13.12.2022
673 Clouds 25 1015 65 10000 4.12 260 16:22 13.12.2022
674 Clouds 25 1015 65 10000 4.12 260 16:22 13.12.2022
675 Clouds 23 1017 69 10000 7.2 260 14:53 13.12.2022
676 Clouds 22 1014 73 10000 6.17 220 12:44 13.12.2022
677 Clouds 19 1018 82 8000 6.17 200 10:39 13.12.2022
678 Clouds 18 1018 88 6000 6.17 200 09:46 13.12.2022
679 Clouds 17 1016 93 6000 5.14 220 07:52 13.12.2022
680 Clear 19 1019 91 10000 5.66 214 22:24 12.12.2022
681 Clear 19 1019 91 10000 5.66 214 21:46 12.12.2022
682 Clouds 19 1018 94 6000 3.09 260 19:33 12.12.2022
683 Clouds 21 1016 83 8000 4.12 300 17:50 12.12.2022
684 Clouds 23 1016 78 8000 4.12 300 15:29 12.12.2022
685 Clouds 22 1018 78 8000 6.17 260 13:20 12.12.2022
686 Mist 19 1017 94 3000 4.12 220 09:20 12.12.2022
687 Mist 19 1017 94 3000 3.09 240 08:54 12.12.2022
688 Clouds 19 1017 92 10000 6.63 212 03:53 12.12.2022
689 Rain 19 1017 87 10000 6.61 220 00:18 12.12.2022
690 Rain 20 1017 83 10000 6.32 218 22:18 11.12.2022
691 Clouds 20 1016 88 8000 5.14 240 20:34 11.12.2022
692 Clouds 20 1015 83 8000 5.14 240 19:38 11.12.2022
693 Clouds 21 1015 78 8000 5.14 260 18:31 11.12.2022
694 Clouds 21 1015 78 8000 6.17 260 17:33 11.12.2022
695 Rain 21 1015 83 6000 5.14 280 16:53 11.12.2022
696 Rain 21 1015 83 6000 5.14 280 16:20 11.12.2022
697 Clouds 21 1015 78 8000 6.17 240 15:43 11.12.2022
698 Clouds 20 1016 77 8000 6.17 220 13:35 11.12.2022
699 Clouds 19 1017 82 8000 6.17 220 12:41 11.12.2022
700 Clouds 17 1016 88 6000 4.12 220 10:19 11.12.2022
701 Clouds 16 1016 84 10000 4.92 204 00:49 11.12.2022
702 Clouds 16 1017 86 10000 4.46 209 00:21 11.12.2022
703 Clouds 16 1017 87 10000 4.11 208 22:34 10.12.2022
704 Clouds 16 1017 85 10000 3.47 228 21:29 10.12.2022
705 Clouds 18 1017 88 8000 2.06 220 20:41 10.12.2022
706 Clouds 18 1017 88 8000 2.06 220 20:18 10.12.2022
707 Clouds 20 1016 68 8000 3.09 260 17:44 10.12.2022
708 Clouds 20 1016 73 8000 3.09 300 16:37 10.12.2022
709 Clouds 21 1016 64 8000 3.09 280 15:40 10.12.2022
710 Clouds 21 1016 64 8000 3.09 280 15:20 10.12.2022
711 Clouds 19 1017 100 8000 3.09 260 13:33 10.12.2022
712 Clouds 18 1018 88 8000 3.09 240 11:57 10.12.2022
713 Clouds 17 1016 94 8000 3.09 240 10:52 10.12.2022
714 Clouds 16 1016 94 6000 3.09 240 09:43 10.12.2022
715 Clouds 17 1015 88 6000 4.12 240 07:22 10.12.2022
716 Rain 17 1015 88 10000 7.07 239 04:57 10.12.2022
717 Rain 18 1014 84 10000 8.78 232 23:38 09.12.2022
718 Rain 18 1013 83 10000 8.77 233 22:42 09.12.2022
719 Rain 18 1013 81 10000 9.07 230 21:28 09.12.2022
720 Clouds 18 1011 88 8000 4.12 260 20:58 09.12.2022
721 Clouds 19 1010 82 8000 5.14 260 19:46 09.12.2022
722 Clouds 19 1009 77 8000 6.17 280 17:56 09.12.2022
723 Clouds 21 1008 68 8000 6.17 280 16:53 09.12.2022
724 Clouds 21 1008 68 8000 6.17 280 16:18 09.12.2022
725 Clouds 21 1008 68 10000 7.2 260 15:27 09.12.2022
726 Rain 20 1009 77 6000 6.17 260 12:37 09.12.2022
727 Clouds 17 1009 88 6000 7.2 240 10:49 09.12.2022
728 Rain 17 1009 88 6000 6.17 260 10:19 09.12.2022
729 Clouds 16 1008 83 10000 8.99 221 05:37 09.12.2022
730 Clouds 17 1008 84 10000 8.72 221 03:18 09.12.2022
731 Clouds 18 1009 84 10000 8.12 222 22:48 08.12.2022
732 Clouds 18 1009 77 8000 4.12 220 20:51 08.12.2022
733 Clouds 19 1006 72 8000 4.12 220 18:55 08.12.2022
734 Clouds 21 1008 68 10000 7.2 240 16:23 08.12.2022
735 Clouds 20 1007 73 8000 4.12 220 14:29 08.12.2022
736 Clouds 18 1008 77 6000 6.17 240 11:47 08.12.2022
737 Clouds 16 1008 87 6000 3.09 220 10:34 08.12.2022
738 Clouds 16 1008 88 6000 4.12 240 09:28 08.12.2022
739 Rain 16 1007 69 10000 6.83 224 06:49 08.12.2022
740 Clouds 19 1009 72 10000 3.35 184 22:36 07.12.2022
741 Clouds 19 1009 72 10000 2.85 177 22:18 07.12.2022
742 Clouds 19 1009 72 10000 2.85 177 21:45 07.12.2022
743 Clouds 19 1009 72 8000 1.03 0 19:48 07.12.2022
744 Clear 21 1009 60 10000 3.09 240 17:41 07.12.2022
745 Clear 22 1006 53 10000 3.09 240 14:41 07.12.2022
746 Clouds 22 1012 59 10000 3.09 240 13:20 07.12.2022
747 Clouds 17 1012 77 8000 3.09 200 10:47 07.12.2022
748 Clouds 15 1012 82 10000 2.06 200 09:57 07.12.2022
749 Clouds 15 1012 82 8000 2.06 200 08:54 07.12.2022
750 Clouds 14 1013 71 10000 3.15 179 06:50 07.12.2022
751 Clouds 15 1013 74 10000 2.39 171 05:23 07.12.2022
752 Clouds 16 1016 80 10000 1.93 178 23:44 06.12.2022
753 Clouds 17 1014 93 10000 1.79 180 21:31 06.12.2022
754 Clouds 18 1015 82 6000 2.06 340 18:35 06.12.2022
755 Clouds 18 1015 82 6000 3.09 320 17:18 06.12.2022
756 Clouds 19 1014 82 6000 3.09 320 16:23 06.12.2022
757 Clouds 20 1015 72 8000 3.09 260 15:35 06.12.2022
758 Clouds 20 1014 72 8000 3.09 240 14:35 06.12.2022
759 Clouds 20 1017 72 8000 3.09 220 13:39 06.12.2022
760 Clouds 20 1017 72 8000 3.09 220 13:39 06.12.2022
761 Clouds 19 1017 77 8000 3.09 220 12:40 06.12.2022
762 Clouds 16 1017 87 6000 3.09 200 10:39 06.12.2022
763 Clouds 16 1016 87 6000 5.14 200 07:49 06.12.2022
764 Clouds 16 1016 85 10000 5.84 228 02:26 06.12.2022
765 Rain 17 1015 83 10000 8.29 227 22:47 05.12.2022
766 Rain 17 1014 83 10000 9.18 228 21:39 05.12.2022
767 Rain 18 1014 82 6000 5.14 260 20:51 05.12.2022
768 Clouds 18 1013 77 10000 5.14 240 19:51 05.12.2022
769 Clouds 18 1013 77 10000 5.14 240 19:32 05.12.2022
770 Rain 20 1012 70 10000 7.2 240 16:49 05.12.2022
771 Clouds 20 1010 68 10000 6.17 220 15:29 05.12.2022
772 Rain 15 1012 87 6000 6.17 200 13:47 05.12.2022
773 Rain 16 1013 85 6000 6.17 240 12:57 05.12.2022
774 Rain 16 1013 85 6000 6.17 240 12:37 05.12.2022
775 Rain 15 1012 90 6000 3.09 260 11:31 05.12.2022
776 Clouds 13 1008 64 10000 2.54 169 06:48 05.12.2022
777 Rain 18 1008 72 10000 2.68 320 00:18 05.12.2022
778 Clouds 18 1009 72 5841 2.68 320 22:41 04.12.2022
779 Clouds 18 1009 72 10000 2.68 320 22:18 04.12.2022
780 Clouds 18 1008 72 10000 2.68 320 21:31 04.12.2022
781 Clouds 20 1008 60 10000 3.09 280 19:53 04.12.2022
782 Rain 20 1013 60 10000 3.09 280 19:23 04.12.2022
783 Clouds 21 1007 52 10000 3.09 220 18:20 04.12.2022
784 Clouds 22 1007 46 10000 5.14 240 17:22 04.12.2022
785 Clouds 23 1011 46 10000 3.09 220 16:36 04.12.2022
786 Clouds 23 1011 46 10000 3.09 220 16:18 04.12.2022
787 Clouds 22 1011 53 10000 5.14 200 15:26 04.12.2022
788 Clouds 22 1008 49 10000 5.14 180 14:18 04.12.2022
789 Clouds 20 1010 64 8000 5.14 200 12:47 04.12.2022
790 Clouds 20 1010 64 8000 5.14 200 12:25 04.12.2022
791 Clouds 18 1010 72 8000 4.12 180 11:29 04.12.2022
792 Clouds 15 1009 87 6000 4.12 220 07:35 04.12.2022
793 Clouds 17 1008 82 10000 2.68 300 02:51 04.12.2022
794 Clouds 17 1008 82 10000 2.68 300 23:44 03.12.2022
795 Clouds 17 1015 82 10000 2.68 300 22:34 03.12.2022
796 Clouds 17 1008 82 10000 2.68 300 21:47 03.12.2022
797 Rain 17 1008 82 10000 3.09 300 20:38 03.12.2022
798 Rain 18 1007 82 10000 4.12 320 18:40 03.12.2022
799 Clouds 18 1007 77 10000 4.12 280 17:33 03.12.2022
800 Clouds 21 1006 60 10000 4.12 240 15:49 03.12.2022
801 Clouds 20 1007 64 10000 4.12 240 13:43 03.12.2022
802 Clouds 19 1008 72 8000 4.12 220 12:43 03.12.2022
803 Clouds 17 1008 82 6000 4.12 220 11:34 03.12.2022
804 Mist 12 1009 93 4000 4.12 200 08:25 03.12.2022
805 Clear 15 1008 87 10000 0.89 340 02:48 03.12.2022
806 Clear 15 1008 87 10000 0.89 340 23:32 02.12.2022
807 Clear 16 1016 87 10000 0.89 340 21:52 02.12.2022
808 Clouds 17 1012 82 8000 2.06 360 19:45 02.12.2022
809 Clouds 19 1009 77 8000 3.09 320 16:26 02.12.2022
810 Clouds 18 1009 82 6000 3.09 320 15:53 02.12.2022
811 Clouds 20 1007 68 6000 2.06 280 14:29 02.12.2022
812 Mist 18 1012 85 3000 3.09 280 13:43 02.12.2022
813 Mist 15 1012 96 2000 3.09 240 11:49 02.12.2022
814 Clouds 15 1012 93 5000 3.09 220 10:30 02.12.2022
815 Clouds 14 1011 100 5000 2.06 220 07:48 02.12.2022
816 Clouds 14 1011 100 5000 2.06 220 07:18 02.12.2022
817 Rain 15 1010 86 10000 4.5 218 22:50 01.12.2022
818 Rain 14 1010 84 10000 4.12 221 21:41 01.12.2022
819 Clouds 15 1012 93 6000 3.09 200 20:37 01.12.2022
820 Clouds 16 1008 94 6000 3.09 220 18:58 01.12.2022
821 Clouds 16 1008 94 6000 3.09 220 17:21 01.12.2022
822 Clouds 15 1010 94 8000 4.12 240 14:32 01.12.2022
823 Clouds 13 1012 94 6000 6.17 200 11:20 01.12.2022
824 Rain 13 1013 82 5000 5.14 220 09:54 01.12.2022
825 Rain 13 1013 82 5000 5.14 220 09:36 01.12.2022
826 Clouds 11 1013 79 10000 4.5 207 06:19 01.12.2022
827 Clouds 9 1016 68 10000 0.72 298 22:41 30.11.2022
828 Clouds 12 1016 67 10000 1.49 333 21:45 30.11.2022
829 Clouds 12 1016 66 10000 2.23 338 21:18 30.11.2022
830 Clouds 15 1015 77 8000 2.06 20 20:23 30.11.2022
831 Clouds 18 1016 63 8000 3.09 20 18:39 30.11.2022
832 Clouds 18 1016 63 8000 3.09 20 18:21 30.11.2022
833 Clouds 19 1016 55 8000 3.09 20 16:26 30.11.2022
834 Clouds 19 1016 55 8000 4.12 40 14:46 30.11.2022
835 Clouds 19 1016 55 8000 4.12 40 14:26 30.11.2022
836 Clouds 17 1018 63 8000 1.03 140 11:59 30.11.2022
837 Clear 9 1017 66 6000 3.09 200 09:22 30.11.2022
838 Clear 8 1017 71 6000 3.09 200 08:26 30.11.2022
839 Clouds 3 1017 69 10000 2.19 88 06:42 30.11.2022
840 Clear 15 1018 72 10000 4.02 40 23:27 29.11.2022
841 Clear 15 1018 72 10000 4.02 40 22:19 29.11.2022
842 Clear 15 1018 72 10000 4.12 40 20:52 29.11.2022
843 Clear 15 1018 72 10000 4.12 40 19:49 29.11.2022
844 Clear 17 1018 63 10000 5.14 60 17:55 29.11.2022
845 Clear 18 1018 55 10000 5.14 60 16:31 29.11.2022
846 Clear 18 1018 52 10000 5.14 60 15:28 29.11.2022
847 Clear 18 1019 52 10000 5.14 100 14:25 29.11.2022
848 Clear 18 1021 55 10000 4.12 80 12:38 29.11.2022
849 Clear 16 1021 51 10000 3.09 80 11:31 29.11.2022
850 Clear 15 1021 54 8000 2.06 100 10:27 29.11.2022
851 Clear 12 1021 66 6000 1.03 0 09:26 29.11.2022
852 Clear 10 1021 57 10000 3.93 64 06:47 29.11.2022
853 Clouds 16 1022 72 10000 4.02 80 00:28 29.11.2022
854 Clouds 16 1022 72 10000 4.02 80 23:25 28.11.2022
855 Clouds 16 1022 72 10000 4.02 80 21:57 28.11.2022
856 Clouds 16 1022 72 10000 4.02 80 21:39 28.11.2022
857 Clear 16 1022 72 10000 4.12 80 20:24 28.11.2022
858 Clear 17 1022 67 10000 4.12 60 19:36 28.11.2022
859 Clear 17 1022 67 10000 4.12 60 18:28 28.11.2022
860 Clear 18 1022 63 10000 5.14 60 17:23 28.11.2022
861 Clouds 20 1023 64 10000 5.14 60 14:57 28.11.2022
862 Clouds 21 1024 60 10000 4.12 80 13:55 28.11.2022
863 Clouds 21 1024 60 10000 4.12 80 13:18 28.11.2022
864 Clouds 19 1025 72 6000 2.06 120 11:32 28.11.2022
865 Mist 14 1024 94 3000 1.03 160 08:20 28.11.2022
866 Clouds 13 1024 80 10000 4.75 32 04:56 28.11.2022
867 Clouds 18 1022 93 10000 2.68 360 04:37 28.11.2022
868 Clouds 18 1022 93 10000 2.68 360 03:21 28.11.2022
869 Clear 18 1022 93 10000 2.68 360 00:29 28.11.2022
870 Clear 18 1022 93 10000 2.68 360 22:24 27.11.2022
871 Clear 18 1022 93 8000 3.09 360 20:46 27.11.2022
872 Clear 20 1022 82 8000 2.06 360 18:37 27.11.2022
873 Clear 21 1022 77 8000 3.09 340 16:22 27.11.2022
874 Clouds 22 1024 60 6000 2.06 340 13:47 27.11.2022
875 Clouds 21 1024 64 6000 2.06 260 12:20 27.11.2022
876 Clouds 13 1023 71 6000 3.09 320 09:31 27.11.2022
877 Clear 9 1023 70 10000 1.06 154 06:30 27.11.2022
878 Clear 17 1023 82 10000 1.79 140 23:23 26.11.2022
879 Clear 17 1023 82 10000 1.79 140 21:27 26.11.2022
880 Clear 18 1023 77 8000 1.03 80 19:57 26.11.2022
881 Clear 19 1023 72 8000 3.09 80 18:41 26.11.2022
882 Clouds 21 1023 72 8000 3.09 20 16:38 26.11.2022
883 Clear 21 1023 64 8000 3.09 20 14:48 26.11.2022
884 Clear 21 1024 73 5000 2.06 100 12:50 26.11.2022
885 Mist 16 1024 88 3000 1.03 140 10:53 26.11.2022
886 Mist 15 1024 94 3000 1.03 40 09:40 26.11.2022
887 Mist 14 1022 93 3000 1.03 120 07:48 26.11.2022
888 Clear 18 1023 82 10000 4.02 80 22:43 25.11.2022
889 Clouds 18 1023 82 10000 4.02 80 21:34 25.11.2022
890 Clear 18 1023 82 10000 4.12 80 20:20 25.11.2022
891 Clear 21 1022 60 10000 4.12 60 16:51 25.11.2022
892 Clear 22 1022 56 10000 5.14 60 15:31 25.11.2022
893 Clouds 15 1023 88 6000 2.06 160 09:51 25.11.2022
894 Clouds 15 1023 87 6000 1.03 0 08:43 25.11.2022
895 Clouds 15 1022 87 6000 1.03 0 07:27 25.11.2022
896 Clouds 12 1022 85 10000 3.39 63 06:41 25.11.2022
897 Clouds 18 1020 88 10000 2.59 46 01:25 25.11.2022
898 Clouds 18 1020 88 10000 2.31 50 22:59 24.11.2022
899 Clouds 18 1020 88 10000 2.26 57 22:19 24.11.2022
900 Clouds 18 1022 88 10000 2.51 41 21:26 24.11.2022
901 Clouds 18 1020 88 8000 2.06 60 19:34 24.11.2022
902 Clouds 21 1019 70 10000 2.68 40 17:45 24.11.2022
903 Clouds 21 1019 70 10000 2.68 40 17:21 24.11.2022
904 Clear 21 1019 68 10000 3.09 40 16:19 24.11.2022
905 Clouds 21 1019 64 8000 3.09 40 14:23 24.11.2022
906 Clouds 21 1019 64 8000 3.09 40 14:23 24.11.2022
907 Clouds 20 1021 72 6000 1.03 80 12:20 24.11.2022
908 Clouds 15 1021 88 6000 3.09 180 10:38 24.11.2022
909 -273 0 0 0 0 0 08:19 24.11.2022
910 Clouds 18 1022 77 10000 0.89 40 03:38 24.11.2022
911 Clouds 18 1022 77 10000 0.89 40 23:47 23.11.2022
912 Clouds 18 1022 77 10000 0.89 40 22:41 23.11.2022
913 Clouds 18 1022 77 10000 0.89 40 21:40 23.11.2022
914 Clouds 18 1022 77 8000 1.03 40 20:49 23.11.2022
915 Clouds 19 1021 72 8000 1.03 60 19:31 23.11.2022
916 Clouds 20 1021 68 8000 2.06 40 18:42 23.11.2022
917 Clouds 21 1021 68 8000 4.12 20 16:59 23.11.2022
918 Clear 22 1022 60 6000 3.09 80 13:41 23.11.2022
919 Clear 22 1022 60 6000 3.09 80 13:21 23.11.2022
920 Clear 21 1023 68 6000 3.09 100 12:21 23.11.2022
921 Clouds 19 1017 72 6000 2.06 140 11:42 23.11.2022
922 Clouds 16 1022 88 6000 2.06 180 10:45 23.11.2022
923 Mist 15 1022 88 3000 2.06 180 09:44 23.11.2022
924 Mist 15 1022 87 3000 2.06 180 09:26 23.11.2022
925 Mist 14 1022 94 3000 2.06 200 08:37 23.11.2022
926 Clouds 9 1022 77 10000 1.72 59 06:59 23.11.2022
927 Clouds 10 1022 78 10000 1.69 67 05:18 23.11.2022
928 Clouds 19 1024 88 10000 1.79 360 23:24 22.11.2022
929 Clouds 19 1024 88 10000 1.79 360 22:36 22.11.2022
930 Clouds 19 1024 88 10000 1.79 360 21:34 22.11.2022
931 Clouds 19 1024 88 8000 2.06 360 20:50 22.11.2022
932 Clouds 19 1024 88 8000 2.06 360 20:20 22.11.2022
933 Clouds 20 1023 82 10000 2.06 360 18:34 22.11.2022
934 Clouds 22 1023 68 10000 2.06 360 17:45 22.11.2022
935 Clouds 22 1023 68 10000 3.09 320 16:23 22.11.2022
936 Clouds 22 1024 64 10000 2.06 340 13:48 22.11.2022
937 Clouds 20 1025 68 10000 2.06 200 11:57 22.11.2022
938 Clouds 15 1024 82 6000 3.09 220 09:26 22.11.2022
939 Clouds 15 1024 82 6000 3.09 220 07:58 22.11.2022
940 Clouds 12 1024 85 10000 2.87 205 06:36 22.11.2022
941 Clouds 18 1026 72 10000 0.89 340 23:42 21.11.2022
942 Clouds 18 1026 72 10000 0.89 340 22:49 21.11.2022
943 Clouds 18 1026 72 10000 0.89 340 21:59 21.11.2022
944 Clouds 18 1025 72 10000 1.03 340 20:56 21.11.2022
945 Clouds 18 1025 72 10000 1.03 340 20:56 21.11.2022
946 Clouds 19 1025 68 10000 1.03 320 19:44 21.11.2022
947 Clouds 19 1025 68 10000 1.03 320 19:26 21.11.2022
948 Clear 21 1024 60 10000 0 0 18:44 21.11.2022
949 Clouds 21 1024 60 10000 3.09 340 16:58 21.11.2022
950 Clouds 21 1019 60 10000 3.09 340 16:40 21.11.2022
951 Clouds 20 1026 64 10000 4.12 360 15:53 21.11.2022
952 Clouds 21 1025 56 10000 2.06 360 14:58 21.11.2022
953 Clouds 21 1026 56 10000 1.03 0 13:52 21.11.2022
954 Clouds 21 1026 56 10000 1.03 0 13:52 21.11.2022
955 Clouds 18 1027 67 8000 2.06 160 11:41 21.11.2022
956 Clouds 14 1026 76 6000 3.09 180 09:29 21.11.2022
957 Clouds 13 1025 82 6000 1.03 0 07:43 21.11.2022
958 Clouds 17 1026 72 10000 2.68 80 22:48 20.11.2022
959 Clouds 17 1026 72 10000 2.68 80 21:36 20.11.2022
960 Clear 17 1026 72 10000 3.09 80 20:34 20.11.2022
961 Clouds 18 1024 63 10000 4.12 60 18:57 20.11.2022
962 Clouds 20 1025 60 10000 3.09 40 16:47 20.11.2022
963 Clouds 20 1025 60 10000 2.06 40 15:32 20.11.2022
964 Clouds 20 1026 56 10000 4.12 60 14:54 20.11.2022
965 Clouds 20 1027 56 10000 3.09 80 13:51 20.11.2022
966 Clear 20 1027 56 10000 2.06 100 12:51 20.11.2022
967 Clouds 19 1027 55 8000 2.06 140 11:38 20.11.2022
968 Clouds 16 1027 63 6000 3.09 180 10:56 20.11.2022
969 Clouds 13 1027 67 6000 3.09 180 09:42 20.11.2022
970 Clouds 12 1026 71 6000 2.06 200 08:47 20.11.2022
971 Clouds 13 1026 76 6000 2.06 180 07:30 20.11.2022
972 Clouds 9 1026 69 10000 1.92 110 06:43 20.11.2022
973 Clouds 15 1026 59 10000 2.68 320 01:24 20.11.2022
974 Clouds 15 1026 59 10000 2.68 320 00:44 20.11.2022
975 Clouds 15 1026 59 10000 2.68 320 00:25 20.11.2022
976 Clouds 16 1026 59 10000 2.68 320 23:54 19.11.2022
977 Clouds 16 1026 59 10000 2.68 320 23:25 19.11.2022
978 Clouds 16 1026 59 10000 2.68 320 22:41 19.11.2022
979 Clouds 16 1023 59 10000 2.68 320 21:36 19.11.2022
980 Clouds 16 1023 59 10000 2.68 320 21:18 19.11.2022
981 Clouds 16 1026 59 10000 3.09 320 20:38 19.11.2022
982 Clouds 17 1024 55 10000 3.09 320 19:34 19.11.2022
983 Clouds 18 1024 55 10000 3.09 320 17:41 19.11.2022
984 Clouds 18 1024 55 10000 3.09 320 17:23 19.11.2022
985 Clouds 19 1022 52 10000 3.09 340 16:28 19.11.2022
986 Clouds 19 1025 48 10000 4.12 360 14:40 19.11.2022
987 Clouds 19 1026 63 8000 3.09 100 12:31 19.11.2022
988 Clouds 16 1025 77 8000 1.03 0 10:57 19.11.2022
989 Clouds 15 1025 88 6000 2.06 140 09:31 19.11.2022
990 Clouds 10 1023 53 10000 3.35 25 05:44 19.11.2022
991 Clouds 11 1023 50 10000 4.19 6 03:25 19.11.2022
992 Clouds 16 1023 52 10000 3.99 15 00:24 19.11.2022
993 Clouds 16 1023 54 10000 4.37 9 23:25 18.11.2022
994 Clouds 16 1023 57 10000 4.88 11 21:54 18.11.2022
995 Clouds 16 1023 57 10000 4.88 11 21:33 18.11.2022
996 Clouds 17 1022 69 8000 2.06 360 20:45 18.11.2022
997 Clouds 17 1022 67 10000 1.03 360 19:47 18.11.2022
998 Clouds 18 1021 63 10000 2.06 360 18:57 18.11.2022
999 Clouds 19 1020 68 10000 4.12 340 17:44 18.11.2022
1000 Rain 17 1020 66 10000 7.55 338 14:33 18.11.2022
1001 Rain 22 1019 68 8000 5.14 260 11:41 18.11.2022
1002 Rain 22 1019 68 8000 5.14 260 11:41 18.11.2022
1003 Clouds 18 1018 88 6000 4.12 220 09:31 18.11.2022
1004 Clouds 18 1018 88 6000 2.06 240 07:52 18.11.2022
1005 Clouds 18 1018 74 10000 4.17 282 05:26 18.11.2022
1006 Clouds 18 1018 74 10000 4.17 282 05:26 18.11.2022
1007 Clouds 18 1018 74 10000 2.35 278 01:42 18.11.2022
1008 Clouds 19 1020 75 10000 2.68 276 22:28 17.11.2022
1009 Clouds 20 1020 77 8000 2.06 320 20:46 17.11.2022
1010 Clouds 21 1019 73 10000 2.06 320 19:51 17.11.2022
1011 Clouds 21 1019 73 10000 3.09 340 18:50 17.11.2022
1012 Clouds 22 1019 73 10000 3.09 340 17:54 17.11.2022
1013 Clouds 22 1019 68 10000 4.12 340 16:54 17.11.2022
1014 Clouds 21 1020 77 8000 5.14 340 15:20 17.11.2022
1015 Drizzle 19 1020 88 3000 3.09 260 11:41 17.11.2022
1016 Clouds 18 1019 77 10000 3.09 220 09:53 17.11.2022
1017 Clouds 17 1019 88 10000 4.35 213 05:47 17.11.2022
1018 Clouds 20 1020 77 10000 1.79 260 00:48 17.11.2022
1019 Clouds 20 1020 77 10000 1.79 260 22:31 16.11.2022
1020 Clouds 20 1020 77 10000 1.79 260 21:18 16.11.2022
1021 Clouds 21 1019 77 8000 2.06 280 19:54 16.11.2022
1022 Clouds 22 1019 68 8000 3.09 320 18:46 16.11.2022
1023 Clouds 23 1019 69 8000 4.12 320 17:34 16.11.2022
1024 Clouds 23 1020 60 8000 4.12 320 14:22 16.11.2022
1025 Clouds 16 1020 72 6000 2.06 240 09:57 16.11.2022
1026 Clouds 12 1020 64 10000 4.08 213 06:38 16.11.2022
1027 Clouds 19 1020 56 10000 0.89 260 01:29 16.11.2022
1028 Clouds 20 1020 56 10000 0.89 260 22:38 15.11.2022
1029 Clear 20 1020 56 10000 1.03 260 20:45 15.11.2022
1030 Clouds 21 1020 52 10000 0.89 260 19:35 15.11.2022
1031 Clear 22 1020 46 10000 3.09 300 18:48 15.11.2022
1032 Clear 24 1020 46 10000 2.06 320 17:22 15.11.2022
1033 Clear 26 1020 34 10000 1.03 320 16:19 15.11.2022
1034 Clear 24 1021 41 10000 1.03 320 14:59 15.11.2022
1035 Clear 24 1022 47 10000 1.03 0 13:38 15.11.2022
1036 Clear 21 1023 32 10000 1.03 0 11:47 15.11.2022
1037 Clear 21 1023 32 10000 1.03 0 11:19 15.11.2022
1038 Clouds 15 1021 51 6000 2.06 220 08:52 15.11.2022
1039 Clouds 20 1021 73 10000 0.78 118 00:39 15.11.2022
1040 Clouds 20 1021 73 10000 0.98 106 00:18 15.11.2022
1041 Clouds 21 1021 73 10000 1.51 40 21:35 14.11.2022
1042 Clear 21 1021 73 10000 1.03 0 20:40 14.11.2022
1043 Clear 24 1021 50 10000 3.09 340 18:52 14.11.2022
1044 Clear 26 1020 31 10000 2.06 320 16:56 14.11.2022
1045 Clouds 25 1023 25 8000 3.09 340 12:55 14.11.2022
1046 Clouds 24 1023 35 6000 3.09 340 11:42 14.11.2022
1047 Clouds 20 1021 26 6000 4.12 220 09:32 14.11.2022
1048 Clouds 19 1020 27 6000 4.12 200 07:54 14.11.2022
1049 Clouds 19 1020 46 10000 2.3 201 06:43 14.11.2022
1050 Clouds 23 1020 31 10000 1.79 260 00:19 14.11.2022
1051 Clouds 23 1020 31 10000 1.79 260 21:58 13.11.2022
1052 Clouds 23 1020 31 10000 1.79 260 21:40 13.11.2022
1053 Clear 24 1020 29 10000 2.06 280 19:45 13.11.2022
1054 Clear 26 1019 25 10000 3.09 280 18:24 13.11.2022
1055 Clear 27 1019 22 10000 4.12 300 17:44 13.11.2022
1056 Clouds 32 1019 36 10000 2.78 289 14:58 13.11.2022
1057 Clouds 32 1019 35 10000 2.89 289 14:23 13.11.2022
1058 Clouds 25 1020 27 6000 1.03 320 12:38 13.11.2022
1059 Clear 23 1020 33 6000 1.03 200 11:20 13.11.2022
1060 Clear 15 1019 55 6000 2.06 200 08:56 13.11.2022
1061 Clouds 20 1017 68 10000 0.89 60 02:24 13.11.2022
1062 Clear 20 1017 68 10000 0.89 60 22:57 12.11.2022
1063 Clear 20 1017 68 10000 0.89 60 21:24 12.11.2022
1064 Clear 20 1017 68 6000 1.03 60 20:21 12.11.2022
1065 Clouds 21 1017 64 8000 2.06 60 18:18 12.11.2022
1066 Clouds 25 1016 50 8000 2.06 40 16:27 12.11.2022
1067 Clear 25 1016 50 10000 2.06 360 15:23 12.11.2022
1068 Clouds 23 1018 53 6000 2.06 360 12:38 12.11.2022
1069 Clouds 16 1017 67 6000 2.06 200 09:24 12.11.2022
1070 Clear 12 1016 72 10000 1.24 222 06:55 12.11.2022
1071 Clear 18 1016 93 10000 1.79 300 22:49 11.11.2022
1072 Clouds 18 1016 93 6000 2.06 300 20:51 11.11.2022
1073 Clouds 19 1015 88 6000 2.06 360 19:44 11.11.2022
1074 Clouds 19 1015 88 6000 2.06 360 19:21 11.11.2022
1075 Clouds 22 1014 64 8000 3.09 40 17:56 11.11.2022
1076 Clouds 23 1014 69 8000 3.09 360 16:28 11.11.2022
1077 Clouds 23 1014 64 8000 3.09 360 14:28 11.11.2022
1078 Clouds 22 1015 73 8000 2.06 20 13:30 11.11.2022
1079 Clouds 16 1016 88 6000 2.06 200 10:18 11.11.2022
1080 Clear 14 1015 94 6000 2.06 200 08:28 11.11.2022
1081 Clear 11 1015 80 10000 0.79 130 06:29 11.11.2022
1082 Clear 19 1017 88 10000 4.02 40 23:58 10.11.2022
1083 Clear 19 1017 88 10000 4.02 40 22:41 10.11.2022
1084 Clear 19 1017 88 10000 4.02 40 21:35 10.11.2022
1085 Clear 19 1017 88 10000 4.12 40 20:59 10.11.2022
1086 Clear 19 1017 88 10000 4.12 40 20:23 10.11.2022
1087 Clear 19 1017 88 10000 4.12 60 19:44 10.11.2022
1088 Clear 20 1017 77 10000 4.12 60 18:33 10.11.2022
1089 Clear 22 1017 68 10000 2.06 60 16:26 10.11.2022
1090 Clear 22 1019 68 10000 3.09 80 14:21 10.11.2022
1091 Clear 22 1020 68 10000 2.06 60 12:51 10.11.2022
1092 Clear 16 1019 87 6000 1.03 0 08:53 10.11.2022
1093 Clear 19 1020 88 10000 1.79 40 04:39 10.11.2022
1094 Clear 19 1020 88 10000 1.79 40 00:31 10.11.2022
1095 Clear 19 1020 88 10000 1.79 40 22:46 09.11.2022
1096 Clear 19 1020 88 8000 2.06 40 20:50 09.11.2022
1097 Clear 19 1020 88 8000 2.06 40 20:31 09.11.2022
1098 Clear 20 1020 77 8000 2.06 40 19:48 09.11.2022
1099 Clouds 20 1020 77 8000 2.06 40 19:24 09.11.2022
1100 Clear 23 1020 60 10000 3.09 20 16:57 09.11.2022
1101 Clear 24 1020 53 10000 2.06 80 14:51 09.11.2022
1102 Clear 24 1020 53 10000 2.06 80 14:26 09.11.2022
1103 Clouds 21 1021 73 10000 0.89 100 13:33 09.11.2022
1104 Clouds 21 1022 73 6000 1.03 100 12:49 09.11.2022
1105 Clouds 14 1019 94 5000 3.09 200 08:53 09.11.2022
1106 Clouds 14 1019 94 5000 3.09 200 07:47 09.11.2022
1107 Clouds 19 1019 82 10000 1.79 20 02:33 09.11.2022
1108 Clouds 19 1019 82 10000 1.79 20 22:23 08.11.2022
1109 Clouds 19 1019 82 10000 1.79 20 21:36 08.11.2022
1110 Clouds 19 1019 82 6000 2.06 20 20:41 08.11.2022
1111 Clouds 19 1018 82 6000 1.03 360 19:47 08.11.2022
1112 Clouds 19 1018 82 6000 1.03 360 19:21 08.11.2022
1113 Clouds 21 1018 73 8000 2.06 40 17:34 08.11.2022
1114 Clouds 21 1018 68 8000 2.06 20 15:22 08.11.2022
1115 Clouds 21 1018 68 8000 2.06 40 14:31 08.11.2022
1116 Clouds 22 1019 64 6000 2.06 40 13:28 08.11.2022
1117 Clouds 18 1017 82 6000 2.06 200 10:58 08.11.2022
1118 Clouds 15 1018 87 6000 2.06 200 07:39 08.11.2022
1119 Clouds 13 1019 77 10000 1.35 220 04:27 08.11.2022
1120 Clouds 17 1020 75 10000 0.22 166 22:56 07.11.2022
1121 Clouds 18 1020 74 10000 0.23 49 21:40 07.11.2022
1122 Clouds 19 1019 82 8000 2.06 360 20:48 07.11.2022
1123 Clouds 20 1019 73 8000 3.09 20 19:40 07.11.2022
1124 Clouds 22 1018 68 8000 4.12 360 17:41 07.11.2022
1125 Clouds 22 1018 68 8000 4.12 20 15:38 07.11.2022
1126 Clouds 23 1019 64 8000 4.12 360 14:57 07.11.2022
1127 Clouds 23 1020 64 6000 1.03 340 13:33 07.11.2022
1128 Clouds 23 1020 64 6000 1.03 300 12:24 07.11.2022
1129 Clouds 19 1020 77 6000 2.06 180 10:45 07.11.2022
1130 Clouds 16 1019 93 6000 1.03 240 08:30 07.11.2022
1131 Clear 14 1019 89 10000 0.53 65 06:33 07.11.2022
1132 Clear 20 1020 77 10000 1.79 60 01:48 07.11.2022
1133 Clear 20 1020 77 10000 1.79 60 23:33 06.11.2022
1134 Clear 20 1019 77 10000 1.79 60 21:22 06.11.2022
1135 Clouds 20 1020 77 10000 2.06 60 20:48 06.11.2022
1136 Clouds 20 1019 77 10000 3.09 40 19:56 06.11.2022
1137 Clouds 20 1019 77 10000 3.09 40 19:27 06.11.2022
1138 Clouds 21 1019 73 10000 2.06 40 18:20 06.11.2022
1139 Clouds 21 1019 77 10000 3.09 20 17:39 06.11.2022
1140 Clouds 21 1019 77 10000 3.09 20 17:18 06.11.2022
1141 Clouds 22 1019 73 10000 4.12 20 16:18 06.11.2022
1142 Clouds 23 1019 64 10000 3.09 40 14:45 06.11.2022
1143 Clouds 22 1021 68 8000 2.06 40 12:45 06.11.2022
1144 Clouds 22 1021 68 8000 2.06 40 12:45 06.11.2022
1145 Clouds 19 1021 82 6000 1.03 160 10:56 06.11.2022
1146 Clouds 18 1020 88 6000 2.06 160 09:52 06.11.2022
1147 Clouds 18 1020 88 6000 2.06 180 07:44 06.11.2022
1148 Clear 20 1019 82 10000 1.79 60 23:23 05.11.2022
1149 Clouds 20 1019 82 8000 2.06 60 20:45 05.11.2022
1150 Clear 22 1019 75 10000 4.12 60 18:22 05.11.2022
1151 Clear 22 1019 75 10000 4.12 60 18:22 05.11.2022
1152 Clear 23 1019 64 10000 4.12 60 16:27 05.11.2022
1153 Clear 23 1019 64 10000 4.12 80 14:42 05.11.2022
1154 Clear 23 1020 64 8000 3.09 60 13:32 05.11.2022
1155 Clouds 20 1021 82 6000 2.06 120 10:59 05.11.2022
1156 Clouds 18 1020 88 6000 2.06 120 08:55 05.11.2022
1157 Clouds 17 1020 93 6000 1.03 80 07:23 05.11.2022
1158 Clouds 17 1020 87 10000 3.85 56 06:54 05.11.2022
1159 Clouds 20 1021 82 10000 1.79 60 00:22 05.11.2022
1160 Clouds 20 1021 82 10000 1.79 60 23:26 04.11.2022
1161 Clouds 20 1021 82 10000 1.79 60 23:26 04.11.2022
1162 -273 0 0 0 0 0 20:39 04.11.2022
1163 Clear 20 1021 82 10000 1.03 40 19:28 04.11.2022
1164 Clear 21 1021 73 10000 4.12 20 17:24 04.11.2022
1165 Clear 22 1022 60 10000 4.12 60 14:20 04.11.2022
1166 Clear 22 1023 60 10000 3.09 60 12:28 04.11.2022
1167 Clear 21 1023 64 8000 2.06 80 11:43 04.11.2022
1168 Clear 16 1022 93 5000 1.03 120 08:53 04.11.2022
1169 Clear 16 1022 93 6000 1.03 160 07:46 04.11.2022
1170 Clouds 18 1022 81 10000 3.22 52 05:50 04.11.2022
1171 Clouds 19 1023 77 10000 3.26 46 00:25 04.11.2022
1172 Clouds 19 1022 82 10000 2.06 40 20:53 03.11.2022
1173 Clouds 20 1022 77 10000 2.06 40 20:29 03.11.2022
1174 Clouds 20 1022 72 10000 2.06 40 19:40 03.11.2022
1175 Clouds 21 1021 73 10000 4.12 80 17:52 03.11.2022
1176 Clouds 22 1021 68 10000 3.09 20 16:53 03.11.2022
1177 Clouds 22 1023 68 10000 3.09 60 14:53 03.11.2022
1178 Clouds 23 1024 66 8000 4.12 20 13:19 03.11.2022
1179 Clouds 22 1024 68 8000 3.09 20 12:30 03.11.2022
1180 Clouds 20 1024 77 6000 2.06 180 10:21 03.11.2022
1181 Clouds 17 1022 88 6000 2.06 180 07:43 03.11.2022
1182 Clear 20 1022 82 10000 1.79 20 21:37 02.11.2022
1183 Clouds 20 1022 82 10000 2.06 20 20:44 02.11.2022
1184 Clouds 20 1022 82 10000 2.06 20 20:19 02.11.2022
1185 Clouds 23 1020 64 10000 3.09 40 17:30 02.11.2022
1186 Clouds 23 1021 69 10000 4.02 40 16:22 02.11.2022
1187 Clouds 23 1021 69 10000 4.12 40 14:58 02.11.2022
1188 Clear 22 1023 64 10000 3.09 80 12:48 02.11.2022
1189 Clouds 21 1022 73 8000 2.06 80 11:55 02.11.2022
1190 Clouds 19 1021 83 6000 2.06 80 09:22 02.11.2022
1191 Clouds 19 1021 89 10000 2.67 59 05:36 02.11.2022
1192 Clouds 21 1022 77 10000 0.89 80 00:28 02.11.2022
1193 Clouds 21 1022 77 10000 0.89 80 22:19 01.11.2022
1194 Clouds 21 1022 77 10000 0.89 80 21:42 01.11.2022
1195 Clouds 21 1022 81 8000 1.03 80 20:26 01.11.2022
1196 Clouds 21 1022 83 8000 1.03 80 19:54 01.11.2022
1197 Clouds 21 1022 83 8000 1.03 80 19:35 01.11.2022
1198 Clouds 22 1022 78 8000 3.09 20 17:36 01.11.2022
1199 Clouds 23 1021 73 8000 3.09 40 16:22 01.11.2022
1200 Clouds 23 1021 69 8000 2.06 60 14:29 01.11.2022
1201 Clouds 23 1022 78 6000 1.03 360 12:29 01.11.2022
1202 Clouds 23 1022 78 6000 1.03 80 11:24 01.11.2022
1203 Clouds 22 1022 78 6000 1.03 160 10:57 01.11.2022
1204 Clouds 21 1021 88 6000 1.03 20 08:46 01.11.2022
1205 Clouds 21 1021 88 6000 1.03 20 07:46 01.11.2022
1206 Clouds 21 1021 88 6000 1.03 20 07:26 01.11.2022
1207 Clouds 20 1021 81 10000 1.67 34 06:44 01.11.2022
1208 Clouds 22 1021 83 10000 1.79 20 03:55 01.11.2022
1209 Clouds 22 1021 83 10000 1.79 20 21:59 31.10.2022
1210 Clouds 22 1021 83 6000 2.06 20 20:53 31.10.2022
1211 Clouds 22 1020 83 6000 2.06 20 19:55 31.10.2022
1212 Clouds 24 1020 73 6000 2.06 20 17:58 31.10.2022
1213 Clouds 25 1019 69 6000 2.06 20 16:43 31.10.2022
1214 Clouds 28 1019 24 6000 3.09 320 13:29 31.10.2022
1215 Clouds 25 1020 38 6000 6.17 320 11:54 31.10.2022
1216 Clouds 21 1017 24 6000 4.12 200 08:38 31.10.2022
1217 Clouds 17 1016 39 10000 2.57 222 05:34 31.10.2022
1218 Clear 22 1017 73 10000 0.89 100 02:27 31.10.2022
1219 Clouds 22 1017 73 10000 0.89 100 23:19 30.10.2022
1220 Clouds 22 1017 73 10000 0.89 100 21:40 30.10.2022
1221 Clouds 22 1017 73 8000 1.03 100 20:37 30.10.2022
1222 Clear 26 1016 34 10000 2.06 80 18:39 30.10.2022
1223 Clear 27 1016 39 10000 2.06 80 16:18 30.10.2022
1224 Clear 28 1018 48 10000 2.06 20 13:53 30.10.2022
1225 Clear 28 1018 48 10000 2.06 20 13:20 30.10.2022
1226 Clouds 24 1018 64 8000 1.03 160 11:42 30.10.2022
1227 Clouds 21 1017 83 6000 1.03 280 09:38 30.10.2022
1228 Clouds 20 1017 72 6000 1.03 0 08:39 30.10.2022
1229 Clouds 24 1017 29 10000 0.89 80 03:58 30.10.2022
1230 Clouds 24 1017 29 10000 0.89 80 00:28 30.10.2022
1231 Clouds 24 1017 29 10000 0.89 80 23:45 29.10.2022
1232 Clouds 24 1017 29 5000 1.03 80 21:27 29.10.2022
1233 Clouds 27 1017 26 5000 3.09 40 18:34 29.10.2022
1234 Clouds 29 1016 24 5000 2.06 60 17:20 29.10.2022
1235 Clear 31 1017 17 10000 3.09 220 15:38 29.10.2022
1236 Clear 31 1018 18 10000 2.06 360 14:48 29.10.2022
1237 Clear 29 1018 16 10000 3.09 200 12:35 29.10.2022
1238 Clear 27 1018 17 10000 3.09 200 11:53 29.10.2022
1239 Clouds 17 1017 36 10000 2.11 200 07:38 29.10.2022
1240 Clouds 18 1017 35 10000 2.29 217 05:56 29.10.2022
1241 Clouds 24 1019 27 10000 2.68 80 04:19 29.10.2022
1242 Clouds 24 1019 27 10000 2.68 80 23:43 28.10.2022
1243 Clouds 26 1019 24 6000 3.09 80 20:56 28.10.2022
1244 Clouds 28 1018 21 6000 4.12 60 19:34 28.10.2022
1245 Clouds 30 1018 17 6000 4.12 60 18:32 28.10.2022
1246 Clouds 31 1018 19 6000 4.12 80 16:20 28.10.2022
1247 Clouds 34 1020 13 6000 4.12 60 14:45 28.10.2022
1248 Clouds 31 1021 16 6000 1.03 60 13:19 28.10.2022
1249 Clouds 25 1021 22 6000 1.03 240 11:53 28.10.2022
1250 Clouds 24 1021 22 6000 1.03 240 11:31 28.10.2022
1251 Clouds 22 1020 24 6000 3.09 200 10:28 28.10.2022
1252 Clouds 21 1020 24 6000 3.09 200 08:40 28.10.2022
1253 Clouds 24 1020 36 10000 1.79 20 05:40 28.10.2022
1254 Clear 25 1020 36 10000 1.79 20 23:50 27.10.2022
1255 Clear 25 1020 36 10000 1.79 20 23:22 27.10.2022
1256 Clear 25 1020 36 10000 1.79 20 22:31 27.10.2022
1257 Clear 27 1020 30 6000 2.06 20 20:47 27.10.2022
1258 Clear 31 1019 25 6000 2.06 40 18:23 27.10.2022
1259 Clear 33 1019 17 6000 2.06 40 16:33 27.10.2022
1260 Clear 26 1020 19 6000 4.12 180 11:34 27.10.2022
1261 Clear 17 1018 41 10000 1.95 180 07:32 27.10.2022
1262 Clouds 25 1018 39 10000 3.66 198 00:23 27.10.2022
1263 Clouds 25 1018 39 10000 3.66 198 23:51 26.10.2022
1264 Clouds 27 1018 38 10000 3.71 208 22:40 26.10.2022
1265 Clouds 30 1016 21 5000 1.03 100 21:22 26.10.2022
1266 Clouds 34 1015 15 6000 1.03 80 17:40 26.10.2022
1267 Clouds 35 1016 15 6000 1.03 120 14:54 26.10.2022
1268 Clouds 33 1017 18 8000 1.03 120 13:31 26.10.2022
1269 Clouds 29 1017 25 8000 1.03 160 12:19 26.10.2022
1270 Clouds 21 1016 40 6000 1.03 160 09:19 26.10.2022
1271 Clouds 21 1015 43 6000 1.03 320 08:52 26.10.2022
1272 Clouds 23 1017 69 10000 1.79 80 00:52 26.10.2022
1273 Clouds 23 1017 69 10000 1.79 80 00:33 26.10.2022
1274 Clouds 23 1017 69 10000 1.79 80 22:25 25.10.2022
1275 Clouds 23 1017 69 6000 2.06 80 21:44 25.10.2022
1276 Clouds 23 1017 69 6000 2.06 80 20:29 25.10.2022
1277 Clouds 25 1016 61 6000 2.06 60 18:55 25.10.2022
1278 Clouds 28 1016 42 8000 3.09 20 16:45 25.10.2022
1279 Clouds 24 1016 38 6000 5.14 320 11:42 25.10.2022
1280 Clouds 24 1015 22 6000 5.14 220 10:47 25.10.2022
1281 Clouds 24 1015 22 6000 5.14 220 10:29 25.10.2022
1282 Clouds 24 1014 22 10000 3.09 260 08:38 25.10.2022
1283 Clouds 20 1014 44 10000 0.52 185 08:18 25.10.2022
1284 Clouds 20 1014 44 10000 0.52 185 07:53 25.10.2022
1285 Clouds 18 1014 44 10000 0.92 317 06:46 25.10.2022
1286 Clouds 23 1015 69 10000 1.79 80 03:29 25.10.2022
1287 Clouds 23 1015 69 10000 1.79 80 00:32 25.10.2022
1288 Clouds 23 1015 69 10000 1.79 80 22:28 24.10.2022
1289 Clouds 23 1015 69 6000 2.06 80 21:46 24.10.2022
1290 Clouds 26 1015 57 6000 2.06 60 20:55 24.10.2022
1291 Clouds 26 1015 57 6000 2.06 60 20:19 24.10.2022
1292 Clouds 31 1014 35 6000 2.06 20 18:41 24.10.2022
1293 Clouds 28 1015 51 6000 2.06 20 16:55 24.10.2022
1294 Clouds 27 1015 57 6000 2.06 20 15:28 24.10.2022
1295 Clouds 26 1016 57 6000 1.03 20 14:19 24.10.2022
1296 Clouds 21 1017 83 6000 1.03 40 12:27 24.10.2022
1297 Clouds 18 1016 94 6000 2.06 340 09:22 24.10.2022
1298 Clouds 21 1017 88 10000 1.79 40 03:21 24.10.2022
1299 Clear 21 1017 88 10000 1.79 40 22:29 23.10.2022
1300 Clouds 21 1016 88 5000 2.06 40 20:38 23.10.2022
1301 Clouds 24 1015 73 10000 2.06 20 18:41 23.10.2022
1302 Clear 26 1015 61 10000 3.09 20 17:28 23.10.2022
1303 Clear 26 1016 61 10000 2.06 20 15:40 23.10.2022
1304 Clear 25 1018 65 10000 2.06 20 14:55 23.10.2022
1305 Clouds 21 1018 77 8000 1.03 180 11:40 23.10.2022
1306 Clouds 19 1018 82 6000 2.06 200 10:19 23.10.2022
1307 Clouds 22 1016 78 10000 1.79 320 04:41 23.10.2022
1308 Clouds 22 1016 78 10000 1.79 320 22:49 22.10.2022
1309 Clouds 22 1016 78 8000 2.06 320 21:43 22.10.2022
1310 Clouds 22 1016 78 8000 2.06 320 21:19 22.10.2022
1311 Clear 24 1015 60 10000 2.06 320 19:59 22.10.2022
1312 Clear 24 1015 60 10000 2.06 320 19:31 22.10.2022
1313 Clear 24 1015 64 10000 3.09 320 17:39 22.10.2022
1314 Clear 24 1016 64 10000 4.12 320 15:59 22.10.2022
1315 Clouds 26 1016 47 8000 3.09 300 14:48 22.10.2022
1316 Clouds 24 1016 60 6000 4.12 320 13:57 22.10.2022
1317 Clouds 21 1014 52 6000 2.06 200 10:34 22.10.2022
1318 Clouds 21 1014 57 6000 3.09 220 09:40 22.10.2022
1319 Clouds 20 1014 64 6000 3.09 220 08:37 22.10.2022
1320 Clouds 21 1017 77 10000 2.68 40 04:21 22.10.2022
1321 Clouds 21 1017 77 10000 2.68 40 00:18 22.10.2022
1322 Clouds 21 1017 77 10000 2.68 40 22:19 21.10.2022
1323 Clear 22 1017 73 10000 3.09 40 21:32 21.10.2022
1324 Clear 22 1017 68 10000 3.09 40 20:20 21.10.2022
1325 Clear 26 1016 50 10000 4.12 20 17:21 21.10.2022
1326 Clear 26 1017 44 10000 2.06 20 14:30 21.10.2022
1327 Clouds 26 1018 50 8000 2.06 360 13:30 21.10.2022
1328 Clouds 23 1018 64 5000 0 0 11:45 21.10.2022
1329 Clouds 19 1018 72 5000 2.06 200 10:22 21.10.2022
1330 Clouds 18 1017 72 5000 1.03 220 08:39 21.10.2022
1331 Clouds 15 1017 69 10000 1 202 07:47 21.10.2022
1332 Clouds 18 1017 75 10000 1.24 224 02:32 21.10.2022
1333 Clouds 22 1016 68 10000 0.37 218 22:32 20.10.2022
1334 Clear 22 1016 68 10000 2.06 300 20:48 20.10.2022
1335 Clear 23 1015 64 10000 3.09 320 19:40 20.10.2022
1336 Clear 24 1015 69 10000 2.06 340 17:54 20.10.2022
1337 Clear 24 1015 69 10000 2.06 340 17:33 20.10.2022
1338 Clouds 26 1016 65 8000 3.09 320 13:22 20.10.2022
1339 Clouds 23 1017 69 8000 2.06 260 12:28 20.10.2022
1340 Clouds 21 1017 83 6000 1.03 20 11:25 20.10.2022
1341 Clouds 20 1016 94 5000 1.03 140 10:51 20.10.2022
1342 Mist 18 1015 94 3000 1.03 360 08:27 20.10.2022
1343 Clouds 18 1015 63 10000 1.14 202 05:45 20.10.2022
1344 Clouds 19 1017 68 10000 0.79 153 01:52 20.10.2022
1345 Clouds 21 1019 69 10000 0.99 300 22:47 19.10.2022
1346 Clear 21 1018 88 10000 1.03 360 21:59 19.10.2022
1347 Clear 21 1018 88 10000 1.03 360 21:18 19.10.2022
1348 Clear 24 1017 78 10000 1.03 340 18:53 19.10.2022
1349 Clear 25 1018 73 10000 4.12 340 17:39 19.10.2022
1350 Clear 25 1018 73 10000 3.09 340 16:21 19.10.2022
1351 Clear 27 1020 61 10000 2.06 320 13:53 19.10.2022
1352 Clouds 20 1020 88 6000 0 0 10:18 19.10.2022
1353 Clouds 20 1019 88 6000 1.03 0 08:35 19.10.2022
1354 Clouds 19 1019 63 10000 2.75 306 06:31 19.10.2022
1355 Clouds 24 1021 64 10000 1.79 340 01:27 19.10.2022
1356 Clouds 24 1021 64 10000 1.79 340 23:21 18.10.2022
1357 Clouds 24 1021 64 10000 2.06 340 21:48 18.10.2022
1358 Clouds 24 1021 60 10000 1.79 80 20:59 18.10.2022
1359 Clouds 24 1021 60 10000 1.79 80 20:18 18.10.2022
1360 Clouds 26 1021 55 10000 3.09 20 18:25 18.10.2022
1361 Clouds 26 1021 69 10000 4.12 340 16:52 18.10.2022
1362 Clouds 28 1022 51 8000 1.03 20 14:51 18.10.2022
1363 Clouds 25 1023 57 8000 3.09 300 12:34 18.10.2022
1364 Clouds 25 1021 47 6000 2.06 300 11:22 18.10.2022
1365 Clouds 22 1019 56 6000 3.09 180 09:58 18.10.2022
1366 Clouds 18 1019 55 10000 1.19 308 07:57 18.10.2022
1367 Clouds 23 1019 69 10000 1.79 40 03:45 18.10.2022
1368 Clouds 23 1019 69 10000 1.79 40 22:37 17.10.2022
1369 Clear 24 1019 57 10000 2.06 40 20:55 17.10.2022
1370 Clear 24 1019 57 10000 2.06 40 20:32 17.10.2022
1371 Clear 25 1018 61 10000 3.09 20 19:52 17.10.2022
1372 Clear 25 1018 61 10000 3.09 20 19:18 17.10.2022
1373 Clouds 30 1017 39 8000 2.06 320 16:55 17.10.2022
1374 Clear 30 1018 45 6000 1.03 300 15:46 17.10.2022
1375 Clear 29 1018 42 6000 1.03 300 14:35 17.10.2022
1376 Clouds 25 1018 53 6000 1.03 220 11:52 17.10.2022
1377 Clear 18 1015 57 10000 2.01 172 06:42 17.10.2022
1378 Clouds 25 1016 41 10000 1.79 240 23:35 16.10.2022
1379 Clouds 26 1014 41 10000 2.06 240 21:58 16.10.2022
1380 Clouds 27 1014 39 10000 2.06 240 20:56 16.10.2022
1381 Clouds 27 1013 51 10000 2.06 280 19:47 16.10.2022
1382 Clouds 26 1013 61 10000 2.06 260 17:58 16.10.2022
1383 Clouds 26 1012 61 10000 2.06 260 17:39 16.10.2022
1384 Clouds 26 1012 61 10000 2.06 260 17:39 16.10.2022
1385 Clouds 26 1012 65 10000 2.06 260 15:58 16.10.2022
1386 Clouds 24 1011 64 10000 2.06 260 14:34 16.10.2022
1387 Clouds 23 1014 73 8000 3.09 220 12:23 16.10.2022
1388 Clouds 21 1013 83 6000 1.03 40 10:28 16.10.2022
1389 Clouds 20 1012 82 6000 0 0 08:51 16.10.2022
1390 Clouds 22 1015 83 10000 1.79 80 02:37 16.10.2022
1391 Clouds 22 1015 83 10000 1.79 80 23:41 15.10.2022
1392 Clouds 22 1013 83 8000 2.06 80 21:29 15.10.2022
1393 Clouds 22 1015 78 8000 2.06 60 20:57 15.10.2022
1394 Clouds 25 1015 64 8000 3.09 40 18:54 15.10.2022
1395 Clouds 27 1015 39 8000 2.06 40 15:50 15.10.2022
1396 Clouds 27 1015 39 8000 2.06 40 15:31 15.10.2022
1397 Clouds 22 1016 83 5000 1.03 80 11:59 15.10.2022
1398 Clouds 21 1016 83 5000 1.03 80 11:24 15.10.2022
1399 Mist 18 1016 100 2000 0 0 08:55 15.10.2022
1400 Clouds 22 1016 83 10000 1.79 40 03:40 15.10.2022
1401 Clear 22 1016 83 10000 1.79 40 00:24 15.10.2022
1402 Clear 22 1016 83 10000 1.79 40 22:24 14.10.2022
1403 Clear 22 1016 83 10000 2.06 40 21:36 14.10.2022
1404 Clear 22 1016 78 10000 3.09 40 20:26 14.10.2022
1405 Clear 26 1016 57 10000 3.09 20 17:18 14.10.2022
1406 Clear 27 1017 51 10000 2.06 20 14:56 14.10.2022
1407 Clear 24 1018 60 8000 1.03 20 12:45 14.10.2022
1408 Mist 20 1018 88 4000 1.03 0 10:21 14.10.2022
1409 Clear 16 1016 73 10000 3.58 44 07:58 14.10.2022
1410 Clear 17 1016 73 10000 4.19 49 06:18 14.10.2022
1411 Clear 21 1018 83 10000 2.68 40 05:49 14.10.2022
1412 Clear 21 1018 83 10000 2.68 40 05:49 14.10.2022
1413 Clear 21 1018 83 10000 2.68 40 05:31 14.10.2022
1414 Clear 22 1018 83 10000 2.68 40 00:53 14.10.2022
1415 Clear 22 1018 83 10000 2.68 40 22:37 13.10.2022
1416 Clear 22 1018 83 8000 3.09 40 21:29 13.10.2022
1417 Clear 22 1018 83 10000 3.09 40 20:19 13.10.2022
1418 Clear 24 1018 69 10000 4.12 40 19:39 13.10.2022
1419 Clear 25 1017 57 10000 5.14 40 18:44 13.10.2022
1420 Clear 25 1017 50 10000 5.14 40 17:31 13.10.2022
1421 Clear 25 1017 50 10000 5.14 40 17:31 13.10.2022
1422 Clouds 25 1018 61 10000 5.14 60 15:48 13.10.2022
1423 Clouds 24 1019 64 10000 4.12 60 14:29 13.10.2022
1424 Clear 23 1019 69 10000 2.06 20 12:51 13.10.2022
1425 Clear 22 1019 73 10000 1.03 360 11:37 13.10.2022
1426 Clouds 18 1018 82 8000 1.03 360 09:46 13.10.2022
1427 Clouds 18 1017 82 8000 2.06 200 08:32 13.10.2022
1428 Clear 16 1017 83 10000 1.41 37 07:35 13.10.2022
1429 Clear 21 1016 88 10000 2.68 20 01:56 13.10.2022
1430 Clear 21 1020 88 10000 2.68 20 00:59 13.10.2022
1431 Clear 21 1019 88 10000 2.68 20 22:57 12.10.2022
1432 Clear 21 1019 88 10000 2.68 20 22:36 12.10.2022
1433 Clouds 21 1017 85 10000 3.09 20 21:22 12.10.2022
1434 Clouds 21 1017 83 10000 2.06 20 20:52 12.10.2022
1435 Clouds 22 1017 78 10000 3.09 40 19:38 12.10.2022
1436 Clouds 23 1013 78 10000 2.68 340 18:26 12.10.2022
1437 Clouds 23 1014 78 10000 3.09 340 17:47 12.10.2022
1438 Clouds 23 1014 73 10000 3.09 20 15:45 12.10.2022
1439 Clouds 22 1018 73 8000 2.06 40 13:57 12.10.2022
1440 Clouds 22 1019 73 8000 2.06 40 13:22 12.10.2022
1441 Clouds 17 1016 88 6000 1.03 320 09:45 12.10.2022
1442 Clouds 17 1015 71 10000 1.73 57 07:59 12.10.2022
1443 Clouds 17 1015 71 10000 1.73 57 07:39 12.10.2022
1444 Clouds 17 1015 72 10000 1.9 71 06:43 12.10.2022
1445 Clear 20 1006 82 10000 0.89 340 00:59 12.10.2022
1446 Clear 20 1006 82 10000 0.89 340 22:19 11.10.2022
1447 Clouds 21 1015 77 10000 4.12 320 20:40 11.10.2022
1448 Clouds 22 1015 73 10000 4.12 320 19:21 11.10.2022
1449 Clouds 23 1016 69 10000 4.12 320 16:49 11.10.2022
1450 Clouds 23 1016 69 10000 4.12 320 16:49 11.10.2022
1451 Rain 23 1016 69 10000 4.12 240 14:48 11.10.2022
1452 Clouds 20 1016 82 8000 3.09 240 12:57 11.10.2022
1453 Rain 19 1016 88 6000 3.09 240 10:29 11.10.2022
1454 Clouds 19 1015 82 6000 3.09 240 09:36 11.10.2022
1455 Clouds 16 1016 84 10000 2.28 228 06:56 11.10.2022
1456 Clouds 20 1017 79 10000 1.07 308 02:31 11.10.2022
1457 Clouds 21 1018 78 10000 1.75 326 00:31 11.10.2022
1458 Clouds 21 1017 73 6000 1.03 40 21:37 10.10.2022
1459 Clouds 22 1016 68 8000 2.06 20 19:56 10.10.2022
1460 Clouds 22 1017 68 8000 3.09 20 18:36 10.10.2022
1461 Clouds 23 1017 68 8000 3.09 20 17:21 10.10.2022
1462 Clouds 25 1018 64 10000 3.09 360 15:44 10.10.2022
1463 Clouds 22 1018 73 8000 2.06 340 12:54 10.10.2022
1464 Clouds 23 1018 73 8000 2.06 340 11:56 10.10.2022
1465 Clouds 19 1017 88 6000 2.06 220 08:59 10.10.2022
1466 Clouds 21 1016 83 10000 1.79 360 05:43 10.10.2022
1467 Clouds 21 1016 83 10000 1.79 360 04:56 10.10.2022
1468 Clouds 21 1016 83 10000 1.79 360 00:33 10.10.2022
1469 Clouds 21 1016 83 10000 1.79 360 22:51 09.10.2022
1470 Clouds 21 1016 83 10000 1.79 360 22:18 09.10.2022
1471 Clouds 21 1016 83 6000 2.06 360 21:26 09.10.2022
1472 Clouds 22 1016 78 6000 3.09 360 20:24 09.10.2022
1473 Clouds 22 1016 78 6000 3.09 360 20:24 09.10.2022
1474 Clouds 23 1015 73 6000 4.12 360 19:45 09.10.2022
1475 Clouds 23 1015 78 6000 4.12 20 18:44 09.10.2022
1476 Clouds 24 1015 73 6000 3.09 20 16:57 09.10.2022
1477 Clouds 24 1015 73 6000 3.09 20 16:57 09.10.2022
1478 Clouds 24 1015 73 6000 3.09 20 16:37 09.10.2022
1479 Clouds 24 1015 73 6000 3.09 40 15:45 09.10.2022
1480 Clouds 24 1016 69 6000 3.09 40 14:34 09.10.2022
1481 Clouds 23 1016 78 6000 2.06 20 13:48 09.10.2022
1482 Clouds 23 1016 78 6000 2.06 20 12:35 09.10.2022
1483 Clouds 21 1015 88 6000 1.03 260 10:52 09.10.2022
1484 Clouds 20 1014 88 6000 1.03 220 08:31 09.10.2022
1485 Clouds 22 1012 83 10000 2.68 340 03:48 09.10.2022
1486 Clouds 22 1012 83 10000 2.68 340 03:19 09.10.2022
1487 Clouds 22 1012 83 10000 2.68 340 00:40 09.10.2022
1488 Clouds 22 1012 83 10000 2.68 340 22:59 08.10.2022
1489 Clouds 22 1012 83 10000 2.68 340 22:22 08.10.2022
1490 Clouds 22 1012 83 5000 3.09 340 20:31 08.10.2022
1491 Clouds 23 1013 78 6000 2.06 360 19:22 08.10.2022
1492 Clouds 24 1011 73 8000 3.09 360 17:39 08.10.2022
1493 Clouds 24 1012 69 8000 3.09 360 15:26 08.10.2022
1494 Clouds 25 1013 65 8000 2.06 40 13:32 08.10.2022
1495 Clouds 21 1013 83 6000 2.06 60 10:48 08.10.2022
1496 Clouds 21 1013 83 6000 2.06 60 10:25 08.10.2022
1497 Clouds 21 1013 88 6000 2.06 40 09:19 08.10.2022
1498 Clouds 22 1013 88 10000 1.79 40 05:35 08.10.2022
1499 Clouds 22 1013 88 10000 1.79 40 01:19 08.10.2022
1500 Clouds 22 1013 88 10000 1.79 40 23:39 07.10.2022
1501 Clouds 22 1013 88 10000 1.79 40 23:20 07.10.2022
1502 Clouds 22 1013 88 6000 2.06 40 21:52 07.10.2022
1503 Clouds 24 1012 64 8000 3.09 40 19:56 07.10.2022
1504 Clouds 26 1012 61 8000 3.09 40 17:54 07.10.2022
1505 Clouds 26 1012 65 8000 2.06 20 16:50 07.10.2022
1506 Clouds 26 1013 73 8000 2.06 360 15:26 07.10.2022
1507 Clouds 25 1014 78 5000 2.57 10 14:22 07.10.2022
1508 Mist 22 1014 83 4000 1.03 260 11:38 07.10.2022
1509 Mist 19 1014 93 2000 2.06 220 09:25 07.10.2022
1510 Mist 19 1014 93 3000 2.06 240 08:23 07.10.2022
1511 Clouds 24 1015 60 10000 1.79 60 02:55 07.10.2022
1512 Clouds 24 1015 60 10000 1.79 60 23:21 06.10.2022
1513 Clouds 24 1015 60 10000 1.79 60 22:48 06.10.2022
1514 Clear 24 1015 60 5000 2.06 60 21:37 06.10.2022
1515 Clear 24 1014 60 5000 2.06 60 20:41 06.10.2022
1516 Clear 26 1014 57 5000 3.09 40 18:57 06.10.2022
1517 Clear 26 1021 57 5000 3.09 40 18:32 06.10.2022
1518 Clear 26 1016 53 5000 3.09 60 15:38 06.10.2022
1519 Mist 24 1019 69 4000 2.06 40 13:18 06.10.2022
1520 Clear 19 1017 93 6000 2.06 200 09:27 06.10.2022
1521 Clear 21 1018 73 10000 2.68 360 05:19 06.10.2022
1522 Clear 22 1018 73 10000 2.68 360 01:47 06.10.2022
1523 Clear 22 1018 73 10000 2.68 360 22:28 05.10.2022
1524 Clouds 24 1017 69 8000 3.09 360 19:54 05.10.2022
1525 Clear 26 1025 57 8000 3.09 340 17:38 05.10.2022
1526 Clouds 26 1019 61 8000 2.06 360 16:45 05.10.2022
1527 Clouds 26 1019 61 8000 2.06 360 15:23 05.10.2022
1528 Clouds 26 1019 65 8000 2.06 360 14:38 05.10.2022
1529 Clouds 25 1018 65 8000 2.06 340 13:29 05.10.2022
1530 Clouds 23 1021 73 6000 1.03 0 11:53 05.10.2022
1531 Clear 16 1019 82 10000 2.22 7 08:28 05.10.2022
1532 Clear 20 1018 81 10000 2.37 17 07:21 05.10.2022
1533 Clear 22 1019 88 10000 2.68 80 05:32 05.10.2022
1534 Clear 22 1019 88 10000 2.68 80 02:37 05.10.2022
1535 Clear 22 1018 88 10000 2.68 80 00:41 05.10.2022
1536 Clear 22 1018 88 10000 2.68 80 00:22 05.10.2022
1537 Clouds 22 1019 88 8000 3.09 80 21:25 04.10.2022
1538 Clouds 23 1019 83 8000 4.12 40 20:20 04.10.2022
1539 Clear 25 1019 73 10000 3.09 40 18:56 04.10.2022
1540 Clear 25 1019 73 10000 3.09 40 18:34 04.10.2022
1541 Clear 26 1019 54 10000 4.12 20 16:58 04.10.2022
1542 Clear 26 1019 57 10000 3.09 360 15:21 04.10.2022
1543 Mist 21 1020 88 3000 2.06 80 10:54 04.10.2022
1544 Mist 20 1019 94 3000 2.06 20 08:28 04.10.2022
1545 Clear 17 1019 69 10000 1.89 17 05:56 04.10.2022
1546 Clear 24 1020 73 10000 2.68 60 00:25 04.10.2022
1547 Clear 24 1020 73 10000 2.68 60 22:57 03.10.2022
1548 Clear 24 1020 71 6000 3.09 60 21:41 03.10.2022
1549 Clear 24 1020 69 6000 2.06 60 20:40 03.10.2022
1550 Clear 27 1020 47 6000 2.06 60 18:52 03.10.2022
1551 Clear 28 1020 42 6000 3.09 40 17:35 03.10.2022
1552 Clear 28 1020 37 6000 4.12 320 16:23 03.10.2022
1553 Clear 27 1021 36 5000 4.12 340 14:36 03.10.2022
1554 Clear 31 1021 23 5000 2.06 360 13:27 03.10.2022
1555 Clouds 25 1020 36 5000 2.06 140 11:37 03.10.2022
1556 Clouds 21 1019 43 5000 2.06 220 09:59 03.10.2022
1557 Clear 21 1019 43 5000 2.06 220 08:47 03.10.2022
1558 Clear 25 1017 41 10000 1.79 60 04:45 03.10.2022
1559 Clouds 25 1017 41 10000 1.79 60 01:30 03.10.2022
1560 Clouds 25 1017 41 10000 1.79 60 22:19 02.10.2022
1561 Clouds 26 1016 41 5000 2.06 80 20:18 02.10.2022
1562 Clouds 28 1016 39 5000 3.09 360 17:58 02.10.2022
1563 Clouds 28 1016 39 5000 3.09 360 17:20 02.10.2022
1564 Clouds 31 1016 25 5000 3.09 360 16:33 02.10.2022
1565 Clouds 32 1016 20 5000 2.06 360 15:39 02.10.2022
1566 Clouds 29 1016 25 5000 2.06 220 13:48 02.10.2022
1567 Clouds 27 1016 32 5000 2.06 220 12:43 02.10.2022
1568 Clouds 27 1016 32 5000 2.06 220 12:23 02.10.2022
1569 Clouds 24 1016 41 5000 2.06 220 11:34 02.10.2022
1570 Clouds 22 1015 46 5000 2.06 220 10:29 02.10.2022
1571 Clouds 20 1015 56 6000 2.06 280 08:31 02.10.2022
1572 Clouds 22 1015 64 10000 2.68 80 05:23 02.10.2022
1573 Clouds 22 1015 64 10000 2.68 80 02:49 02.10.2022
1574 Clear 22 1015 64 10000 2.68 80 00:39 02.10.2022
1575 Clear 22 1015 64 10000 2.68 80 00:39 02.10.2022
1576 Clear 22 1015 64 10000 2.68 80 23:36 01.10.2022
1577 Clear 22 1015 64 10000 2.68 80 22:24 01.10.2022
1578 Clear 24 1015 57 10000 5.14 40 19:31 01.10.2022
1579 Clear 24 1015 47 10000 6.17 60 17:46 01.10.2022
1580 Clear 26 1016 47 10000 4.12 60 16:28 01.10.2022
1581 Clear 23 1017 56 10000 4.12 60 14:19 01.10.2022
1582 Clear 22 1018 64 10000 4.12 80 12:35 01.10.2022
1583 Clear 21 1018 73 10000 3.09 80 11:57 01.10.2022
1584 Clear 21 1018 73 10000 3.09 80 11:18 01.10.2022
1585 Clear 19 1018 77 10000 3.09 80 10:30 01.10.2022
1586 Clear 19 1018 77 10000 3.09 80 10:30 01.10.2022
1587 Clouds 17 1017 88 8000 1.03 0 09:26 01.10.2022
1588 Clouds 17 1008 82 8000 1.03 0 08:40 01.10.2022
1589 Clear 20 1016 68 10000 4.02 40 03:52 01.10.2022
1590 Clear 20 1020 68 10000 4.02 40 03:24 01.10.2022
1591 Clear 20 1016 68 10000 4.02 40 23:30 30.09.2022
1592 Clear 20 1016 68 10000 4.02 40 22:19 30.09.2022
1593 Clouds 20 1018 68 10000 4.12 40 21:22 30.09.2022
1594 Clouds 21 1015 64 10000 4.12 40 20:42 30.09.2022
1595 Clouds 21 1015 64 10000 5.14 40 19:30 30.09.2022
1596 Clouds 23 1015 56 10000 4.12 40 16:58 30.09.2022
1597 Clouds 23 1016 53 10000 3.09 40 14:55 30.09.2022
1598 Clouds 23 1015 53 10000 4.12 360 13:24 30.09.2022
1599 Clouds 21 1015 64 10000 3.09 60 11:56 30.09.2022
1600 Clouds 19 1014 77 8000 3.09 20 09:50 30.09.2022
1601 Clouds 19 1013 82 8000 3.09 20 08:20 30.09.2022
1602 Rain 20 1014 68 10000 1.79 360 04:24 30.09.2022
1603 Clouds 21 1014 68 10000 1.79 360 02:22 30.09.2022
1604 Clouds 21 1014 68 10000 1.79 360 22:23 29.09.2022
1605 Clouds 21 1014 68 10000 2.06 360 21:26 29.09.2022
1606 Clouds 22 1015 64 10000 2.06 360 20:26 29.09.2022
1607 Clouds 23 1015 56 10000 3.09 20 18:31 29.09.2022
1608 Clouds 24 1015 50 10000 4.12 20 16:30 29.09.2022
1609 Clouds 24 1015 50 10000 4.12 20 16:30 29.09.2022
1610 Clouds 24 1016 53 10000 2.06 20 15:51 29.09.2022
1611 Clouds 24 1016 53 10000 2.06 20 15:27 29.09.2022
1612 Clouds 22 1017 60 8000 4.12 20 12:54 29.09.2022
1613 Clouds 21 1016 68 6000 3.09 20 08:51 29.09.2022
1614 Clouds 21 1017 68 10000 2.68 360 05:36 29.09.2022
1615 Clouds 21 1017 68 10000 2.68 360 02:42 29.09.2022
1616 Clouds 21 1017 68 10000 2.68 360 23:29 28.09.2022
1617 Clouds 21 1017 68 10000 2.68 360 22:24 28.09.2022
1618 Clouds 21 1017 68 10000 3.09 360 21:28 28.09.2022
1619 Clouds 22 1017 64 10000 3.09 360 20:18 28.09.2022
1620 Clouds 24 1018 57 10000 4.12 360 17:42 28.09.2022
1621 Clouds 24 1020 53 10000 3.09 320 14:45 28.09.2022
1622 Clouds 24 1020 53 10000 3.09 320 14:45 28.09.2022
1623 Clouds 23 1020 49 8000 1.03 300 12:40 28.09.2022
1624 Clouds 19 1021 77 8000 2.06 220 10:24 28.09.2022
1625 Clouds 17 1020 82 10000 2.06 220 08:25 28.09.2022
1626 Clouds 13 1020 71 10000 0.77 293 06:42 28.09.2022
1627 Clear 22 1020 64 10000 2.68 340 01:50 28.09.2022
1628 Clear 22 1020 64 10000 2.68 340 01:27 28.09.2022
1629 Clear 22 1020 64 10000 2.68 340 22:50 27.09.2022
1630 Clouds 22 1020 64 10000 3.09 340 21:24 27.09.2022
1631 Clouds 22 1020 64 10000 3.09 20 20:36 27.09.2022
1632 Clouds 23 1020 60 10000 4.12 360 19:47 27.09.2022
1633 Clouds 24 1020 47 10000 4.12 340 17:55 27.09.2022
1634 Clouds 24 1020 47 10000 4.12 340 17:32 27.09.2022
1635 Clouds 24 1022 47 10000 4.12 360 15:27 27.09.2022
1636 Clouds 24 1020 50 10000 3.09 340 14:33 27.09.2022
1637 Clouds 23 1022 53 10000 2.06 20 12:40 27.09.2022
1638 Clouds 20 1020 64 8000 1.03 220 10:53 27.09.2022
1639 Clouds 17 1019 72 8000 3.09 220 08:46 27.09.2022
1640 Clear 16 1018 66 10000 0.82 32 05:49 27.09.2022
1641 Clouds 17 1018 62 10000 2.69 14 01:45 27.09.2022
1642 Clouds 20 1019 61 10000 2.75 2 00:50 27.09.2022
1643 Clouds 20 1019 57 10000 2.98 349 23:25 26.09.2022
1644 Clouds 21 1018 55 10000 3.21 342 22:19 26.09.2022
1645 Clouds 22 1017 49 10000 3.09 360 20:27 26.09.2022
1646 Clouds 23 1017 54 10000 3.09 360 19:24 26.09.2022
1647 Clouds 23 1016 53 10000 3.09 360 18:30 26.09.2022
1648 Clouds 24 1016 50 10000 3.09 340 15:52 26.09.2022
1649 Clouds 23 1016 49 8000 4.12 320 13:28 26.09.2022
1650 Clouds 22 1016 56 8000 2.06 300 11:29 26.09.2022
1651 Clouds 20 1014 66 8000 2.24 240 10:37 26.09.2022
1652 Clouds 20 1014 66 8000 2.24 240 10:19 26.09.2022
1653 Clouds 19 1014 68 8000 2.57 240 09:53 26.09.2022
1654 Clouds 19 1014 68 8000 2.57 240 09:22 26.09.2022
1655 Clouds 18 1014 67 10000 3.94 319 06:21 26.09.2022
1656 Clouds 19 1014 63 10000 3.85 312 02:41 26.09.2022
1657 Clouds 21 1015 64 10000 3.41 300 23:26 25.09.2022
1658 Clouds 21 1013 64 8000 3.09 320 21:48 25.09.2022
1659 Clouds 21 1013 64 8000 3.09 320 21:25 25.09.2022
1660 Clouds 21 1013 64 8000 3.09 320 20:38 25.09.2022
1661 Clouds 22 1013 60 8000 4.12 320 19:30 25.09.2022
1662 Clouds 22 1012 60 8000 3.09 320 18:34 25.09.2022
1663 Clouds 23 1013 60 8000 4.12 340 17:41 25.09.2022
1664 Clouds 23 1013 60 8000 4.12 320 16:21 25.09.2022
1665 Clouds 23 1014 60 8000 4.12 320 14:55 25.09.2022
1666 Clouds 23 1014 60 8000 4.12 320 14:20 25.09.2022
1667 Clouds 22 1013 69 8000 3.09 340 11:53 25.09.2022
1668 Clouds 21 1013 73 6000 2.06 340 09:48 25.09.2022
1669 Clouds 20 1013 76 10000 2.49 289 07:45 25.09.2022
1670 Clouds 21 1014 77 10000 2 326 05:27 25.09.2022
1671 Clouds 22 1016 73 10000 3.29 345 23:37 24.09.2022
1672 Clouds 22 1014 83 10000 3.09 340 21:50 24.09.2022
1673 Clouds 23 1014 78 10000 3.09 340 20:34 24.09.2022
1674 Clouds 24 1014 78 10000 3.09 340 19:20 24.09.2022
1675 Clouds 27 1015 65 10000 5.14 20 16:57 24.09.2022
1676 Clouds 27 1015 69 10000 4.12 360 15:54 24.09.2022
1677 Clouds 27 1015 69 10000 4.12 360 15:18 24.09.2022
1678 Clouds 26 1015 69 8000 3.09 340 13:22 24.09.2022
1679 Clouds 25 1016 73 8000 3.09 360 12:25 24.09.2022
1680 Clouds 21 1015 94 6000 1.03 20 09:59 24.09.2022
1681 Clouds 21 1015 94 6000 1.03 20 09:21 24.09.2022
1682 Clouds 22 1014 88 6000 1.03 20 08:40 24.09.2022
1683 Clear 22 1014 88 10000 2.37 26 04:55 24.09.2022
1684 Clear 22 1014 87 10000 2.31 24 04:25 24.09.2022
1685 Clear 23 1016 84 10000 2.39 331 23:18 23.09.2022
1686 Clouds 23 1014 83 8000 3.09 20 21:40 23.09.2022
1687 Clouds 23 1014 83 8000 3.09 20 21:22 23.09.2022
1688 Clouds 23 1014 83 10000 3.09 20 20:45 23.09.2022
1689 Clouds 25 1014 75 10000 4.12 20 19:20 23.09.2022
1690 Clear 26 1016 65 10000 4.02 20 16:48 23.09.2022
1691 Clouds 25 1016 69 10000 3.09 20 13:40 23.09.2022
1692 Clouds 23 1016 78 6000 2.06 40 10:18 23.09.2022
1693 Clear 21 1015 86 10000 3.16 38 07:29 23.09.2022
1694 Clear 23 1017 78 10000 4.02 40 01:21 23.09.2022
1695 Clear 23 1016 78 10000 4.02 40 23:29 22.09.2022
1696 Clear 23 1016 78 10000 4.02 40 22:27 22.09.2022
1697 Clouds 23 1016 78 10000 4.12 40 21:24 22.09.2022
1698 Clouds 24 1016 75 10000 4.12 40 20:18 22.09.2022
1699 Clouds 25 1016 69 10000 4.12 40 18:44 22.09.2022
1700 Clouds 25 1017 65 8000 3.09 40 14:49 22.09.2022
1701 Clouds 23 1017 78 6000 2.06 20 10:38 22.09.2022
1702 Clouds 23 1017 78 6000 2.06 20 10:19 22.09.2022
1703 Clear 22 1017 86 10000 0.73 195 07:50 22.09.2022
1704 Clear 22 1017 86 10000 0.39 317 04:38 22.09.2022
1705 Clear 23 1018 83 10000 2.31 24 00:25 22.09.2022
1706 Clear 23 1017 81 10000 2.83 4 22:28 21.09.2022
1707 Clouds 24 1015 75 10000 4.02 20 20:55 21.09.2022
1708 Clouds 25 1016 69 10000 4.12 40 18:34 21.09.2022
1709 Clouds 26 1015 65 10000 4.12 20 17:39 21.09.2022
1710 Clouds 26 1015 65 10000 4.12 20 15:35 21.09.2022
1711 Clouds 26 1017 61 10000 3.09 60 13:39 21.09.2022
1712 Clouds 23 1017 83 6000 2.06 20 11:34 21.09.2022
1713 Clouds 22 1017 88 6000 3.09 20 10:52 21.09.2022
1714 Clouds 22 1016 88 6000 1.79 20 09:38 21.09.2022
1715 Clouds 22 1016 88 6000 2.06 20 08:24 21.09.2022
1716 Clear 23 1015 78 10000 4.02 40 02:54 21.09.2022
1717 Clear 23 1015 78 10000 4.02 40 02:34 21.09.2022
1718 Clear 23 1015 78 10000 4.02 40 01:50 21.09.2022
1719 Clear 23 1015 78 10000 4.02 40 23:58 20.09.2022
1720 Clouds 23 1015 78 10000 4.12 40 21:40 20.09.2022
1721 Clouds 24 1015 78 10000 4.12 40 20:32 20.09.2022
1722 Clouds 25 1015 69 10000 4.12 20 17:54 20.09.2022
1723 Clouds 25 1015 73 10000 4.12 360 15:33 20.09.2022
1724 Clouds 25 1016 73 8000 3.09 360 13:59 20.09.2022
1725 Clouds 24 1016 78 6000 2.06 20 11:29 20.09.2022
1726 Clouds 21 1015 88 6000 1.03 20 08:36 20.09.2022
1727 Clear 22 1016 86 10000 1.35 10 07:37 20.09.2022
1728 Clear 23 1015 78 10000 2.68 20 04:35 20.09.2022
1729 Clear 23 1015 78 10000 2.68 20 01:32 20.09.2022
1730 Clear 23 1015 78 10000 2.68 20 22:41 19.09.2022
1731 Clouds 23 1015 78 8000 3.09 20 21:28 19.09.2022
1732 Clouds 24 1020 73 10000 3.09 20 20:39 19.09.2022
1733 Clear 25 1014 65 10000 4.12 20 18:43 19.09.2022
1734 Clear 25 1014 65 10000 4.12 20 18:43 19.09.2022
1735 Clear 26 1014 57 10000 4.12 360 16:48 19.09.2022
1736 Clouds 26 1014 65 10000 3.09 20 13:47 19.09.2022
1737 Clear 24 1013 69 8000 1.03 320 11:57 19.09.2022
1738 Clear 20 1012 88 6000 2.06 220 09:38 19.09.2022
1739 Clear 19 1012 85 10000 1.69 221 08:20 19.09.2022
1740 Clear 22 1013 78 10000 2.68 340 03:37 19.09.2022
1741 Clear 22 1014 78 10000 2.68 340 00:44 19.09.2022
1742 Clear 22 1013 78 10000 2.68 340 22:32 18.09.2022
1743 Clouds 23 1011 73 10000 3.09 20 20:47 18.09.2022
1744 Clouds 24 1009 69 10000 3.09 20 19:33 18.09.2022
1745 Clouds 25 1008 69 10000 4.12 360 17:51 18.09.2022
1746 Clouds 25 1008 65 10000 4.12 20 16:46 18.09.2022
1747 Clouds 25 1013 67 10000 4.12 360 14:40 18.09.2022
1748 Clouds 23 1011 73 10000 3.09 40 12:58 18.09.2022
1749 Clouds 23 1011 78 8000 2.06 20 11:55 18.09.2022
1750 Clouds 20 1008 81 10000 1.19 352 07:46 18.09.2022
1751 Clear 22 1009 78 10000 2.68 40 01:41 18.09.2022
1752 Clear 22 1009 78 10000 2.68 40 01:19 18.09.2022
1753 Clear 22 1009 78 10000 2.68 40 22:55 17.09.2022
1754 Clouds 23 1008 73 10000 4.12 20 20:51 17.09.2022
1755 Clouds 24 1008 64 10000 4.12 20 19:36 17.09.2022
1756 Clouds 25 1008 65 10000 5.14 360 17:36 17.09.2022
1757 Clouds 24 1010 69 10000 4.12 20 14:22 17.09.2022
1758 Clouds 23 1011 68 10000 1.03 60 12:46 17.09.2022
1759 Clouds 22 1011 78 10000 1.03 60 10:48 17.09.2022
1760 Clouds 20 1011 83 10000 1.61 16 06:35 17.09.2022
1761 Clouds 22 1013 78 10000 4.02 20 04:35 17.09.2022
1762 Clouds 22 1013 78 10000 4.02 20 23:37 16.09.2022
1763 Clouds 22 1013 78 8000 4.12 20 21:47 16.09.2022
1764 Clouds 24 1013 71 10000 4.12 20 20:42 16.09.2022
1765 Clouds 25 1013 65 10000 4.12 20 18:29 16.09.2022
1766 Clouds 25 1013 65 10000 5.14 20 16:22 16.09.2022
1767 Clouds 25 1014 65 10000 4.12 40 14:50 16.09.2022
1768 Clouds 24 1015 64 8000 4.12 80 12:51 16.09.2022
1769 Clouds 21 1014 83 6000 2.06 100 09:39 16.09.2022
1770 Clear 21 1014 85 10000 2.98 42 07:22 16.09.2022
1771 Clear 21 1014 85 10000 2.98 42 06:48 16.09.2022
1772 Clear 22 1015 83 10000 2.68 20 05:43 16.09.2022
1773 Clouds 22 1018 83 10000 2.68 20 01:31 16.09.2022
1774 Clouds 22 1016 83 10000 3.09 20 21:31 15.09.2022
1775 Clouds 23 1015 78 10000 4.12 360 20:29 15.09.2022
1776 Clouds 25 1015 69 10000 5.14 360 18:57 15.09.2022
1777 Clouds 25 1015 65 10000 4.12 20 17:38 15.09.2022
1778 Clouds 25 1015 65 10000 4.12 20 17:18 15.09.2022
1779 Clouds 26 1016 57 10000 3.09 340 15:37 15.09.2022
1780 Clear 24 1016 73 10000 1.79 260 12:49 15.09.2022
1781 Clouds 23 1016 73 10000 2.06 260 11:47 15.09.2022
1782 Clouds 20 1016 88 6000 1.03 200 09:43 15.09.2022
1783 Clear 23 1015 78 10000 2.68 320 05:22 15.09.2022
1784 Clear 23 1015 78 10000 2.68 320 02:58 15.09.2022
1785 Clear 23 1015 78 10000 2.68 320 22:51 14.09.2022
1786 Clouds 23 1014 83 8000 3.09 340 20:24 14.09.2022
1787 Clouds 24 1014 78 8000 5.14 340 19:32 14.09.2022
1788 Clouds 25 1014 65 8000 5.14 360 17:28 14.09.2022
1789 Clouds 25 1014 69 8000 5.14 360 16:36 14.09.2022
1790 Clouds 26 1014 69 8000 3.09 340 14:47 14.09.2022
1791 Clouds 25 1014 61 6000 2.06 280 12:33 14.09.2022
1792 Mist 20 1015 88 2000 2.06 200 09:50 14.09.2022
1793 Clouds 19 1014 88 10000 3.99 210 07:55 14.09.2022
1794 Clouds 20 1013 88 10000 3.96 214 06:49 14.09.2022
1795 Clouds 20 1013 88 10000 3.9 220 06:23 14.09.2022
1796 Clouds 23 1012 78 10000 1.79 300 01:55 14.09.2022
1797 Clouds 23 1016 78 10000 1.79 300 01:30 14.09.2022
1798 Clouds 23 1012 78 10000 1.79 300 00:52 14.09.2022
1799 Clouds 23 1012 78 10000 1.79 300 23:54 13.09.2022
1800 Clouds 23 1012 78 10000 1.79 300 23:36 13.09.2022
1801 Clouds 23 1012 78 10000 1.79 300 23:18 13.09.2022
1802 Clouds 23 1012 78 10000 1.79 300 22:22 13.09.2022
1803 Clouds 25 1011 71 10000 5.81 300 20:41 13.09.2022
1804 Clouds 25 1017 69 10000 5.13 278 18:37 13.09.2022
1805 Clouds 27 1012 61 8000 4.12 240 15:58 13.09.2022
1806 Clouds 26 1012 61 8000 4.12 260 14:50 13.09.2022
1807 Clouds 23 1012 83 8000 2.06 240 13:31 13.09.2022
1808 Clouds 23 1019 78 8000 2.06 240 09:51 13.09.2022
1809 Clouds 23 1011 84 10000 5.4 212 07:31 13.09.2022
1810 Clouds 23 1029 83 10000 2.68 300 00:52 13.09.2022
1811 Clouds 23 1013 83 10000 2.68 300 22:52 12.09.2022
1812 Clouds 26 1012 67 10000 5.2 256 22:26 12.09.2022
1813 Clouds 26 1010 69 6000 1.03 280 20:46 12.09.2022
1814 Clouds 26 1010 69 6000 3.09 300 19:22 12.09.2022
1815 Clouds 24 1010 73 6000 4.12 320 17:42 12.09.2022
1816 Clouds 26 1010 69 6000 4.12 320 15:22 12.09.2022
1817 Clouds 24 1010 78 6000 2.06 200 11:57 12.09.2022
1818 Clouds 22 1011 83 6000 1.54 240 10:20 12.09.2022
1819 Clouds 21 1010 82 10000 2.84 249 05:50 12.09.2022
1820 Clouds 23 1013 83 10000 1.79 360 04:32 12.09.2022
1821 Clouds 23 1010 83 10000 1.79 360 23:59 11.09.2022
1822 Clouds 23 1010 83 10000 1.79 360 22:45 11.09.2022
1823 Clouds 23 1012 83 8000 2.06 360 21:19 11.09.2022
1824 Clouds 25 1010 78 10000 3.09 20 20:42 11.09.2022
1825 Clouds 25 1011 78 10000 3.09 20 19:26 11.09.2022
1826 Clouds 26 1012 78 10000 3.09 360 18:38 11.09.2022
1827 Clouds 27 1011 69 10000 5.14 20 16:58 11.09.2022
1828 Clouds 26 1013 74 10000 4.12 360 15:44 11.09.2022
1829 Clear 26 1013 69 10000 3.09 20 13:18 11.09.2022
1830 Clouds 22 1013 88 6000 1.03 0 10:35 11.09.2022
1831 Clouds 22 1013 88 10000 3.34 16 07:49 11.09.2022
1832 Clouds 23 1016 83 10000 2.68 60 03:34 11.09.2022
1833 Clouds 23 1016 83 10000 2.68 60 23:48 10.09.2022
1834 Clouds 23 1017 83 8000 3.09 60 21:38 10.09.2022
1835 Clouds 25 1015 78 10000 5.14 20 19:58 10.09.2022
1836 Clouds 25 1015 75 10000 5.14 20 19:40 10.09.2022
1837 Clouds 25 1015 75 10000 5.14 20 19:20 10.09.2022
1838 Clear 26 1015 73 10000 4.12 20 17:19 10.09.2022
1839 Clear 26 1016 69 10000 3.09 20 15:35 10.09.2022
1840 Clouds 26 1017 69 8000 2.06 60 13:29 10.09.2022
1841 Clouds 25 1017 69 8000 2.06 20 12:26 10.09.2022
1842 Clouds 23 1016 78 6000 3.09 60 10:26 10.09.2022
1843 Clouds 22 1016 83 6000 3.09 60 08:41 10.09.2022
1844 Clouds 22 1016 83 6000 3.09 60 08:20 10.09.2022
1845 Clouds 23 1019 83 10000 4.02 40 03:42 10.09.2022
1846 Clouds 23 1016 83 10000 4.02 40 23:35 09.09.2022
1847 Clear 23 1016 83 10000 4.02 40 22:31 09.09.2022
1848 Clouds 23 1016 83 10000 4.12 40 20:49 09.09.2022
1849 Clouds 24 1016 78 10000 4.12 60 19:52 09.09.2022
1850 Clouds 24 1016 78 10000 4.92 20 19:22 09.09.2022
1851 Clouds 26 1017 69 10000 4.12 340 16:34 09.09.2022
1852 Clouds 26 1018 73 10000 5.14 360 14:42 09.09.2022
1853 Clouds 25 1018 73 10000 5.14 60 13:18 09.09.2022
1854 Clouds 22 1018 83 6000 3.09 60 10:37 09.09.2022
1855 Clouds 21 1017 92 10000 3.37 52 07:24 09.09.2022
1856 Clouds 21 1017 92 10000 3.37 52 07:24 09.09.2022
1857 Clouds 21 1017 92 10000 3.37 52 07:24 09.09.2022
1858 Clouds 22 1017 83 10000 4.92 40 03:30 09.09.2022
1859 Clear 22 1017 83 10000 4.92 40 22:33 08.09.2022
1860 Clouds 22 1017 83 10000 5.14 40 21:51 08.09.2022
1861 Clouds 23 1017 78 10000 6.17 40 20:46 08.09.2022
1862 Clouds 23 1017 78 10000 6.17 40 20:24 08.09.2022
1863 Clouds 24 1016 69 10000 6.17 40 18:34 08.09.2022
1864 Clouds 26 1016 65 10000 5.14 20 16:47 08.09.2022
1865 Clouds 25 1018 69 10000 4.92 20 14:50 08.09.2022
1866 Clouds 24 1018 69 10000 5.14 20 13:27 08.09.2022
1867 Clouds 24 1018 64 10000 3.09 20 12:39 08.09.2022
1868 Clouds 22 1017 78 10000 1.03 60 10:59 08.09.2022
1869 Clouds 20 1017 88 10000 1.03 80 09:26 08.09.2022
1870 Clouds 19 1017 84 10000 4.45 34 06:43 08.09.2022
1871 Clouds 22 1017 78 10000 2.68 40 03:23 08.09.2022
1872 Clouds 22 1017 78 10000 2.68 40 02:36 08.09.2022
1873 Clouds 22 1017 78 10000 2.68 40 02:18 08.09.2022
1874 Clouds 22 1017 78 10000 2.68 40 22:56 07.09.2022
1875 Clear 22 1017 78 10000 3.09 40 21:44 07.09.2022
1876 Clear 22 1017 78 10000 3.09 40 21:21 07.09.2022
1877 Clouds 24 1017 71 10000 2.68 40 20:22 07.09.2022
1878 Clouds 24 1017 73 10000 3.09 20 18:41 07.09.2022
1879 Clear 26 1017 65 10000 5.14 20 15:41 07.09.2022
1880 Clouds 22 1018 78 8000 1.03 100 10:51 07.09.2022
1881 Clouds 22 1018 78 8000 1.03 100 10:30 07.09.2022
1882 Clear 19 1018 83 10000 3.15 28 07:45 07.09.2022
1883 Clear 22 1019 78 10000 1.79 40 04:46 07.09.2022
1884 Clouds 22 1019 78 10000 1.79 40 00:26 07.09.2022
1885 Clouds 22 1019 78 8000 2.06 40 21:48 06.09.2022
1886 Clouds 22 1019 78 8000 2.06 40 21:27 06.09.2022
1887 Clouds 23 1019 73 10000 5.14 40 19:22 06.09.2022
1888 Clouds 23 1019 73 10000 4.12 20 18:27 06.09.2022
1889 Clouds 23 1019 73 10000 4.12 60 17:23 06.09.2022
1890 Clouds 24 1020 69 10000 4.12 60 16:40 06.09.2022
1891 Clouds 24 1020 64 10000 4.92 40 15:23 06.09.2022
1892 Clouds 24 1020 64 8000 4.12 40 13:46 06.09.2022
1893 Clouds 24 1020 64 8000 4.12 40 13:26 06.09.2022
1894 Clouds 23 1020 69 8000 4.12 40 12:40 06.09.2022
1895 Clouds 22 1020 78 6000 2.06 60 10:52 06.09.2022
1896 Clouds 20 1020 88 6000 2.06 80 08:56 06.09.2022
1897 Clouds 20 1020 84 10000 4.42 38 07:52 06.09.2022
1898 Clear 22 1021 78 10000 2.68 20 04:48 06.09.2022
1899 Clouds 21 1022 79 10000 4.43 31 00:20 06.09.2022
1900 Clouds 22 1022 78 10000 4.56 33 22:41 05.09.2022
1901 Clouds 23 1020 68 10000 4.12 40 20:59 05.09.2022
1902 Clear 23 1020 73 10000 4.12 40 19:50 05.09.2022
1903 Clear 24 1020 64 10000 4.12 40 18:49 05.09.2022
1904 Clear 24 1020 64 10000 4.12 40 18:23 05.09.2022
1905 Clear 25 1020 64 10000 4.12 40 17:31 05.09.2022
1906 Clear 25 1021 64 10000 5.14 60 15:52 05.09.2022
1907 Clouds 24 1022 64 10000 6.17 60 13:39 05.09.2022
1908 Clouds 24 1021 67 8000 5.14 60 12:29 05.09.2022
1909 Clouds 21 1021 77 8000 3.09 100 10:34 05.09.2022
1910 Clear 19 1021 78 10000 3.65 44 07:43 05.09.2022
1911 Clear 22 1019 73 10000 4.02 60 02:50 05.09.2022
1912 Clear 22 1019 73 10000 4.02 60 23:48 04.09.2022
1913 Clear 22 1020 73 10000 4.02 60 22:28 04.09.2022
1914 Clouds 22 1019 73 10000 4.12 60 21:41 04.09.2022
1915 Clouds 24 1019 64 10000 2.06 40 19:39 04.09.2022
1916 Clouds 24 1018 64 10000 5.14 60 18:21 04.09.2022
1917 Clouds 24 1018 64 10000 4.12 60 17:22 04.09.2022
1918 Clouds 24 1020 64 10000 4.12 60 14:56 04.09.2022
1919 Clouds 24 1019 64 10000 4.12 60 14:18 04.09.2022
1920 Clouds 24 1019 60 10000 3.09 60 12:21 04.09.2022
1921 Clouds 22 1019 73 8000 1.03 0 10:47 04.09.2022
1922 Clouds 19 1018 82 6000 1.03 0 08:21 04.09.2022
1923 Clouds 20 1017 79 10000 3.82 22 06:21 04.09.2022
1924 Clear 22 1016 73 10000 4.02 40 01:31 04.09.2022
1925 Clear 22 1016 73 10000 4.02 40 22:26 03.09.2022
1926 Clouds 22 1016 73 8000 4.12 40 21:24 03.09.2022
1927 Clouds 23 1016 69 8000 3.09 80 20:26 03.09.2022
1928 Clouds 24 1015 69 8000 4.12 20 17:35 03.09.2022
1929 Clouds 24 1016 64 8000 5.14 20 16:33 03.09.2022
1930 Clouds 25 1016 65 8000 4.12 60 14:47 03.09.2022
1931 Clouds 25 1016 65 8000 4.12 60 14:26 03.09.2022
1932 Clouds 25 1017 65 8000 4.12 60 13:21 03.09.2022
1933 Clouds 22 1016 78 6000 2.06 60 10:55 03.09.2022
1934 Clouds 21 1016 88 6000 1.03 60 08:41 03.09.2022
1935 Clouds 21 1016 80 10000 3.86 24 06:59 03.09.2022
1936 Clouds 22 1017 88 10000 4.02 20 04:40 03.09.2022
1937 Clouds 23 1016 75 10000 3.81 25 00:41 03.09.2022
1938 Clouds 23 1017 73 10000 3.44 20 23:28 02.09.2022
1939 Clouds 23 1015 88 8000 4.12 20 21:33 02.09.2022
1940 Clouds 24 1015 83 8000 4.12 20 20:39 02.09.2022
1941 Clouds 24 1016 83 8000 4.12 80 19:35 02.09.2022
1942 Clouds 24 1016 83 8000 4.12 40 18:43 02.09.2022
1943 Clouds 24 1016 83 8000 4.12 40 18:24 02.09.2022
1944 Clouds 26 1016 73 10000 5.14 40 16:50 02.09.2022
1945 Clouds 26 1016 69 10000 6.17 40 15:40 02.09.2022
1946 Clouds 24 1017 78 8000 3.09 20 12:49 02.09.2022
1947 Clouds 23 1016 83 6000 3.09 40 10:25 02.09.2022
1948 Clouds 23 1016 83 6000 3.09 40 10:25 02.09.2022
1949 Clouds 22 1015 88 6000 3.09 20 09:41 02.09.2022
1950 Clouds 22 1015 83 6000 2.06 40 08:35 02.09.2022
1951 Clouds 22 1016 81 10000 3.06 29 06:42 02.09.2022
1952 Clouds 25 1015 53 10000 1.79 20 03:53 02.09.2022
1953 Clouds 25 1015 53 10000 1.79 20 22:54 01.09.2022
1954 Clear 25 1015 53 10000 2.06 20 21:45 01.09.2022
1955 Clear 25 1015 53 10000 2.06 20 21:25 01.09.2022
1956 Clear 25 1015 61 10000 2.06 100 20:46 01.09.2022
1957 Clear 26 1015 65 10000 3.09 60 19:20 01.09.2022
1958 Clouds 26 1015 73 10000 4.12 40 17:47 01.09.2022
1959 Clouds 26 1015 69 10000 5.14 20 16:29 01.09.2022
1960 Clear 26 1015 65 10000 3.09 40 14:33 01.09.2022
1961 Clouds 26 1015 61 8000 2.06 80 12:59 01.09.2022
1962 Clouds 24 1015 73 6000 2.06 40 11:54 01.09.2022
1963 Clouds 24 1015 73 6000 2.06 40 11:33 01.09.2022
1964 Clouds 22 1015 88 6000 3.09 100 10:40 01.09.2022
1965 Clouds 22 1015 83 6000 2.06 60 08:30 01.09.2022
1966 Clouds 22 1015 77 10000 3.97 22 06:23 01.09.2022
1967 Clouds 23 1016 78 10000 2.68 60 01:33 01.09.2022
1968 Clouds 23 1016 78 10000 2.68 60 00:18 01.09.2022
1969 Clear 23 1016 78 10000 3.09 60 21:44 31.08.2022
1970 Clear 25 1016 69 10000 3.09 60 19:50 31.08.2022
1971 Clear 26 1016 61 10000 4.12 20 18:18 31.08.2022
1972 Clear 26 1017 57 10000 3.09 40 16:23 31.08.2022
1973 Clear 26 1018 69 10000 4.12 40 14:35 31.08.2022
1974 Clouds 25 1019 73 8000 3.09 80 12:23 31.08.2022
1975 Clouds 23 1018 83 6000 3.09 80 11:26 31.08.2022
1976 Clouds 21 1018 94 6000 2.06 60 08:54 31.08.2022
1977 Clouds 23 1015 73 10000 2.68 20 05:26 31.08.2022
1978 Clouds 23 1020 80 10000 3.92 24 23:20 30.08.2022
1979 Clouds 23 1018 73 6000 3.09 20 21:43 30.08.2022
1980 Clouds 24 1018 83 6000 3.09 40 20:57 30.08.2022
1981 Clouds 25 1018 78 6000 3.09 100 18:32 30.08.2022
1982 Clouds 26 1019 73 6000 3.09 20 15:23 30.08.2022
1983 Clouds 22 1019 88 6000 4.12 60 13:24 30.08.2022
1984 Clouds 22 1019 88 6000 4.12 60 13:24 30.08.2022
1985 Clouds 22 1017 88 5000 5.14 60 11:22 30.08.2022
1986 Clouds 22 1017 88 5000 4.12 40 10:49 30.08.2022
1987 Clouds 22 1016 85 10000 4.57 28 07:42 30.08.2022
1988 Clouds 23 1014 78 10000 4.02 80 02:32 30.08.2022
1989 Clouds 23 1014 78 10000 4.02 80 23:20 29.08.2022
1990 Clouds 23 1014 78 10000 4.02 80 22:24 29.08.2022
1991 Clouds 23 1014 78 10000 4.12 80 21:26 29.08.2022
1992 Clouds 23 1013 83 10000 4.12 40 19:52 29.08.2022
1993 Clouds 25 1014 69 10000 4.12 40 17:54 29.08.2022
1994 Clouds 25 1014 69 10000 4.12 40 17:25 29.08.2022
1995 Clouds 26 1014 65 10000 4.12 40 16:40 29.08.2022
1996 Clouds 25 1014 69 10000 4.12 40 14:45 29.08.2022
1997 Clouds 24 1014 73 10000 4.12 20 13:21 29.08.2022
1998 Clouds 23 1014 73 6000 2.06 60 11:20 29.08.2022
1999 Clouds 22 1014 73 6000 2.06 80 09:48 29.08.2022
2000 Clouds 21 1013 83 6000 1.03 80 08:29 29.08.2022
2001 Clouds 23 1012 69 10000 1.79 360 04:57 29.08.2022
2002 Clouds 23 1012 69 10000 1.79 360 00:20 29.08.2022
2003 Clouds 23 1012 69 10000 1.79 360 22:37 28.08.2022
2004 Clouds 23 1012 69 8000 2.06 360 21:44 28.08.2022
2005 Clouds 23 1012 73 10000 3.09 40 20:55 28.08.2022
2006 Clouds 23 1011 69 10000 3.09 360 19:23 28.08.2022
2007 Clouds 24 1011 64 10000 3.09 20 18:20 28.08.2022
2008 Clear 25 1010 61 10000 4.12 360 16:58 28.08.2022
2009 Clear 25 1011 61 10000 4.12 360 16:22 28.08.2022
2010 Clouds 25 1010 61 10000 3.09 40 14:36 28.08.2022
2011 Clouds 23 1011 64 8000 3.09 40 12:32 28.08.2022
2012 Clouds 21 1010 73 8000 2.06 60 10:43 28.08.2022
2013 Clouds 21 1010 73 8000 2.06 80 09:42 28.08.2022
2014 Clouds 21 1010 73 8000 2.06 80 08:37 28.08.2022
2015 Clouds 21 1010 84 10000 2.05 30 07:42 28.08.2022
2016 Clear 22 1010 68 10000 1.79 20 02:31 28.08.2022
2017 Clear 22 1010 68 10000 1.79 20 00:25 28.08.2022
2018 Clouds 22 1019 68 10000 1.79 20 22:32 27.08.2022
2019 Clouds 22 1010 68 6000 2.06 20 21:28 27.08.2022
2020 Clouds 23 1010 69 6000 3.09 20 19:40 27.08.2022
2021 Clouds 24 1011 64 6000 3.09 20 16:48 27.08.2022
2022 Clouds 23 1011 69 6000 3.09 360 15:52 27.08.2022
2023 Clouds 23 1011 69 6000 3.09 360 15:23 27.08.2022
2024 Clouds 23 1011 69 6000 3.09 360 12:23 27.08.2022
2025 Clouds 23 1011 69 6000 3.09 360 11:24 27.08.2022
2026 Clouds 22 1013 73 6000 2.06 360 09:40 27.08.2022
2027 Clouds 22 1011 83 10000 2.11 356 07:31 27.08.2022
2028 Clouds 23 1011 78 10000 4.02 20 02:33 27.08.2022
2029 Clear 23 1011 78 10000 4.02 20 23:55 26.08.2022
2030 Clear 23 1011 78 10000 4.02 20 22:31 26.08.2022
2031 Clouds 23 1011 78 10000 4.12 20 20:39 26.08.2022
2032 Clouds 24 1013 73 10000 5.14 20 19:20 26.08.2022
2033 Clouds 26 1012 65 10000 5.14 360 16:46 26.08.2022
2034 Clouds 26 1013 69 10000 4.12 360 15:27 26.08.2022
2035 Clouds 26 1013 69 10000 4.12 360 15:27 26.08.2022
2036 Clouds 24 1013 69 10000 3.09 360 13:46 26.08.2022
2037 Clouds 24 1014 69 10000 2.06 360 12:47 26.08.2022
2038 Clouds 23 1014 73 10000 2.06 20 11:27 26.08.2022
2039 Clouds 23 1015 73 8000 2.06 40 10:25 26.08.2022
2040 Clouds 21 1013 89 10000 3.17 19 06:50 26.08.2022
2041 Clouds 23 1014 78 10000 2.68 40 01:28 26.08.2022
2042 Clouds 23 1014 78 10000 2.68 40 23:30 25.08.2022
2043 Clouds 23 1014 78 6000 3.09 40 21:26 25.08.2022
2044 Clouds 23 1013 78 8000 3.09 20 20:26 25.08.2022
2045 Clouds 25 1013 69 10000 5.14 20 18:49 25.08.2022
2046 Clouds 26 1013 69 10000 5.14 40 17:32 25.08.2022
2047 Clouds 26 1014 65 10000 4.12 20 16:50 25.08.2022
2048 Clouds 26 1014 65 10000 4.12 20 16:50 25.08.2022
2049 Clouds 26 1015 65 10000 4.12 40 15:39 25.08.2022
2050 Clouds 26 1015 65 10000 3.09 20 14:33 25.08.2022
2051 Clouds 23 1017 73 8000 2.06 20 11:52 25.08.2022
2052 Clouds 22 1015 76 8000 2.06 40 10:46 25.08.2022
2053 Clouds 22 1015 78 8000 2.06 40 08:52 25.08.2022
2054 Clouds 23 1015 73 10000 2.68 20 05:19 25.08.2022
2055 Clouds 23 1017 81 10000 2.92 6 00:30 25.08.2022
2056 Clouds 23 1017 79 10000 3.56 4 23:25 24.08.2022
2057 Clouds 24 1016 79 10000 3.47 356 22:21 24.08.2022
2058 Clouds 23 1016 73 8000 3.09 20 21:33 24.08.2022
2059 Clouds 24 1015 69 8000 4.12 20 20:32 24.08.2022
2060 Clouds 26 1014 65 8000 5.14 20 18:46 24.08.2022
2061 Clouds 26 1014 69 8000 6.17 20 16:28 24.08.2022
2062 Clouds 25 1015 69 8000 3.09 360 15:51 24.08.2022
2063 Clouds 24 1015 69 6000 3.09 360 12:55 24.08.2022
2064 Clouds 23 1014 73 5000 3.09 360 11:22 24.08.2022
2065 Clouds 22 1013 78 5000 3.09 20 09:20 24.08.2022
2066 Clouds 22 1014 82 10000 2.37 339 07:43 24.08.2022
2067 Clouds 22 1013 88 10000 3.41 339 01:43 24.08.2022
2068 Clouds 23 1015 85 10000 1.73 283 22:59 23.08.2022
2069 Clouds 24 1014 84 10000 2.12 331 22:29 23.08.2022
2070 Clouds 24 1012 75 10000 2.68 360 21:27 23.08.2022
2071 Clouds 25 1012 69 10000 3.09 20 19:54 23.08.2022
2072 Clouds 26 1012 69 10000 4.12 20 18:30 23.08.2022
2073 Clear 26 1012 65 10000 3.09 360 17:46 23.08.2022
2074 Clear 26 1012 65 10000 5.14 20 16:35 23.08.2022
2075 Clear 26 1013 63 10000 3.09 340 15:20 23.08.2022
2076 Clouds 27 1013 61 8000 3.09 20 13:25 23.08.2022
2077 Clouds 23 1014 73 6000 2.06 40 11:24 23.08.2022
2078 Clouds 22 1013 78 6000 2.06 40 10:35 23.08.2022
2079 Clouds 21 1012 83 6000 2.06 40 09:47 23.08.2022
2080 Clouds 21 1012 83 6000 2.06 40 08:49 23.08.2022
2081 Clouds 22 1012 88 10000 0.81 296 08:20 23.08.2022
2082 Clouds 22 1012 89 10000 0.97 326 07:34 23.08.2022
2083 Clear 22 1012 89 10000 2.17 299 06:27 23.08.2022
2084 Clear 23 1011 83 10000 4.02 20 02:28 23.08.2022
2085 Clear 23 1013 83 10000 4.02 20 00:27 23.08.2022
2086 Clear 23 1011 83 10000 4.02 20 23:33 22.08.2022
2087 Clear 23 1020 83 10000 4.02 20 22:34 22.08.2022
2088 Clouds 23 1012 83 8000 4.12 20 21:24 22.08.2022
2089 Clouds 25 1011 78 8000 4.12 20 19:47 22.08.2022
2090 Clear 26 1016 74 8000 4.12 20 18:45 22.08.2022
2091 Clear 27 1012 69 8000 4.12 40 16:47 22.08.2022
2092 Clear 27 1014 69 8000 5.14 40 15:39 22.08.2022
2093 Clear 26 1013 74 8000 3.09 20 13:47 22.08.2022
2094 Mist 23 1013 83 3000 2.06 20 10:38 22.08.2022
2095 Clear 21 1014 82 10000 2.18 341 07:58 22.08.2022
2096 Clear 25 1014 83 10000 4.92 40 03:49 22.08.2022
2097 Clear 25 1014 83 10000 4.92 40 00:41 22.08.2022
2098 Clear 25 1014 83 10000 4.92 40 00:22 22.08.2022
2099 Clear 25 1014 83 10000 4.92 40 22:20 21.08.2022
2100 Clear 25 1014 83 10000 5.14 40 21:23 21.08.2022
2101 Clear 26 1014 74 10000 5.14 40 20:36 21.08.2022
2102 Clear 27 1014 69 10000 5.14 40 19:24 21.08.2022
2103 Clear 30 1015 58 10000 5.14 20 16:55 21.08.2022
2104 Clouds 29 1015 54 10000 5.14 40 15:53 21.08.2022
2105 Clouds 29 1015 54 10000 5.14 40 15:20 21.08.2022
2106 Clouds 29 1016 61 8000 4.12 40 13:52 21.08.2022
2107 Clouds 29 1016 61 8000 4.12 40 13:26 21.08.2022
2108 Clouds 25 1016 83 6000 2.06 60 11:29 21.08.2022
2109 Mist 21 1014 91 2000 2.06 60 09:31 21.08.2022
2110 Mist 21 1014 88 2000 2.06 80 08:56 21.08.2022
2111 Mist 21 1014 88 2000 2.06 80 08:38 21.08.2022
2112 Clouds 20 1016 85 10000 4.56 31 07:26 21.08.2022
2113 Clouds 26 1015 74 10000 2.68 20 03:39 21.08.2022
2114 Clouds 26 1015 74 10000 2.68 20 23:49 20.08.2022
2115 Clear 26 1015 74 10000 2.68 20 22:24 20.08.2022
2116 Clouds 26 1014 74 10000 3.09 20 21:34 20.08.2022
2117 Clear 29 1014 61 10000 2.06 20 20:28 20.08.2022
2118 Clear 30 1014 45 10000 2.06 60 19:40 20.08.2022
2119 Clear 30 1013 58 10000 4.12 20 18:27 20.08.2022
2120 Clear 31 1014 33 10000 3.09 40 17:40 20.08.2022
2121 Clear 32 1014 38 10000 3.09 20 16:49 20.08.2022
2122 Clear 31 1015 51 10000 2.06 360 15:26 20.08.2022
2123 Clouds 30 1014 45 8000 1.03 60 12:52 20.08.2022
2124 Clouds 26 1014 65 6000 1.03 0 11:47 20.08.2022
2125 Clouds 22 1014 94 6000 1.03 0 09:33 20.08.2022
2126 Clouds 22 1014 94 6000 1.03 0 08:29 20.08.2022
2127 Clouds 25 1013 78 10000 1.79 360 05:49 20.08.2022
2128 Clouds 25 1013 78 10000 1.79 360 00:58 20.08.2022
2129 Clouds 25 1013 78 10000 1.79 360 00:58 20.08.2022
2130 Clouds 25 1013 78 10000 1.79 360 00:30 20.08.2022
2131 Clouds 25 1013 78 10000 1.79 360 22:53 19.08.2022
2132 Clear 26 1013 78 10000 2.06 360 21:38 19.08.2022
2133 Clear 28 1012 51 10000 3.09 360 19:43 19.08.2022
2134 Clear 29 1012 51 10000 4.12 360 16:47 19.08.2022
2135 Clear 29 1013 48 10000 2.06 20 14:51 19.08.2022
2136 Clear 28 1013 51 10000 2.06 20 12:47 19.08.2022
2137 Clear 23 1013 78 6000 1.03 80 10:44 19.08.2022
2138 Clear 22 1012 83 6000 1.03 80 09:59 19.08.2022
2139 Clear 23 1026 83 10000 4.02 40 05:30 19.08.2022
2140 Clear 23 1026 83 10000 4.02 40 00:46 19.08.2022
2141 Clear 23 1026 83 10000 4.02 40 00:23 19.08.2022
2142 Clear 23 1026 83 10000 4.02 40 23:28 18.08.2022
2143 Clear 23 1026 83 10000 4.02 40 22:37 18.08.2022
2144 Clouds 23 1009 83 10000 4.12 40 21:53 18.08.2022
2145 Clouds 23 1009 83 10000 4.12 40 21:23 18.08.2022
2146 Clear 25 1012 73 10000 4.12 60 19:54 18.08.2022
2147 Clear 26 1012 73 10000 4.12 60 19:24 18.08.2022
2148 Clear 26 1012 61 10000 5.14 40 17:49 18.08.2022
2149 Clear 26 1013 50 10000 4.12 60 16:55 18.08.2022
2150 Clear 26 1014 48 10000 5.14 20 14:22 18.08.2022
2151 Clear 26 1014 47 10000 5.14 20 13:58 18.08.2022
2152 Clear 26 1014 50 10000 3.09 20 12:46 18.08.2022
2153 Clear 24 1014 50 8000 2.06 80 11:23 18.08.2022
2154 Clear 19 1013 88 6000 1.03 0 09:43 18.08.2022
2155 Clear 18 1013 88 6000 1.03 0 08:31 18.08.2022
2156 Clear 18 1013 77 10000 3.17 51 07:18 18.08.2022
2157 Clear 22 1014 73 10000 2.68 40 02:59 18.08.2022
2158 Clear 22 1014 73 10000 2.68 40 23:18 17.08.2022
2159 Clouds 22 1014 73 10000 3.09 40 21:28 17.08.2022
2160 Clouds 24 1013 64 10000 5.14 20 19:59 17.08.2022
2161 Clouds 24 1013 64 10000 5.14 20 18:58 17.08.2022
2162 Clouds 25 1014 65 10000 5.14 20 17:28 17.08.2022
2163 Clouds 25 1012 65 10000 6.17 20 16:21 17.08.2022
2164 Clouds 25 1014 65 10000 4.12 20 14:48 17.08.2022
2165 Clouds 24 1016 64 10000 3.09 20 12:50 17.08.2022
2166 Clouds 24 1014 64 10000 2.06 20 11:36 17.08.2022
2167 Clouds 21 1013 75 10000 2.06 40 09:31 17.08.2022
2168 Clouds 19 1014 76 10000 3.21 22 07:36 17.08.2022
2169 Clear 23 1013 69 10000 4.02 20 02:21 17.08.2022
2170 Clear 23 1013 69 10000 4.02 20 23:45 16.08.2022
2171 Clouds 23 1013 69 10000 4.12 20 21:59 16.08.2022
2172 Clouds 24 1013 38 10000 5.14 20 20:51 16.08.2022
2173 Clouds 25 1013 61 10000 4.12 360 19:50 16.08.2022
2174 Clouds 25 1012 61 10000 4.12 40 18:23 16.08.2022
2175 Clouds 25 1014 61 10000 4.12 20 17:40 16.08.2022
2176 Clouds 25 1013 61 10000 3.09 360 15:46 16.08.2022
2177 Clouds 25 1013 61 10000 4.12 360 14:55 16.08.2022
2178 Clouds 26 1013 61 10000 4.12 360 14:37 16.08.2022
2179 Clouds 24 1013 57 10000 4.12 40 12:43 16.08.2022
2180 Clouds 22 1013 71 6000 2.06 80 10:35 16.08.2022
2181 Clouds 20 1013 77 6000 2.06 60 09:43 16.08.2022
2182 Clouds 20 1012 77 6000 2.06 60 08:43 16.08.2022
2183 Clear 22 1013 79 10000 2.36 29 07:23 16.08.2022
2184 Clear 22 1014 75 10000 2.93 6 01:35 16.08.2022
2185 Clouds 24 1013 69 10000 4.02 20 22:29 15.08.2022
2186 Clouds 24 1013 69 10000 4.12 20 21:53 15.08.2022
2187 Clouds 24 1013 69 10000 4.12 360 20:48 15.08.2022
2188 Clouds 24 1013 69 10000 4.12 360 20:19 15.08.2022
2189 Clouds 26 1013 57 10000 4.12 360 18:36 15.08.2022
2190 Clouds 26 1014 65 10000 4.12 20 16:47 15.08.2022
2191 Clouds 26 1014 65 10000 4.12 20 16:21 15.08.2022
2192 Clouds 25 1014 61 10000 2.06 60 13:56 15.08.2022
2193 Clouds 25 1014 61 10000 3.09 60 12:29 15.08.2022
2194 Clouds 23 1015 73 8000 2.06 60 10:18 15.08.2022
2195 Clouds 22 1015 82 10000 2.66 26 08:27 15.08.2022
2196 Clouds 22 1015 82 10000 2.9 24 06:20 15.08.2022
2197 Clouds 22 1016 79 10000 3.06 5 02:19 15.08.2022
2198 Clear 23 1017 75 10000 2.7 357 22:39 14.08.2022
2199 Clouds 25 1015 71 8000 3.09 20 21:39 14.08.2022
2200 Clouds 24 1015 73 8000 3.09 360 20:24 14.08.2022
2201 Clouds 25 1015 69 8000 3.09 20 19:31 14.08.2022
2202 Clouds 26 1014 73 8000 4.12 360 18:20 14.08.2022
2203 Clouds 26 1014 65 8000 4.12 360 16:55 14.08.2022
2204 Clouds 26 1014 65 8000 4.12 360 15:51 14.08.2022
2205 Clouds 27 1014 61 8000 4.12 360 14:37 14.08.2022
2206 Clouds 26 1015 69 8000 4.12 360 13:50 14.08.2022
2207 Clouds 26 1015 69 8000 4.12 360 13:24 14.08.2022
2208 Clouds 25 1014 73 8000 4.12 360 12:34 14.08.2022
2209 Clouds 24 1013 81 6000 4.12 40 11:18 14.08.2022
2210 Clouds 22 1013 88 5000 2.06 20 08:53 14.08.2022
2211 Clouds 22 1014 79 10000 3.59 5 06:23 14.08.2022
2212 Clouds 23 1014 79 10000 2.73 356 03:48 14.08.2022
2213 Clouds 25 1015 80 10000 2.95 348 00:39 14.08.2022
2214 Clouds 25 1015 80 10000 3.34 10 22:56 13.08.2022
2215 Clouds 25 1012 88 8000 3.09 20 21:47 13.08.2022
2216 Clouds 26 1012 78 8000 4.12 20 20:47 13.08.2022
2217 Clouds 27 1012 69 8000 5.14 20 19:46 13.08.2022
2218 Clouds 28 1012 69 8000 4.12 360 18:19 13.08.2022
2219 Clouds 28 1012 65 8000 4.12 20 15:57 13.08.2022
2220 Clouds 26 1015 69 8000 2.06 360 14:40 13.08.2022
2221 Clouds 26 1013 74 8000 2.06 320 13:46 13.08.2022
2222 Clouds 24 1012 83 6000 3.09 20 11:59 13.08.2022
2223 Mist 23 1013 88 4000 3.09 60 10:33 13.08.2022
2224 Mist 22 1011 94 3000 2.06 20 09:22 13.08.2022
2225 Clouds 24 1012 92 10000 3.02 4 05:59 13.08.2022
2226 Clouds 24 1012 78 10000 1.79 60 00:44 13.08.2022
2227 Clouds 24 1013 78 10000 1.79 60 22:37 12.08.2022
2228 Clouds 24 1011 78 8000 4.02 20 21:35 12.08.2022
2229 Clouds 25 1011 73 10000 4.12 40 19:46 12.08.2022
2230 Clouds 26 1011 73 10000 4.12 40 19:21 12.08.2022
2231 Clear 26 1012 69 10000 2.06 60 17:58 12.08.2022
2232 Clouds 27 1012 69 10000 4.12 40 16:25 12.08.2022
2233 Clouds 26 1014 69 10000 4.12 40 14:50 12.08.2022
2234 Clouds 24 1013 78 8000 4.12 40 13:26 12.08.2022
2235 Clouds 24 1013 78 6000 3.09 80 11:40 12.08.2022
2236 Clear 22 1012 56 6000 2.06 80 08:50 12.08.2022
2237 Clouds 22 1013 83 10000 4.56 30 07:45 12.08.2022
2238 Clear 23 1014 82 10000 3.96 39 03:56 12.08.2022
2239 Clouds 24 1015 79 10000 3.43 35 00:31 12.08.2022
2240 Clouds 23 1015 78 10000 3.77 32 23:52 11.08.2022
2241 Rain 24 1015 79 10000 2.64 15 22:42 11.08.2022
2242 Clouds 23 1014 78 10000 3.09 80 21:52 11.08.2022
2243 Clouds 24 1014 78 10000 3.09 80 21:26 11.08.2022
2244 Clouds 24 1013 69 10000 4.02 40 20:30 11.08.2022
2245 Clouds 24 1013 69 10000 4.12 40 19:33 11.08.2022
2246 Clouds 25 1013 65 10000 5.14 40 18:41 11.08.2022
2247 Clouds 26 1013 65 10000 4.12 40 16:46 11.08.2022
2248 Clouds 26 1014 65 10000 4.12 40 15:42 11.08.2022
2249 Clouds 26 1014 65 10000 4.12 40 15:42 11.08.2022
2250 Clouds 26 1014 61 10000 4.12 40 14:31 11.08.2022
2251 Clouds 24 1015 64 8000 3.09 40 11:53 11.08.2022
2252 Clouds 21 1014 83 8000 1.03 20 08:48 11.08.2022
2253 Clear 23 1014 69 10000 1.79 20 05:44 11.08.2022
2254 Clear 23 1014 69 10000 1.79 20 02:26 11.08.2022
2255 Clear 23 1014 69 10000 1.79 20 22:56 10.08.2022
2256 Clear 23 1014 69 10000 2.06 20 21:46 10.08.2022
2257 Clear 24 1014 64 10000 3.09 20 20:56 10.08.2022
2258 Clear 24 1014 64 10000 3.09 20 20:24 10.08.2022
2259 Clear 25 1014 61 10000 2.06 20 18:46 10.08.2022
2260 Clear 26 1014 57 10000 5.14 20 17:26 10.08.2022
2261 Clouds 26 1015 57 10000 4.12 360 14:25 10.08.2022
2262 Clouds 25 1015 57 8000 3.09 360 12:54 10.08.2022
2263 Clouds 22 1015 68 6000 3.09 360 10:47 10.08.2022
2264 Clouds 22 1015 73 6000 3.09 20 08:37 10.08.2022
2265 Clouds 21 1015 81 10000 1.23 355 07:23 10.08.2022
2266 Clouds 23 1015 69 10000 2.68 360 04:50 10.08.2022
2267 Clouds 23 1015 69 10000 2.68 360 00:50 10.08.2022
2268 Clouds 23 1015 69 10000 2.68 360 23:29 09.08.2022
2269 Clouds 23 1016 69 10000 3.09 360 21:58 09.08.2022
2270 Clouds 23 1016 69 10000 3.09 360 21:23 09.08.2022
2271 Clouds 25 1015 64 10000 5.14 20 19:18 09.08.2022
2272 Clouds 27 1014 53 10000 4.12 360 17:37 09.08.2022
2273 Clouds 27 1014 53 10000 4.12 360 17:19 09.08.2022
2274 Clouds 26 1015 61 10000 5.14 360 16:23 09.08.2022
2275 Clouds 26 1015 61 10000 4.12 360 15:23 09.08.2022
2276 Clouds 23 1016 64 8000 2.06 40 11:30 09.08.2022
2277 Clouds 22 1015 73 8000 2.06 40 08:53 09.08.2022
2278 Clouds 22 1016 78 10000 1.7 6 07:58 09.08.2022
2279 Clear 23 1015 80 10000 2.54 11 05:25 09.08.2022
2280 Clear 24 1018 69 10000 4.02 20 00:59 09.08.2022
2281 Clear 24 1018 69 10000 4.02 20 00:59 09.08.2022
2282 Clear 24 1015 69 10000 4.02 20 23:25 08.08.2022
2283 Clear 24 1015 69 10000 4.02 20 22:42 08.08.2022
2284 Clouds 24 1016 69 10000 4.12 20 21:44 08.08.2022
2285 Clouds 24 1015 64 10000 4.12 20 20:39 08.08.2022
2286 Clear 25 1014 61 10000 5.14 40 19:39 08.08.2022
2287 Clear 25 1014 61 10000 4.92 20 18:18 08.08.2022
2288 Clear 26 1015 54 10000 4.12 360 15:54 08.08.2022
2289 Clear 26 1015 54 10000 4.12 360 15:36 08.08.2022
2290 Clouds 25 1017 57 10000 2.06 20 12:30 08.08.2022
2291 Clouds 23 1016 64 8000 2.06 20 10:37 08.08.2022
2292 Clouds 22 1016 80 10000 0.87 332 07:59 08.08.2022
2293 Clouds 23 1016 73 10000 2.68 20 04:31 08.08.2022
2294 Clouds 23 1015 73 10000 2.68 20 00:33 08.08.2022
2295 Clouds 23 1015 73 8000 3.09 20 21:42 07.08.2022
2296 Clouds 23 1015 73 8000 4.02 360 21:19 07.08.2022
2297 Clouds 24 1015 69 8000 4.12 20 20:23 07.08.2022
2298 Clouds 25 1015 65 8000 4.12 20 19:52 07.08.2022
2299 Clouds 25 1015 65 8000 4.12 20 19:22 07.08.2022
2300 Clouds 25 1015 65 8000 4.12 40 17:45 07.08.2022
2301 Clouds 26 1016 57 8000 5.14 20 16:52 07.08.2022
2302 Clouds 26 1017 61 8000 3.09 40 15:39 07.08.2022
2303 Clouds 26 1017 61 8000 3.09 40 13:58 07.08.2022
2304 Clouds 24 1017 64 8000 3.09 40 12:41 07.08.2022
2305 Clouds 22 1016 73 6000 2.06 20 10:51 07.08.2022
2306 Clouds 22 1016 73 6000 2.06 20 10:20 07.08.2022
2307 Clear 23 1016 78 10000 2.68 40 04:37 07.08.2022
2308 Clear 23 1016 78 10000 2.68 40 02:25 07.08.2022
2309 Clear 23 1015 78 10000 2.68 40 22:39 06.08.2022
2310 Clear 23 1016 78 10000 2.68 40 22:18 06.08.2022
2311 Clouds 24 1015 73 10000 3.09 40 19:46 06.08.2022
2312 Clear 26 1016 69 10000 2.68 40 18:50 06.08.2022
2313 Clear 26 1016 65 10000 3.09 60 17:48 06.08.2022
2314 Clear 26 1016 65 10000 3.09 40 16:29 06.08.2022
2315 Clouds 26 1016 65 8000 3.09 60 13:51 06.08.2022
2316 Clouds 25 1016 65 8000 3.09 40 12:38 06.08.2022
2317 Clouds 24 1016 69 8000 3.09 60 11:21 06.08.2022
2318 Clouds 22 1016 88 6000 2.06 80 09:41 06.08.2022
2319 Clouds 21 1015 87 10000 2.45 25 07:28 06.08.2022
2320 Clear 23 1014 78 10000 2.68 20 01:47 06.08.2022
2321 Clear 23 1014 78 10000 2.68 20 22:36 05.08.2022
2322 Clouds 23 1014 78 10000 3.09 20 21:18 05.08.2022
2323 Clouds 26 1014 69 10000 3.09 20 19:20 05.08.2022
2324 Clouds 26 1014 69 10000 4.12 20 18:44 05.08.2022
2325 Clouds 26 1014 65 10000 4.12 20 16:53 05.08.2022
2326 Clouds 26 1014 65 10000 4.12 20 15:55 05.08.2022
2327 Clouds 26 1014 65 8000 3.09 20 14:54 05.08.2022
2328 Clouds 26 1015 61 8000 4.12 360 13:39 05.08.2022
2329 Clouds 26 1015 61 8000 4.12 360 13:19 05.08.2022
2330 Clouds 26 1014 65 8000 2.06 60 11:58 05.08.2022
2331 Clouds 23 1014 73 6000 3.09 20 10:24 05.08.2022
2332 Clouds 21 1014 86 10000 1.91 23 07:58 05.08.2022
2333 Clear 23 1012 78 10000 2.68 20 05:20 05.08.2022
2334 Clear 23 1012 78 10000 2.68 20 23:49 04.08.2022
2335 Clouds 23 1012 78 10000 3.09 20 21:37 04.08.2022
2336 Clouds 23 1012 78 10000 3.09 20 21:18 04.08.2022
2337 Clouds 24 1012 73 10000 4.12 20 20:38 04.08.2022
2338 Clouds 25 1012 69 10000 4.12 20 19:21 04.08.2022
2339 Clouds 25 1012 69 10000 4.12 360 18:34 04.08.2022
2340 Clouds 26 1012 65 10000 4.12 360 16:54 04.08.2022
2341 Clear 25 1013 69 10000 2.06 60 13:34 04.08.2022
2342 Clouds 23 1013 69 10000 3.09 40 11:42 04.08.2022
2343 Clouds 22 1013 73 8000 2.06 20 10:27 04.08.2022
2344 Clear 22 1013 85 10000 1.66 357 07:50 04.08.2022
2345 Clear 23 1012 78 10000 4.92 20 03:33 04.08.2022
2346 Clear 23 1012 78 10000 4.92 20 01:58 04.08.2022
2347 Clear 23 1012 78 10000 4.92 20 23:42 03.08.2022
2348 Clear 23 1012 78 10000 5.14 20 21:39 03.08.2022
2349 Clear 24 1012 73 10000 4.12 20 20:22 03.08.2022
2350 Clear 26 1012 73 10000 5.14 20 19:28 03.08.2022
2351 Clear 26 1025 69 10000 4.12 40 17:41 03.08.2022
2352 Clear 26 1012 65 10000 4.12 20 16:24 03.08.2022
2353 Clear 26 1013 65 8000 3.09 20 14:25 03.08.2022
2354 Clouds 25 1013 78 6000 4.12 360 11:47 03.08.2022
2355 Clear 24 1013 90 10000 2.25 10 07:55 03.08.2022
2356 Clouds 25 1011 88 10000 4.02 40 04:46 03.08.2022
2357 Clear 25 1011 88 10000 4.02 40 03:27 03.08.2022
2358 Clear 25 1011 88 10000 4.02 40 01:18 03.08.2022
2359 Clear 25 1011 88 10000 4.02 40 22:59 02.08.2022
2360 Clouds 25 1011 88 8000 4.12 40 21:53 02.08.2022
2361 Clouds 26 1011 83 8000 4.12 40 20:58 02.08.2022
2362 Clear 29 1011 74 8000 4.12 20 18:48 02.08.2022
2363 Clear 28 1012 74 6000 4.12 60 16:24 02.08.2022
2364 Clouds 28 1013 69 6000 2.06 20 12:34 02.08.2022
2365 Mist 23 1012 94 2000 1.03 60 09:34 02.08.2022
2366 Clear 23 1013 92 10000 3.52 33 07:54 02.08.2022
2367 Clear 23 1012 91 10000 3.78 35 06:43 02.08.2022
2368 Clouds 26 1012 83 10000 1.79 60 04:55 02.08.2022
2369 Clear 26 1012 83 10000 1.79 60 23:52 01.08.2022
2370 Clear 26 1012 83 10000 1.79 60 22:36 01.08.2022
2371 Clouds 27 1012 78 8000 4.12 40 20:53 01.08.2022
2372 Clear 28 1012 78 8000 4.12 20 19:32 01.08.2022
2373 Clear 29 1012 74 8000 4.12 40 18:42 01.08.2022
2374 Clear 29 1012 74 8000 4.12 40 18:42 01.08.2022
2375 Clear 30 1018 70 8000 4.12 40 16:54 01.08.2022
2376 Clear 30 1018 70 8000 4.12 40 16:28 01.08.2022
2377 Clear 30 1013 66 6000 3.09 20 15:30 01.08.2022
2378 Clear 30 1013 66 8000 3.09 360 14:43 01.08.2022
2379 Clouds 28 1013 69 6000 2.06 360 12:51 01.08.2022
2380 Mist 24 1013 88 3000 3.09 80 10:29 01.08.2022
2381 Mist 24 1014 94 3000 2.06 60 08:39 01.08.2022
2382 Clouds 23 1013 92 10000 1.95 14 06:21 01.08.2022
2383 Clear 24 1012 88 10000 0.89 80 04:20 01.08.2022
2384 Clouds 24 1012 88 10000 0.89 80 00:49 01.08.2022
2385 Clear 25 1012 88 10000 0.89 80 22:41 31.07.2022
2386 Clouds 25 1012 88 8000 1.03 80 21:35 31.07.2022
2387 Clouds 26 1012 83 8000 3.09 60 19:58 31.07.2022
2388 Clouds 27 1013 83 8000 5.14 40 18:36 31.07.2022
2389 Clouds 28 1013 78 6000 3.09 40 15:54 31.07.2022
2390 Clouds 28 1014 74 8000 2.06 360 13:51 31.07.2022
2391 Clear 27 1014 69 8000 2.06 360 12:28 31.07.2022
2392 Mist 23 1014 88 3000 2.06 20 10:22 31.07.2022
2393 Mist 23 1013 94 3000 1.03 20 08:18 31.07.2022
2394 Clear 25 1013 78 10000 2.68 60 03:49 31.07.2022
2395 Clear 25 1013 78 10000 2.68 60 00:23 31.07.2022
2396 Clear 25 1013 78 10000 2.68 60 22:19 30.07.2022
2397 Clear 25 1013 78 10000 2.68 60 22:19 30.07.2022
2398 Clouds 25 1013 78 8000 3.09 60 21:50 30.07.2022
2399 Clouds 25 1012 78 8000 3.09 40 20:58 30.07.2022
2400 Clouds 26 1012 74 8000 4.12 40 19:59 30.07.2022
2401 Clouds 26 1012 74 8000 4.12 40 19:20 30.07.2022
2402 Clouds 27 1013 69 8000 3.09 40 17:45 30.07.2022
2403 Clouds 26 1013 74 8000 4.12 360 15:55 30.07.2022
2404 Clouds 26 1013 74 8000 4.12 360 15:25 30.07.2022
2405 Clouds 26 1014 69 8000 3.09 360 13:21 30.07.2022
2406 Clouds 26 1014 73 6000 3.09 20 12:20 30.07.2022
2407 Clouds 23 1014 83 6000 2.06 40 10:36 30.07.2022
2408 Clouds 22 1014 88 6000 3.09 20 09:57 30.07.2022
2409 Clear 22 1014 83 10000 1.98 20 07:55 30.07.2022
2410 Clear 22 1014 83 10000 1.75 8 05:29 30.07.2022
2411 Clear 22 1014 82 10000 1.04 344 02:31 30.07.2022
2412 Clouds 24 1015 81 10000 2.96 345 22:54 29.07.2022
2413 Clouds 24 1013 78 8000 4.02 20 21:28 29.07.2022
2414 Clouds 24 1013 78 8000 4.12 20 20:50 29.07.2022
2415 Clouds 26 1013 73 8000 4.12 360 18:27 29.07.2022
2416 Clouds 26 1014 69 8000 5.14 360 16:43 29.07.2022
2417 Clouds 26 1014 65 8000 2.06 340 13:46 29.07.2022
2418 Clouds 25 1014 69 8000 2.06 320 11:34 29.07.2022
2419 Clouds 22 1013 78 8000 2.06 300 08:51 29.07.2022
2420 Clouds 22 1013 78 8000 2.06 300 08:21 29.07.2022
2421 Clear 24 1013 78 10000 4.02 20 02:52 29.07.2022
2422 Clear 24 1013 78 10000 4.02 20 23:20 28.07.2022
2423 Clouds 24 1013 78 10000 4.12 20 21:30 28.07.2022
2424 Clouds 25 1012 73 10000 4.12 20 20:50 28.07.2022
2425 Clear 25 1012 69 10000 3.09 20 19:58 28.07.2022
2426 Clear 25 1012 69 10000 2.68 20 19:26 28.07.2022
2427 Clear 26 1012 61 10000 4.12 20 17:45 28.07.2022
2428 Clear 26 1013 61 10000 4.12 20 17:19 28.07.2022
2429 Clear 26 1013 61 10000 4.12 340 16:39 28.07.2022
2430 Clouds 26 1013 61 10000 3.09 320 13:47 28.07.2022
2431 Clear 22 1014 68 10000 1.79 360 11:43 28.07.2022
2432 Clear 21 1014 82 10000 2.12 341 06:59 28.07.2022
2433 Clear 23 1014 73 10000 4.02 20 05:33 28.07.2022
2434 Clear 23 1014 73 10000 4.02 20 03:53 28.07.2022
2435 Clear 23 1014 73 10000 4.02 20 22:56 27.07.2022
2436 Clouds 23 1015 73 10000 4.12 20 21:29 27.07.2022
2437 Clouds 25 1014 65 10000 5.14 20 19:46 27.07.2022
2438 Clouds 25 1014 65 10000 5.14 20 18:41 27.07.2022
2439 Clouds 26 1016 65 10000 4.12 20 16:31 27.07.2022
2440 Clouds 26 1016 65 10000 4.12 20 15:40 27.07.2022
2441 Clouds 26 1017 65 10000 4.12 20 14:41 27.07.2022
2442 Clouds 26 1017 65 10000 3.09 20 13:29 27.07.2022
2443 Clouds 22 1017 83 8000 3.09 40 09:27 27.07.2022
2444 Clouds 21 1017 84 10000 3.7 356 07:40 27.07.2022
2445 Clouds 26 1016 69 10000 2.68 40 02:52 27.07.2022
2446 Clear 26 1016 69 10000 2.68 40 22:47 26.07.2022
2447 Clear 26 1016 69 10000 3.09 40 21:25 26.07.2022
2448 Clear 30 1015 42 10000 3.09 60 20:49 26.07.2022
2449 Clear 28 1016 65 10000 5.14 40 18:46 26.07.2022
2450 Clear 29 1016 63 10000 5.14 40 18:28 26.07.2022
2451 Clear 31 1016 55 10000 4.12 20 16:54 26.07.2022
2452 Clear 31 1017 55 10000 4.12 40 15:43 26.07.2022
2453 Clear 30 1017 55 10000 2.68 20 14:00 26.07.2022
2454 Clear 27 1017 69 8000 2.06 20 11:47 26.07.2022
2455 Clear 27 1017 69 8000 2.06 20 11:47 26.07.2022
2456 Clear 24 1016 83 6000 2.06 360 09:35 26.07.2022
2457 Clouds 21 1016 71 10000 3.05 350 08:18 26.07.2022
2458 Clouds 28 1017 63 10000 1.46 351 01:44 26.07.2022
2459 Clouds 29 1015 51 10000 4.02 40 23:37 25.07.2022
2460 Clouds 29 1015 51 10000 4.02 40 22:33 25.07.2022
2461 Clouds 29 1015 51 8000 4.12 40 21:43 25.07.2022
2462 Clouds 31 1015 45 8000 3.09 20 20:42 25.07.2022
2463 Clouds 31 1014 45 8000 4.12 40 19:51 25.07.2022
2464 Clouds 31 1015 55 8000 4.12 40 18:23 25.07.2022
2465 Clouds 32 1015 52 8000 4.12 20 17:34 25.07.2022
2466 Clear 33 1015 46 8000 4.12 20 16:40 25.07.2022
2467 Clouds 31 1016 58 8000 1.03 40 12:47 25.07.2022
2468 Clouds 28 1015 65 6000 1.03 320 10:42 25.07.2022
2469 Clouds 25 1014 68 10000 1 347 06:52 25.07.2022
2470 Clouds 30 1013 51 10000 2.68 80 23:57 24.07.2022
2471 Clouds 29 1013 51 10000 2.68 80 23:22 24.07.2022
2472 Clouds 29 1013 51 10000 2.68 80 22:41 24.07.2022
2473 Clear 29 1013 51 10000 3.09 80 21:30 24.07.2022
2474 Clear 29 1012 61 10000 4.12 60 20:57 24.07.2022
2475 Clear 29 1012 61 10000 4.12 60 20:32 24.07.2022
2476 Clear 31 1012 58 10000 5.14 80 18:59 24.07.2022
2477 Clear 31 1013 62 10000 4.12 40 16:53 24.07.2022
2478 Clear 31 1013 62 10000 4.12 40 15:53 24.07.2022
2479 Clear 32 1013 55 10000 5.14 20 14:41 24.07.2022
2480 Clear 32 1013 48 10000 3.09 40 13:43 24.07.2022
2481 Clouds 30 1013 61 8000 4.12 80 12:19 24.07.2022
2482 Clouds 27 1014 74 8000 3.09 360 11:28 24.07.2022
2483 Clouds 25 1013 83 6000 1.03 0 09:33 24.07.2022
2484 Clouds 24 1013 78 10000 2.43 15 07:53 24.07.2022
2485 Clouds 26 1012 75 10000 2.72 357 06:39 24.07.2022
2486 Clouds 27 1013 78 10000 1.79 60 02:41 24.07.2022
2487 Clouds 27 1013 78 10000 1.79 60 22:37 23.07.2022
2488 Clear 28 1013 74 10000 2.06 60 20:47 23.07.2022
2489 Clear 31 1013 66 10000 3.09 20 18:55 23.07.2022
2490 Clear 31 1013 66 10000 4.12 20 17:48 23.07.2022
2491 Clear 31 1013 66 10000 4.12 20 17:24 23.07.2022
2492 Clear 31 1015 62 10000 3.09 20 15:55 23.07.2022
2493 Clear 31 1014 62 10000 3.09 20 15:21 23.07.2022
2494 Clear 31 1014 62 8000 2.06 20 14:50 23.07.2022
2495 Clear 31 1014 62 8000 2.06 340 13:54 23.07.2022
2496 Clear 29 1014 69 6000 2.06 360 11:48 23.07.2022
2497 Clouds 25 1014 88 6000 2.06 360 10:36 23.07.2022
2498 Mist 24 1014 88 3000 1.03 80 09:28 23.07.2022
2499 Clear 24 1013 86 10000 2.33 53 06:40 23.07.2022
2500 Clear 23 1014 85 10000 3.35 2 03:37 23.07.2022
2501 Clear 31 1014 71 10000 2.41 357 23:59 22.07.2022
2502 Clouds 29 1012 69 8000 3.09 40 21:28 22.07.2022
2503 Clouds 30 1012 65 8000 3.09 40 19:58 22.07.2022
2504 Clear 38 1012 66 10000 3.9 6 18:41 22.07.2022
2505 Clouds 31 1012 70 8000 3.09 60 17:38 22.07.2022
2506 Clouds 31 1013 65 8000 3.09 20 15:35 22.07.2022
2507 Clouds 28 1014 70 6000 2.06 60 12:41 22.07.2022
2508 Mist 24 1014 83 3000 2.06 60 09:52 22.07.2022
2509 Mist 24 1014 83 3000 2.06 60 09:20 22.07.2022
2510 Clouds 23 1014 91 10000 3.75 35 07:30 22.07.2022
2511 Clouds 24 1014 81 10000 2.52 40 04:19 22.07.2022
2512 Clouds 26 1013 74 10000 2.68 80 23:29 21.07.2022
2513 Clouds 27 1013 71 10000 4.02 40 21:39 21.07.2022
2514 Clouds 28 1013 69 10000 5.14 40 19:41 21.07.2022
2515 Clouds 28 1013 69 10000 5.14 40 18:29 21.07.2022
2516 Clouds 29 1014 69 10000 4.12 40 17:21 21.07.2022
2517 Clear 30 1014 58 10000 4.12 20 15:58 21.07.2022
2518 Clear 30 1014 54 10000 4.12 40 14:46 21.07.2022
2519 Clear 30 1015 54 10000 3.09 60 13:49 21.07.2022
2520 Clouds 26 1014 69 10000 2.06 60 11:54 21.07.2022
2521 Clouds 23 1014 88 10000 2.06 80 09:54 21.07.2022
2522 Clouds 23 1014 83 10000 2.06 80 08:53 21.07.2022
2523 Clouds 24 1015 76 10000 3.77 41 07:50 21.07.2022
2524 Clouds 24 1014 76 10000 4.11 32 06:27 21.07.2022
2525 Clouds 26 1014 74 10000 2.68 60 02:35 21.07.2022
2526 Clouds 26 1014 74 10000 2.68 60 22:46 20.07.2022
2527 Clear 26 1014 74 10000 2.68 60 22:18 20.07.2022
2528 Clear 27 1014 65 10000 3.09 40 20:46 20.07.2022
2529 Clear 27 1014 65 10000 4.12 40 19:46 20.07.2022
2530 Clear 28 1014 61 10000 4.12 20 18:53 20.07.2022
2531 Clear 29 1014 61 10000 4.12 20 18:30 20.07.2022
2532 Clear 29 1014 58 10000 5.14 40 17:24 20.07.2022
2533 Clear 30 1015 51 10000 4.12 40 15:33 20.07.2022
2534 Clear 30 1015 48 10000 4.12 40 14:36 20.07.2022
2535 Clear 28 1015 54 10000 2.06 40 12:51 20.07.2022
2536 Clear 24 1015 69 8000 1.03 60 10:29 20.07.2022
2537 Clear 22 1015 83 10000 3.68 36 06:21 20.07.2022
2538 Clear 24 1015 78 10000 5.81 40 01:40 20.07.2022
2539 Clear 24 1015 78 10000 5.81 40 00:41 20.07.2022
2540 Clear 24 1015 78 10000 5.81 40 22:35 19.07.2022
2541 Clouds 24 1015 78 10000 6.17 40 21:54 19.07.2022
2542 Clouds 25 1015 73 10000 4.12 40 20:49 19.07.2022
2543 Clear 26 1015 69 10000 4.12 40 19:22 19.07.2022
2544 Clear 26 1015 69 10000 5.14 40 18:41 19.07.2022
2545 Clear 26 1016 69 10000 6.17 40 17:53 19.07.2022
2546 Clear 26 1016 65 10000 5.14 60 15:27 19.07.2022
2547 Clouds 28 1017 58 8000 3.09 40 13:33 19.07.2022
2548 Clouds 24 1017 73 8000 3.09 100 11:33 19.07.2022
2549 Clouds 22 1017 83 6000 2.06 40 09:52 19.07.2022
2550 Clouds 22 1017 83 6000 2.06 20 08:47 19.07.2022
2551 Clear 22 1017 85 10000 4.57 34 07:46 19.07.2022
2552 Clear 22 1017 85 10000 4.7 26 07:18 19.07.2022
2553 Clear 23 1016 78 10000 4.02 60 05:18 19.07.2022
2554 Clear 23 1016 78 10000 4.02 60 03:40 19.07.2022
2555 Clear 23 1016 78 10000 4.02 60 23:57 18.07.2022
2556 Clear 23 1016 78 10000 4.02 60 23:20 18.07.2022
2557 Clear 23 1016 78 10000 4.02 60 22:27 18.07.2022
2558 Clouds 23 1015 78 8000 4.12 60 21:24 18.07.2022
2559 Clouds 24 1016 73 8000 4.12 40 20:45 18.07.2022
2560 Clouds 25 1016 69 8000 4.12 40 18:50 18.07.2022
2561 Clouds 26 1016 69 8000 5.14 20 16:45 18.07.2022
2562 Clouds 26 1017 69 8000 5.14 20 15:34 18.07.2022
2563 Clouds 26 1017 69 8000 4.12 20 13:32 18.07.2022
2564 Clouds 25 1017 69 8000 4.12 40 12:21 18.07.2022
2565 Clouds 23 1016 73 6000 3.09 40 09:56 18.07.2022
2566 Clouds 22 1016 78 6000 3.09 40 08:19 18.07.2022
2567 Clear 23 1016 78 10000 2.68 20 05:35 18.07.2022
2568 Clouds 23 1016 78 10000 2.68 20 23:19 17.07.2022
2569 Clouds 23 1016 78 10000 2.68 20 22:32 17.07.2022
2570 Clouds 23 1016 78 8000 3.09 20 21:40 17.07.2022
2571 Clouds 24 1015 73 8000 3.09 360 20:46 17.07.2022
2572 Clouds 24 1015 73 8000 3.09 360 20:18 17.07.2022
2573 Clouds 24 1015 73 8000 3.09 20 19:25 17.07.2022
2574 Clouds 26 1015 69 8000 4.12 40 17:55 17.07.2022
2575 Clouds 26 1015 69 8000 4.12 40 17:36 17.07.2022
2576 Clouds 26 1015 65 8000 5.14 360 16:49 17.07.2022
2577 Clouds 26 1015 65 8000 5.14 360 16:24 17.07.2022
2578 Clouds 26 1015 69 8000 3.09 20 13:58 17.07.2022
2579 Clouds 26 1015 69 8000 3.09 20 13:24 17.07.2022
2580 Clouds 23 1015 78 6000 2.06 20 10:23 17.07.2022
2581 Clouds 22 1014 83 6000 2.06 40 08:38 17.07.2022
2582 Clouds 24 1012 78 10000 4.02 20 02:36 17.07.2022
2583 Clear 24 1012 78 10000 4.02 20 00:41 17.07.2022
2584 Clear 24 1012 78 10000 4.02 20 23:18 16.07.2022
2585 Clouds 24 1012 78 8000 4.12 360 20:53 16.07.2022
2586 Clouds 26 1012 73 10000 4.12 360 18:59 16.07.2022
2587 Clouds 26 1012 69 10000 4.12 20 17:48 16.07.2022
2588 Clouds 26 1013 65 10000 5.14 20 16:24 16.07.2022
2589 Clouds 26 1013 65 10000 3.09 320 13:47 16.07.2022
2590 Clouds 23 1013 78 8000 1.03 280 10:35 16.07.2022
2591 Clouds 22 1013 78 6000 1.03 20 09:29 16.07.2022
2592 Clouds 22 1013 83 6000 1.03 360 08:42 16.07.2022
2593 Clouds 22 1014 87 10000 1.63 298 07:41 16.07.2022
2594 Clouds 23 1012 83 10000 2.68 20 03:39 16.07.2022
2595 Clear 23 1012 83 10000 2.68 20 01:59 16.07.2022
2596 Clear 23 1012 83 10000 2.68 20 23:21 15.07.2022
2597 Clear 23 1012 83 10000 2.68 20 22:37 15.07.2022
2598 Clouds 23 1012 83 6000 3.09 20 21:18 15.07.2022
2599 Clouds 24 1012 78 6000 5.14 340 19:51 15.07.2022
2600 Clouds 26 1012 73 8000 5.14 360 18:32 15.07.2022
2601 Clear 26 1012 74 10000 4.12 340 17:25 15.07.2022
2602 Clear 28 1013 65 10000 3.09 340 14:35 15.07.2022
2603 Clear 26 1013 69 8000 2.06 340 12:43 15.07.2022
2604 Clouds 23 1013 78 6000 2.06 320 10:53 15.07.2022
2605 Clouds 22 1012 83 6000 1.03 0 08:42 15.07.2022
2606 Clouds 22 1012 89 10000 3.44 264 05:55 15.07.2022
2607 Clear 23 1014 88 10000 3.47 264 00:51 15.07.2022
2608 Clear 24 1014 84 10000 3.66 260 23:25 14.07.2022
2609 Clear 24 1014 84 10000 3.66 260 22:42 14.07.2022
2610 Clouds 24 1012 83 8000 4.02 320 21:42 14.07.2022
2611 Clouds 24 1012 83 8000 4.02 320 21:24 14.07.2022
2612 Clouds 24 1012 83 8000 4.12 320 20:43 14.07.2022
2613 Clouds 24 1012 83 8000 4.12 320 20:43 14.07.2022
2614 Clouds 24 1012 83 8000 4.12 320 20:19 14.07.2022
2615 Clouds 26 1012 74 10000 4.12 360 18:38 14.07.2022
2616 Clouds 28 1013 72 8000 4.12 20 16:21 14.07.2022
2617 Clouds 28 1014 74 8000 4.12 20 15:26 14.07.2022
2618 Clouds 27 1014 69 6000 3.09 40 13:52 14.07.2022
2619 Clouds 26 1014 74 6000 3.09 20 12:40 14.07.2022
2620 Clouds 26 1014 78 6000 3.09 60 11:41 14.07.2022
2621 Clouds 25 1014 78 6000 3.09 60 11:21 14.07.2022
2622 Clouds 23 1014 88 6000 2.06 40 09:49 14.07.2022
2623 Clouds 25 1015 78 10000 2.68 340 05:20 14.07.2022
2624 Clouds 25 1016 78 10000 2.68 340 01:22 14.07.2022
2625 Clouds 25 1016 78 10000 2.68 340 00:52 14.07.2022
2626 Clouds 27 1017 70 10000 2.17 278 22:32 13.07.2022
2627 Clouds 26 1015 78 8000 3.09 340 21:54 13.07.2022
2628 Clouds 26 1015 78 8000 3.09 340 20:45 13.07.2022
2629 Clouds 27 1014 73 8000 3.09 340 19:19 13.07.2022
2630 Clouds 28 1015 69 8000 4.12 20 17:35 13.07.2022
2631 Clouds 29 1015 65 8000 3.09 340 16:23 13.07.2022
2632 Clouds 28 1015 69 8000 3.09 340 15:24 13.07.2022
2633 Clouds 28 1015 65 6000 2.06 360 12:39 13.07.2022
2634 Clouds 24 1015 78 6000 2.06 220 10:45 13.07.2022
2635 Clouds 22 1015 88 6000 2.06 360 09:57 13.07.2022
2636 Clouds 22 1015 88 6000 2.06 360 09:21 13.07.2022
2637 Clear 22 1014 83 10000 2.06 321 05:52 13.07.2022
2638 Clouds 24 1017 78 10000 2.68 360 01:27 13.07.2022
2639 Clouds 24 1014 78 10000 2.68 360 23:39 12.07.2022
2640 Clouds 24 1014 78 6000 3.09 360 21:54 12.07.2022
2641 Clouds 25 1015 75 6000 4.02 340 21:18 12.07.2022
2642 Clouds 25 1014 73 8000 4.12 340 20:41 12.07.2022
2643 Clouds 26 1014 73 8000 4.12 320 19:25 12.07.2022
2644 Clouds 27 1013 65 8000 4.12 20 17:49 12.07.2022
2645 Clouds 27 1013 65 8000 4.12 340 15:43 12.07.2022
2646 Clouds 26 1014 69 8000 3.09 340 14:23 12.07.2022
2647 Clouds 26 1013 73 8000 2.57 320 12:19 12.07.2022
2648 Clouds 24 1012 73 8000 2.06 180 10:51 12.07.2022
2649 Clouds 22 1011 83 5000 2.06 240 09:28 12.07.2022
2650 Clouds 22 1011 83 5000 2.06 240 08:18 12.07.2022
2651 Clouds 22 1009 85 10000 2.84 265 06:24 12.07.2022
2652 Clouds 25 1009 83 10000 4.02 320 05:39 12.07.2022
2653 Clouds 25 1009 83 10000 4.02 320 01:57 12.07.2022
2654 Clouds 25 1009 83 10000 4.02 320 01:57 12.07.2022
2655 Clouds 25 1009 83 10000 4.02 320 01:57 12.07.2022
2656 Clouds 25 1009 83 10000 4.02 320 22:59 11.07.2022
2657 Clouds 25 1009 83 10000 4.12 320 21:45 11.07.2022
2658 Clear 26 1008 78 10000 4.12 360 20:33 11.07.2022
2659 Clear 29 1008 69 10000 4.12 360 19:33 11.07.2022
2660 Clear 31 1008 58 10000 4.12 360 18:32 11.07.2022
2661 Clear 30 1008 58 10000 4.12 340 17:36 11.07.2022
2662 Clear 32 1008 43 10000 3.09 360 16:18 11.07.2022
2663 Clear 31 1009 51 10000 4.12 340 14:32 11.07.2022
2664 Clear 26 1009 73 6000 1.03 0 11:40 11.07.2022
2665 Mist 23 1009 94 4000 1.03 360 10:22 11.07.2022
2666 Mist 22 1009 94 2000 1.03 0 09:42 11.07.2022
2667 Mist 20 1009 100 2000 1.03 0 08:33 11.07.2022
2668 Clear 26 1011 74 10000 1.79 20 04:34 11.07.2022
2669 Clear 27 1011 74 10000 1.79 20 00:20 11.07.2022
2670 Clear 27 1011 74 10000 1.79 20 22:56 10.07.2022
2671 Clouds 27 1011 74 8000 2.06 20 21:41 10.07.2022
2672 Clouds 29 1011 58 8000 2.06 40 20:54 10.07.2022
2673 Clouds 30 1011 54 8000 2.06 20 19:50 10.07.2022
2674 Clouds 31 1011 55 8000 2.06 360 18:48 10.07.2022
2675 Clouds 29 1012 65 8000 3.09 360 17:37 10.07.2022
2676 Clouds 33 1012 49 8000 3.09 360 16:45 10.07.2022
2677 Clouds 36 1012 24 8000 4.12 360 15:28 10.07.2022
2678 Clear 33 1012 46 8000 2.06 20 14:21 10.07.2022
2679 Clear 31 1012 48 8000 1.03 160 12:28 10.07.2022
2680 Mist 23 1013 88 4000 1.03 220 10:20 10.07.2022
2681 Fog 20 1013 100 800 1.03 200 08:45 10.07.2022
2682 Fog 20 1013 100 800 1.03 200 08:45 10.07.2022
2683 Clouds 18 1012 81 10000 1.22 286 07:39 10.07.2022
2684 Clear 23 1013 67 10000 2.86 307 02:47 10.07.2022
2685 Clear 29 1014 61 10000 0.5 51 22:51 09.07.2022
2686 Clear 31 1014 61 10000 1.45 18 22:24 09.07.2022
2687 Clear 30 1013 48 10000 2.06 80 20:50 09.07.2022
2688 Clear 32 1013 38 10000 3.09 40 18:43 09.07.2022
2689 Clear 31 1014 45 10000 3.09 40 17:45 09.07.2022
2690 Clear 32 1014 45 10000 2.06 60 16:44 09.07.2022
2691 Clear 31 1015 51 10000 3.09 40 15:41 09.07.2022
2692 Clear 31 1015 55 10000 3.09 40 14:43 09.07.2022
2693 Clear 31 1015 55 10000 2.06 20 13:51 09.07.2022
2694 Clear 31 1015 51 8000 1.03 0 12:48 09.07.2022
2695 Clear 27 1015 69 6000 1.9 309 11:32 09.07.2022
2696 Mist 23 1015 94 4000 1.03 0 10:23 09.07.2022
2697 Clear 18 1015 79 10000 1.85 261 07:54 09.07.2022
2698 Clear 21 1015 81 10000 1.27 266 05:37 09.07.2022
2699 Clear 23 1015 76 10000 1.84 297 03:29 09.07.2022
2700 Clear 27 1015 61 10000 2.68 60 23:18 08.07.2022
2701 Clear 27 1015 61 10000 2.68 60 23:18 08.07.2022
2702 Clear 27 1015 61 10000 3.09 60 21:59 08.07.2022
2703 Clear 30 1015 45 10000 3.09 60 20:55 08.07.2022
2704 Clear 30 1015 45 10000 3.09 60 20:24 08.07.2022
2705 Clear 29 1016 58 10000 2.68 40 18:29 08.07.2022
2706 Clear 29 1016 58 10000 3.09 40 17:25 08.07.2022
2707 Clear 29 1016 69 5000 2.06 360 14:55 08.07.2022
2708 Clear 28 1017 69 6000 2.06 340 13:56 08.07.2022
2709 Clear 27 1017 69 6000 2.06 320 12:28 08.07.2022
2710 Clear 24 1017 78 5000 0 0 10:45 08.07.2022
2711 Mist 21 1017 94 3000 1.03 60 08:51 08.07.2022
2712 Clear 21 1016 94 10000 2.89 17 06:54 08.07.2022
2713 Clear 24 1017 78 10000 2.68 20 02:53 08.07.2022
2714 Clear 24 1017 78 10000 2.68 20 23:41 07.07.2022
2715 Clear 24 1017 78 10000 2.68 20 22:40 07.07.2022
2716 Clouds 24 1017 78 8000 3.09 20 20:56 07.07.2022
2717 Clear 26 1017 73 8000 4.12 20 18:37 07.07.2022
2718 Clear 26 1018 73 8000 4.12 40 17:19 07.07.2022
2719 Clouds 26 1019 69 8000 4.12 40 15:18 07.07.2022
2720 Clouds 26 1019 69 8000 4.12 60 13:25 07.07.2022
2721 Clouds 25 1019 69 8000 4.12 60 12:37 07.07.2022
2722 Clouds 25 1019 69 8000 4.12 60 12:18 07.07.2022
2723 Clouds 23 1019 69 8000 3.09 40 11:29 07.07.2022
2724 Clouds 22 1019 78 6000 3.09 80 10:42 07.07.2022
2725 Clouds 22 1018 78 6000 3.09 80 10:24 07.07.2022
2726 Clear 19 1017 82 10000 3.63 44 07:22 07.07.2022
2727 Clear 22 1018 78 10000 4.02 60 02:55 07.07.2022
2728 Clear 22 1021 78 10000 4.02 60 23:37 06.07.2022
2729 Clear 22 1021 78 10000 4.02 60 23:18 06.07.2022
2730 Clear 22 1018 78 10000 4.02 60 22:53 06.07.2022
2731 Clear 22 1018 78 10000 4.02 60 22:34 06.07.2022
2732 Clouds 22 1018 78 10000 5.14 40 20:54 06.07.2022
2733 Clouds 24 1018 66 10000 6.17 40 19:35 06.07.2022
2734 Clear 25 1018 64 10000 5.14 40 17:32 06.07.2022
2735 Clear 25 1019 64 10000 5.14 20 15:59 06.07.2022
2736 Clouds 24 1020 64 10000 4.12 60 14:33 06.07.2022
2737 Clouds 24 1020 68 10000 3.09 20 12:31 06.07.2022
2738 Clouds 23 1020 73 8000 3.09 80 11:45 06.07.2022
2739 Clouds 21 1020 78 6000 2.06 100 10:18 06.07.2022
2740 Clear 21 1018 85 10000 4.12 43 07:44 06.07.2022
2741 Clear 21 1018 85 10000 4.12 43 07:44 06.07.2022
2742 Clear 20 1018 85 10000 3.72 44 07:20 06.07.2022
2743 Clouds 21 1020 80 10000 3.28 11 01:42 06.07.2022
2744 Clouds 22 1020 76 10000 2.95 6 22:45 05.07.2022
2745 Clouds 22 1019 68 10000 3.09 20 21:32 05.07.2022
2746 Clouds 22 1019 68 10000 3.09 20 21:32 05.07.2022
2747 Clouds 23 1019 64 10000 4.12 20 20:38 05.07.2022
2748 Clouds 24 1019 64 10000 4.12 40 19:41 05.07.2022
2749 Clouds 24 1019 64 10000 4.12 20 18:26 05.07.2022
2750 Clouds 25 1019 60 10000 3.09 20 17:41 05.07.2022
2751 Clouds 25 1019 60 10000 2.06 20 16:39 05.07.2022
2752 Clouds 25 1019 60 10000 2.06 20 15:24 05.07.2022
2753 Clouds 22 1020 73 8000 2.06 60 13:47 05.07.2022
2754 Clouds 21 1020 73 8000 2.06 20 12:42 05.07.2022
2755 Clouds 20 1019 77 8000 2.06 360 10:46 05.07.2022
2756 Clouds 20 1019 77 8000 2.06 360 10:25 05.07.2022
2757 Clouds 20 1019 77 6000 2.06 40 08:25 05.07.2022
2758 Clouds 21 1018 79 10000 3.41 23 07:31 05.07.2022
2759 Clouds 21 1018 77 10000 2.68 20 04:46 05.07.2022
2760 Clear 21 1018 84 10000 3.74 0 02:48 05.07.2022
2761 Clouds 21 1019 81 10000 3.14 3 23:42 04.07.2022
2762 Clear 22 1019 80 10000 3.58 26 22:59 04.07.2022
2763 Clouds 22 1018 77 10000 3.6 16 22:20 04.07.2022
2764 Clouds 23 1018 73 8000 3.09 40 20:59 04.07.2022
2765 Clouds 23 1018 73 8000 3.09 40 20:38 04.07.2022
2766 Clouds 23 1018 73 8000 3.09 40 20:18 04.07.2022
2767 Clouds 23 1018 68 8000 3.09 60 19:43 04.07.2022
2768 Clouds 23 1018 68 8000 3.09 60 19:24 04.07.2022
2769 Clouds 23 1018 69 10000 5.14 20 17:23 04.07.2022
2770 Clouds 23 1019 64 10000 5.14 40 15:41 04.07.2022
2771 Clouds 23 1019 69 10000 4.12 80 14:39 04.07.2022
2772 Clouds 22 1019 73 8000 4.12 60 13:20 04.07.2022
2773 Clouds 21 1019 77 8000 3.09 60 11:43 04.07.2022
2774 Clouds 21 1021 73 8000 2.06 60 10:33 04.07.2022
2775 Clouds 21 1019 73 8000 3.09 40 09:33 04.07.2022
2776 Clear 21 1018 84 10000 3.03 31 06:42 04.07.2022
2777 Clear 22 1020 64 10000 1.79 360 03:23 04.07.2022
2778 Clear 22 1020 64 10000 1.79 360 23:53 03.07.2022
2779 Clear 22 1020 64 10000 1.79 360 22:48 03.07.2022
2780 Clouds 23 1019 60 10000 3.09 20 20:46 03.07.2022
2781 Clouds 23 1019 60 10000 3.09 20 20:20 03.07.2022
2782 Clouds 23 1019 60 10000 4.12 20 19:25 03.07.2022
2783 Clouds 24 1019 60 10000 3.09 360 18:31 03.07.2022
2784 Clouds 23 1019 64 10000 4.12 20 17:42 03.07.2022
2785 Clouds 24 1020 57 10000 4.12 360 15:28 03.07.2022
2786 Clouds 24 1020 60 10000 3.09 360 14:54 03.07.2022
2787 Clouds 24 1020 60 10000 5.14 20 13:50 03.07.2022
2788 Clouds 23 1020 60 10000 3.6 340 12:49 03.07.2022
2789 Clouds 23 1020 60 10000 3.6 340 12:19 03.07.2022
2790 Clouds 22 1020 68 10000 1.54 340 10:55 03.07.2022
2791 Clouds 22 1020 68 10000 1.54 340 10:36 03.07.2022
2792 Clouds 20 1019 77 10000 1.03 340 08:21 03.07.2022
2793 Clouds 20 1019 76 10000 1.26 289 07:34 03.07.2022
2794 Clear 22 1019 68 10000 4.02 320 00:41 03.07.2022
2795 Clear 22 1019 68 10000 4.02 320 23:38 02.07.2022
2796 Clear 22 1016 68 10000 4.02 320 22:31 02.07.2022
2797 Clouds 22 1018 73 10000 4.12 340 20:31 02.07.2022
2798 Clouds 23 1018 69 10000 5.14 340 19:49 02.07.2022
2799 Clouds 23 1018 69 10000 5.14 340 18:36 02.07.2022
2800 Clouds 24 1017 64 10000 5.14 340 17:39 02.07.2022
2801 Clear 24 1017 60 10000 4.12 340 16:30 02.07.2022
2802 Clear 25 1017 64 10000 4.12 320 13:51 02.07.2022
2803 Clear 23 1016 64 8000 3.09 340 11:51 02.07.2022
2804 Clear 22 1016 68 8000 3.09 260 10:52 02.07.2022
2805 Clear 22 1016 68 8000 3.09 260 10:25 02.07.2022
2806 Clear 19 1016 82 8000 2.06 240 08:38 02.07.2022
2807 Clear 19 1015 87 10000 4.2 224 08:19 02.07.2022
2808 Clear 22 1012 78 10000 2.68 20 04:19 02.07.2022
2809 Clear 22 1013 78 10000 2.68 20 00:34 02.07.2022
2810 Clear 22 1013 78 10000 2.68 20 23:30 01.07.2022
2811 Clear 22 1013 78 10000 2.68 20 22:35 01.07.2022
2812 Clouds 22 1013 78 10000 3.09 20 21:38 01.07.2022
2813 Clouds 23 1013 69 10000 3.09 360 20:59 01.07.2022
2814 Clouds 23 1013 69 10000 3.09 360 20:35 01.07.2022
2815 Clouds 23 1012 69 10000 3.09 20 19:38 01.07.2022
2816 Clouds 24 1013 69 10000 4.12 360 17:39 01.07.2022
2817 Clouds 23 1013 69 10000 4.12 360 14:59 01.07.2022
2818 Clouds 24 1013 60 10000 3.09 360 13:54 01.07.2022
2819 Clouds 22 1014 68 8000 3.09 360 11:22 01.07.2022
2820 Clouds 21 1014 73 8000 1.03 0 10:19 01.07.2022
2821 Clear 17 1014 77 10000 0.72 296 07:40 01.07.2022
2822 Clear 20 1015 68 10000 4.02 340 02:43 01.07.2022
2823 Clear 20 1015 68 10000 4.02 340 00:22 01.07.2022
2824 Clear 20 1015 68 10000 4.02 340 22:52 30.06.2022
2825 Clear 20 1015 68 10000 4.02 340 22:32 30.06.2022
2826 Clouds 20 1015 68 10000 4.12 340 21:54 30.06.2022
2827 Clouds 21 1014 68 10000 5.14 360 20:58 30.06.2022
2828 Clouds 21 1014 68 10000 5.14 360 20:22 30.06.2022
2829 Clouds 22 1016 64 10000 6.17 340 19:51 30.06.2022
2830 Clouds 22 1016 64 10000 6.17 340 19:18 30.06.2022
2831 Clouds 23 1014 60 10000 6.17 360 18:34 30.06.2022
2832 Clouds 22 1015 64 10000 6.17 20 17:37 30.06.2022
2833 Clouds 22 1015 64 10000 5.14 20 16:22 30.06.2022
2834 Clouds 22 1015 60 10000 4.12 320 14:31 30.06.2022
2835 Clouds 22 1016 66 8000 4.12 360 13:29 30.06.2022
2836 Clouds 21 1016 68 8000 2.06 340 12:34 30.06.2022
2837 Clouds 21 1015 64 10000 2.68 340 11:23 30.06.2022
2838 Clouds 20 1015 68 8000 3.09 340 09:53 30.06.2022
2839 Clouds 20 1015 68 8000 3.09 340 09:29 30.06.2022
2840 Clouds 19 1015 75 10000 3.07 341 07:41 30.06.2022
2841 Clouds 21 1015 73 10000 4.02 40 05:47 30.06.2022
2842 Clear 21 1015 73 10000 4.02 40 00:27 30.06.2022
2843 Clear 21 1015 73 10000 4.02 40 22:58 29.06.2022
2844 Clear 21 1015 73 10000 4.02 40 22:37 29.06.2022
2845 Clouds 21 1015 73 10000 4.12 40 21:31 29.06.2022
2846 Clouds 22 1015 68 10000 2.06 40 20:33 29.06.2022
2847 Clouds 22 1015 68 10000 2.06 40 20:33 29.06.2022
2848 Clouds 23 1015 69 10000 3.09 20 19:34 29.06.2022
2849 Clouds 24 1016 64 10000 4.12 20 17:40 29.06.2022
2850 Clouds 24 1016 64 10000 4.12 360 16:35 29.06.2022
2851 Clouds 23 1017 69 8000 6.17 320 14:50 29.06.2022
2852 Clouds 23 1022 69 8000 4.12 360 12:39 29.06.2022
2853 Clouds 21 1017 73 6000 3.09 360 10:25 29.06.2022
2854 Clouds 20 1017 77 6000 2.06 360 09:31 29.06.2022
2855 Clear 16 1017 78 10000 1.56 330 07:30 29.06.2022
2856 Clear 22 1018 73 10000 4.02 360 04:49 29.06.2022
2857 Clear 22 1018 73 10000 4.02 360 00:55 29.06.2022
2858 Clear 22 1018 73 10000 4.02 360 00:35 29.06.2022
2859 Clear 22 1018 73 10000 4.02 360 22:53 28.06.2022
2860 Clear 22 1018 73 10000 4.02 360 22:21 28.06.2022
2861 Clouds 22 1018 73 8000 4.12 360 21:50 28.06.2022
2862 Clouds 22 1019 73 8000 4.12 360 21:30 28.06.2022
2863 Clouds 23 1017 69 8000 6.17 360 20:27 28.06.2022
2864 Clouds 24 1017 66 8000 5.81 360 19:32 28.06.2022
2865 Clouds 24 1017 64 8000 6.17 360 18:44 28.06.2022
2866 Clouds 24 1017 64 8000 5.14 360 17:38 28.06.2022
2867 Clouds 23 1017 64 8000 5.14 20 15:56 28.06.2022
2868 Clouds 23 1017 64 8000 5.14 20 15:56 28.06.2022
2869 Clouds 23 1018 64 8000 5.14 20 14:59 28.06.2022
2870 Clouds 23 1018 64 8000 5.14 20 14:20 28.06.2022
2871 Clouds 23 1018 64 8000 4.12 20 13:49 28.06.2022
2872 Clouds 23 1018 64 8000 3.09 20 12:48 28.06.2022
2873 Clouds 21 1024 64 6000 2.06 40 10:57 28.06.2022
2874 Clouds 19 1018 72 6000 2.06 20 09:25 28.06.2022
2875 Clouds 17 1018 82 6000 2.06 360 08:43 28.06.2022
2876 Clear 16 1017 75 10000 3.06 31 07:26 28.06.2022
2877 Clear 20 1019 60 10000 4.02 40 04:59 28.06.2022
2878 Clear 21 1019 60 10000 4.02 40 23:59 27.06.2022
2879 Clear 21 1019 60 10000 4.02 40 23:36 27.06.2022
2880 Clear 21 1019 60 10000 4.02 40 22:51 27.06.2022
2881 Clouds 21 1020 60 10000 4.12 40 21:33 27.06.2022
2882 Clouds 21 1019 60 10000 5.14 40 20:44 27.06.2022
2883 Clouds 22 1019 53 10000 5.14 20 18:58 27.06.2022
2884 Clouds 22 1020 53 10000 5.14 20 18:19 27.06.2022
2885 Clouds 23 1019 56 10000 6.17 20 16:18 27.06.2022
2886 Clouds 23 1020 56 10000 6.17 20 14:44 27.06.2022
2887 Clouds 22 1020 60 10000 5.14 20 13:25 27.06.2022
2888 Clouds 21 1019 60 10000 5.14 20 12:52 27.06.2022
2889 Clouds 21 1018 64 8000 3.09 40 10:22 27.06.2022
2890 Clouds 20 1018 64 8000 3.09 20 08:47 27.06.2022
2891 Clouds 19 1018 65 10000 4.41 19 07:59 27.06.2022
2892 Clouds 19 1017 66 10000 4.13 18 06:38 27.06.2022
2893 Clear 20 1031 60 10000 4.02 20 02:23 27.06.2022
2894 Clear 20 1031 60 10000 4.02 20 23:49 26.06.2022
2895 Clouds 20 1024 60 10000 4.12 20 21:58 26.06.2022
2896 Clouds 21 1024 56 10000 5.14 20 20:34 26.06.2022
2897 Clouds 21 1016 60 10000 5.14 20 19:27 26.06.2022
2898 Clouds 22 1016 60 10000 6.17 20 18:28 26.06.2022
2899 Clouds 23 1015 60 10000 5.14 360 16:21 26.06.2022
2900 Clouds 23 1015 56 10000 6.17 360 14:34 26.06.2022
2901 Clouds 23 1016 60 10000 5.14 360 13:30 26.06.2022
2902 Clouds 23 1016 60 10000 5.14 360 13:30 26.06.2022
2903 Clouds 22 1015 60 10000 4.12 20 12:52 26.06.2022
2904 Clouds 21 1015 64 8000 4.12 20 11:21 26.06.2022
2905 Clouds 20 1016 72 8000 3.09 360 10:23 26.06.2022
2906 Clouds 20 1015 72 8000 3.09 20 08:46 26.06.2022
2907 Clouds 21 1014 77 10000 4.52 2 07:23 26.06.2022
2908 Clouds 21 1015 71 10000 4.39 3 00:49 26.06.2022
2909 Clouds 21 1016 73 10000 4.21 1 00:20 26.06.2022
2910 Clouds 21 1016 73 10000 4.21 1 23:33 25.06.2022
2911 Clouds 21 1015 74 10000 3.89 0 22:51 25.06.2022
2912 Clouds 21 1015 72 10000 3.86 0 22:26 25.06.2022
2913 Clouds 22 1015 64 10000 3.09 20 21:37 25.06.2022
2914 Clouds 22 1015 64 10000 3.09 20 21:18 25.06.2022
2915 Clouds 22 1014 64 10000 6.17 20 20:25 25.06.2022
2916 Clouds 22 1014 64 10000 5.14 360 18:45 25.06.2022
2917 Clouds 23 1015 60 10000 7.2 360 17:28 25.06.2022
2918 Clouds 24 1015 60 10000 5.14 360 16:44 25.06.2022
2919 Clouds 24 1015 57 10000 4.12 40 14:50 25.06.2022
2920 Clouds 22 1016 64 10000 2.06 40 12:57 25.06.2022
2921 Clouds 22 1016 64 10000 2.06 40 12:37 25.06.2022
2922 Clouds 22 1024 56 8000 2.06 60 10:30 25.06.2022
2923 Clouds 20 1017 72 8000 1.03 40 08:57 25.06.2022
2924 Clouds 20 1017 72 8000 1.03 40 08:29 25.06.2022
2925 Clouds 18 1016 68 10000 3.37 22 06:53 25.06.2022
2926 Clouds 22 1031 68 10000 2.68 40 03:26 25.06.2022
2927 Clouds 22 1017 68 10000 2.68 40 00:21 25.06.2022
2928 Clouds 22 1017 68 10000 2.68 40 22:51 24.06.2022
2929 Clouds 22 1024 68 10000 3.09 40 21:31 24.06.2022
2930 Clouds 23 1017 64 10000 3.09 20 20:25 24.06.2022
2931 Clouds 23 1017 69 10000 6.17 40 19:52 24.06.2022
2932 Clouds 23 1017 69 10000 6.17 40 19:19 24.06.2022
2933 Clouds 24 1017 60 10000 4.12 40 18:47 24.06.2022
2934 Clouds 24 1018 60 10000 4.12 40 18:29 24.06.2022
2935 Clouds 24 1018 60 10000 3.09 20 16:52 24.06.2022
2936 Clouds 24 1018 57 10000 4.12 20 15:27 24.06.2022
2937 Clouds 24 1019 57 10000 6.17 20 14:25 24.06.2022
2938 Clouds 24 1019 53 10000 5.14 20 13:46 24.06.2022
2939 Clouds 23 1019 56 10000 2.06 20 11:42 24.06.2022
2940 Clouds 22 1020 64 8000 2.06 80 10:43 24.06.2022
2941 Clouds 21 1025 70 8000 2.06 80 09:42 24.06.2022
2942 Clouds 20 1025 72 8000 2.06 80 08:58 24.06.2022
2943 Clouds 20 1020 72 8000 2.06 80 08:40 24.06.2022
2944 Clouds 18 1019 79 10000 2.84 35 06:45 24.06.2022
2945 Clouds 19 1019 79 10000 2.71 34 06:26 24.06.2022
2946 Clouds 22 1018 64 10000 4.02 20 05:21 24.06.2022
2947 Clear 22 1018 64 10000 4.02 20 23:43 23.06.2022
2948 Clear 22 1018 64 10000 4.02 20 22:43 23.06.2022
2949 Clouds 22 1023 64 10000 4.12 20 21:40 23.06.2022
2950 Clouds 23 1018 60 10000 5.14 20 20:42 23.06.2022
2951 Clouds 23 1018 60 10000 6.17 20 19:55 23.06.2022
2952 Clouds 23 1019 60 10000 5.14 20 18:38 23.06.2022
2953 Clouds 24 1018 53 10000 4.12 360 17:35 23.06.2022
2954 Clouds 24 1018 53 10000 5.14 360 16:32 23.06.2022
2955 Clouds 25 1018 53 10000 4.12 360 15:26 23.06.2022
2956 Clouds 24 1018 57 10000 4.12 360 14:36 23.06.2022
2957 Clouds 21 1018 68 10000 1.03 340 11:42 23.06.2022
2958 Clouds 20 1018 68 6000 1.03 180 10:42 23.06.2022
2959 Clouds 20 1016 70 5000 2.06 360 09:19 23.06.2022
2960 Clear 17 1016 76 10000 1.05 76 05:37 23.06.2022
2961 Clear 22 1016 60 10000 2.68 360 00:28 23.06.2022
2962 Clear 22 1016 60 10000 2.68 360 23:59 22.06.2022
2963 Clear 22 1016 60 10000 2.68 360 23:18 22.06.2022
2964 Clear 22 1016 60 10000 3.09 360 21:44 22.06.2022
2965 Clear 22 1017 56 10000 4.12 360 20:52 22.06.2022
2966 Clear 22 1016 56 10000 4.12 360 20:19 22.06.2022
2967 Clouds 23 1017 53 10000 5.14 360 19:30 22.06.2022
2968 Clouds 24 1016 50 10000 4.12 260 17:40 22.06.2022
2969 Clouds 23 1017 53 10000 5.14 360 16:41 22.06.2022
2970 Clouds 23 1017 53 10000 5.14 360 15:29 22.06.2022
2971 Clouds 23 1017 53 10000 4.12 360 14:47 22.06.2022
2972 Clouds 23 1017 53 10000 3.09 360 13:47 22.06.2022
2973 Clouds 23 1017 53 10000 3.09 360 13:24 22.06.2022
2974 Clouds 22 1018 53 10000 2.06 360 11:54 22.06.2022
2975 Clouds 22 1018 53 10000 2.06 360 11:29 22.06.2022
2976 Clouds 22 1018 56 10000 1.03 360 10:43 22.06.2022
2977 Clouds 20 1017 64 8000 2.06 360 09:18 22.06.2022
2978 Clouds 19 1016 68 10000 1.73 8 06:55 22.06.2022
2979 Clear 22 1022 56 10000 2.68 360 01:59 22.06.2022
2980 Clear 22 1017 56 10000 2.68 360 00:57 22.06.2022
2981 Clear 22 1017 56 10000 2.68 360 22:49 21.06.2022
2982 Clouds 22 1016 60 10000 3.09 360 20:47 21.06.2022
2983 Clouds 23 1016 60 10000 5.14 360 19:23 21.06.2022
2984 Clouds 23 1016 56 10000 5.14 360 17:54 21.06.2022
2985 Clouds 24 1016 56 10000 4.12 360 16:38 21.06.2022
2986 Clouds 21 1016 68 8000 2.06 20 11:57 21.06.2022
2987 Clouds 20 1016 68 8000 4.12 40 10:38 21.06.2022
2988 Clouds 20 1016 68 8000 1.03 20 09:20 21.06.2022
2989 Clear 20 1014 71 10000 4.04 18 07:44 21.06.2022
2990 Clear 20 1014 71 10000 4.94 19 04:43 21.06.2022
2991 Clouds 20 1017 72 10000 4.92 32 00:21 21.06.2022
2992 Clouds 21 1017 71 10000 5.32 13 22:21 20.06.2022
2993 Clouds 21 1017 71 10000 5.32 13 22:21 20.06.2022
2994 Clouds 21 1016 64 10000 4.12 40 21:37 20.06.2022
2995 Clouds 23 1016 64 10000 5.14 40 20:28 20.06.2022
2996 Clouds 23 1016 68 10000 4.12 40 19:35 20.06.2022
2997 Clouds 24 1016 60 10000 3.09 40 18:26 20.06.2022
2998 Clouds 24 1016 64 10000 5.14 20 17:49 20.06.2022
2999 Clouds 24 1016 68 10000 5.14 20 16:26 20.06.2022
3000 Clouds 24 1016 68 10000 6.17 40 15:20 20.06.2022
3001 Clouds 23 1016 68 10000 4.12 20 12:18 20.06.2022
3002 Clouds 22 1015 83 8000 3.09 20 09:57 20.06.2022
3003 Clouds 21 1014 78 8000 2.06 40 08:46 20.06.2022
3004 Clouds 21 1014 79 10000 2.47 350 07:36 20.06.2022
3005 Clouds 23 1014 69 10000 4.02 360 04:56 20.06.2022
3006 Clouds 23 1025 69 10000 4.02 360 01:32 20.06.2022
3007 Clouds 23 1014 69 10000 4.02 360 23:49 19.06.2022
3008 Clouds 23 1014 69 10000 4.02 360 22:25 19.06.2022
3009 Clouds 23 1014 69 10000 4.12 360 21:42 19.06.2022
3010 Clouds 23 1014 69 10000 3.09 360 20:52 19.06.2022
3011 Clouds 24 1013 64 10000 4.12 360 19:49 19.06.2022
3012 Clouds 24 1013 64 10000 4.12 360 19:49 19.06.2022
3013 Clouds 24 1013 64 10000 4.12 360 19:25 19.06.2022
3014 Clear 25 1014 64 10000 4.12 360 18:32 19.06.2022
3015 Clear 25 1014 60 10000 4.12 360 17:48 19.06.2022
3016 Clear 25 1014 60 10000 4.12 360 17:20 19.06.2022
3017 Clouds 25 1014 60 10000 4.12 360 16:34 19.06.2022
3018 Clouds 25 1014 64 10000 4.12 360 15:35 19.06.2022
3019 Clouds 24 1015 64 10000 4.12 20 14:43 19.06.2022
3020 Clouds 24 1015 64 10000 2.06 60 13:54 19.06.2022
3021 Clouds 23 1015 69 10000 2.06 60 12:26 19.06.2022
3022 Clouds 22 1015 73 8000 2.06 40 10:53 19.06.2022
3023 Clouds 21 1015 77 8000 2.06 60 09:31 19.06.2022
3024 Clouds 19 1015 82 8000 1.03 40 08:35 19.06.2022
3025 Clear 20 1015 82 10000 2.54 32 07:30 19.06.2022
3026 Clear 22 1016 73 10000 4.02 40 04:33 19.06.2022
3027 Clear 21 1017 78 10000 2.92 7 01:28 19.06.2022
3028 Clear 21 1018 77 10000 2.98 3 00:23 19.06.2022
3029 Clear 22 1018 77 10000 2.98 3 23:35 18.06.2022
3030 Clear 22 1017 75 10000 2.66 23 22:36 18.06.2022
3031 Clouds 23 1015 64 8000 4.12 40 20:55 18.06.2022
3032 Clouds 23 1015 67 8000 4.12 40 20:26 18.06.2022
3033 Clouds 23 1015 69 8000 4.12 40 19:25 18.06.2022
3034 Clouds 24 1016 64 8000 4.12 40 18:44 18.06.2022
3035 Clouds 24 1016 69 8000 4.12 40 17:30 18.06.2022
3036 Clouds 24 1016 69 8000 4.12 40 17:30 18.06.2022
3037 Clouds 25 1017 69 8000 4.12 20 16:23 18.06.2022
3038 Clouds 26 1017 61 8000 4.12 40 15:18 18.06.2022
3039 Clouds 24 1018 64 8000 4.12 20 14:42 18.06.2022
3040 Clouds 23 1018 73 8000 4.12 20 12:51 18.06.2022
3041 Clouds 23 1020 69 8000 4.12 20 11:31 18.06.2022
3042 Clouds 22 1017 78 8000 4.12 20 10:25 18.06.2022
3043 Clouds 21 1018 83 8000 3.09 60 09:19 18.06.2022
3044 Clear 20 1017 80 10000 3.64 20 08:18 18.06.2022
3045 Clear 21 1017 80 10000 2.69 23 06:26 18.06.2022
3046 Clear 22 1017 78 10000 4.92 40 02:54 18.06.2022
3047 Clouds 22 1018 80 10000 3.67 355 01:24 18.06.2022
3048 Clouds 22 1018 80 10000 3.67 355 00:41 18.06.2022
3049 Clouds 22 1018 80 10000 4.87 346 23:45 17.06.2022
3050 Clouds 22 1018 80 10000 4.52 0 22:55 17.06.2022
3051 Clouds 23 1016 76 10000 6.17 40 20:40 17.06.2022
3052 Clouds 23 1016 78 10000 6.17 20 19:26 17.06.2022
3053 Clouds 24 1016 73 10000 6.17 360 18:25 17.06.2022
3054 Clouds 25 1016 69 10000 6.17 40 17:34 17.06.2022
3055 Clouds 26 1016 65 8000 6.17 20 16:38 17.06.2022
3056 Clouds 24 1016 69 8000 6.17 40 15:42 17.06.2022
3057 Clouds 25 1016 69 8000 4.12 40 14:46 17.06.2022
3058 Clouds 25 1016 69 8000 4.12 40 14:19 17.06.2022
3059 Clouds 25 1017 69 8000 4.12 40 13:42 17.06.2022
3060 Clouds 24 1017 69 8000 3.09 100 12:42 17.06.2022
3061 Clouds 24 1017 69 8000 3.09 100 11:56 17.06.2022
3062 Clouds 24 1017 69 8000 3.09 100 11:35 17.06.2022
3063 Clouds 21 1017 83 8000 3.09 80 09:59 17.06.2022
3064 Clouds 20 1017 88 8000 3.09 60 08:27 17.06.2022
3065 Clouds 20 1016 84 10000 4.06 24 06:57 17.06.2022
3066 Clear 23 1017 73 10000 1.79 40 04:52 17.06.2022
3067 Clear 23 1017 73 10000 1.79 40 02:41 17.06.2022
3068 Clouds 23 1017 73 10000 1.79 40 00:33 17.06.2022
3069 Clear 23 1017 73 10000 1.79 40 22:44 16.06.2022
3070 Clouds 23 1017 73 8000 2.06 40 21:26 16.06.2022
3071 Clouds 23 1017 73 6000 3.09 40 20:58 16.06.2022
3072 Clouds 23 1017 73 6000 3.09 40 20:36 16.06.2022
3073 Clouds 24 1018 69 6000 3.09 40 19:53 16.06.2022
3074 Clouds 23 1017 73 6000 3.09 40 18:27 16.06.2022
3075 Clouds 24 1017 69 6000 3.09 20 17:43 16.06.2022
3076 Clouds 24 1018 69 6000 3.09 40 16:39 16.06.2022
3077 Clouds 23 1017 73 6000 3.09 40 15:24 16.06.2022
3078 Clouds 22 1018 78 6000 3.09 20 14:46 16.06.2022
3079 Clouds 22 1018 78 6000 3.09 20 13:32 16.06.2022
3080 Clouds 21 1017 88 6000 2.06 40 12:36 16.06.2022
3081 Clouds 21 1017 88 6000 3.09 20 11:52 16.06.2022
3082 Clouds 21 1018 83 6000 4.12 20 10:56 16.06.2022
3083 Clouds 21 1018 83 6000 4.12 20 10:27 16.06.2022
3084 Clouds 21 1017 83 6000 2.06 360 09:21 16.06.2022
3085 Clouds 21 1017 83 6000 2.06 20 08:30 16.06.2022
3086 Clouds 21 1016 84 10000 3.21 6 07:26 16.06.2022
3087 Clouds 22 1018 78 10000 2.68 320 04:50 16.06.2022
3088 Clouds 22 1019 78 10000 2.68 320 02:21 16.06.2022
3089 Clouds 22 1019 78 10000 2.68 320 01:42 16.06.2022
3090 Clouds 22 1019 78 10000 2.68 320 01:21 16.06.2022
3091 Clouds 22 1018 78 10000 2.68 320 23:47 15.06.2022
3092 Clouds 22 1018 78 10000 2.68 320 23:47 15.06.2022
3093 Clouds 22 1017 78 10000 2.68 320 22:38 15.06.2022
3094 Clouds 22 1017 78 6000 3.09 320 21:22 15.06.2022
3095 Clouds 22 1016 83 6000 2.06 340 20:44 15.06.2022
3096 Clouds 22 1016 83 6000 4.02 320 20:25 15.06.2022
3097 Clouds 22 1016 83 6000 4.12 320 19:29 15.06.2022
3098 Clouds 23 1016 78 6000 5.14 320 17:56 15.06.2022
3099 Clouds 23 1017 78 6000 5.14 320 17:25 15.06.2022
3100 Clouds 24 1017 83 6000 5.14 320 15:38 15.06.2022
3101 Clouds 24 1016 83 5000 4.12 360 14:18 15.06.2022
3102 Clouds 24 1015 94 5000 3.09 360 12:54 15.06.2022
3103 Clouds 23 1014 94 5000 4.12 360 11:58 15.06.2022
3104 Clouds 23 1015 97 5000 3.09 360 10:24 15.06.2022
3105 Clouds 23 1015 97 5000 3.09 360 10:24 15.06.2022
3106 Clouds 23 1016 94 5000 3.09 360 09:43 15.06.2022
3107 Clouds 22 1015 100 5000 3.09 20 08:40 15.06.2022
3108 Clouds 30 1013 89 10000 2.34 337 06:36 15.06.2022
3109 Clouds 25 1016 83 10000 1.79 60 04:46 15.06.2022
3110 Clouds 25 1017 83 10000 1.79 60 01:55 15.06.2022
3111 Clouds 25 1016 83 10000 1.79 60 00:51 15.06.2022
3112 Clouds 24 1016 83 10000 1.79 60 23:39 14.06.2022
3113 Clouds 24 1015 83 10000 1.79 60 23:21 14.06.2022
3114 Clouds 24 1015 83 10000 1.79 60 22:23 14.06.2022
3115 Clouds 24 1014 83 5000 2.06 60 21:38 14.06.2022
3116 Clouds 25 1015 83 5000 2.06 60 20:54 14.06.2022
3117 Clouds 25 1015 83 5000 2.06 60 20:31 14.06.2022
3118 Clouds 24 1013 78 5000 2.06 40 19:20 14.06.2022
3119 Clouds 24 1013 78 5000 2.06 360 18:20 14.06.2022
3120 Clouds 26 1015 73 5000 3.09 360 16:47 14.06.2022
3121 Clouds 26 1015 69 5000 1.03 20 15:50 14.06.2022
3122 Clouds 26 1015 69 5000 1.03 20 15:50 14.06.2022
3123 Clouds 27 1014 69 5000 1.03 20 15:28 14.06.2022
3124 Clouds 27 1014 69 6000 3.09 40 14:37 14.06.2022
3125 Clouds 26 1014 73 6000 2.06 40 13:46 14.06.2022
3126 Mist 24 1015 83 3000 3.09 20 12:45 14.06.2022
3127 Mist 23 1011 83 3000 3.09 360 11:38 14.06.2022
3128 Mist 22 1015 88 3000 3.09 20 10:48 14.06.2022
3129 Mist 22 1015 88 3000 3.09 20 10:22 14.06.2022
3130 Mist 22 1014 88 3000 4.12 80 08:48 14.06.2022
3131 Clouds 22 1014 88 10000 1.72 26 07:35 14.06.2022
3132 Clouds 23 1014 83 10000 2.68 340 05:29 14.06.2022
3133 Clouds 23 1014 83 10000 2.68 340 02:58 14.06.2022
3134 Clouds 23 1014 83 10000 2.68 340 00:54 14.06.2022
3135 Clouds 23 1014 83 10000 2.68 340 23:41 13.06.2022
3136 Clouds 23 1014 83 10000 2.68 340 22:26 13.06.2022
3137 Clouds 23 1014 83 6000 3.09 340 21:52 13.06.2022
3138 Clouds 23 1015 83 6000 4.12 300 20:42 13.06.2022
3139 Clouds 24 1015 78 6000 5.14 320 19:35 13.06.2022
3140 Clouds 24 1014 78 6000 5.14 320 18:28 13.06.2022
3141 Clouds 26 1009 78 6000 5.14 320 17:47 13.06.2022
3142 Clouds 26 1016 74 6000 5.14 340 16:52 13.06.2022
3143 Clouds 26 1015 74 6000 4.12 320 15:40 13.06.2022
3144 Clear 26 1014 74 6000 3.09 320 14:47 13.06.2022
3145 Clouds 26 1014 74 6000 3.09 20 13:55 13.06.2022
3146 Clouds 26 1014 74 6000 3.09 340 12:49 13.06.2022
3147 Clouds 25 1013 78 6000 1.03 80 11:34 13.06.2022
3148 Clouds 23 1013 83 6000 2.06 80 10:27 13.06.2022
3149 Clouds 22 1013 88 5000 2.06 40 09:39 13.06.2022
3150 Clouds 22 1013 88 5000 2.06 40 08:24 13.06.2022
3151 Clouds 25 1013 87 10000 1.46 304 06:33 13.06.2022
3152 Clouds 23 1017 83 10000 0.89 20 03:28 13.06.2022
3153 Clouds 23 1017 83 10000 0.89 20 01:38 13.06.2022
3154 Clouds 26 1014 61 10000 1.71 232 00:22 13.06.2022
3155 Clouds 27 1014 64 10000 1.1 245 23:29 12.06.2022
3156 Clouds 24 1015 83 10000 0.89 20 22:23 12.06.2022
3157 Clouds 23 1015 83 6000 1.03 20 21:39 12.06.2022
3158 Clouds 23 1014 83 6000 3.09 280 20:39 12.06.2022
3159 Clouds 25 1013 78 6000 4.12 280 19:38 12.06.2022
3160 Clouds 26 1014 73 6000 4.12 340 18:39 12.06.2022
3161 Clear 27 1014 69 6000 5.14 320 16:42 12.06.2022
3162 Clear 28 1014 65 6000 4.12 320 15:30 12.06.2022
3163 Clear 28 1014 65 5000 5.14 360 14:32 12.06.2022
3164 Clouds 28 1014 61 5000 3.09 360 13:55 12.06.2022
3165 Clouds 27 1014 61 5000 3.09 360 12:58 12.06.2022
3166 Clouds 24 1014 78 5000 3.09 360 11:47 12.06.2022
3167 Mist 21 1015 100 3000 2.06 360 10:45 12.06.2022
3168 Mist 21 1014 94 3000 1.03 360 09:28 12.06.2022
3169 Mist 21 1014 94 3000 1.03 360 08:49 12.06.2022
3170 Clouds 21 1013 84 10000 2.45 248 07:40 12.06.2022
3171 Clouds 22 1013 88 10000 2.53 238 05:38 12.06.2022
3172 Clouds 23 1012 82 10000 2.92 311 03:38 12.06.2022
3173 Clouds 26 1012 69 10000 2.68 360 01:43 12.06.2022
3174 Clouds 26 1012 69 10000 2.68 360 00:59 12.06.2022
3175 Clouds 26 1012 69 10000 2.68 360 00:26 12.06.2022
3176 Clouds 26 1012 69 10000 2.68 360 23:53 11.06.2022
3177 Clouds 26 1012 69 10000 2.68 360 22:40 11.06.2022
3178 Clouds 26 1012 69 10000 2.68 360 22:21 11.06.2022
3179 Clouds 26 1012 69 5000 3.09 360 20:55 11.06.2022
3180 Clouds 27 1012 69 5000 3.09 360 20:24 11.06.2022
3181 Clouds 26 1012 73 5000 3.09 40 19:26 11.06.2022
3182 Clouds 26 1012 69 5000 3.09 300 18:36 11.06.2022
3183 Clouds 27 1012 65 5000 3.09 360 17:52 11.06.2022
3184 Clouds 28 1012 65 5000 3.09 360 17:29 11.06.2022
3185 Clouds 27 1012 69 5000 3.09 300 16:58 11.06.2022
3186 Clouds 27 1012 69 5000 3.09 300 16:30 11.06.2022
3187 Clouds 28 1012 65 5000 3.09 360 15:45 11.06.2022
3188 Clouds 27 1013 65 6000 3.09 340 13:54 11.06.2022
3189 Clouds 26 1013 65 6000 3.09 340 13:24 11.06.2022
3190 Clouds 23 1013 78 8000 2.06 300 10:58 11.06.2022
3191 Clouds 22 1013 78 8000 2.06 300 10:20 11.06.2022
3192 Clouds 21 1012 83 8000 2.06 280 09:29 11.06.2022
3193 Clouds 19 1012 89 10000 2.99 228 07:46 11.06.2022
3194 Clouds 19 1012 90 10000 1.06 208 06:30 11.06.2022
3195 Clouds 20 1012 90 10000 1.71 273 05:19 11.06.2022
3196 Clouds 22 1012 85 10000 1.7 297 01:53 11.06.2022
3197 Clouds 22 1012 85 10000 1.7 297 01:33 11.06.2022
3198 Clouds 25 1013 69 10000 2.68 340 00:21 11.06.2022
3199 Clouds 25 1016 69 10000 2.68 340 22:33 10.06.2022
3200 Clouds 25 1013 69 10000 3.09 340 21:53 10.06.2022
3201 Clouds 26 1012 65 10000 3.09 340 20:42 10.06.2022
3202 Clouds 26 1012 65 10000 3.09 340 20:22 10.06.2022
3203 Clouds 26 1012 61 10000 2.06 360 19:48 10.06.2022
3204 Clouds 26 1012 61 10000 2.06 360 19:18 10.06.2022
3205 Clouds 26 1012 65 10000 3.09 360 18:19 10.06.2022
3206 Clouds 26 1012 69 10000 3.09 20 17:36 10.06.2022
3207 Clouds 26 1013 73 10000 4.12 340 16:55 10.06.2022
3208 Clear 26 1013 73 10000 3.09 340 15:47 10.06.2022
3209 Clear 26 1014 73 10000 4.12 320 14:57 10.06.2022
3210 Clear 26 1014 69 10000 4.12 360 13:44 10.06.2022
3211 Clear 25 1014 73 10000 4.12 340 12:28 10.06.2022
3212 Clear 24 1017 73 8000 3.09 300 11:40 10.06.2022
3213 Clear 22 1014 83 6000 2.06 320 10:37 10.06.2022
3214 Clouds 21 1014 88 6000 2.06 260 09:40 10.06.2022
3215 Clear 20 1014 87 10000 1.29 270 08:23 10.06.2022
3216 Clear 19 1013 86 10000 1.14 284 06:52 10.06.2022
3217 Clear 20 1013 86 10000 1.14 284 06:32 10.06.2022
3218 Clear 22 1015 83 10000 2.68 360 05:45 10.06.2022
3219 Clear 22 1015 83 10000 2.68 360 02:55 10.06.2022
3220 Clear 22 1015 83 10000 2.68 360 01:37 10.06.2022
3221 Clear 22 1015 83 10000 2.68 360 23:58 09.06.2022
3222 Clear 22 1015 83 10000 2.68 360 22:56 09.06.2022
3223 Clouds 22 1015 83 8000 3.09 360 21:47 09.06.2022
3224 Clouds 22 1015 83 8000 3.09 360 21:28 09.06.2022
3225 Clouds 23 1014 78 10000 4.12 360 20:47 09.06.2022
3226 Clouds 24 1014 73 10000 5.14 360 19:54 09.06.2022
3227 Clouds 24 1014 73 10000 4.12 40 18:47 09.06.2022
3228 Clouds 26 1015 73 10000 6.17 360 17:56 09.06.2022
3229 Clear 26 1015 69 10000 6.17 40 16:44 09.06.2022
3230 Clouds 26 1015 69 10000 5.14 40 15:44 09.06.2022
3231 Clouds 26 1016 69 10000 5.14 40 14:34 09.06.2022
3232 Clouds 26 1016 69 10000 5.14 40 13:46 09.06.2022
3233 Clouds 25 1016 69 10000 5.14 40 13:26 09.06.2022
3234 Clouds 24 1017 73 10000 3.09 40 11:53 09.06.2022
3235 Clouds 23 1016 78 8000 3.09 60 10:40 09.06.2022
3236 Clouds 22 1017 83 8000 3.09 60 09:41 09.06.2022
3237 Clouds 22 1017 83 8000 3.09 60 09:23 09.06.2022
3238 Clouds 20 1017 92 10000 3.28 24 07:34 09.06.2022
3239 Clouds 22 1019 78 10000 2.68 60 05:27 09.06.2022
3240 Clear 22 1019 78 10000 2.68 60 01:44 09.06.2022
3241 Clear 22 1019 78 10000 2.68 60 23:24 08.06.2022
3242 Clear 22 1019 78 10000 2.68 60 22:50 08.06.2022
3243 Clear 22 1019 78 10000 2.68 60 22:25 08.06.2022
3244 Clouds 22 1019 78 10000 3.09 60 21:49 08.06.2022
3245 Clouds 23 1019 78 10000 4.12 40 20:43 08.06.2022
3246 Clouds 23 1018 78 10000 5.14 40 19:49 08.06.2022
3247 Clouds 23 1018 78 10000 6.17 40 18:58 08.06.2022
3248 Clouds 23 1018 78 10000 6.17 40 18:40 08.06.2022
3249 Clouds 25 1019 73 10000 5.14 60 16:34 08.06.2022
3250 Clouds 26 1020 65 10000 2.06 20 14:54 08.06.2022
3251 Clouds 25 1020 64 10000 2.06 360 13:36 08.06.2022
3252 Clouds 23 1020 69 10000 3.09 360 11:50 08.06.2022
3253 Clouds 23 1020 69 10000 3.09 360 11:22 08.06.2022
3254 Clouds 20 1020 82 8000 3.09 20 09:47 08.06.2022
3255 Clouds 20 1020 82 8000 3.09 20 09:20 08.06.2022
3256 Clear 19 1019 83 10000 1.61 15 07:32 08.06.2022
3257 Clouds 22 1018 78 10000 2.68 20 05:20 08.06.2022
3258 Clear 22 1018 78 10000 2.68 20 02:28 08.06.2022
3259 Clear 22 1018 78 10000 2.68 20 23:41 07.06.2022
3260 Clear 22 1018 78 10000 2.68 20 23:22 07.06.2022
3261 Clear 22 1018 78 10000 2.68 20 22:38 07.06.2022
3262 Clouds 22 1018 78 10000 3.09 20 21:52 07.06.2022
3263 Clouds 22 1018 78 10000 3.09 20 21:27 07.06.2022
3264 Clouds 22 1019 78 10000 4.12 20 20:46 07.06.2022
3265 Clouds 22 1019 78 10000 4.12 20 20:23 07.06.2022
3266 Clouds 23 1019 73 10000 3.09 40 18:51 07.06.2022
3267 Clouds 24 1019 69 10000 4.12 40 17:54 07.06.2022
3268 Clouds 24 1020 73 10000 4.12 300 16:54 07.06.2022
3269 Clouds 25 1020 73 10000 4.12 300 16:32 07.06.2022
3270 Clouds 24 1019 73 10000 4.12 280 15:40 07.06.2022
3271 Clouds 24 1019 73 10000 4.12 280 15:21 07.06.2022
3272 Clear 24 1020 69 10000 3.09 340 14:45 07.06.2022
3273 Clear 24 1020 64 10000 4.12 20 13:46 07.06.2022
3274 Clear 24 1020 64 10000 4.12 20 13:26 07.06.2022
3275 Clear 23 1020 69 8000 2.06 320 11:56 07.06.2022
3276 Clear 23 1020 69 8000 2.06 320 11:56 07.06.2022
3277 Clouds 21 1020 77 8000 2.06 320 10:57 07.06.2022
3278 Clouds 20 1020 88 6000 2.06 340 09:28 07.06.2022
3279 Clouds 20 1020 88 6000 2.06 340 08:31 07.06.2022
3280 Clear 18 1019 82 10000 2.71 26 07:19 07.06.2022
3281 Clear 22 1019 83 10000 2.68 20 05:19 07.06.2022
3282 Clear 22 1019 83 10000 2.68 20 01:44 07.06.2022
3283 Clear 22 1019 83 10000 2.68 20 00:20 07.06.2022
3284 Clear 22 1019 83 10000 2.68 20 23:25 06.06.2022
3285 Clear 22 1019 83 10000 2.68 20 22:37 06.06.2022
3286 Clouds 22 1019 83 10000 3.09 20 21:33 06.06.2022
3287 Clouds 24 1018 69 10000 5.14 20 19:37 06.06.2022
3288 Clouds 24 1018 69 10000 5.14 20 19:19 06.06.2022
3289 Clouds 25 1018 65 10000 4.12 20 18:34 06.06.2022
3290 Clouds 24 1019 69 10000 5.14 20 17:31 06.06.2022
3291 Clear 25 1019 69 10000 5.14 360 16:21 06.06.2022
3292 Clear 26 1020 61 10000 4.12 40 15:33 06.06.2022
3293 Clouds 25 1020 64 10000 4.12 20 14:36 06.06.2022
3294 Clouds 25 1022 53 10000 3.09 20 13:27 06.06.2022
3295 Clouds 24 1020 60 10000 3.09 40 12:37 06.06.2022
3296 Clouds 23 1020 64 10000 3.09 60 11:54 06.06.2022
3297 Clouds 23 1020 60 8000 2.06 80 10:46 06.06.2022
3298 Clouds 21 1020 73 8000 2.06 80 09:40 06.06.2022
3299 Clouds 20 1019 77 8000 2.06 100 08:33 06.06.2022
3300 Clear 19 1019 82 10000 2.92 46 07:28 06.06.2022
3301 Clear 21 1020 73 10000 4.02 20 05:29 06.06.2022
3302 Clear 21 1020 73 10000 4.02 20 05:29 06.06.2022
3303 Clear 21 1020 73 10000 4.02 20 05:29 06.06.2022
3304 Clear 21 1020 73 10000 4.02 20 03:44 06.06.2022
3305 Clear 21 1022 73 10000 4.02 20 01:23 06.06.2022
3306 Clear 21 1020 73 10000 4.02 20 00:42 06.06.2022
3307 Clear 21 1020 73 10000 4.02 20 23:44 05.06.2022
3308 Clear 21 1020 73 10000 4.02 20 22:52 05.06.2022
3309 Clouds 22 1019 68 10000 5.14 40 20:59 05.06.2022
3310 Clouds 22 1019 68 10000 6.17 40 19:50 05.06.2022
3311 Clouds 22 1019 68 10000 5.14 60 18:30 05.06.2022
3312 Clouds 23 1020 64 10000 5.14 20 17:55 05.06.2022
3313 Clouds 23 1020 64 10000 5.14 20 17:27 05.06.2022
3314 Clouds 23 1020 60 10000 5.14 60 16:57 05.06.2022
3315 Clouds 23 1020 60 10000 5.14 60 16:37 05.06.2022
3316 Clouds 23 1021 60 8000 6.17 40 14:34 05.06.2022
3317 Clouds 22 1021 64 8000 4.12 40 12:59 05.06.2022
3318 Clouds 21 1021 68 8000 3.09 60 11:49 05.06.2022
3319 Clouds 22 1021 64 8000 3.09 80 10:42 05.06.2022
3320 Clouds 22 1021 64 8000 3.09 80 10:22 05.06.2022
3321 Clouds 19 1020 72 8000 2.06 80 08:40 05.06.2022
3322 Clouds 19 1020 72 8000 2.06 80 08:20 05.06.2022
3323 Clouds 19 1020 80 10000 4.44 37 05:23 05.06.2022
3324 Clouds 19 1020 80 10000 4.44 37 04:30 05.06.2022
3325 Clouds 22 1020 64 10000 4.29 28 01:33 05.06.2022
3326 Clouds 22 1020 64 10000 4.89 24 00:52 05.06.2022
3327 Clouds 22 1020 64 10000 4.95 18 22:43 04.06.2022
3328 Clouds 22 1019 64 10000 4.12 60 20:42 04.06.2022
3329 Clouds 23 1019 60 10000 6.17 40 18:51 04.06.2022
3330 Clouds 23 1019 60 10000 3.09 20 16:47 04.06.2022
3331 Clouds 23 1019 60 10000 3.09 20 16:18 04.06.2022
3332 Clouds 23 1019 56 10000 4.12 20 14:54 04.06.2022
3333 Clouds 22 1019 60 10000 3.09 20 13:37 04.06.2022
3334 Clouds 21 1019 64 10000 3.09 20 11:22 04.06.2022
3335 Clouds 21 1019 64 6000 2.06 20 10:49 04.06.2022
3336 Clouds 20 1019 72 6000 1.03 360 09:45 04.06.2022
3337 Clouds 19 1018 77 6000 1.03 20 08:43 04.06.2022
3338 Clouds 19 1018 73 10000 1.16 346 07:51 04.06.2022
3339 Clouds 22 1017 68 10000 2.68 360 05:38 04.06.2022
3340 Clouds 22 1017 68 10000 2.68 360 02:20 04.06.2022
3341 Clear 22 1017 68 10000 2.68 360 00:20 04.06.2022
3342 Clear 22 1017 68 10000 2.68 360 22:41 03.06.2022
3343 Clouds 22 1017 68 10000 3.09 360 21:39 03.06.2022
3344 Clouds 22 1017 68 10000 3.09 360 20:38 03.06.2022
3345 Clouds 23 1017 64 10000 5.14 360 18:54 03.06.2022
3346 Clouds 24 1017 53 10000 5.14 360 16:52 03.06.2022
3347 Clouds 24 1017 57 10000 3.6 360 15:37 03.06.2022
3348 Clouds 23 1017 64 10000 3.09 360 13:49 03.06.2022
3349 Clouds 21 1018 73 8000 2.06 280 11:51 03.06.2022
3350 Clouds 19 1017 82 6000 1.03 240 09:53 03.06.2022
3351 Clouds 19 1017 82 6000 1.03 240 09:28 03.06.2022
3352 Clouds 17 1016 79 10000 1.48 243 07:27 03.06.2022
3353 Clouds 17 1016 79 10000 1.48 243 06:45 03.06.2022
3354 Clouds 17 1016 80 10000 1.38 235 06:27 03.06.2022
3355 Clear 21 1016 77 10000 4.02 360 02:24 03.06.2022
3356 Clear 21 1016 77 10000 4.02 360 23:34 02.06.2022
3357 Clouds 21 1016 77 10000 4.12 360 21:57 02.06.2022
3358 Clouds 22 1015 68 10000 3.09 360 20:26 02.06.2022
3359 Clouds 23 1015 69 10000 5.14 340 19:53 02.06.2022
3360 Clouds 23 1015 69 10000 5.14 340 19:35 02.06.2022
3361 Clouds 24 1016 57 10000 5.14 340 17:59 02.06.2022
3362 Clouds 25 1016 60 10000 3.09 360 16:28 02.06.2022
3363 Clouds 25 1016 60 10000 5.14 340 15:30 02.06.2022
3364 Clouds 22 1017 64 8000 2.06 320 13:30 02.06.2022
3365 Clouds 22 1017 64 8000 2.06 340 12:46 02.06.2022
3366 Clouds 21 1017 73 8000 2.06 340 10:32 02.06.2022
3367 Clouds 20 1017 83 8000 2.06 260 09:29 02.06.2022
3368 Clouds 19 1017 88 8000 2.06 260 08:30 02.06.2022
3369 Clouds 18 1017 82 10000 2.86 250 07:58 02.06.2022
3370 Clouds 17 1017 83 10000 2.61 255 06:20 02.06.2022
3371 Clouds 19 1017 83 10000 2.29 267 03:48 02.06.2022
3372 Clouds 23 1019 69 10000 4.02 20 00:31 02.06.2022
3373 Clouds 23 1016 69 10000 4.02 20 22:57 01.06.2022
3374 Clouds 23 1016 69 10000 4.12 20 21:45 01.06.2022
3375 Clouds 23 1016 69 10000 4.12 20 21:22 01.06.2022
3376 Clear 24 1016 64 10000 2.06 20 20:38 01.06.2022
3377 Clear 25 1015 53 10000 3.09 360 19:49 01.06.2022
3378 Clear 25 1016 53 10000 3.09 340 18:24 01.06.2022
3379 Clouds 26 1016 50 10000 5.14 340 16:48 01.06.2022
3380 Clouds 26 1017 47 10000 6.17 340 15:42 01.06.2022
3381 Clear 27 1017 44 10000 4.12 320 14:35 01.06.2022
3382 Clear 24 1017 57 10000 3.09 340 12:46 01.06.2022
3383 Clear 22 1017 64 10000 1.03 360 10:42 01.06.2022
3384 Clear 20 1016 77 10000 2.06 200 09:27 01.06.2022
3385 Clear 15 1017 76 10000 1.92 193 07:57 01.06.2022
3386 Clear 15 1016 76 10000 1.83 186 06:49 01.06.2022
3387 Clear 22 1014 68 10000 4.02 320 03:22 01.06.2022
3388 Clear 22 1014 68 10000 4.02 320 23:47 31.05.2022
3389 Clear 22 1014 68 10000 4.02 320 22:38 31.05.2022
3390 Clear 22 1014 68 10000 4.02 320 22:18 31.05.2022
3391 Clear 22 1014 68 10000 4.12 320 21:22 31.05.2022
3392 Clear 23 1014 64 10000 2.06 320 20:41 31.05.2022
3393 Clear 24 1013 53 10000 4.12 360 18:57 31.05.2022
3394 Clear 24 1013 53 10000 4.12 360 18:19 31.05.2022
3395 Clear 24 1013 57 10000 3.09 20 17:35 31.05.2022
3396 Clear 25 1014 60 10000 3.09 360 15:42 31.05.2022
3397 Clear 25 1014 60 10000 3.09 360 15:21 31.05.2022
3398 Clouds 23 1014 69 10000 1.03 340 12:39 31.05.2022
3399 Clouds 23 1014 69 10000 1.03 340 12:18 31.05.2022
3400 Clear 20 1013 77 6000 1.03 220 09:53 31.05.2022
3401 Clear 15 1013 77 10000 1.33 193 07:42 31.05.2022
3402 Clear 17 1013 78 10000 1.31 172 05:25 31.05.2022
3403 Clear 22 1012 73 10000 1.79 340 02:51 31.05.2022
3404 Clear 22 1013 73 10000 1.79 340 23:39 30.05.2022
3405 Clear 22 1013 73 10000 1.79 340 23:18 30.05.2022
3406 Clear 22 1012 73 10000 1.79 340 22:32 30.05.2022
3407 Clouds 22 1012 73 10000 2.06 340 21:37 30.05.2022
3408 Clouds 22 1012 68 10000 1.54 40 20:41 30.05.2022
3409 Clear 23 1012 64 10000 2.06 340 19:38 30.05.2022
3410 Clouds 23 1012 60 10000 4.12 340 17:44 30.05.2022
3411 Clouds 23 1012 60 10000 4.12 340 17:19 30.05.2022
3412 Clouds 24 1013 50 10000 5.14 340 15:44 30.05.2022
3413 Clouds 23 1013 60 10000 4.12 340 13:21 30.05.2022
3414 Clouds 22 1014 60 10000 2.06 300 11:30 30.05.2022
3415 Clouds 18 1013 77 8000 3.09 200 09:41 30.05.2022
3416 Clouds 14 1013 76 10000 2.92 199 07:29 30.05.2022
3417 Clouds 15 1013 75 10000 3.3 203 05:52 30.05.2022
3418 Clouds 17 1013 72 10000 2.87 218 03:18 30.05.2022
3419 Clouds 19 1015 71 10000 4.2 262 23:57 29.05.2022
3420 Clouds 21 1015 70 10000 3.95 259 22:40 29.05.2022
3421 Clouds 21 1013 68 10000 5.14 320 21:44 29.05.2022
3422 Clouds 22 1012 68 10000 5.14 300 20:18 29.05.2022
3423 Clouds 23 1012 60 10000 5.14 320 19:28 29.05.2022
3424 Clouds 23 1012 56 10000 5.14 340 17:56 29.05.2022
3425 Clouds 23 1018 53 10000 6.17 340 16:20 29.05.2022
3426 Clouds 23 1015 53 8000 6.17 340 15:41 29.05.2022
3427 Clouds 22 1018 60 8000 4.12 300 14:49 29.05.2022
3428 Clouds 21 1015 64 8000 3.09 340 12:21 29.05.2022
3429 Clouds 20 1015 68 8000 3.09 280 10:56 29.05.2022
3430 Clouds 19 1016 72 8000 2.06 240 09:54 29.05.2022
3431 Clouds 18 1013 86 10000 3.01 251 07:42 29.05.2022
3432 Clouds 21 1016 73 10000 2.68 300 04:58 29.05.2022
3433 Clouds 21 1016 73 10000 2.68 300 04:32 29.05.2022
3434 Clouds 21 1017 73 10000 2.68 300 00:53 29.05.2022
3435 Clouds 21 1014 73 10000 2.68 300 23:47 28.05.2022
3436 Clouds 21 1014 73 10000 2.68 300 23:18 28.05.2022
3437 Clouds 21 1014 73 10000 3.09 300 21:46 28.05.2022
3438 Clouds 22 1014 68 10000 3.09 320 20:46 28.05.2022
3439 Clouds 22 1014 68 10000 3.09 340 19:19 28.05.2022
3440 Clouds 23 1014 69 10000 3.09 340 18:21 28.05.2022
3441 Clouds 23 1014 69 10000 4.12 320 17:30 28.05.2022
3442 Clear 25 1015 64 10000 3.09 340 15:45 28.05.2022
3443 Clear 25 1015 64 10000 3.09 340 15:19 28.05.2022
3444 Clear 23 1015 69 10000 4.12 320 13:27 28.05.2022
3445 Clouds 23 1015 69 8000 3.09 340 12:42 28.05.2022
3446 Clouds 22 1017 73 8000 3.09 320 11:28 28.05.2022
3447 Clouds 21 1017 83 6000 3.09 340 10:34 28.05.2022
3448 Clouds 19 1015 88 6000 1.03 0 09:46 28.05.2022
3449 Clouds 18 1014 72 10000 1.46 336 07:56 28.05.2022
3450 Clouds 18 1013 71 10000 2.2 331 06:32 28.05.2022
3451 Clouds 23 1016 60 10000 1.79 340 04:43 28.05.2022
3452 Clouds 23 1016 60 10000 1.79 340 01:46 28.05.2022
3453 Clouds 23 1016 60 10000 1.79 340 23:55 27.05.2022
3454 Clouds 23 1016 60 10000 1.79 340 22:38 27.05.2022
3455 Clear 23 1016 60 10000 2.06 340 21:22 27.05.2022
3456 Clear 24 1016 60 10000 3.09 300 20:42 27.05.2022
3457 Clear 24 1016 60 10000 3.09 300 20:18 27.05.2022
3458 Clear 26 1016 57 10000 4.12 320 19:36 27.05.2022
3459 Clear 26 1016 57 10000 4.12 320 19:18 27.05.2022
3460 Clear 26 1014 41 10000 4.12 340 16:43 27.05.2022
3461 Clear 26 1014 53 10000 3.09 360 15:47 27.05.2022
3462 Clear 26 1015 57 10000 2.57 320 14:46 27.05.2022
3463 Clear 27 1015 50 10000 2.06 20 13:36 27.05.2022
3464 Clear 23 1015 68 10000 1.03 360 11:48 27.05.2022
3465 Clear 23 1015 68 10000 1.03 360 11:26 27.05.2022
3466 Clear 22 1015 73 10000 0 0 10:37 27.05.2022
3467 Clear 21 1015 64 10000 0 0 09:52 27.05.2022
3468 Clear 20 1015 64 10000 0 0 09:28 27.05.2022
3469 Clear 15 1015 55 10000 1.11 210 06:58 27.05.2022
3470 Clear 17 1015 56 10000 1.03 225 02:57 27.05.2022
3471 Clear 21 1017 59 10000 0.74 187 00:57 27.05.2022
3472 Clear 24 1015 50 10000 2.24 20 22:53 26.05.2022
3473 Clear 24 1015 50 10000 2.57 20 21:48 26.05.2022
3474 Clear 25 1015 47 10000 2.57 40 20:59 26.05.2022
3475 Clear 25 1015 50 10000 2.06 40 19:30 26.05.2022
3476 Clear 25 1015 50 10000 3.6 20 18:24 26.05.2022
3477 Clear 25 1016 57 10000 3.09 20 16:59 26.05.2022
3478 Clear 24 1016 57 10000 3.09 20 15:58 26.05.2022
3479 Clear 24 1016 57 10000 3.09 20 15:18 26.05.2022
3480 Clouds 23 1016 68 6000 2.06 40 13:46 26.05.2022
3481 Clouds 22 1015 66 6000 2.06 20 11:47 26.05.2022
3482 Clouds 21 1015 68 6000 2.06 80 10:39 26.05.2022
3483 Clouds 19 1015 77 5000 2.06 200 09:37 26.05.2022
3484 Clouds 17 1015 88 5000 2.06 80 08:38 26.05.2022
3485 Clouds 17 1015 76 10000 2.61 29 05:26 26.05.2022
3486 Clouds 18 1017 75 10000 3.33 42 02:19 26.05.2022
3487 Clouds 19 1018 73 10000 3.62 40 23:41 25.05.2022
3488 Clouds 19 1018 72 10000 3.96 34 22:51 25.05.2022
3489 Clouds 20 1017 73 10000 5.14 40 21:39 25.05.2022
3490 Clouds 21 1017 68 10000 5.14 40 20:43 25.05.2022
3491 Clear 21 1017 68 10000 5.14 40 19:32 25.05.2022
3492 Clear 22 1017 64 10000 6.17 20 18:23 25.05.2022
3493 Clear 22 1017 64 10000 5.14 20 16:42 25.05.2022
3494 Clear 22 1017 64 10000 5.14 20 16:21 25.05.2022
3495 Clear 22 1018 60 10000 5.14 360 15:24 25.05.2022
3496 Clear 22 1018 60 10000 4.12 20 14:42 25.05.2022
3497 Clear 22 1018 60 10000 4.12 20 14:24 25.05.2022
3498 Clouds 22 1018 60 8000 4.12 20 12:52 25.05.2022
3499 Clouds 20 1018 60 10000 0.89 40 11:31 25.05.2022
3500 Clouds 20 1018 60 8000 1.03 40 10:23 25.05.2022
3501 Clouds 18 1018 72 10000 2.18 42 08:53 25.05.2022
3502 Clear 17 1017 77 10000 1.99 42 07:23 25.05.2022
3503 Clear 17 1017 75 10000 2.53 21 05:27 25.05.2022
3504 Clear 18 1018 69 10000 3.68 352 00:38 25.05.2022
3505 Clouds 17 1019 69 10000 3.83 353 23:47 24.05.2022
3506 Clouds 19 1017 63 10000 2.68 20 22:53 24.05.2022
3507 Clouds 19 1017 63 10000 3.09 20 21:46 24.05.2022
3508 Clouds 19 1017 63 10000 3.09 20 21:22 24.05.2022
3509 Clouds 19 1017 63 10000 5.14 20 20:44 24.05.2022
3510 Clouds 19 1017 68 10000 6.17 80 19:20 24.05.2022
3511 Clouds 21 1017 64 10000 5.14 340 17:50 24.05.2022
3512 Clouds 22 1017 64 10000 4.12 360 16:36 24.05.2022
3513 Clouds 22 1017 68 10000 4.12 360 15:31 24.05.2022
3514 Clouds 22 1017 68 10000 3.09 340 14:37 24.05.2022
3515 Clouds 21 1016 68 10000 3.09 360 13:35 24.05.2022
3516 Clouds 20 1017 72 8000 3.09 360 12:19 24.05.2022
3517 Clouds 19 1016 77 8000 3.09 20 09:51 24.05.2022
3518 Clouds 19 1016 77 8000 2.06 20 08:51 24.05.2022
3519 Clouds 19 1015 76 10000 3.96 357 07:44 24.05.2022
3520 Clouds 19 1015 78 10000 4.2 351 06:34 24.05.2022
3521 Clouds 20 1014 77 10000 4.02 20 03:32 24.05.2022
3522 Clouds 20 1014 77 10000 4.02 20 01:46 24.05.2022
3523 Clouds 20 1014 77 10000 4.02 20 00:21 24.05.2022
3524 Clouds 20 1014 77 10000 4.02 20 22:24 23.05.2022
3525 Clouds 20 1014 77 8000 4.12 20 21:50 23.05.2022
3526 Clouds 21 1013 73 8000 5.14 20 20:46 23.05.2022
3527 Clouds 21 1013 77 10000 6.17 20 19:51 23.05.2022
3528 Clouds 21 1013 77 10000 6.17 20 19:22 23.05.2022
3529 Clouds 22 1013 68 10000 5.14 20 18:40 23.05.2022
3530 Clouds 22 1013 68 10000 4.12 40 17:56 23.05.2022
3531 Clouds 22 1014 68 10000 4.12 20 16:29 23.05.2022
3532 Clouds 22 1014 64 10000 4.63 40 14:18 23.05.2022
3533 Clouds 21 1014 68 10000 4.12 60 11:53 23.05.2022
3534 Clouds 20 1015 68 10000 3.6 60 10:49 23.05.2022
3535 Clouds 19 1015 72 10000 3.6 60 09:48 23.05.2022
3536 Clouds 18 1015 77 6000 2.57 60 08:46 23.05.2022
3537 Clouds 18 1015 85 10000 3.72 36 07:31 23.05.2022
3538 Clouds 18 1015 86 10000 3.47 41 06:40 23.05.2022
3539 Clouds 19 1016 85 10000 3.77 35 03:51 23.05.2022
3540 Clouds 19 1017 85 10000 3.96 24 02:18 23.05.2022
3541 Clouds 19 1017 85 10000 3.96 24 01:32 23.05.2022
3542 Clouds 20 1018 82 10000 4.08 29 23:18 22.05.2022
3543 Clouds 20 1017 81 10000 4.26 30 22:27 22.05.2022
3544 Clouds 20 1017 77 10000 5.14 40 21:52 22.05.2022
3545 Clouds 21 1015 75 6000 5.14 40 20:46 22.05.2022
3546 Clouds 21 1015 75 6000 5.14 40 20:23 22.05.2022
3547 Clouds 21 1016 73 6000 5.14 20 19:39 22.05.2022
3548 Clouds 21 1019 73 6000 4.12 60 18:52 22.05.2022
3549 Clouds 21 1016 73 6000 4.12 60 18:21 22.05.2022
3550 Clouds 22 1016 68 6000 4.12 20 17:26 22.05.2022
3551 Clouds 22 1017 68 6000 4.12 20 15:57 22.05.2022
3552 Clouds 22 1018 64 6000 4.12 60 14:47 22.05.2022
3553 Clouds 22 1018 64 6000 4.12 60 14:47 22.05.2022
3554 Clouds 22 1019 68 6000 4.12 40 13:21 22.05.2022
3555 Clouds 21 1018 75 6000 3.09 40 12:45 22.05.2022
3556 Clouds 20 1018 77 5000 3.09 20 10:55 22.05.2022
3557 Clouds 19 1018 82 5000 3.09 40 09:38 22.05.2022
3558 Clouds 20 1017 85 10000 3.7 14 07:54 22.05.2022
3559 Clouds 20 1017 87 10000 3.39 11 07:20 22.05.2022
3560 Clouds 20 1018 77 10000 2.68 340 04:49 22.05.2022
3561 Clouds 20 1018 77 10000 2.68 340 01:20 22.05.2022
3562 Clouds 20 1019 77 10000 2.68 340 00:26 22.05.2022
3563 Clouds 20 1018 77 10000 2.68 340 23:47 21.05.2022
3564 Clouds 20 1018 77 10000 2.68 340 22:22 21.05.2022
3565 Clouds 20 1018 77 6000 3.09 340 21:39 21.05.2022
3566 Clouds 20 1017 77 6000 4.12 360 20:48 21.05.2022
3567 Clouds 20 1017 77 6000 4.12 360 20:19 21.05.2022
3568 Clouds 21 1018 77 6000 5.14 360 19:24 21.05.2022
3569 Clouds 22 1017 68 6000 5.14 340 17:38 21.05.2022
3570 Clouds 22 1017 73 6000 4.12 340 15:38 21.05.2022
3571 Mist 22 1018 68 4000 4.12 340 14:37 21.05.2022
3572 Mist 22 1018 73 4000 2.57 320 13:39 21.05.2022
3573 Mist 22 1018 78 4000 3.09 340 12:40 21.05.2022
3574 Mist 22 1017 78 4000 2.57 320 11:54 21.05.2022
3575 Mist 21 1018 77 4000 1.54 340 10:22 21.05.2022
3576 Mist 20 1017 88 4000 2.57 320 09:20 21.05.2022
3577 Mist 19 1017 88 4000 1.03 260 08:47 21.05.2022
3578 Clouds 20 1015 82 10000 2.96 267 06:22 21.05.2022
3579 Clouds 22 1015 78 10000 4.38 242 02:24 21.05.2022
3580 Clouds 22 1018 73 10000 4.02 300 23:45 20.05.2022
3581 Clouds 22 1018 73 10000 4.02 300 22:42 20.05.2022
3582 Clouds 22 1018 73 10000 4.02 300 22:22 20.05.2022
3583 Clouds 22 1015 73 5000 4.12 300 21:27 20.05.2022
3584 Clouds 23 1015 73 5000 3.09 320 20:51 20.05.2022
3585 Clouds 22 1015 78 5000 5.14 300 19:56 20.05.2022
3586 Clouds 24 1015 78 5000 3.6 300 18:59 20.05.2022
3587 Clouds 24 1018 78 5000 3.6 300 18:27 20.05.2022
3588 Clouds 25 1012 73 5000 5.14 340 16:50 20.05.2022
3589 Clouds 26 1011 69 5000 5.14 340 15:55 20.05.2022
3590 Clouds 26 1011 69 5000 5.14 340 15:32 20.05.2022
3591 Clouds 26 1011 69 8000 4.12 300 14:28 20.05.2022
3592 Clouds 24 1011 73 6000 3.09 340 13:31 20.05.2022
3593 Mist 20 1011 88 4000 3.09 220 10:56 20.05.2022
3594 Mist 19 1014 93 3000 1.79 240 09:50 20.05.2022
3595 Mist 19 1014 93 3000 2.06 240 08:38 20.05.2022
3596 Clouds 19 1010 91 10000 2.34 273 06:45 20.05.2022
3597 Clouds 18 1010 89 10000 2.46 251 05:53 20.05.2022
3598 Clouds 22 1011 78 10000 2.68 80 02:53 20.05.2022
3599 Clouds 22 1011 78 10000 2.68 80 23:54 19.05.2022
3600 Clouds 22 1011 78 10000 2.68 80 22:44 19.05.2022
3601 Clear 22 1011 78 10000 3.09 80 21:53 19.05.2022
3602 Clear 22 1011 78 10000 3.09 80 21:24 19.05.2022
3603 Clear 24 1011 73 10000 3.09 20 20:54 19.05.2022
3604 Clear 25 1011 73 10000 3.09 20 20:20 19.05.2022
3605 Clear 25 1011 73 10000 3.09 20 19:25 19.05.2022
3606 Clear 26 1012 61 10000 4.12 360 17:52 19.05.2022
3607 Clear 25 1012 69 10000 3.09 340 16:22 19.05.2022
3608 Clouds 25 1013 69 8000 3.09 40 14:50 19.05.2022
3609 Clouds 25 1013 69 8000 3.09 40 14:21 19.05.2022
3610 Clouds 23 1016 69 8000 3.09 80 12:20 19.05.2022
3611 Clouds 21 1014 73 8000 1.03 80 10:40 19.05.2022
3612 Clouds 18 1014 88 8000 1.03 60 08:57 19.05.2022
3613 Clear 18 1014 88 10000 1.96 54 07:41 19.05.2022
3614 Clear 21 1015 77 10000 4.02 40 04:44 19.05.2022
3615 Clouds 21 1015 77 10000 4.02 40 01:57 19.05.2022
3616 Clouds 21 1015 77 10000 4.02 40 23:49 18.05.2022
3617 Clouds 21 1015 77 10000 4.02 40 22:46 18.05.2022
3618 Clouds 21 1015 77 10000 4.12 40 21:47 18.05.2022
3619 Clouds 21 1015 77 10000 4.12 40 21:24 18.05.2022
3620 Clouds 22 1014 78 10000 4.12 40 20:24 18.05.2022
3621 Clouds 22 1014 78 10000 4.12 20 19:37 18.05.2022
3622 Clouds 23 1015 73 10000 3.09 340 18:21 18.05.2022
3623 Clouds 23 1015 73 10000 3.09 360 17:41 18.05.2022
3624 Clouds 23 1015 73 10000 3.09 360 17:23 18.05.2022
3625 Clouds 23 1016 73 10000 3.09 360 15:59 18.05.2022
3626 Clouds 24 1016 73 10000 3.09 360 15:39 18.05.2022
3627 Clouds 25 1017 69 10000 4.12 340 14:34 18.05.2022
3628 Clouds 24 1016 69 8000 4.12 360 13:20 18.05.2022
3629 Clear 23 1016 73 8000 2.06 20 12:39 18.05.2022
3630 Clouds 22 1016 73 6000 2.06 360 11:34 18.05.2022
3631 Clouds 21 1016 83 6000 2.06 340 10:52 18.05.2022
3632 Clouds 21 1016 83 6000 2.06 340 10:52 18.05.2022
3633 Clouds 18 1016 93 6000 2.06 280 08:53 18.05.2022
3634 Clear 15 1016 90 10000 2.41 341 07:29 18.05.2022
3635 Clear 21 1017 83 10000 2.68 40 05:21 18.05.2022
3636 Clear 21 1017 83 10000 2.68 40 00:52 18.05.2022
3637 Clear 21 1017 83 10000 2.68 40 00:20 18.05.2022
3638 Clouds 21 1017 83 10000 3.09 40 21:36 17.05.2022
3639 Clouds 21 1017 83 10000 3.09 40 21:18 17.05.2022
3640 Clouds 23 1017 73 10000 6.17 40 19:49 17.05.2022
3641 Clouds 23 1017 73 10000 6.17 40 19:26 17.05.2022
3642 Clouds 23 1018 73 10000 5.14 40 17:49 17.05.2022
3643 Clouds 22 1018 73 10000 5.14 40 16:58 17.05.2022
3644 Clouds 22 1018 73 10000 5.14 40 16:29 17.05.2022
3645 Clouds 22 1019 73 10000 4.12 20 15:24 17.05.2022
3646 Clear 23 1020 69 10000 4.63 360 14:30 17.05.2022
3647 Clear 23 1020 69 10000 4.63 360 14:30 17.05.2022
3648 Clear 23 1020 69 10000 4.63 360 14:30 17.05.2022
3649 Clear 23 1020 64 10000 3.6 60 13:32 17.05.2022
3650 Clouds 21 1020 73 10000 3.09 100 11:21 17.05.2022
3651 Clouds 19 1020 85 10000 2.06 80 09:23 17.05.2022
3652 Clear 17 1020 82 10000 3.32 44 07:59 17.05.2022
3653 Clear 17 1020 83 10000 3.25 39 06:36 17.05.2022
3654 Clear 20 1020 77 10000 2.68 40 02:55 17.05.2022
3655 Clear 20 1020 77 10000 2.68 40 00:32 17.05.2022
3656 Clear 20 1020 77 10000 2.68 40 22:42 16.05.2022
3657 Clouds 20 1020 77 10000 3.09 40 21:36 16.05.2022
3658 Clouds 20 1020 77 10000 4.63 40 20:46 16.05.2022
3659 Clear 21 1020 73 10000 3.09 40 19:22 16.05.2022
3660 Clear 22 1020 64 10000 5.14 60 17:58 16.05.2022
3661 Clouds 22 1021 68 10000 3.09 40 15:49 16.05.2022
3662 Clouds 22 1021 64 10000 4.12 40 13:49 16.05.2022
3663 Clear 21 1021 64 8000 5.14 60 12:50 16.05.2022
3664 Clouds 19 1021 77 8000 3.09 80 10:52 16.05.2022
3665 Clouds 18 1020 88 8000 2.06 60 09:23 16.05.2022
3666 Clouds 18 1020 85 10000 2.51 56 06:34 16.05.2022
3667 Clouds 21 1021 73 10000 4.02 340 02:39 16.05.2022
3668 Clouds 21 1020 73 10000 4.02 340 23:26 15.05.2022
3669 Clouds 21 1019 73 10000 4.02 340 22:29 15.05.2022
3670 Clouds 21 1021 73 10000 4.12 340 21:39 15.05.2022
3671 Clouds 21 1019 68 10000 4.12 20 20:54 15.05.2022
3672 Clear 22 1019 64 10000 3.6 340 19:28 15.05.2022
3673 Clouds 23 1019 64 10000 3.6 20 17:51 15.05.2022
3674 Clouds 24 1020 57 10000 3.6 340 15:56 15.05.2022
3675 Clouds 23 1020 56 10000 1.03 140 13:50 15.05.2022
3676 Clouds 23 1020 56 10000 2.06 360 12:23 15.05.2022
3677 Clouds 20 1020 73 8000 2.06 320 11:38 15.05.2022
3678 Clouds 20 1020 73 8000 2.06 320 11:38 15.05.2022
3679 Clouds 19 1019 80 8000 2.06 300 10:23 15.05.2022
3680 Clouds 17 1019 90 10000 1.73 248 07:46 15.05.2022
3681 Clouds 16 1018 90 10000 2.04 255 06:57 15.05.2022
3682 Clear 20 1017 72 10000 4.02 340 04:44 15.05.2022
3683 Clear 20 1017 72 10000 4.02 340 00:49 15.05.2022
3684 Clear 20 1017 72 10000 4.02 340 23:38 14.05.2022
3685 Clear 20 1017 72 10000 4.02 340 22:45 14.05.2022
3686 Clear 20 1017 72 10000 4.12 340 21:28 14.05.2022
3687 Clear 22 1017 64 10000 2.06 360 20:44 14.05.2022
3688 Clear 22 1017 68 10000 3.09 320 19:37 14.05.2022
3689 Clear 22 1017 68 10000 3.09 320 19:19 14.05.2022
3690 Clouds 22 1018 68 10000 3.09 320 17:56 14.05.2022
3691 Clouds 22 1018 68 10000 4.12 340 16:37 14.05.2022
3692 Clouds 22 1021 68 8000 2.06 320 14:59 14.05.2022
3693 Clouds 22 1019 68 8000 2.06 320 14:30 14.05.2022
3694 Clouds 20 1019 77 8000 3.09 320 12:23 14.05.2022
3695 Clouds 19 1018 82 8000 2.06 260 10:54 14.05.2022
3696 Clouds 19 1018 82 8000 2.06 260 10:20 14.05.2022
3697 Clouds 19 1018 82 8000 2.68 280 09:53 14.05.2022
3698 Clouds 19 1017 82 8000 3.09 280 08:46 14.05.2022
3699 Clouds 18 1016 73 10000 3.99 270 05:43 14.05.2022
3700 Clouds 20 1017 69 10000 2.62 234 01:58 14.05.2022
3701 Clouds 21 1018 68 10000 1.58 167 23:32 13.05.2022
3702 Clouds 21 1018 71 10000 0.83 131 22:57 13.05.2022
3703 Clouds 21 1018 72 10000 1.38 278 22:23 13.05.2022
3704 Clouds 21 1017 83 10000 2.06 260 21:38 13.05.2022
3705 Clouds 21 1017 83 6000 4.12 320 20:44 13.05.2022
3706 Clouds 21 1017 83 6000 4.12 320 20:24 13.05.2022
3707 Clouds 22 1017 78 6000 4.12 320 19:25 13.05.2022
3708 Clouds 23 1017 78 6000 5.14 340 17:50 13.05.2022
3709 Clouds 23 1017 78 6000 5.14 340 17:50 13.05.2022
3710 Clouds 23 1017 78 6000 5.14 340 17:27 13.05.2022
3711 Clouds 23 1017 73 6000 5.14 340 16:18 13.05.2022
3712 Clouds 24 1018 71 6000 5.14 340 15:20 13.05.2022
3713 Clear 25 1017 64 6000 5.14 340 13:29 13.05.2022
3714 Clear 26 1015 61 6000 3.09 320 12:25 13.05.2022
3715 Clear 26 1015 61 6000 3.09 320 12:25 13.05.2022
3716 Clear 21 1017 73 6000 2.06 260 10:46 13.05.2022
3717 Clouds 19 1017 82 5000 3.09 200 09:33 13.05.2022
3718 Clouds 18 1017 88 5000 2.06 200 08:23 13.05.2022
3719 Clouds 16 1016 84 10000 2.67 285 07:42 13.05.2022
3720 Clouds 17 1015 81 10000 3.01 309 05:59 13.05.2022
3721 Clouds 20 1016 73 10000 1.46 22 02:44 13.05.2022
3722 Clouds 25 1018 71 10000 1.6 254 23:46 12.05.2022
3723 Clouds 26 1017 66 10000 1.17 278 22:44 12.05.2022
3724 Clouds 27 1016 32 6000 3.09 280 21:54 12.05.2022
3725 Clouds 28 1015 28 6000 4.12 220 20:25 12.05.2022
3726 Thunderstorm 30 1014 20 6000 4.12 300 18:41 12.05.2022
3727 Dust 25 1017 47 3000 7.2 320 16:58 12.05.2022
3728 Clouds 29 1016 36 6000 5.14 260 15:50 12.05.2022
3729 Clouds 28 1015 44 6000 2.57 120 14:39 12.05.2022
3730 Clouds 29 1015 37 6000 4.63 20 13:34 12.05.2022
3731 Clouds 25 1013 36 6000 3.6 160 10:43 12.05.2022
3732 Clouds 24 1013 41 6000 1.54 80 09:24 12.05.2022
3733 Clouds 24 1014 41 6000 1.03 340 08:50 12.05.2022
3734 Clouds 24 1012 49 10000 2.41 305 07:38 12.05.2022
3735 Clouds 24 1015 47 10000 1.34 320 05:35 12.05.2022
3736 Clouds 24 1015 47 10000 1.34 320 02:49 12.05.2022
3737 Clouds 24 1015 47 10000 1.34 320 00:33 12.05.2022
3738 Clouds 24 1015 47 10000 1.34 320 22:33 11.05.2022
3739 Clear 24 1015 47 10000 1.54 320 21:33 11.05.2022
3740 Clear 24 1014 47 10000 1.54 320 20:53 11.05.2022
3741 Clear 26 1015 47 10000 3.6 320 18:24 11.05.2022
3742 Clear 26 1015 53 10000 4.63 320 16:51 11.05.2022
3743 Clear 26 1015 53 10000 4.63 320 16:51 11.05.2022
3744 Clear 25 1015 53 10000 4.12 320 14:51 11.05.2022
3745 Clear 25 1015 53 10000 4.12 320 14:26 11.05.2022
3746 Clear 26 1015 57 10000 5.14 300 13:51 11.05.2022
3747 Clear 23 1014 60 10000 4.12 280 11:51 11.05.2022
3748 Clear 21 1014 68 10000 3.09 280 10:32 11.05.2022
3749 Clouds 15 1013 58 10000 1.02 253 08:37 11.05.2022
3750 Clouds 15 1012 60 10000 1.92 63 05:19 11.05.2022
3751 Clouds 24 1013 53 10000 1.79 360 00:42 11.05.2022
3752 Clouds 24 1013 53 10000 1.79 360 22:30 10.05.2022
3753 Clear 24 1013 53 10000 2.06 360 21:55 10.05.2022
3754 Clear 26 1013 47 10000 4.12 80 20:54 10.05.2022
3755 Clear 27 1013 42 10000 3.09 80 19:26 10.05.2022
3756 Clear 27 1014 42 10000 5.14 60 17:54 10.05.2022
3757 Clear 27 1014 44 10000 4.12 40 16:56 10.05.2022
3758 Clear 26 1016 53 10000 3.09 160 14:48 10.05.2022
3759 Clear 25 1016 64 10000 3.09 40 12:39 10.05.2022
3760 Clouds 24 1015 57 8000 1.03 100 11:49 10.05.2022
3761 Clouds 25 1015 57 8000 1.03 100 11:20 10.05.2022
3762 Clouds 20 1015 77 6000 2.06 180 10:22 10.05.2022
3763 Mist 17 1015 94 3000 2.06 180 09:25 10.05.2022
3764 Clouds 13 1014 79 10000 1.68 11 06:46 10.05.2022
3765 Clear 15 1015 67 10000 0.81 9 03:30 10.05.2022
3766 Clear 20 1016 66 10000 2.1 25 00:38 10.05.2022
3767 Clear 24 1015 50 10000 2.68 20 22:52 09.05.2022
3768 Clear 24 1015 50 10000 3.09 20 21:50 09.05.2022
3769 Clear 25 1015 44 10000 3.09 20 20:30 09.05.2022
3770 Clear 26 1015 50 10000 3.09 40 18:43 09.05.2022
3771 Clear 26 1015 50 10000 3.09 40 17:44 09.05.2022
3772 Clear 27 1015 39 10000 3.09 40 16:30 09.05.2022
3773 Clear 27 1015 39 10000 3.09 40 16:30 09.05.2022
3774 Clouds 26 1015 39 10000 3.09 40 15:51 09.05.2022
3775 Clouds 26 1016 50 10000 3.09 40 14:54 09.05.2022
3776 Clouds 26 1016 50 10000 3.09 40 14:22 09.05.2022
3777 Clouds 27 1016 44 8000 2.06 40 13:36 09.05.2022
3778 Clouds 25 1015 50 6000 2.06 40 12:18 09.05.2022
3779 Mist 20 1016 82 3000 2.06 160 10:55 09.05.2022
3780 Mist 20 1016 82 3000 2.06 160 10:36 09.05.2022
3781 Mist 16 1015 94 3000 2.06 210 08:31 09.05.2022
3782 Clouds 11 1015 84 10000 2.13 32 07:49 09.05.2022
3783 Clouds 18 1015 82 10000 3.19 20 02:55 09.05.2022
3784 Clear 22 1015 56 10000 4.02 80 23:29 08.05.2022
3785 Clear 22 1015 56 10000 4.02 80 22:51 08.05.2022
3786 Clouds 22 1015 56 8000 4.12 80 21:48 08.05.2022
3787 Clouds 22 1015 56 8000 4.12 80 21:48 08.05.2022
3788 Clouds 22 1015 56 8000 4.12 80 21:48 08.05.2022
3789 Clouds 22 1014 68 8000 4.12 60 20:34 08.05.2022
3790 Clouds 22 1014 68 8000 4.12 60 19:43 08.05.2022
3791 Clouds 25 1014 57 8000 4.12 20 18:52 08.05.2022
3792 Clear 25 1015 60 8000 4.12 40 17:52 08.05.2022
3793 Clear 26 1015 53 8000 4.12 20 16:42 08.05.2022
3794 Clear 24 1016 69 8000 4.12 360 15:26 08.05.2022
3795 Clear 24 1016 69 6000 3.09 200 14:39 08.05.2022
3796 Clouds 22 1016 68 6000 3.09 20 12:21 08.05.2022
3797 Clouds 20 1020 77 6000 1.03 60 10:27 08.05.2022
3798 Clouds 17 1017 88 6000 1.03 140 09:56 08.05.2022
3799 Mist 16 1016 94 3000 1.03 180 08:52 08.05.2022
3800 Clouds 15 1016 87 10000 2.73 56 06:57 08.05.2022
3801 Clear 18 1017 85 10000 2.76 27 03:26 08.05.2022
3802 Clear 18 1017 85 10000 2.76 27 02:41 08.05.2022
3803 Clouds 19 1018 81 10000 2.95 44 00:21 08.05.2022
3804 Clouds 20 1018 81 10000 2.95 44 23:47 07.05.2022
3805 Clouds 20 1018 79 10000 3.32 37 22:46 07.05.2022
3806 Clear 23 1017 53 10000 3.09 40 21:57 07.05.2022
3807 Clear 23 1017 53 10000 3.09 40 21:33 07.05.2022
3808 Clear 22 1017 60 10000 2.57 40 20:27 07.05.2022
3809 Clear 23 1017 53 10000 2.06 40 19:22 07.05.2022
3810 Clear 24 1018 53 10000 3.09 60 17:33 07.05.2022
3811 Clear 25 1018 53 10000 4.12 40 15:34 07.05.2022
3812 Clear 23 1019 56 10000 3.09 360 12:34 07.05.2022
3813 Clear 20 1019 68 10000 2.06 20 10:23 07.05.2022
3814 Clouds 12 1019 73 10000 1.62 40 08:37 07.05.2022
3815 Clouds 12 1018 78 10000 1.98 64 07:37 07.05.2022
3816 Clouds 12 1018 80 10000 1.88 64 06:43 07.05.2022
3817 Clouds 18 1018 80 10000 3.34 44 04:24 07.05.2022
3818 Clouds 21 1019 64 10000 2.68 60 00:50 07.05.2022
3819 Clear 21 1019 64 10000 2.68 60 22:55 06.05.2022
3820 Clear 21 1019 64 10000 2.68 60 22:21 06.05.2022
3821 Clear 21 1019 64 10000 3.09 60 21:36 06.05.2022
3822 Clear 22 1019 60 10000 3.6 60 20:18 06.05.2022
3823 Clear 22 1019 60 10000 4.12 60 19:28 06.05.2022
3824 Clear 23 1019 53 10000 5.66 40 18:49 06.05.2022
3825 Clear 24 1019 53 10000 5.14 40 17:38 06.05.2022
3826 Clouds 24 1019 49 10000 5.14 40 15:55 06.05.2022
3827 Clouds 23 1019 49 10000 5.14 40 15:32 06.05.2022
3828 Clouds 23 1019 53 10000 4.12 80 14:22 06.05.2022
3829 Clouds 21 1020 68 6000 3.09 40 12:52 06.05.2022
3830 Clouds 21 1019 68 6000 3.09 40 12:20 06.05.2022
3831 Clouds 21 1020 73 6000 2.06 120 11:31 06.05.2022
3832 Mist 18 1019 88 3000 2.06 100 09:48 06.05.2022
3833 Mist 18 1019 88 3000 2.06 100 09:48 06.05.2022
3834 Clear 15 1020 76 10000 4.54 40 09:18 06.05.2022
3835 Clear 14 1020 83 10000 4.26 39 07:55 06.05.2022
3836 Clear 15 1019 89 10000 3.13 28 06:27 06.05.2022
3837 Clear 19 1019 77 10000 4.92 60 04:29 06.05.2022
3838 Clear 19 1019 77 10000 4.92 60 02:38 06.05.2022
3839 Clear 19 1019 77 10000 4.92 60 23:24 05.05.2022
3840 Clear 19 1019 77 10000 5.14 60 21:51 05.05.2022
3841 Clear 20 1019 68 10000 3.09 80 20:37 05.05.2022
3842 Clear 21 1019 62 10000 5.14 60 19:19 05.05.2022
3843 Clouds 21 1020 64 10000 5.14 40 16:42 05.05.2022
3844 Clouds 21 1020 64 10000 4.12 40 15:31 05.05.2022
3845 Clear 21 1020 64 10000 4.63 40 13:30 05.05.2022
3846 Clouds 19 1020 74 10000 4.12 40 12:56 05.05.2022
3847 Clouds 19 1020 72 6000 2.57 40 11:35 05.05.2022
3848 Clouds 14 1019 88 5000 1.03 140 09:41 05.05.2022
3849 Clouds 14 1019 88 5000 1.03 140 09:41 05.05.2022
3850 Clear 13 1019 79 10000 2.86 74 08:54 05.05.2022
3851 Clear 11 1017 84 10000 3.01 63 06:28 05.05.2022
3852 Clear 16 1018 83 10000 2.14 47 02:27 05.05.2022
3853 Clear 15 1018 83 10000 2.37 40 01:44 05.05.2022
3854 Clear 16 1018 82 10000 2.12 42 00:49 05.05.2022
3855 Clear 17 1018 79 10000 2.71 31 23:18 04.05.2022
3856 Clouds 18 1016 77 10000 2.06 340 21:59 04.05.2022
3857 Clouds 18 1016 77 10000 2.06 340 21:34 04.05.2022
3858 Clouds 19 1016 72 10000 1.03 20 20:55 04.05.2022
3859 Clouds 19 1016 72 10000 1.03 20 20:18 04.05.2022
3860 Clouds 20 1017 70 10000 4.12 20 19:35 04.05.2022
3861 Clouds 20 1017 68 10000 4.12 340 18:43 04.05.2022
3862 Clouds 20 1017 68 10000 4.12 340 18:19 04.05.2022
3863 Clouds 20 1016 68 10000 5.14 340 17:22 04.05.2022
3864 Clouds 20 1016 60 8000 4.12 340 15:34 04.05.2022
3865 Clouds 20 1016 60 8000 4.12 340 14:41 04.05.2022
3866 Clouds 20 1016 60 8000 4.12 340 14:19 04.05.2022
3867 Clouds 18 1021 72 10000 1.79 260 12:39 04.05.2022
3868 Clouds 18 1015 72 8000 2.06 260 11:40 04.05.2022
3869 Clouds 15 1015 85 8000 3.09 260 10:27 04.05.2022
3870 Clouds 14 1015 87 8000 3.09 240 09:21 04.05.2022
3871 Rain 12 1014 80 10000 3.75 253 07:51 04.05.2022
3872 Clouds 15 1014 72 10000 2.68 340 04:45 04.05.2022
3873 Clouds 15 1014 72 10000 2.68 340 02:33 04.05.2022
3874 Clouds 16 1014 72 8000 3.09 340 22:59 03.05.2022
3875 Clouds 17 1013 63 8000 3.09 340 21:50 03.05.2022
3876 Clouds 17 1015 63 8000 3.09 340 21:31 03.05.2022
3877 Clouds 18 1013 63 8000 3.09 340 20:46 03.05.2022
3878 Clouds 18 1013 63 8000 2.06 320 19:32 03.05.2022
3879 Clouds 18 1013 63 8000 3.09 340 18:43 03.05.2022
3880 Clouds 18 1013 63 8000 3.09 340 17:21 03.05.2022
3881 Clouds 19 1013 72 8000 3.09 360 15:57 03.05.2022
3882 Clouds 16 1014 94 8000 3.09 360 14:23 03.05.2022
3883 Clouds 16 1016 87 6000 3.09 340 12:35 03.05.2022
3884 Clouds 15 1015 93 10000 3.09 320 11:35 03.05.2022
3885 Clouds 16 1015 91 6000 3.09 260 10:26 03.05.2022
3886 Rain 15 1013 85 10000 4.02 269 08:19 03.05.2022
3887 Rain 15 1013 83 10000 3.58 265 08:19 03.05.2022
3888 Rain 15 1013 83 10000 3.55 267 06:45 03.05.2022
3889 Rain 16 1015 85 10000 3.56 280 02:39 03.05.2022
3890 Clouds 16 1018 82 10000 2.69 292 23:19 02.05.2022
3891 Clouds 17 1017 79 10000 2.89 306 22:28 02.05.2022
3892 Clouds 17 1017 77 10000 3.09 340 21:37 02.05.2022
3893 Clouds 19 1019 63 10000 4.12 20 19:26 02.05.2022
3894 Clouds 19 1018 63 10000 3.09 20 18:26 02.05.2022
3895 Clouds 19 1018 63 10000 3.09 340 17:39 02.05.2022
3896 Clouds 18 1019 70 10000 3.09 360 16:42 02.05.2022
3897 Clouds 17 1019 77 10000 2.68 320 15:41 02.05.2022
3898 Clouds 17 1019 77 10000 3.09 320 14:45 02.05.2022
3899 Clouds 17 1020 77 10000 1.54 20 13:42 02.05.2022
3900 Clouds 17 1020 67 8000 2.57 360 11:41 02.05.2022
3901 Clouds 16 1020 77 8000 1.54 360 09:42 02.05.2022
3902 Clear 17 1019 81 10000 2.72 344 08:29 02.05.2022
3903 Clear 17 1019 81 10000 2.91 348 06:53 02.05.2022
3904 Clear 15 1021 83 10000 2.72 350 00:46 02.05.2022
3905 Clear 15 1021 83 10000 2.85 349 00:22 02.05.2022
3906 Clear 20 1020 64 10000 2.68 20 22:54 01.05.2022
3907 Clouds 20 1020 64 8000 3.09 20 21:43 01.05.2022
3908 Clouds 21 1020 60 8000 3.09 20 20:36 01.05.2022
3909 Clouds 21 1020 68 8000 3.09 20 19:22 01.05.2022
3910 Clouds 22 1019 68 8000 4.12 20 18:52 01.05.2022
3911 Clouds 23 1021 60 8000 4.12 20 17:49 01.05.2022
3912 Clouds 23 1020 49 8000 4.12 40 16:38 01.05.2022
3913 Clouds 22 1020 64 8000 4.12 20 15:57 01.05.2022
3914 Clouds 22 1020 64 8000 4.12 10 14:45 01.05.2022
3915 Clouds 21 1021 73 8000 3.09 340 12:40 01.05.2022
3916 Clouds 18 1021 82 6000 3.09 200 10:22 01.05.2022
3917 Clouds 15 1020 85 10000 0.84 56 08:50 01.05.2022
3918 Clouds 14 1019 90 10000 0.95 340 06:50 01.05.2022
3919 Clouds 18 1019 77 10000 1.79 40 01:56 01.05.2022
3920 Clouds 18 1019 77 8000 2.06 40 22:51 30.04.2022
3921 Clouds 19 1018 68 8000 3.09 40 21:33 30.04.2022
3922 Clear 21 1018 56 10000 4.12 40 19:54 30.04.2022
3923 Clear 21 1018 56 10000 4.12 40 19:25 30.04.2022
3924 Clear 22 1018 53 10000 4.12 40 17:31 30.04.2022
3925 Clear 22 1019 46 10000 4.12 60 15:52 30.04.2022
3926 Clear 22 1019 46 10000 4.12 60 15:18 30.04.2022
3927 Clear 21 1019 52 10000 2.57 60 13:59 30.04.2022
3928 Clear 19 1019 55 10000 2.57 60 11:48 30.04.2022
3929 Clear 19 1019 55 10000 2.57 60 11:26 30.04.2022
3930 Clear 18 1018 54 10000 3.58 40 10:23 30.04.2022
3931 Clouds 14 1017 65 10000 3.68 45 07:47 30.04.2022
3932 Clouds 19 1017 68 10000 3.58 40 04:25 30.04.2022
3933 Clear 19 1017 68 10000 3.58 40 23:57 29.04.2022
3934 Clear 19 1017 68 10000 3.58 40 22:51 29.04.2022
3935 Clear 19 1017 68 10000 3.6 40 21:56 29.04.2022
3936 Clear 19 1017 68 10000 3.6 40 21:25 29.04.2022
3937 Clear 20 1016 66 10000 5.81 60 20:18 29.04.2022
3938 Clear 20 1016 64 10000 6.17 60 19:27 29.04.2022
3939 Clear 21 1016 60 10000 6.17 60 17:35 29.04.2022
3940 Clear 21 1017 56 10000 5.14 40 16:38 29.04.2022
3941 Clear 21 1018 56 10000 5.14 40 14:36 29.04.2022
3942 Clear 21 1018 60 10000 3.09 40 13:42 29.04.2022
3943 Clear 19 1019 55 10000 3.09 80 12:37 29.04.2022
3944 Clear 17 1019 67 10000 3.09 120 10:32 29.04.2022
3945 Clear 13 1018 80 10000 5.16 71 07:55 29.04.2022
3946 Clear 13 1017 79 10000 4.47 72 07:25 29.04.2022
3947 Clear 13 1017 79 10000 4.47 72 06:30 29.04.2022
3948 Clouds 15 1020 74 10000 4.75 47 01:47 29.04.2022
3949 Clouds 16 1020 74 10000 5.04 39 23:55 28.04.2022
3950 Clouds 16 1020 74 10000 5.38 31 23:25 28.04.2022
3951 Clouds 17 1020 73 10000 5.59 23 22:19 28.04.2022
3952 Clouds 17 1019 72 10000 6.17 20 21:41 28.04.2022
3953 Clouds 18 1018 68 10000 5.14 20 20:45 28.04.2022
3954 Clouds 19 1018 72 10000 6.17 20 19:49 28.04.2022
3955 Clouds 19 1018 72 10000 6.17 20 19:24 28.04.2022
3956 Clouds 19 1018 72 10000 6.17 20 19:24 28.04.2022
3957 Clouds 19 1018 70 10000 7.15 360 18:51 28.04.2022
3958 Clouds 19 1018 68 10000 7.2 360 17:42 28.04.2022
3959 Clouds 19 1018 68 10000 6.17 20 16:51 28.04.2022
3960 Clouds 19 1018 68 10000 6.17 20 16:20 28.04.2022
3961 Clouds 19 1018 68 10000 6.17 20 16:20 28.04.2022
3962 Clouds 19 1019 63 10000 6.17 20 15:43 28.04.2022
3963 Clouds 20 1019 60 10000 4.12 20 14:58 28.04.2022
3964 Clouds 20 1020 60 10000 4.12 360 13:33 28.04.2022
3965 Clouds 19 1020 59 10000 2.06 40 12:28 28.04.2022
3966 Clouds 17 1020 72 10000 2.06 40 10:59 28.04.2022
3967 Clouds 17 1020 72 10000 2.06 40 10:26 28.04.2022
3968 Clouds 15 1020 82 10000 2.06 40 09:47 28.04.2022
3969 Clouds 11 1020 80 10000 3.18 19 07:40 28.04.2022
3970 Clouds 11 1020 81 10000 3.37 1 06:42 28.04.2022
3971 Clouds 12 1019 81 10000 3.37 21 05:52 28.04.2022
3972 Clouds 14 1019 82 10000 3.84 16 04:42 28.04.2022
3973 Clouds 15 1020 80 10000 4.38 16 01:53 28.04.2022
3974 Clouds 16 1020 78 10000 4.22 22 23:25 27.04.2022
3975 Clouds 17 1019 76 10000 4.42 18 22:18 27.04.2022
3976 Clouds 18 1018 63 10000 3.09 40 21:34 27.04.2022
3977 Clouds 18 1018 63 10000 3.09 40 20:45 27.04.2022
3978 Clouds 19 1018 63 10000 3.09 40 19:54 27.04.2022
3979 Clouds 19 1018 63 10000 3.09 40 19:31 27.04.2022
3980 Clouds 19 1018 55 10000 3.09 60 18:38 27.04.2022
3981 Clouds 19 1018 68 10000 5.14 40 17:41 27.04.2022
3982 Clouds 20 1019 68 10000 3.09 20 15:56 27.04.2022
3983 Clouds 17 1019 82 8000 1.54 20 12:50 27.04.2022
3984 Clouds 18 1018 72 8000 3.09 80 11:24 27.04.2022
3985 Clouds 17 1018 72 8000 2.06 160 10:27 27.04.2022
3986 Rain 10 1017 86 10000 1.47 72 07:53 27.04.2022
3987 Clouds 10 1016 86 10000 1.53 53 06:41 27.04.2022
3988 Clouds 17 1016 72 10000 2.68 40 02:26 27.04.2022
3989 Clouds 17 1016 72 10000 2.68 40 01:21 27.04.2022
3990 Clear 17 1016 72 10000 2.68 40 00:27 27.04.2022
3991 Clear 17 1016 72 10000 2.68 40 23:24 26.04.2022
3992 Clouds 17 1016 72 10000 3.09 40 22:44 26.04.2022
3993 Clouds 17 1015 72 10000 3.09 20 21:57 26.04.2022
3994 Clouds 17 1015 72 10000 3.09 20 21:18 26.04.2022
3995 Clouds 18 1014 63 10000 4.12 40 20:36 26.04.2022
3996 Clouds 18 1014 63 10000 7.2 360 19:44 26.04.2022
3997 Clouds 18 1014 63 10000 7.2 360 19:24 26.04.2022
3998 Clouds 19 1014 63 10000 7.2 20 18:20 26.04.2022
3999 Clouds 19 1013 59 10000 5.14 40 17:38 26.04.2022
4000 Clouds 19 1014 59 10000 3.09 60 14:59 26.04.2022
4001 Clouds 19 1013 59 10000 4.12 40 13:38 26.04.2022
4002 Clouds 18 1013 63 10000 4.12 40 12:35 26.04.2022
4003 Clouds 16 1013 72 8000 2.06 100 10:57 26.04.2022
4004 Clouds 16 1013 72 8000 2.06 100 10:29 26.04.2022
4005 Clouds 14 1012 77 10000 2.57 26 08:29 26.04.2022
4006 Clouds 13 1012 77 10000 3.1 50 04:39 26.04.2022
4007 Clouds 15 1012 77 10000 2.76 28 03:25 26.04.2022
4008 Clouds 15 1013 75 10000 3.21 37 00:39 26.04.2022
4009 Clouds 15 1014 74 10000 3.5 27 23:48 25.04.2022
4010 Clouds 17 1012 67 10000 4.12 40 21:49 25.04.2022
4011 Clouds 17 1017 67 10000 4.12 40 21:23 25.04.2022
4012 Clouds 18 1011 63 10000 4.12 20 19:39 25.04.2022
4013 Clouds 19 1011 59 10000 4.12 60 18:25 25.04.2022
4014 Clouds 19 1011 59 10000 4.63 40 17:39 25.04.2022
4015 Clouds 19 1012 59 10000 3.09 60 16:30 25.04.2022
4016 Clouds 19 1023 52 10000 4.92 360 15:19 25.04.2022
4017 Clouds 19 1018 52 10000 5.14 360 14:22 25.04.2022
4018 Clouds 18 1013 59 10000 3.09 60 12:40 25.04.2022
4019 Clear 16 1012 77 8000 2.06 80 10:29 25.04.2022
4020 Clear 16 1012 77 8000 2.06 80 10:29 25.04.2022
4021 Clear 15 1012 82 8000 1.03 0 09:36 25.04.2022
4022 Clear 10 1012 81 10000 1.45 84 07:34 25.04.2022
4023 Clear 16 1013 67 10000 3.58 20 05:53 25.04.2022
4024 Clouds 17 1024 67 10000 3.58 20 01:27 25.04.2022
4025 Clouds 17 1016 67 10000 3.58 20 23:54 24.04.2022
4026 Clouds 17 1015 67 10000 3.58 20 23:20 24.04.2022
4027 Clouds 16 1015 72 10000 2.96 13 22:37 24.04.2022
4028 Clouds 17 1014 67 10000 3.6 20 21:54 24.04.2022
4029 Clouds 17 1014 67 10000 3.6 20 21:20 24.04.2022
4030 Clouds 18 1013 68 10000 4.12 40 20:39 24.04.2022
4031 Clouds 18 1013 68 10000 3.09 20 19:57 24.04.2022
4032 Clouds 19 1013 63 10000 4.63 40 18:33 24.04.2022
4033 Clouds 19 1013 59 10000 4.12 360 17:40 24.04.2022
4034 Clouds 19 1013 59 10000 4.12 360 17:20 24.04.2022
4035 Clouds 19 1013 59 10000 5.14 20 16:49 24.04.2022
4036 Clouds 19 1013 59 10000 5.14 20 16:20 24.04.2022
4037 Clouds 20 1014 52 10000 4.12 360 15:32 24.04.2022
4038 Clouds 19 1014 59 10000 3.09 40 14:30 24.04.2022
4039 Clouds 18 1014 53 10000 4.12 20 13:26 24.04.2022
4040 Clear 18 1014 52 10000 3.09 40 12:38 24.04.2022
4041 Clear 17 1014 55 10000 4.12 20 11:39 24.04.2022
4042 Clear 16 1014 63 10000 1.03 80 10:32 24.04.2022
4043 Clear 14 1014 71 10000 2.06 160 09:39 24.04.2022
4044 Clouds 9 1014 73 10000 1.53 119 07:31 24.04.2022
4045 Clouds 10 1014 69 10000 1.47 65 04:56 24.04.2022
4046 Clear 16 1015 55 10000 2.68 320 01:39 24.04.2022
4047 Clear 17 1015 55 10000 2.68 320 00:33 24.04.2022
4048 Clear 17 1015 55 10000 2.68 320 23:45 23.04.2022
4049 Clear 17 1015 55 10000 2.68 320 23:22 23.04.2022
4050 Clear 17 1015 55 10000 3.09 320 21:54 23.04.2022
4051 Clear 17 1015 55 10000 3.09 320 21:34 23.04.2022
4052 Clear 18 1014 52 10000 5.14 360 20:57 23.04.2022
4053 Clear 18 1014 55 10000 5.14 360 19:48 23.04.2022
4054 Clear 18 1014 55 10000 5.14 360 19:19 23.04.2022
4055 Clouds 19 1014 55 10000 4.12 340 18:52 23.04.2022
4056 Clouds 19 1014 55 10000 3.09 340 17:51 23.04.2022
4057 Clouds 19 1014 55 10000 3.09 340 17:30 23.04.2022
4058 Clouds 19 1014 52 10000 3.09 340 16:42 23.04.2022
4059 Clouds 19 1014 52 8000 3.09 300 15:28 23.04.2022
4060 Clouds 17 1015 63 8000 5.14 320 12:44 23.04.2022
4061 Clouds 15 1014 87 8000 2.06 260 10:49 23.04.2022
4062 Clouds 14 1015 87 8000 3.09 240 09:38 23.04.2022
4063 Rain 14 1012 75 10000 6.36 280 06:41 23.04.2022
4064 Clouds 18 1018 67 10000 5.81 280 03:54 23.04.2022
4065 Rain 16 1011 77 10000 9.24 236 01:25 23.04.2022
4066 Rain 17 1011 77 10000 9.46 235 23:31 22.04.2022
4067 Clouds 17 1010 75 10000 10.13 238 22:20 22.04.2022
4068 Clouds 18 1008 68 10000 6.17 280 21:44 22.04.2022
4069 Clouds 19 1008 59 10000 6.17 280 20:48 22.04.2022
4070 Clouds 20 1008 59 10000 6.17 280 20:27 22.04.2022
4071 Clouds 20 1008 59 10000 6.17 280 19:20 22.04.2022
4072 Clouds 21 1008 52 10000 7.2 280 18:42 22.04.2022
4073 Clouds 21 1008 52 10000 6.17 280 17:48 22.04.2022
4074 Clouds 21 1008 52 10000 6.17 300 16:46 22.04.2022
4075 Clouds 21 1008 46 10000 7.2 280 15:44 22.04.2022
4076 Clouds 22 1008 46 10000 7.2 280 15:18 22.04.2022
4077 Clouds 20 1009 49 8000 7.2 240 13:54 22.04.2022
4078 Clouds 19 1010 52 8000 5.14 240 12:58 22.04.2022
4079 Clouds 17 1010 67 8000 5.14 220 11:52 22.04.2022
4080 Clouds 17 1010 67 8000 5.14 220 11:22 22.04.2022
4081 Clouds 15 1010 72 6000 4.12 200 10:50 22.04.2022
4082 Clouds 15 1010 72 6000 4.12 200 10:30 22.04.2022
4083 Clouds 12 1010 82 6000 3.09 220 09:50 22.04.2022
4084 Clear 9 1010 79 10000 5.36 202 08:50 22.04.2022
4085 Clear 7 1010 82 10000 4.55 196 07:20 22.04.2022
4086 Clear 15 1014 67 10000 2.68 340 03:30 22.04.2022
4087 Clear 15 1014 67 10000 2.68 340 00:51 22.04.2022
4088 Clear 15 1014 67 10000 2.68 340 23:24 21.04.2022
4089 Clouds 15 1014 67 10000 3.09 340 22:29 21.04.2022
4090 Clouds 17 1014 55 10000 5.14 340 20:37 21.04.2022
4091 Clouds 17 1014 55 10000 5.14 340 20:18 21.04.2022
4092 Clear 18 1014 55 10000 4.12 340 18:42 21.04.2022
4093 Clouds 18 1015 52 10000 4.12 360 17:57 21.04.2022
4094 Clouds 18 1018 52 10000 4.12 340 16:35 21.04.2022
4095 Clouds 18 1016 52 10000 3.09 340 15:21 21.04.2022
4096 Clouds 18 1016 52 10000 4.12 340 14:47 21.04.2022
4097 Clouds 18 1017 48 10000 3.09 20 13:23 21.04.2022
4098 Clouds 17 1017 55 10000 3.09 20 12:53 21.04.2022
4099 Clouds 14 1017 67 10000 2.57 220 10:49 21.04.2022
4100 Clouds 9 1017 63 10000 1.77 287 08:56 21.04.2022
4101 Clouds 7 1016 68 10000 2.74 318 07:24 21.04.2022
4102 Clouds 15 1018 55 10000 1.79 360 05:42 21.04.2022
4103 Clouds 15 1018 55 10000 1.79 360 03:30 21.04.2022
4104 Clouds 15 1018 55 10000 1.79 360 02:47 21.04.2022
4105 Clouds 16 1018 55 10000 1.79 360 00:45 21.04.2022
4106 Clouds 16 1018 55 10000 1.79 360 23:50 20.04.2022
4107 Clouds 16 1018 55 10000 1.79 360 23:22 20.04.2022
4108 Clouds 16 1018 55 10000 1.79 360 22:50 20.04.2022
4109 Clouds 16 1018 55 10000 1.79 360 22:30 20.04.2022
4110 Clouds 16 1018 55 10000 2.06 360 21:29 20.04.2022
4111 Clouds 16 1017 59 10000 2.57 360 20:24 20.04.2022
4112 Clouds 17 1017 55 10000 5.14 340 19:52 20.04.2022
4113 Clouds 17 1017 55 10000 5.81 20 19:21 20.04.2022
4114 Clouds 18 1018 74 10000 6.71 20 18:22 20.04.2022
4115 Clouds 17 1018 55 10000 5.66 340 16:54 20.04.2022
4116 Clouds 17 1018 55 10000 5.66 340 16:36 20.04.2022
4117 Clouds 17 1019 51 10000 4.12 360 13:59 20.04.2022
4118 Clouds 16 1019 55 10000 4.12 360 11:50 20.04.2022
4119 Clouds 16 1019 55 10000 4.12 360 11:21 20.04.2022
4120 Clouds 15 1019 62 10000 4.12 360 10:19 20.04.2022
4121 Clouds 15 1017 58 10000 3.09 360 09:25 20.04.2022
4122 Clouds 12 1017 61 10000 5.4 338 08:22 20.04.2022
4123 Clouds 11 1017 61 10000 5.4 338 07:36 20.04.2022
4124 Clouds 16 1017 63 10000 4.92 20 03:38 20.04.2022
4125 Clouds 16 1017 63 10000 4.92 20 00:23 20.04.2022
4126 Clouds 16 1017 63 10000 4.92 20 23:56 19.04.2022
4127 Clouds 16 1017 63 10000 4.92 20 22:27 19.04.2022
4128 Clouds 16 1017 63 10000 5.14 20 21:57 19.04.2022
4129 Clouds 16 1016 63 10000 5.14 20 21:24 19.04.2022
4130 Clouds 16 1017 59 10000 5.14 20 20:45 19.04.2022
4131 Clouds 17 1017 59 10000 5.14 20 19:57 19.04.2022
4132 Clouds 18 1017 59 10000 5.14 340 18:49 19.04.2022
4133 Clouds 19 1017 55 10000 5.14 340 17:50 19.04.2022
4134 Clouds 19 1018 52 10000 4.12 340 16:43 19.04.2022
4135 Clouds 18 1018 52 10000 4.12 340 16:23 19.04.2022
4136 Clouds 17 1018 59 8000 4.12 340 14:50 19.04.2022
4137 Clouds 17 1018 59 8000 4.12 340 14:27 19.04.2022
4138 Clouds 17 1018 63 8000 3.09 180 12:51 19.04.2022
4139 Clouds 17 1018 63 8000 3.09 180 12:26 19.04.2022
4140 Clouds 16 1018 67 8000 2.06 360 10:46 19.04.2022
4141 Clouds 16 1017 67 8000 2.06 360 09:22 19.04.2022
4142 Clouds 16 1017 73 10000 3.25 317 05:59 19.04.2022
4143 Clouds 18 1015 77 10000 2.68 20 03:37 19.04.2022
4144 Clouds 18 1015 77 10000 2.68 20 00:55 19.04.2022
4145 Clouds 18 1014 77 10000 2.68 20 23:31 18.04.2022
4146 Clouds 18 1014 77 8000 3.09 20 21:37 18.04.2022
4147 Clouds 18 1014 77 8000 3.09 20 21:18 18.04.2022
4148 Clouds 18 1014 77 8000 3.09 20 20:35 18.04.2022
4149 Clouds 19 1014 77 8000 3.09 340 19:54 18.04.2022
4150 Clouds 19 1013 77 8000 3.09 340 18:57 18.04.2022
4151 Clouds 19 1014 77 8000 4.12 60 17:58 18.04.2022
4152 Clouds 20 1014 77 8000 4.12 60 17:34 18.04.2022
4153 Clouds 21 1014 68 8000 4.12 360 16:59 18.04.2022
4154 Clouds 21 1014 68 8000 4.12 360 16:32 18.04.2022
4155 Clouds 21 1015 68 8000 3.09 360 14:59 18.04.2022
4156 Clouds 21 1015 72 6000 3.09 360 13:39 18.04.2022
4157 Clouds 20 1016 77 6000 3.09 340 12:32 18.04.2022
4158 Clouds 19 1014 82 5000 2.06 340 11:35 18.04.2022
4159 Clouds 18 1014 82 5000 2.06 320 10:32 18.04.2022
4160 Clouds 17 1016 93 5000 2.06 360 09:31 18.04.2022
4161 Clouds 16 1015 86 10000 0.63 314 08:18 18.04.2022
4162 Clouds 13 1015 87 10000 1.12 18 05:45 18.04.2022
4163 Clouds 20 1016 72 10000 4.02 20 00:49 18.04.2022
4164 Clouds 20 1016 72 10000 4.02 20 22:42 17.04.2022
4165 Clear 20 1016 72 10000 4.12 20 21:49 17.04.2022
4166 Clear 20 1016 72 10000 4.12 20 21:27 17.04.2022
4167 Clear 21 1016 68 10000 3.09 40 20:41 17.04.2022
4168 Clear 22 1016 68 10000 3.09 20 19:40 17.04.2022
4169 Clear 25 1015 53 10000 4.12 80 18:21 17.04.2022
4170 Clear 26 1016 38 10000 4.12 40 16:27 17.04.2022
4171 Clear 25 1017 47 10000 3.6 40 15:26 17.04.2022
4172 Clear 25 1017 50 10000 2.06 40 14:25 17.04.2022
4173 Clouds 24 1017 53 8000 2.06 60 13:18 17.04.2022
4174 Clouds 22 1018 68 8000 1.03 320 12:27 17.04.2022
4175 Clouds 19 1017 82 8000 1.03 100 10:46 17.04.2022
4176 Clouds 19 1017 82 8000 1.03 100 10:28 17.04.2022
4177 Clouds 17 1017 88 8000 1.03 20 09:37 17.04.2022
4178 Clouds 12 1017 73 10000 2.08 64 08:53 17.04.2022
4179 Clouds 13 1016 79 10000 1.86 57 07:37 17.04.2022
4180 Clouds 13 1016 79 10000 3.26 40 04:30 17.04.2022
4181 Clouds 20 1017 64 10000 4.02 60 01:37 17.04.2022
4182 Clouds 20 1017 64 10000 4.02 60 23:54 16.04.2022
4183 Clear 20 1017 64 10000 4.02 60 22:39 16.04.2022
4184 Clear 20 1017 64 10000 4.12 60 21:39 16.04.2022
4185 Clear 21 1016 56 10000 1.03 180 20:32 16.04.2022
4186 Clear 24 1016 36 8000 5.14 40 18:59 16.04.2022
4187 Clear 24 1016 36 8000 5.66 40 17:52 16.04.2022
4188 Clear 25 1017 36 8000 7.2 60 16:40 16.04.2022
4189 Clear 25 1017 36 8000 6.17 60 15:45 16.04.2022
4190 Clear 25 1018 33 8000 7.2 60 14:56 16.04.2022
4191 Clear 25 1018 33 8000 7.2 80 13:58 16.04.2022
4192 Clear 24 1018 33 8000 7.2 80 13:37 16.04.2022
4193 Clear 24 1018 33 8000 6.17 60 12:26 16.04.2022
4194 Clear 20 1018 45 6000 3.09 80 10:50 16.04.2022
4195 Clear 16 1017 67 6000 2.06 60 09:56 16.04.2022
4196 Clear 13 1017 41 10000 5.96 66 08:58 16.04.2022
4197 Clear 15 1016 43 10000 5.85 66 07:57 16.04.2022
4198 Clear 16 1016 47 10000 5.86 66 06:58 16.04.2022
4199 Clear 18 1018 82 10000 4.92 80 02:52 16.04.2022
4200 Clear 18 1018 82 10000 4.92 80 00:30 16.04.2022
4201 Clear 18 1018 82 10000 4.92 80 23:21 15.04.2022
4202 Clear 19 1018 77 10000 5.81 60 22:32 15.04.2022
4203 Clear 19 1018 72 10000 6.17 60 21:50 15.04.2022
4204 Clear 19 1018 72 10000 6.17 60 21:18 15.04.2022
4205 Clear 20 1017 68 10000 6.17 40 20:22 15.04.2022
4206 Clear 21 1017 64 10000 7.2 40 19:40 15.04.2022
4207 Clear 22 1017 60 10000 6.17 60 18:54 15.04.2022
4208 Clear 22 1017 60 10000 6.17 60 18:25 15.04.2022
4209 Clouds 22 1016 56 10000 3.09 60 17:34 15.04.2022
4210 Clouds 22 1018 56 10000 4.12 40 16:48 15.04.2022
4211 Clouds 22 1018 56 10000 4.12 40 16:18 15.04.2022
4212 Clear 21 1019 64 10000 3.6 60 14:51 15.04.2022
4213 Clear 21 1019 64 10000 2.06 100 13:40 15.04.2022
4214 Clear 19 1019 68 10000 3.09 40 12:40 15.04.2022
4215 Clear 18 1019 77 10000 2.06 80 11:56 15.04.2022
4216 Clear 18 1019 77 10000 2.06 80 11:30 15.04.2022
4217 Clear 17 1018 82 8000 1.03 80 10:40 15.04.2022
4218 Clear 14 1018 100 8000 1.03 40 09:44 15.04.2022
4219 Clear 14 1018 100 8000 1.03 40 09:19 15.04.2022
4220 Clear 14 1017 85 10000 3.08 69 07:32 15.04.2022
4221 Clear 12 1017 85 10000 2.81 54 06:28 15.04.2022
4222 Clear 17 1017 82 10000 4.02 20 02:48 15.04.2022
4223 Clear 17 1017 82 10000 4.02 20 23:31 14.04.2022
4224 Clear 17 1017 82 10000 4.02 20 22:49 14.04.2022
4225 Clear 17 1017 82 10000 4.02 20 22:29 14.04.2022
4226 Clouds 17 1017 82 10000 4.12 20 21:59 14.04.2022
4227 Clouds 18 1017 82 10000 4.12 20 20:43 14.04.2022
4228 Clouds 19 1017 77 10000 5.14 40 19:23 14.04.2022
4229 Clouds 20 1015 68 10000 4.12 20 18:22 14.04.2022
4230 Clouds 20 1017 64 10000 4.12 40 17:40 14.04.2022
4231 Clouds 20 1017 68 10000 3.09 20 16:46 14.04.2022
4232 Clouds 19 1017 68 10000 3.09 40 15:24 14.04.2022
4233 Clear 20 1018 56 10000 1.03 60 13:46 14.04.2022
4234 Clear 18 1018 59 10000 4.12 80 12:57 14.04.2022
4235 Clear 18 1018 59 10000 4.12 80 12:31 14.04.2022
4236 Clouds 17 1018 72 10000 1.03 100 11:29 14.04.2022
4237 Clear 15 1018 77 8000 2.06 180 10:53 14.04.2022
4238 Clear 15 1018 77 8000 2.06 180 10:26 14.04.2022
4239 Clouds 13 1017 87 8000 2.06 180 09:24 14.04.2022
4240 Clear 10 1016 84 10000 2.46 57 07:27 14.04.2022
4241 Clear 12 1017 81 10000 2.56 44 03:32 14.04.2022
4242 Clear 17 1016 67 10000 4.02 40 23:29 13.04.2022
4243 Clear 17 1016 67 10000 4.02 40 22:23 13.04.2022
4244 Clear 17 1016 67 10000 4.12 40 21:37 13.04.2022
4245 Clouds 17 1016 67 10000 4.12 60 20:23 13.04.2022
4246 Clouds 18 1015 63 10000 4.12 40 19:37 13.04.2022
4247 Clouds 18 1016 63 10000 4.12 20 18:36 13.04.2022
4248 Clouds 19 1016 59 10000 5.14 20 17:24 13.04.2022
4249 Clouds 19 1016 59 10000 4.12 20 16:37 13.04.2022
4250 Clouds 18 1013 67 10000 3.6 60 15:41 13.04.2022
4251 Clear 18 1012 63 10000 4.02 300 14:51 13.04.2022
4252 Clouds 18 1012 63 10000 4.02 300 14:28 13.04.2022
4253 Clouds 18 1014 63 10000 4.12 300 13:29 13.04.2022
4254 Clouds 18 1015 65 10000 2.06 80 12:30 13.04.2022
4255 Clouds 16 1014 77 10000 2.06 20 10:55 13.04.2022
4256 Clouds 15 1016 82 10000 7.2 200 09:44 13.04.2022
4257 Clouds 14 1016 81 10000 3.56 7 08:43 13.04.2022
4258 Clouds 14 1014 83 10000 3.18 347 06:52 13.04.2022
4259 Clouds 13 1014 84 10000 3.28 343 06:26 13.04.2022
4260 Clouds 17 1014 77 10000 1.79 340 05:52 13.04.2022
4261 Clouds 17 1014 77 10000 1.79 340 00:23 13.04.2022
4262 Clouds 17 1014 77 10000 1.79 340 23:46 12.04.2022
4263 Clouds 17 1014 77 10000 1.79 340 22:19 12.04.2022
4264 Clouds 17 1014 77 10000 2.06 340 21:32 12.04.2022
4265 Clouds 18 1014 67 10000 2.06 340 20:42 12.04.2022
4266 Clouds 18 1014 72 10000 5.66 320 19:53 12.04.2022
4267 Clouds 18 1014 72 10000 5.66 320 19:32 12.04.2022
4268 Clouds 18 1013 67 10000 4.63 320 18:42 12.04.2022
4269 Clouds 19 1013 59 10000 4.63 340 17:30 12.04.2022
4270 Clouds 19 1015 63 10000 5.14 340 16:23 12.04.2022
4271 Clouds 20 1014 52 10000 5.14 320 15:33 12.04.2022
4272 Clouds 19 1016 59 10000 5.14 300 14:29 12.04.2022
4273 Clouds 19 1016 59 8000 4.12 280 13:37 12.04.2022
4274 Clouds 18 1016 67 8000 3.09 260 12:53 12.04.2022
4275 Clouds 17 1015 72 8000 3.09 240 11:47 12.04.2022
4276 Clouds 17 1015 72 8000 3.09 240 11:20 12.04.2022
4277 Clouds 14 1015 93 6000 3.09 220 09:24 12.04.2022
4278 Clouds 14 1013 87 10000 4.16 220 07:59 12.04.2022
4279 Clouds 14 1012 87 10000 4.08 221 06:32 12.04.2022
4280 Clouds 14 1012 87 10000 4.08 221 06:32 12.04.2022
4281 Clouds 14 1012 87 10000 4.09 219 05:34 12.04.2022
4282 Clouds 15 1013 85 10000 4.36 236 00:46 12.04.2022
4283 Clouds 17 1012 72 8000 4.12 280 22:47 11.04.2022
4284 Clouds 17 1012 67 8000 3.09 220 21:49 11.04.2022
4285 Clouds 17 1012 67 8000 4.12 240 20:59 11.04.2022
4286 Clouds 17 1012 67 8000 4.12 240 20:29 11.04.2022
4287 Clouds 17 1011 72 8000 5.14 280 19:55 11.04.2022
4288 Clouds 17 1011 72 8000 5.14 280 19:18 11.04.2022
4289 Clouds 18 1011 68 8000 7.2 320 18:47 11.04.2022
4290 Clouds 20 1010 72 8000 7.2 300 17:57 11.04.2022
4291 Clouds 21 1011 73 8000 5.14 320 16:54 11.04.2022
4292 Clouds 21 1011 73 8000 5.14 320 16:54 11.04.2022
4293 Clouds 21 1011 64 8000 5.14 280 15:56 11.04.2022
4294 Clouds 21 1013 60 10000 3.09 260 14:33 11.04.2022
4295 Clouds 18 1011 73 10000 3.09 240 12:53 11.04.2022
4296 Clouds 18 1011 73 10000 3.09 240 12:33 11.04.2022
4297 Clouds 17 1011 77 8000 3.09 240 11:33 11.04.2022
4298 Clouds 15 1011 87 8000 3.09 220 10:28 11.04.2022
4299 Clouds 14 1011 87 8000 3.09 220 09:20 11.04.2022
4300 Clear 13 1010 89 10000 4.44 225 06:44 11.04.2022
4301 Clouds 18 1010 82 10000 4.02 300 01:55 11.04.2022
4302 Clouds 18 1010 82 10000 4.02 300 22:38 10.04.2022
4303 Clouds 18 1010 82 6000 4.12 300 21:55 10.04.2022
4304 Clouds 18 1010 82 6000 4.12 300 21:29 10.04.2022
4305 Clouds 18 1010 82 6000 4.12 300 20:31 10.04.2022
4306 Clouds 19 1010 77 6000 5.14 320 19:44 10.04.2022
4307 Clouds 20 1010 77 6000 5.14 320 19:20 10.04.2022
4308 Clouds 22 1010 68 6000 4.12 320 18:42 10.04.2022
4309 Clouds 23 1010 64 6000 3.09 320 17:54 10.04.2022
4310 Clouds 22 1010 64 6000 3.09 320 17:34 10.04.2022
4311 Clouds 23 1010 64 6000 6.17 320 16:22 10.04.2022
4312 Clouds 23 1010 53 6000 5.14 320 15:19 10.04.2022
4313 Clear 23 1010 49 10000 2.06 340 13:58 10.04.2022
4314 Clear 24 1010 53 10000 1.54 320 12:34 10.04.2022
4315 Clear 22 1010 49 10000 0 0 11:46 10.04.2022
4316 Clear 21 1010 49 10000 0 0 11:28 10.04.2022
4317 Clouds 18 1010 59 8000 2.57 200 10:48 10.04.2022
4318 Clouds 14 1010 88 8000 1.54 160 09:55 10.04.2022
4319 Clouds 13 1010 88 8000 1.54 160 09:21 10.04.2022
4320 Clouds 11 1010 59 10000 1.83 119 08:21 10.04.2022
4321 Clouds 11 1011 66 10000 2.56 103 07:18 10.04.2022
4322 Clouds 16 1015 77 10000 4.47 60 05:19 10.04.2022
4323 Clouds 17 1015 77 10000 4.47 60 02:20 10.04.2022
4324 Clouds 17 1015 77 10000 4.47 60 23:54 09.04.2022
4325 Clouds 17 1015 77 10000 4.47 60 23:35 09.04.2022
4326 Clouds 17 1015 77 10000 4.47 60 22:43 09.04.2022
4327 Clear 17 1015 77 10000 4.63 60 21:32 09.04.2022
4328 Clear 17 1015 77 10000 3.6 80 20:39 09.04.2022
4329 Clear 17 1015 77 10000 3.6 80 20:19 09.04.2022
4330 Clear 19 1015 68 10000 2.57 60 19:41 09.04.2022
4331 Clear 20 1015 68 10000 4.12 80 18:54 09.04.2022
4332 Clear 20 1015 68 10000 4.12 80 18:18 09.04.2022
4333 Clear 20 1016 63 10000 4.12 60 17:18 09.04.2022
4334 Clouds 19 1017 67 10000 4.63 60 16:42 09.04.2022
4335 Clouds 18 1018 67 10000 5.14 60 15:52 09.04.2022
4336 Clouds 18 1018 67 10000 5.14 60 15:26 09.04.2022
4337 Clouds 17 1019 67 8000 6.17 60 14:26 09.04.2022
4338 Clouds 17 1019 67 8000 5.14 40 13:38 09.04.2022
4339 Clouds 16 1020 72 8000 5.14 60 12:59 09.04.2022
4340 Clouds 15 1020 77 8000 5.14 80 11:52 09.04.2022
4341 Clouds 14 1020 77 10000 3.09 80 10:53 09.04.2022
4342 Clouds 14 1020 77 10000 3.09 80 10:19 09.04.2022
4343 Clear 13 1020 83 10000 4.35 60 09:24 09.04.2022
4344 Clear 13 1020 83 10000 4.35 60 08:45 09.04.2022
4345 Clear 13 1020 86 10000 4.56 56 05:35 09.04.2022
4346 Clouds 15 1023 86 10000 4.2 48 00:36 09.04.2022
4347 Clouds 15 1023 86 10000 4.2 48 00:36 09.04.2022
4348 Clouds 15 1023 85 10000 4.5 49 23:24 08.04.2022
4349 Clouds 16 1022 82 10000 5.14 60 21:54 08.04.2022
4350 Clouds 17 1022 77 10000 5.14 40 20:45 08.04.2022
4351 Clouds 18 1022 67 10000 5.14 40 19:57 08.04.2022
4352 Clouds 18 1022 67 10000 4.12 60 18:59 08.04.2022
4353 Clouds 18 1022 67 10000 4.12 60 18:24 08.04.2022
4354 Clouds 18 1022 67 10000 4.12 20 17:38 08.04.2022
4355 Clouds 18 1022 67 10000 4.12 20 17:19 08.04.2022
4356 Clouds 18 1023 67 10000 5.14 20 16:32 08.04.2022
4357 Clear 18 1023 67 10000 3.09 360 15:38 08.04.2022
4358 Clouds 18 1024 63 10000 4.12 20 14:52 08.04.2022
4359 Clouds 18 1024 63 10000 4.12 20 14:21 08.04.2022
4360 Clear 18 1024 63 10000 3.09 40 13:41 08.04.2022
4361 Clear 18 1024 63 10000 3.09 40 13:22 08.04.2022
4362 Clouds 16 1024 77 10000 3.09 80 11:43 08.04.2022
4363 Clouds 14 1023 82 10000 2.06 120 10:26 08.04.2022
4364 Clouds 13 1022 87 10000 1.54 160 09:20 08.04.2022
4365 Clear 13 1023 93 10000 1.03 120 08:24 08.04.2022
4366 Clear 13 1022 83 10000 3.7 49 06:47 08.04.2022
4367 Clear 16 1023 77 10000 2.68 60 03:48 08.04.2022
4368 Clear 16 1023 77 10000 2.68 60 00:32 08.04.2022
4369 Clear 16 1023 77 10000 2.68 60 23:53 07.04.2022
4370 Clear 16 1023 77 10000 2.68 60 22:57 07.04.2022
4371 Clear 16 1023 77 10000 2.68 60 22:37 07.04.2022
4372 Clear 16 1023 77 10000 2.68 60 22:19 07.04.2022
4373 Clouds 16 1022 77 10000 3.09 60 21:33 07.04.2022
4374 Clouds 16 1022 77 10000 3.6 40 20:56 07.04.2022
4375 Clouds 16 1022 77 10000 3.6 40 20:28 07.04.2022
4376 Clouds 18 1023 67 10000 2.57 40 17:51 07.04.2022
4377 Clouds 18 1023 67 10000 2.57 40 17:24 07.04.2022
4378 Clouds 18 1023 63 10000 5.66 40 16:42 07.04.2022
4379 Clouds 18 1023 63 10000 3.09 40 15:58 07.04.2022
4380 Clouds 17 1023 67 10000 4.12 20 14:29 07.04.2022
4381 Clouds 17 1024 63 10000 3.09 60 13:41 07.04.2022
4382 Clouds 17 1024 63 10000 3.09 80 12:28 07.04.2022
4383 Clouds 13 1024 82 10000 2.06 180 10:57 07.04.2022
4384 Clouds 11 1023 87 10000 1.03 180 09:36 07.04.2022
4385 Clear 8 1023 84 10000 1.98 69 08:35 07.04.2022
4386 Clouds 9 1022 80 10000 2.26 63 06:29 07.04.2022
4387 Clouds 15 1024 63 10000 1.79 40 02:40 07.04.2022
4388 Clear 16 1024 63 10000 1.79 40 01:27 07.04.2022
4389 Clear 16 1023 63 10000 1.79 40 23:53 06.04.2022
4390 Clear 16 1022 63 10000 1.79 40 22:45 06.04.2022
4391 Clear 16 1022 63 10000 1.79 40 22:24 06.04.2022
4392 Clouds 16 1021 63 10000 2.06 40 21:18 06.04.2022
4393 Clouds 16 1021 63 10000 2.06 40 20:27 06.04.2022
4394 Clouds 17 1021 63 10000 2.06 20 19:53 06.04.2022
4395 Clouds 17 1021 63 10000 4.12 340 18:50 06.04.2022
4396 Clouds 17 1021 63 10000 4.12 320 17:52 06.04.2022
4397 Clouds 17 1021 63 10000 4.12 320 17:28 06.04.2022
4398 Clouds 17 1022 63 10000 4.12 320 16:35 06.04.2022
4399 Clouds 17 1022 61 10000 2.68 320 15:47 06.04.2022
4400 Clouds 17 1022 63 10000 3.09 320 14:23 06.04.2022
4401 Clouds 15 1021 88 8000 2.06 220 12:58 06.04.2022
4402 Clouds 14 1020 88 8000 1.54 260 11:55 06.04.2022
4403 Clouds 13 1019 94 8000 2.06 240 10:45 06.04.2022
4404 Clouds 13 1019 94 8000 2.06 240 10:20 06.04.2022
4405 Clouds 12 1018 100 10000 2.06 220 09:27 06.04.2022
4406 Clouds 12 1017 94 10000 2.06 220 08:30 06.04.2022
4407 Clouds 13 1018 87 10000 2.99 230 07:47 06.04.2022
4408 Clouds 13 1016 87 10000 4.75 249 03:37 06.04.2022
4409 Clouds 13 1015 79 10000 5.33 256 23:51 05.04.2022
4410 Clouds 13 1013 94 8000 5.14 260 22:30 05.04.2022
4411 Clouds 13 1012 94 8000 6.17 280 21:19 05.04.2022
4412 Clouds 14 1011 88 8000 7.2 300 20:25 05.04.2022
4413 Clouds 14 1011 88 1000 5.14 260 19:26 05.04.2022
4414 Clouds 15 1014 77 8000 7.2 260 17:52 05.04.2022
4415 Clouds 16 1014 67 8000 8.23 260 16:51 05.04.2022
4416 Clouds 16 1009 72 8000 8.75 240 15:53 05.04.2022
4417 Clouds 15 1009 72 8000 8.75 240 15:33 05.04.2022
4418 Clouds 14 1010 82 8000 8.75 260 14:27 05.04.2022
4419 Clouds 15 1014 58 10000 6.17 240 12:56 05.04.2022
4420 Clouds 14 1014 67 8000 8.75 240 11:50 05.04.2022
4421 Clouds 14 1011 67 8000 8.75 240 11:32 05.04.2022
4422 Clouds 11 1012 81 8000 4.12 200 09:55 05.04.2022
4423 Clear 10 1009 70 10000 9.11 205 08:52 05.04.2022
4424 Clouds 11 1008 73 10000 8.1 197 06:58 05.04.2022
4425 Clouds 12 1007 68 10000 7.96 229 01:51 05.04.2022
4426 Clouds 13 1007 74 10000 8.03 266 22:42 04.04.2022
4427 Clouds 14 1005 74 10000 9.73 275 22:22 04.04.2022
4428 Clouds 16 1002 77 8000 5.14 300 21:21 04.04.2022
4429 Clouds 16 1002 77 8000 5.14 300 21:21 04.04.2022
4430 Clouds 16 1002 77 8000 5.14 280 20:49 04.04.2022
4431 Clouds 17 1002 77 8000 4.12 300 19:45 04.04.2022
4432 Clouds 17 1002 77 8000 4.12 300 19:25 04.04.2022
4433 Clouds 19 1006 63 8000 7.2 300 18:33 04.04.2022
4434 Clouds 17 1006 75 6000 4.12 320 16:36 04.04.2022
4435 Clouds 16 1006 82 6000 2.06 300 15:44 04.04.2022
4436 Clouds 16 1005 82 6000 2.06 300 15:25 04.04.2022
4437 Clouds 22 1023 73 6000 2.06 200 14:46 04.04.2022
4438 Clouds 17 1001 77 6000 2.06 280 13:30 04.04.2022
4439 Clouds 15 1000 88 10000 2.57 240 11:55 04.04.2022
4440 Clouds 15 1000 88 10000 2.57 240 11:29 04.04.2022
4441 Clouds 14 1000 88 6000 1.54 240 09:18 04.04.2022
4442 Clouds 14 1001 86 10000 4.33 198 04:45 04.04.2022
4443 Clouds 16 1004 63 10000 4.02 320 01:28 04.04.2022
4444 Clouds 17 1004 63 10000 4.02 320 22:43 03.04.2022
4445 Clear 17 1004 63 10000 4.12 320 21:47 03.04.2022
4446 Clouds 18 1004 59 10000 4.12 320 20:57 03.04.2022
4447 Clouds 18 1004 59 10000 4.12 320 19:51 03.04.2022
4448 Clouds 18 1003 59 10000 3.09 180 18:33 03.04.2022
4449 Clouds 18 1004 67 10000 4.12 340 17:48 03.04.2022
4450 Clouds 19 1005 68 10000 4.12 340 16:59 03.04.2022
4451 Clouds 19 1005 68 10000 4.12 340 16:41 03.04.2022
4452 Clouds 19 1006 68 10000 3.09 240 15:18 03.04.2022
4453 Clouds 18 1006 72 10000 3.09 220 13:55 03.04.2022
4454 Clouds 17 1006 82 10000 2.06 220 12:48 03.04.2022
4455 Clouds 16 1007 82 10000 2.06 100 11:33 03.04.2022
4456 Clouds 14 1007 87 10000 2.06 80 09:39 03.04.2022
4457 Clouds 14 1005 82 10000 0.33 307 08:40 03.04.2022
4458 Clouds 14 1005 84 10000 2.83 48 05:42 03.04.2022
4459 Clouds 16 1010 67 10000 4.92 60 02:54 03.04.2022
4460 Clouds 16 1013 67 10000 4.92 60 23:22 02.04.2022
4461 Clouds 16 1012 67 8000 5.14 60 22:38 02.04.2022
4462 Clouds 16 1012 67 8000 5.14 60 21:49 02.04.2022
4463 Clouds 16 1012 67 8000 5.14 60 21:19 02.04.2022
4464 Clouds 17 1012 63 8000 5.14 60 20:35 02.04.2022
4465 Clouds 17 1012 67 8000 7.2 40 18:45 02.04.2022
4466 Clouds 18 1012 65 8000 7.2 40 18:18 02.04.2022
4467 Clouds 18 1012 55 8000 5.14 80 16:39 02.04.2022
4468 Clouds 18 1013 56 8000 7.2 40 15:23 02.04.2022
4469 Clouds 17 1014 63 8000 7.2 80 14:51 02.04.2022
4470 Clouds 16 1013 72 8000 7.2 40 13:57 02.04.2022
4471 Clouds 16 1013 72 8000 7.2 40 13:23 02.04.2022
4472 Clouds 14 1015 67 8000 5.14 80 11:56 02.04.2022
4473 Clouds 12 1013 81 10000 3.09 100 09:57 02.04.2022
4474 Clouds 11 1013 82 10000 4.86 65 07:33 02.04.2022
4475 Clear 15 1016 72 10000 4.92 60 04:25 02.04.2022
4476 Clear 15 1016 72 10000 4.92 60 00:27 02.04.2022
4477 Clear 15 1016 72 10000 4.92 60 23:53 01.04.2022
4478 Clouds 15 1016 72 10000 5.14 60 22:34 01.04.2022
4479 Clouds 17 1016 59 10000 3.09 60 20:54 01.04.2022
4480 Clouds 17 1016 59 10000 3.09 60 20:32 01.04.2022
4481 Clouds 17 1016 63 10000 4.12 20 19:39 01.04.2022
4482 Clouds 17 1016 63 10000 4.12 20 19:39 01.04.2022
4483 Clouds 17 1016 63 10000 4.12 20 19:18 01.04.2022
4484 Clouds 18 1015 55 10000 7.2 360 18:35 01.04.2022
4485 Clouds 18 1015 55 10000 7.2 320 17:36 01.04.2022
4486 Clouds 18 1017 59 10000 4.12 60 15:46 01.04.2022
4487 Clouds 18 1018 55 10000 3.09 60 14:47 01.04.2022
4488 Clouds 18 1018 59 10000 5.14 360 13:38 01.04.2022
4489 Clouds 17 1018 65 10000 2.06 80 12:33 01.04.2022
4490 Clouds 17 1018 67 10000 1.03 320 11:45 01.04.2022
4491 Clouds 14 1018 82 8000 3.09 180 10:41 01.04.2022
4492 Clouds 13 1018 82 8000 2.06 220 09:35 01.04.2022
4493 Clouds 11 1018 75 10000 1.51 28 07:24 01.04.2022
4494 Clouds 12 1018 76 10000 1.59 8 04:57 01.04.2022
4495 Clouds 12 1018 76 10000 1.59 8 04:39 01.04.2022
4496 Clouds 13 1018 76 10000 2.09 341 02:32 01.04.2022
4497 Clouds 14 1019 76 10000 2.16 346 01:31 01.04.2022
4498 Clouds 16 1018 77 10000 3.92 322 22:27 31.03.2022
4499 Clouds 16 1017 67 10000 3.09 340 21:38 31.03.2022
4500 Clouds 17 1017 63 10000 4.12 340 20:50 31.03.2022
4501 Clouds 17 1016 65 10000 4.12 340 20:28 31.03.2022
4502 Clouds 17 1016 67 10000 3.09 300 19:21 31.03.2022
4503 Clouds 17 1016 72 10000 4.12 320 18:31 31.03.2022
4504 Clouds 17 1016 72 10000 4.12 320 18:31 31.03.2022
4505 Clouds 17 1016 77 10000 4.92 280 16:47 31.03.2022
4506 Clouds 16 1016 82 10000 5.14 280 15:54 31.03.2022
4507 Clouds 17 1017 74 10000 5.14 280 15:24 31.03.2022
4508 Clouds 18 1017 67 10000 4.47 280 14:44 31.03.2022
4509 Clouds 18 1017 67 10000 4.63 280 13:28 31.03.2022
4510 Clouds 16 1018 77 8000 2.57 220 11:30 31.03.2022
4511 Clouds 14 1017 82 8000 2.57 220 10:22 31.03.2022
4512 Clouds 12 1015 93 8000 3.09 220 09:39 31.03.2022
4513 Clouds 11 1016 85 10000 3.71 230 07:48 31.03.2022
4514 Clouds 13 1016 83 10000 3.13 267 01:37 31.03.2022
4515 Clouds 13 1016 84 10000 3.94 297 23:24 30.03.2022
4516 Clouds 17 1014 63 10000 2.57 340 21:55 30.03.2022
4517 Clouds 17 1015 63 10000 2.57 340 21:30 30.03.2022
4518 Clouds 17 1014 63 10000 5.14 340 20:37 30.03.2022
4519 Clouds 17 1013 67 10000 5.14 340 19:47 30.03.2022
4520 Clouds 18 1013 67 10000 5.14 340 18:41 30.03.2022
4521 Clouds 18 1013 72 10000 3.09 360 17:51 30.03.2022
4522 Clouds 18 1013 67 10000 5.14 340 16:59 30.03.2022
4523 Clouds 18 1014 67 10000 5.14 340 16:39 30.03.2022
4524 Clouds 18 1014 67 8000 4.12 340 15:55 30.03.2022
4525 Clouds 18 1016 63 8000 4.12 340 14:35 30.03.2022
4526 Clouds 17 1014 67 8000 4.12 320 13:21 30.03.2022
4527 Clouds 16 1014 77 8000 3.09 360 12:19 30.03.2022
4528 Clouds 15 1012 82 8000 8.23 340 10:48 30.03.2022
4529 Clouds 15 1011 88 8000 3.09 80 09:30 30.03.2022
4530 Clouds 15 1011 87 10000 6.35 330 08:20 30.03.2022
4531 Clouds 15 1010 89 10000 4.36 307 06:32 30.03.2022
4532 Clouds 15 1010 82 10000 1.79 280 05:38 30.03.2022
4533 Clouds 15 1010 82 10000 1.79 280 01:45 30.03.2022
4534 Clouds 15 1010 82 8000 2.06 280 22:38 29.03.2022
4535 Clouds 15 1010 82 6000 2.06 280 21:47 29.03.2022
4536 Clouds 16 1010 79 6000 2.68 320 21:20 29.03.2022
4537 Clouds 16 1010 77 6000 3.09 320 20:25 29.03.2022
4538 Clouds 16 1010 77 6000 3.09 320 19:27 29.03.2022
4539 Clouds 16 1009 82 6000 3.09 320 18:53 29.03.2022
4540 Clouds 16 1009 88 6000 4.12 320 17:40 29.03.2022
4541 Clouds 16 1010 94 6000 2.06 360 16:59 29.03.2022
4542 Clouds 15 1010 94 6000 2.06 360 16:20 29.03.2022
4543 Clouds 15 1010 88 6000 3.09 340 14:58 29.03.2022
4544 Clouds 15 1010 88 6000 3.09 340 14:39 29.03.2022
4545 Clouds 17 1010 82 6000 2.06 360 13:30 29.03.2022
4546 Clouds 16 1010 88 6000 2.06 340 11:46 29.03.2022
4547 Mist 16 1010 88 3000 2.06 320 10:59 29.03.2022
4548 Clouds 15 1010 94 6000 2.06 320 09:50 29.03.2022
4549 Clouds 14 1010 86 10000 1.27 144 08:20 29.03.2022
4550 Clouds 15 1010 86 10000 2.1 201 05:38 29.03.2022
4551 Clouds 17 1013 82 10000 1.79 260 01:25 29.03.2022
4552 Clear 17 1013 82 10000 1.79 260 23:25 28.03.2022
4553 Clouds 17 1013 82 8000 2.06 260 22:54 28.03.2022
4554 Clouds 17 1013 82 8000 2.06 260 22:28 28.03.2022
4555 Clouds 17 1013 82 10000 2.06 280 21:18 28.03.2022
4556 Clouds 18 1012 82 10000 4.12 300 20:32 28.03.2022
4557 Clouds 19 1012 77 10000 4.12 320 19:46 28.03.2022
4558 Clouds 19 1012 77 10000 4.12 320 19:28 28.03.2022
4559 Clouds 19 1011 77 10000 5.14 320 18:40 28.03.2022
4560 Clouds 20 1011 68 10000 5.14 320 17:39 28.03.2022
4561 Clouds 21 1012 64 10000 6.17 320 16:38 28.03.2022
4562 Clouds 21 1012 66 10000 5.14 320 14:49 28.03.2022
4563 Clouds 21 1012 66 10000 5.14 320 14:22 28.03.2022
4564 Clouds 19 1012 68 8000 3.09 260 12:41 28.03.2022
4565 Clouds 19 1011 63 8000 4.12 260 11:38 28.03.2022
4566 Clouds 19 1010 55 8000 5.14 220 09:43 28.03.2022
4567 Clouds 19 1010 55 8000 5.14 220 09:19 28.03.2022
4568 Clouds 16 1010 63 10000 4.21 232 08:23 28.03.2022
4569 Clouds 18 1010 63 10000 4.21 232 07:56 28.03.2022
4570 Clouds 16 1010 59 10000 5.6 97 04:27 28.03.2022
4571 Clouds 18 1014 69 10000 4.72 94 23:43 27.03.2022
4572 Clouds 18 1014 77 8000 1.03 80 22:25 27.03.2022
4573 Clouds 19 1014 68 8000 1.03 80 21:42 27.03.2022
4574 Clouds 20 1013 63 8000 2.06 60 20:58 27.03.2022
4575 Clouds 20 1013 68 8000 2.06 40 19:53 27.03.2022
4576 Clouds 20 1013 68 8000 2.06 40 19:30 27.03.2022
4577 Clouds 21 1013 64 8000 2.06 40 18:28 27.03.2022
4578 Clouds 22 1012 56 8000 3.09 20 17:40 27.03.2022
4579 Clouds 22 1012 56 8000 3.09 20 17:20 27.03.2022
4580 Clouds 22 1013 64 8000 2.06 20 15:28 27.03.2022
4581 Clouds 22 1013 52 6000 2.06 360 13:56 27.03.2022
4582 Clouds 18 1013 68 6000 2.06 20 12:41 27.03.2022
4583 Clouds 17 1013 72 6000 2.06 120 11:21 27.03.2022
4584 Mist 13 1009 87 2000 2.06 160 09:21 27.03.2022
4585 Clouds 13 1012 86 10000 3.49 77 05:56 27.03.2022
4586 Clear 14 1013 92 10000 3.35 66 01:41 27.03.2022
4587 Clouds 15 1014 89 10000 3.36 46 00:24 27.03.2022
4588 Clouds 15 1014 87 10000 3.09 45 22:43 26.03.2022
4589 Clouds 16 1014 85 10000 2.99 46 21:50 26.03.2022
4590 Clouds 16 1014 84 10000 3.06 46 21:26 26.03.2022
4591 Clouds 18 1012 72 10000 3.09 40 19:31 26.03.2022
4592 Clouds 19 1012 63 10000 4.12 20 17:54 26.03.2022
4593 Clouds 19 1012 63 10000 4.12 20 17:33 26.03.2022
4594 Clouds 20 1012 68 10000 4.12 340 16:27 26.03.2022
4595 Clouds 20 1012 64 10000 3.09 340 15:23 26.03.2022
4596 Clouds 22 1023 73 10000 4.12 320 13:54 26.03.2022
4597 Clouds 22 1023 73 10000 4.12 320 13:18 26.03.2022
4598 Clouds 17 1014 72 8000 3.09 240 11:41 26.03.2022
4599 Clouds 15 1013 77 8000 3.09 200 10:29 26.03.2022
4600 Clouds 12 1012 87 8000 3.58 220 08:44 26.03.2022
4601 Clouds 11 1012 91 10000 4.69 187 06:30 26.03.2022
4602 Clouds 11 1012 92 10000 5.02 195 05:28 26.03.2022
4603 Clouds 14 1012 91 10000 5.41 203 00:30 26.03.2022
4604 Clouds 15 1012 88 10000 4.62 227 21:51 25.03.2022
4605 Clouds 15 1011 77 6000 2.06 260 20:46 25.03.2022
4606 Clouds 15 1011 77 6000 2.06 260 20:20 25.03.2022
4607 Clouds 16 1011 72 6000 3.6 260 18:47 25.03.2022
4608 Clouds 16 1013 75 6000 2.24 280 17:49 25.03.2022
4609 Clouds 16 1013 75 6000 2.24 280 17:27 25.03.2022
4610 Clouds 15 1013 77 6000 2.57 280 16:18 25.03.2022
4611 Clouds 17 1013 59 10000 3.09 260 14:49 25.03.2022
4612 Clouds 16 1011 67 10000 3.09 240 13:24 25.03.2022
4613 Clouds 13 1011 82 10000 3.09 220 10:26 25.03.2022
4614 Clouds 12 1011 81 10000 3.09 220 09:28 25.03.2022
4615 Clouds 10 1010 87 6000 3.09 200 08:24 25.03.2022
4616 Clouds 10 1010 87 6000 3.09 200 07:28 25.03.2022
4617 Clouds 8 1010 85 10000 3.93 232 06:24 25.03.2022
4618 Clouds 14 1016 67 10000 1.79 80 01:18 25.03.2022
4619 Clouds 14 1017 67 10000 1.79 80 22:53 24.03.2022
4620 Clouds 14 1016 67 10000 1.79 80 21:52 24.03.2022
4621 Clouds 14 1013 67 10000 2.06 80 20:37 24.03.2022
4622 Clouds 15 1012 58 10000 3.09 80 19:47 24.03.2022
4623 Clouds 16 1008 59 10000 3.09 40 17:48 24.03.2022
4624 Clouds 16 1008 59 10000 3.09 40 17:23 24.03.2022
4625 Clouds 17 1012 51 10000 2.06 280 15:45 24.03.2022
4626 Clouds 16 1013 57 10000 4.02 240 14:50 24.03.2022
4627 Clouds 16 1013 57 10000 4.02 240 14:19 24.03.2022
4628 Clouds 16 1012 55 10000 4.12 240 13:23 24.03.2022
4629 Clouds 15 1010 62 10000 5.14 240 11:47 24.03.2022
4630 Clouds 12 1010 71 8000 3.09 200 09:55 24.03.2022
4631 Clouds 10 1010 81 6000 3.09 180 08:42 24.03.2022
4632 Clouds 8 1009 88 10000 5.5 176 06:49 24.03.2022
4633 Clouds 10 1010 90 10000 5.3 185 03:57 24.03.2022
4634 Clouds 14 1019 76 10000 2.68 260 23:20 23.03.2022
4635 Clouds 14 1018 76 10000 2.68 260 21:40 23.03.2022
4636 Clouds 14 1014 76 10000 2.68 260 21:18 23.03.2022
4637 Clouds 14 1013 82 8000 3.09 240 19:46 23.03.2022
4638 Clouds 14 1014 82 6000 2.06 260 18:55 23.03.2022
4639 Clouds 13 1011 87 6000 4.12 280 17:37 23.03.2022
4640 Clouds 13 1011 87 6000 4.12 280 16:39 23.03.2022
4641 Clouds 13 1012 87 6000 5.14 360 14:51 23.03.2022
4642 Clouds 13 1012 87 6000 5.14 360 14:26 23.03.2022
4643 Clouds 18 1016 59 10000 3.09 240 12:51 23.03.2022
4644 Mist 14 1013 88 3000 2.06 220 09:45 23.03.2022
4645 Clouds 13 1013 92 10000 3.05 205 06:48 23.03.2022
4646 Clouds 13 1013 90 10000 1.94 218 05:23 23.03.2022
4647 Clouds 16 1020 82 10000 1.79 40 00:29 23.03.2022
4648 Clouds 15 1017 86 10000 0.23 287 23:39 22.03.2022
4649 Clouds 16 1019 82 10000 1.79 40 21:30 22.03.2022
4650 Clouds 16 1018 82 8000 2.06 40 20:45 22.03.2022
4651 Clouds 16 1017 82 8000 3.09 20 19:43 22.03.2022
4652 Clouds 16 1017 82 8000 3.09 20 19:19 22.03.2022
4653 Clouds 17 1017 72 10000 2.06 40 18:31 22.03.2022
4654 Clouds 18 1017 68 10000 3.09 40 17:37 22.03.2022
4655 Clouds 18 1017 72 10000 4.12 20 16:27 22.03.2022
4656 Clouds 18 1019 69 10000 4.12 40 15:23 22.03.2022
4657 Clouds 18 1019 67 10000 3.09 360 14:47 22.03.2022
4658 Clouds 18 1018 67 10000 3.09 360 14:27 22.03.2022
4659 Clouds 18 1019 67 10000 2.06 60 13:35 22.03.2022
4660 Clouds 17 1019 67 10000 1.03 80 11:52 22.03.2022
4661 Clouds 16 1019 77 8000 1.03 200 10:44 22.03.2022
4662 Clouds 13 1018 87 8000 1.54 180 08:36 22.03.2022
4663 Clouds 11 1018 90 10000 1.49 147 06:53 22.03.2022
4664 Clouds 15 1019 77 10000 2.24 300 03:49 22.03.2022
4665 Clouds 16 1019 77 10000 2.24 300 00:28 22.03.2022
4666 Clouds 16 1019 77 10000 2.24 300 22:42 21.03.2022
4667 Clouds 16 1019 77 10000 2.24 300 21:18 21.03.2022
4668 Clouds 16 1019 77 10000 2.57 300 20:40 21.03.2022
4669 Clouds 17 1019 72 10000 2.57 320 19:58 21.03.2022
4670 Clouds 17 1019 72 10000 2.57 320 19:34 21.03.2022
4671 Clouds 18 1019 67 10000 3.6 340 18:31 21.03.2022
4672 Clouds 19 1018 63 10000 4.92 320 17:19 21.03.2022
4673 Clouds 19 1018 63 10000 5.14 320 16:51 21.03.2022
4674 Clouds 19 1019 59 10000 4.12 320 15:59 21.03.2022
4675 Clouds 19 1019 59 10000 4.12 320 15:20 21.03.2022
4676 Clouds 19 1019 59 10000 3.09 300 14:25 21.03.2022
4677 Clouds 18 1019 55 10000 3.09 280 12:42 21.03.2022
4678 Clouds 18 1019 63 10000 3.09 240 11:53 21.03.2022
4679 Clear 15 1019 77 10000 3.09 240 10:44 21.03.2022
4680 Clear 12 1018 87 10000 2.06 240 08:56 21.03.2022
4681 Clouds 10 1018 85 10000 4.53 200 06:57 21.03.2022
4682 Clouds 12 1018 84 10000 4.77 209 02:55 21.03.2022
4683 Clear 16 1020 63 10000 4.02 300 00:35 21.03.2022
4684 Clear 16 1017 63 10000 4.02 300 22:54 20.03.2022
4685 Clear 16 1019 63 10000 4.02 300 21:57 20.03.2022
4686 Clear 16 1019 63 10000 4.02 300 21:29 20.03.2022
4687 Clouds 16 1017 63 10000 4.12 300 20:45 20.03.2022
4688 Clouds 17 1016 59 10000 4.12 320 19:59 20.03.2022
4689 Clouds 17 1016 59 10000 4.12 320 19:59 20.03.2022
4690 Clouds 17 1016 59 10000 4.12 320 19:38 20.03.2022
4691 Clouds 18 1016 59 10000 5.14 320 18:40 20.03.2022
4692 Clouds 18 1015 63 10000 6.17 320 17:35 20.03.2022
4693 Clouds 18 1015 55 8000 5.14 300 16:57 20.03.2022
4694 Clouds 19 1015 63 8000 5.14 300 15:43 20.03.2022
4695 Clouds 20 1015 59 6000 5.14 320 14:35 20.03.2022
4696 Clouds 20 1015 52 10000 3.6 300 12:42 20.03.2022
4697 Clouds 17 1015 75 8000 4.02 260 11:32 20.03.2022
4698 Mist 15 1016 93 1500 4.12 240 09:30 20.03.2022
4699 Clear 14 1013 87 10000 2.57 240 07:49 20.03.2022
4700 Clouds 13 1012 86 10000 4.01 211 05:48 20.03.2022
4701 Clouds 17 1014 72 10000 0.89 40 02:45 20.03.2022
4702 Clouds 17 1014 72 10000 0.89 40 00:47 20.03.2022
4703 Clouds 17 1014 72 10000 0.89 40 23:19 19.03.2022
4704 Clouds 17 1014 72 10000 0.89 40 21:32 19.03.2022
4705 Clear 17 1014 72 10000 1.03 40 20:58 19.03.2022
4706 Clear 20 1014 60 10000 1.03 60 18:59 19.03.2022
4707 Clear 20 1014 59 10000 1.79 360 18:24 19.03.2022
4708 Clear 19 1014 59 10000 2.06 360 17:40 19.03.2022
4709 Clear 21 1014 60 10000 3.09 340 16:24 19.03.2022
4710 Clear 21 1015 60 10000 3.09 320 15:19 19.03.2022
4711 Clear 20 1016 60 10000 1.03 60 13:20 19.03.2022
4712 Clear 19 1016 68 10000 2.06 340 12:41 19.03.2022
4713 Clear 17 1017 72 8000 1.03 360 11:54 19.03.2022
4714 Clear 17 1017 72 8000 1.03 360 11:25 19.03.2022
4715 Clear 11 1016 93 6000 1.54 220 07:59 19.03.2022
4716 Clear 15 1017 82 10000 2.68 40 03:53 19.03.2022
4717 Clear 15 1017 82 10000 2.68 40 02:30 19.03.2022
4718 Clear 16 1017 82 10000 2.68 40 23:46 18.03.2022
4719 Clear 16 1017 82 10000 2.68 40 22:29 18.03.2022
4720 Clear 16 1017 82 10000 2.68 40 21:55 18.03.2022
4721 Clear 17 1017 67 10000 1.54 40 19:54 18.03.2022
4722 Clear 17 1017 67 10000 1.54 40 19:22 18.03.2022
4723 Clear 18 1016 63 10000 3.09 40 18:18 18.03.2022
4724 Clouds 18 1018 63 10000 3.6 40 16:51 18.03.2022
4725 Clouds 18 1018 63 10000 4.12 40 15:43 18.03.2022
4726 Clouds 18 1018 63 10000 4.12 40 15:43 18.03.2022
4727 Clouds 19 1018 59 10000 1.03 140 14:24 18.03.2022
4728 Clouds 18 1019 67 10000 1.03 160 12:39 18.03.2022
4729 Clouds 16 1019 77 6000 1.03 100 11:21 18.03.2022
4730 Clouds 13 1018 88 6000 1.54 200 09:34 18.03.2022
4731 Clouds 12 1018 94 6000 1.54 200 08:42 18.03.2022
4732 Clear 11 1017 88 10000 1.98 162 06:40 18.03.2022
4733 Clear 11 1017 87 10000 0.85 140 03:30 18.03.2022
4734 Clouds 14 1019 87 10000 0.53 66 00:53 18.03.2022
4735 Clouds 14 1019 87 10000 1.06 63 23:44 17.03.2022
4736 Clear 15 1019 88 10000 1.96 57 22:25 17.03.2022
4737 Clear 15 1019 88 10000 1.96 57 21:48 17.03.2022
4738 Clear 15 1018 88 10000 2.71 46 21:27 17.03.2022
4739 Clouds 15 1018 82 8000 2.06 20 20:51 17.03.2022
4740 Clouds 16 1018 72 8000 3.09 40 19:53 17.03.2022
4741 Clouds 16 1018 72 8000 3.09 40 19:32 17.03.2022
4742 Clouds 17 1017 67 8000 3.09 20 18:49 17.03.2022
4743 Clouds 17 1017 67 8000 4.12 20 17:18 17.03.2022
4744 Clouds 18 1017 68 8000 3.09 360 15:52 17.03.2022
4745 Clouds 18 1017 68 8000 3.09 360 15:33 17.03.2022
4746 Clouds 17 1018 67 8000 2.06 360 14:48 17.03.2022
4747 Clouds 16 1020 77 8000 2.06 60 12:59 17.03.2022
4748 Clouds 16 1020 77 8000 2.06 60 12:37 17.03.2022
4749 Clouds 16 1020 82 8000 1.03 60 11:30 17.03.2022
4750 Clouds 14 1020 91 8000 2.06 240 10:34 17.03.2022
4751 Clouds 13 1016 94 8000 2.06 220 08:41 17.03.2022
4752 Clouds 13 1016 94 8000 2.06 220 07:52 17.03.2022
4753 Clouds 13 1016 91 10000 2.08 210 05:48 17.03.2022
4754 Clouds 15 1015 72 10000 2.68 360 03:41 17.03.2022
4755 Clouds 15 1016 72 10000 2.68 360 23:57 16.03.2022
4756 Clouds 15 1016 72 10000 2.68 360 22:51 16.03.2022
4757 Clouds 15 1016 72 10000 2.68 360 22:33 16.03.2022
4758 Clouds 15 1016 72 10000 2.68 360 21:46 16.03.2022
4759 Clouds 15 1016 72 10000 3.09 360 20:28 16.03.2022
4760 Clouds 15 1015 72 10000 3.09 320 19:22 16.03.2022
4761 Clouds 15 1014 72 10000 4.12 340 18:40 16.03.2022
4762 Clouds 15 1014 72 10000 3.09 340 17:43 16.03.2022
4763 Clouds 15 1014 72 10000 3.09 340 17:25 16.03.2022
4764 Clouds 16 1014 67 10000 3.09 320 15:56 16.03.2022
4765 Clouds 14 1018 76 10000 3.09 340 14:28 16.03.2022
4766 Clouds 15 1018 72 10000 3.6 300 13:32 16.03.2022
4767 Clouds 15 1014 77 10000 3.09 240 11:58 16.03.2022
4768 Clouds 15 1014 77 10000 3.09 240 11:21 16.03.2022
4769 Clouds 14 1017 76 10000 1.03 220 10:27 16.03.2022
4770 Clouds 13 1016 76 8000 1.54 240 09:42 16.03.2022
4771 Clouds 12 1010 92 10000 4.26 195 06:27 16.03.2022
4772 Clouds 11 1010 87 10000 3.88 102 02:29 16.03.2022
4773 Clouds 14 1018 67 10000 0.89 40 22:51 15.03.2022
4774 Clouds 14 1019 67 10000 0.89 40 22:32 15.03.2022
4775 Clouds 14 1008 67 10000 1.03 40 20:36 15.03.2022
4776 Clouds 15 1006 58 10000 3.09 360 18:58 15.03.2022
4777 Clouds 15 1006 58 10000 3.6 40 17:35 15.03.2022
4778 Clouds 15 1006 58 10000 4.12 240 16:34 15.03.2022
4779 Clouds 16 1006 55 10000 3.6 360 15:21 15.03.2022
4780 Clouds 15 1007 58 10000 4.12 340 14:46 15.03.2022
4781 Clouds 16 1007 55 10000 3.09 280 13:55 15.03.2022
4782 Clouds 15 1013 51 10000 3.09 160 12:29 15.03.2022
4783 Clouds 15 1011 54 10000 3.09 160 11:32 15.03.2022
4784 Clouds 11 1007 76 6000 4.12 180 09:54 15.03.2022
4785 Clouds 9 1013 81 6000 3.09 180 08:49 15.03.2022
4786 Clouds 9 1013 81 6000 3.09 180 07:52 15.03.2022
4787 Clouds 9 1006 81 6000 3.09 180 07:34 15.03.2022
4788 Clouds 7 1006 84 10000 5.32 175 05:42 15.03.2022
4789 Clouds 11 1007 82 10000 7.26 177 23:58 14.03.2022
4790 Clouds 10 1007 81 10000 7.21 176 23:25 14.03.2022
4791 Clouds 10 1007 81 10000 7.21 176 22:30 14.03.2022
4792 Clouds 11 1013 87 10000 2.68 240 21:35 14.03.2022
4793 Clouds 11 1009 87 6000 3.09 240 20:54 14.03.2022
4794 Clouds 11 1009 87 6000 3.09 240 20:20 14.03.2022
4795 Clouds 12 1003 76 6000 3.09 220 18:55 14.03.2022
4796 Clouds 12 1004 76 8000 4.12 200 17:55 14.03.2022
4797 Clouds 12 1004 76 8000 4.12 200 17:23 14.03.2022
4798 Clouds 12 1003 82 6000 4.12 180 16:18 14.03.2022
4799 Clouds 15 1010 74 3000 4.12 300 14:41 14.03.2022
4800 Clouds 14 1011 76 8000 2.06 300 12:51 14.03.2022
4801 Clouds 13 1011 79 8000 5.14 260 10:54 14.03.2022
4802 Clouds 12 1011 81 10000 3.09 220 09:55 14.03.2022
4803 Clouds 12 1014 81 10000 3.09 220 09:22 14.03.2022
4804 Clouds 12 1011 81 10000 4.12 180 08:56 14.03.2022
4805 Clouds 12 1011 81 10000 3.6 180 07:34 14.03.2022
4806 Clouds 12 1006 88 10000 2.18 212 05:46 14.03.2022
4807 Clouds 16 1012 87 10000 1.79 320 01:58 14.03.2022
4808 Clouds 16 1012 87 10000 1.79 320 01:29 14.03.2022
4809 Clouds 16 1018 87 10000 1.79 320 22:52 13.03.2022
4810 Clouds 16 1012 89 10000 1.39 35 21:31 13.03.2022
4811 Clouds 16 1015 87 10000 2.06 320 20:56 13.03.2022
4812 Clouds 16 1015 87 10000 2.06 320 20:31 13.03.2022
4813 Clouds 16 1015 87 10000 2.06 300 19:59 13.03.2022
4814 Clouds 17 1014 82 10000 2.06 360 19:37 13.03.2022
4815 Clouds 17 1014 82 10000 2.06 360 19:18 13.03.2022
4816 Clouds 17 1013 82 10000 4.12 320 18:38 13.03.2022
4817 Clouds 17 1013 88 10000 5.14 340 17:47 13.03.2022
4818 Clouds 18 1013 82 10000 5.14 340 17:20 13.03.2022
4819 Clouds 18 1013 77 10000 4.12 360 16:30 13.03.2022
4820 Clouds 19 1014 72 10000 3.09 340 15:47 13.03.2022
4821 Clouds 19 1015 68 10000 4.12 340 14:56 13.03.2022
4822 Clouds 20 1018 60 10000 3.6 340 13:49 13.03.2022
4823 Clouds 19 1019 59 10000 2.06 300 12:57 13.03.2022
4824 Clouds 17 1019 67 10000 3.09 260 11:53 13.03.2022
4825 Clouds 17 1019 67 10000 3.09 260 11:32 13.03.2022
4826 Clouds 15 1019 87 8000 1.54 220 10:48 13.03.2022
4827 Clouds 14 1018 87 8000 2.68 220 10:24 13.03.2022
4828 Clouds 14 1018 87 8000 2.68 220 10:24 13.03.2022
4829 Clouds 13 1018 87 8000 3.09 220 09:41 13.03.2022
4830 Clouds 13 1018 82 8000 1.54 220 08:46 13.03.2022
4831 Clouds 13 1017 82 10000 2.06 220 07:47 13.03.2022
4832 Clouds 9 1017 85 10000 3.19 198 05:42 13.03.2022
4833 Clouds 15 1019 72 10000 2.68 340 02:43 13.03.2022
4834 Clouds 16 1019 72 10000 2.68 340 23:59 12.03.2022
4835 Clouds 16 1019 72 10000 2.68 340 22:31 12.03.2022
4836 Clouds 16 1019 72 6000 3.09 340 20:48 12.03.2022
4837 Clouds 16 1020 77 6000 2.57 360 19:50 12.03.2022
4838 Clouds 16 1020 77 6000 2.57 360 19:32 12.03.2022
4839 Clouds 18 1018 72 6000 3.09 360 18:27 12.03.2022
4840 Clouds 18 1018 67 6000 3.09 360 17:34 12.03.2022
4841 Clouds 18 1018 63 6000 2.57 340 16:24 12.03.2022
4842 Clouds 18 1019 72 6000 3.09 320 15:23 12.03.2022
4843 Clouds 18 1020 67 6000 2.06 360 14:40 12.03.2022
4844 Clouds 18 1022 67 6000 3.09 360 13:32 12.03.2022
4845 Clouds 17 1022 82 6000 2.06 340 11:56 12.03.2022
4846 Clouds 17 1022 82 6000 2.06 340 11:38 12.03.2022
4847 Clouds 16 1022 93 5000 2.06 300 10:58 12.03.2022
4848 Clouds 16 1022 93 5000 2.06 300 10:58 12.03.2022
4849 Clouds 14 1021 93 5000 2.06 260 09:45 12.03.2022
4850 Clouds 13 1021 100 6000 2.06 280 08:56 12.03.2022
4851 Clouds 14 1020 88 10000 0.13 250 07:26 12.03.2022
4852 Clouds 16 1022 82 10000 2.68 260 03:36 12.03.2022
4853 Clouds 16 1023 82 10000 2.68 260 23:56 11.03.2022
4854 Clouds 16 1023 82 10000 2.68 260 23:56 11.03.2022
4855 Clouds 16 1023 82 10000 2.68 260 23:18 11.03.2022
4856 Clouds 16 1023 82 10000 2.68 260 23:18 11.03.2022
4857 Clouds 16 1022 82 10000 2.68 260 21:35 11.03.2022
4858 Clouds 16 1021 82 10000 3.09 260 20:55 11.03.2022
4859 Clouds 16 1021 82 10000 3.09 260 20:34 11.03.2022
4860 Clouds 16 1021 82 10000 2.06 280 19:49 11.03.2022
4861 Clouds 16 1021 82 10000 2.06 280 19:22 11.03.2022
4862 Clouds 17 1020 72 10000 2.57 320 17:30 11.03.2022
4863 Clouds 16 1019 77 10000 4.12 320 16:36 11.03.2022
4864 Clouds 17 1020 72 10000 3.6 320 15:53 11.03.2022
4865 Clouds 17 1021 72 10000 4.12 320 14:19 11.03.2022
4866 Clouds 17 1016 72 8000 2.06 340 12:44 11.03.2022
4867 Clouds 17 1021 72 8000 2.06 340 12:21 11.03.2022
4868 Clouds 16 1020 72 6000 2.06 180 11:51 11.03.2022
4869 Clouds 10 1019 93 6000 1.03 280 09:50 11.03.2022
4870 Clouds 10 1019 93 6000 1.03 220 08:56 11.03.2022
4871 Clouds 10 1019 90 6000 1.34 220 08:21 11.03.2022
4872 Clouds 11 1019 87 6000 1.54 220 07:40 11.03.2022
4873 Clear 8 1019 83 10000 1.95 158 05:44 11.03.2022
4874 Clear 9 1020 85 10000 1.54 153 03:41 11.03.2022
4875 Clear 9 1020 85 10000 1.54 153 03:41 11.03.2022
4876 Clouds 15 1022 87 10000 4.92 40 23:36 10.03.2022
4877 Clouds 15 1020 87 10000 4.92 40 22:30 10.03.2022
4878 Clouds 15 1020 87 10000 4.92 40 21:27 10.03.2022
4879 Clouds 15 1020 87 10000 5.14 40 20:55 10.03.2022
4880 Clouds 16 1020 77 10000 4.12 40 19:23 10.03.2022
4881 Clouds 17 1020 72 10000 3.09 40 18:40 10.03.2022
4882 Clouds 18 1020 67 10000 4.12 20 16:54 10.03.2022
4883 Clouds 18 1020 63 10000 3.09 20 15:50 10.03.2022
4884 Clouds 18 1021 63 10000 4.12 20 14:39 10.03.2022
4885 Clouds 17 1022 67 10000 1.03 60 12:53 10.03.2022
4886 Clouds 16 1022 72 10000 2.06 180 11:42 10.03.2022
4887 Clouds 14 1022 82 10000 2.06 200 10:24 10.03.2022
4888 Clouds 10 1021 99 10000 1.03 200 08:55 10.03.2022
4889 Clear 9 1020 83 10000 0.37 141 06:58 10.03.2022
4890 Clouds 11 1020 84 10000 0.26 298 03:52 10.03.2022
4891 Clouds 14 1020 83 10000 1.06 45 00:51 10.03.2022
4892 Clouds 14 1020 83 10000 1.78 50 22:46 09.03.2022
4893 Clouds 14 1020 83 10000 2.53 26 21:49 09.03.2022
4894 Clouds 14 1020 84 10000 3.14 2 21:24 09.03.2022
4895 Clouds 16 1018 88 10000 3.09 60 19:42 09.03.2022
4896 Clouds 17 1018 88 10000 2.06 40 18:25 09.03.2022
4897 Clouds 18 1018 77 10000 2.06 40 17:26 09.03.2022
4898 Clouds 19 1018 72 10000 2.06 40 16:30 09.03.2022
4899 Clouds 19 1019 72 10000 4.12 40 14:56 09.03.2022
4900 Clouds 18 1019 72 10000 4.12 40 13:52 09.03.2022
4901 Clouds 17 1020 88 10000 3.09 40 12:39 09.03.2022
4902 Clouds 17 1020 82 10000 3.09 80 11:52 09.03.2022
4903 Clouds 16 1020 82 10000 3.09 80 11:32 09.03.2022
4904 Clouds 12 1019 94 8000 1.03 80 09:45 09.03.2022
4905 Clouds 11 1019 87 8000 1.03 80 08:47 09.03.2022
4906 Clouds 10 1019 86 10000 3.51 61 06:51 09.03.2022
4907 Clear 12 1020 85 10000 3.64 76 01:54 09.03.2022
4908 Clear 13 1021 89 10000 3.02 87 00:27 09.03.2022
4909 Clear 15 1020 72 10000 1.79 360 22:47 08.03.2022
4910 Clear 15 1020 72 10000 1.79 360 21:52 08.03.2022
4911 Clear 15 1020 72 10000 1.79 360 21:22 08.03.2022
4912 Clear 15 1020 72 10000 1.79 360 21:22 08.03.2022
4913 Clouds 16 1020 72 10000 2.06 360 20:24 08.03.2022
4914 Clouds 17 1020 63 10000 2.06 220 19:24 08.03.2022
4915 Clouds 18 1020 63 10000 3.09 340 18:23 08.03.2022
4916 Clouds 19 1020 52 10000 4.12 360 16:44 08.03.2022
4917 Clouds 19 1021 55 10000 5.14 340 14:58 08.03.2022
4918 Clouds 19 1021 45 10000 3.09 260 13:48 08.03.2022
4919 Clouds 17 1022 51 10000 3.09 180 12:23 08.03.2022
4920 Clouds 16 1022 59 10000 3.09 200 11:42 08.03.2022
4921 Clouds 14 1021 67 8000 4.12 220 10:28 08.03.2022
4922 Clouds 10 1020 81 6000 4.12 200 08:57 08.03.2022
4923 Clouds 10 1020 81 6000 4.12 200 08:57 08.03.2022
4924 Clouds 10 1020 80 10000 4.45 176 06:30 08.03.2022
4925 Clouds 10 1020 73 10000 2.4 210 02:50 08.03.2022
4926 Clouds 12 1020 67 10000 2.59 254 22:48 07.03.2022
4927 Clouds 14 1015 62 10000 4.02 280 21:45 07.03.2022
4928 Clouds 14 1015 62 10000 4.02 280 21:23 07.03.2022
4929 Clouds 14 1019 62 10000 4.12 280 20:34 07.03.2022
4930 Clouds 15 1018 62 10000 3.09 320 19:50 07.03.2022
4931 Clouds 15 1018 62 10000 3.09 320 19:20 07.03.2022
4932 Clouds 16 1017 59 10000 3.09 300 18:29 07.03.2022
4933 Clouds 16 1018 61 10000 5.14 300 17:31 07.03.2022
4934 Clouds 16 1018 63 10000 3.09 340 16:43 07.03.2022
4935 Clouds 16 1019 72 10000 3.6 300 14:51 07.03.2022
4936 Clouds 16 1017 55 10000 2.06 300 12:34 07.03.2022
4937 Clouds 16 1017 67 10000 3.09 220 11:34 07.03.2022
4938 Clouds 13 1017 87 10000 3.09 220 10:31 07.03.2022
4939 Clouds 9 1017 71 10000 2.77 225 08:34 07.03.2022
4940 Clouds 9 1017 71 10000 2.77 225 08:34 07.03.2022
4941 Clouds 13 1013 72 10000 1.79 240 02:25 07.03.2022
4942 Clouds 14 1020 72 10000 1.79 240 00:20 07.03.2022
4943 Clouds 14 1012 72 10000 1.79 240 23:23 06.03.2022
4944 Clear 14 1013 72 10000 1.79 240 22:27 06.03.2022
4945 Clear 15 1019 72 10000 1.79 240 21:37 06.03.2022
4946 Clouds 15 1012 72 10000 2.06 240 20:29 06.03.2022
4947 Clouds 15 1016 72 10000 6.17 20 19:39 06.03.2022
4948 Clouds 15 1012 72 10000 6.17 20 18:50 06.03.2022
4949 Clouds 16 1011 72 10000 4.63 280 17:46 06.03.2022
4950 Clouds 16 1011 72 10000 4.63 280 17:19 06.03.2022
4951 Clouds 16 1011 72 10000 4.63 200 16:28 06.03.2022
4952 Clouds 16 1011 72 10000 4.12 340 15:26 06.03.2022
4953 Clouds 16 1012 77 10000 2.57 340 14:42 06.03.2022
4954 Clouds 15 1012 82 10000 4.63 320 13:49 06.03.2022
4955 Clouds 15 1016 93 10000 2.06 320 12:40 06.03.2022
4956 Clouds 13 1012 100 6000 3.09 260 11:45 06.03.2022
4957 Clouds 12 1011 100 6000 2.68 260 10:39 06.03.2022
4958 Clouds 12 1011 100 8000 3.09 260 09:18 06.03.2022
4959 Clouds 11 1011 100 8000 2.06 220 08:27 06.03.2022
4960 Clouds 11 1010 100 6000 2.57 220 07:23 06.03.2022
4961 Clouds 13 1014 78 10000 6.38 274 02:22 06.03.2022
4962 Clouds 13 1015 82 10000 5.63 257 00:34 06.03.2022
4963 Clouds 14 1016 82 10000 6.25 242 23:59 05.03.2022
4964 Clouds 14 1016 80 10000 6.2 227 23:19 05.03.2022
4965 Clouds 14 1016 80 10000 6.2 227 22:32 05.03.2022
4966 Clouds 13 1017 75 10000 5.08 240 21:29 05.03.2022
4967 Clouds 14 1016 62 10000 3.09 260 20:32 05.03.2022
4968 Clouds 16 1016 55 10000 3.09 280 19:19 05.03.2022
4969 Clouds 17 1017 51 10000 4.12 300 18:37 05.03.2022
4970 Clouds 17 1014 47 10000 5.14 360 17:34 05.03.2022
4971 Clouds 17 1015 48 10000 4.12 320 16:18 05.03.2022
4972 Clouds 17 1020 55 10000 6.17 340 14:54 05.03.2022
4973 Clouds 17 1020 55 10000 6.17 340 14:36 05.03.2022
4974 Clouds 16 1020 55 10000 5.14 340 13:39 05.03.2022
4975 Clouds 17 1021 55 10000 2.57 320 12:35 05.03.2022
4976 Clouds 14 1022 62 10000 4.02 200 11:20 05.03.2022
4977 Clouds 12 1022 62 10000 4.12 200 10:52 05.03.2022
4978 Clouds 10 1021 71 10000 4.63 220 09:31 05.03.2022
4979 Clouds 10 1021 71 10000 3.09 220 08:24 05.03.2022
4980 Clouds 7 1021 70 10000 1.21 161 06:33 05.03.2022
4981 Clouds 7 1021 69 10000 0.63 126 05:22 05.03.2022
4982 Clouds 11 1022 69 10000 1.27 9 00:30 05.03.2022
4983 Clouds 11 1023 66 10000 2.02 349 22:45 04.03.2022
4984 Clear 10 1024 65 10000 2.04 342 22:24 04.03.2022
4985 Clear 11 1024 65 10000 2.04 342 21:42 04.03.2022
4986 Clouds 14 1023 51 10000 2.06 40 20:39 04.03.2022
4987 Clouds 15 1023 44 10000 3.6 20 19:37 04.03.2022
4988 Clouds 15 1022 47 10000 3.09 20 18:54 04.03.2022
4989 Clouds 16 1022 47 10000 3.09 20 18:33 04.03.2022
4990 Clouds 16 1022 44 10000 3.6 360 17:29 04.03.2022
4991 Clouds 17 1024 51 10000 4.12 20 15:48 04.03.2022
4992 Clouds 16 1024 51 10000 4.12 20 15:24 04.03.2022
4993 Clouds 16 1025 51 10000 5.14 40 13:35 04.03.2022
4994 Clouds 15 1025 72 10000 4.12 20 11:59 04.03.2022
4995 Clouds 15 1020 77 10000 4.12 20 11:37 04.03.2022
4996 Clouds 14 1019 82 10000 3.09 20 10:24 04.03.2022
4997 Clouds 12 1019 87 6000 5.14 20 09:27 04.03.2022
4998 Clouds 12 1023 62 8000 2.06 360 07:47 04.03.2022
4999 Clouds 11 1023 66 10000 4.99 333 05:44 04.03.2022
5000 Clouds 13 1025 71 10000 6.2 345 00:43 04.03.2022
5001 Clouds 14 1025 71 10000 6.65 344 23:31 03.03.2022
5002 Clouds 15 1024 82 10000 7.29 344 22:18 03.03.2022
5003 Clouds 16 1024 82 10000 7.29 344 21:36 03.03.2022
5004 Clouds 16 1022 77 10000 4.12 320 20:32 03.03.2022
5005 Clouds 17 1022 72 10000 4.12 320 19:22 03.03.2022
5006 Clouds 17 1023 69 10000 5.14 340 18:25 03.03.2022
5007 Clouds 18 1024 67 10000 5.14 340 17:31 03.03.2022
5008 Clouds 18 1024 63 10000 5.14 320 16:38 03.03.2022
5009 Clouds 19 1024 63 10000 5.14 320 15:44 03.03.2022
5010 Clouds 19 1018 63 10000 3.09 320 14:44 03.03.2022
5011 Clouds 19 1018 63 10000 3.09 320 14:25 03.03.2022
5012 Clouds 18 1025 59 10000 4.12 320 12:33 03.03.2022
5013 Clouds 17 1025 67 10000 2.06 280 11:23 03.03.2022
5014 Clouds 16 1025 77 10000 2.06 220 10:21 03.03.2022
5015 Clouds 14 1024 82 6000 2.06 300 08:42 03.03.2022
5016 Clouds 13 1024 73 10000 0.58 320 06:55 03.03.2022
5017 Clouds 13 1024 81 10000 0.2 299 05:37 03.03.2022
5018 Clouds 14 1024 72 10000 2.68 160 23:57 02.03.2022
5019 Clear 15 1024 72 10000 2.68 160 23:00 02.03.2022
5020 Clear 15 1024 72 10000 2.68 160 22:40 02.03.2022
5021 Clear 16 1012 72 10000 2.68 160 21:22 02.03.2022
5022 Clouds 16 1024 72 10000 3.09 160 20:26 02.03.2022
5023 Clouds 17 1024 67 10000 4.12 20 19:43 02.03.2022
5024 Clouds 17 1024 67 10000 4.12 20 19:24 02.03.2022
5025 Clouds 18 1023 67 10000 4.92 20 18:37 02.03.2022
5026 Clouds 19 1024 68 10000 5.14 260 17:45 02.03.2022
5027 Clear 19 1024 63 10000 3.6 40 16:54 02.03.2022
5028 Clear 19 1024 63 10000 3.6 40 16:25 02.03.2022
5029 Clear 19 1024 63 10000 3.09 340 14:39 02.03.2022
5030 Clouds 19 1025 67 10000 1.79 40 13:18 02.03.2022
5031 Clouds 18 1025 67 10000 2.06 40 12:39 02.03.2022
5032 Clouds 17 1025 72 8000 3.09 40 11:28 02.03.2022
5033 Clouds 16 1025 72 8000 3.09 40 10:58 02.03.2022
5034 Clouds 14 1024 82 8000 1.03 200 09:40 02.03.2022
5035 Clouds 12 1024 82 6000 1.03 360 08:50 02.03.2022
5036 Clouds 10 1023 82 10000 0.5 132 07:25 02.03.2022
5037 Clouds 11 1023 82 10000 1.02 62 05:43 02.03.2022
5038 Clouds 14 1022 82 10000 4.02 20 00:51 02.03.2022
5039 Clouds 15 1022 82 10000 4.02 20 23:45 01.03.2022
5040 Clouds 15 1022 82 10000 4.02 20 22:42 01.03.2022
5041 Clouds 15 1022 82 10000 4.02 20 21:56 01.03.2022
5042 Clear 16 1022 82 10000 4.12 20 20:56 01.03.2022
5043 Clear 16 1022 82 10000 4.12 20 20:24 01.03.2022
5044 Clear 17 1021 72 10000 2.68 60 19:21 01.03.2022
5045 Clear 19 1021 55 10000 4.12 60 18:32 01.03.2022
5046 Clear 20 1021 55 10000 6.17 60 17:55 01.03.2022
5047 Clear 20 1021 48 10000 5.14 60 16:50 01.03.2022
5048 Clear 19 1021 55 10000 3.09 40 15:51 01.03.2022
5049 Clear 19 1022 59 10000 5.14 40 14:55 01.03.2022
5050 Clear 19 1022 59 10000 5.14 40 14:34 01.03.2022
5051 Clear 19 1023 59 10000 1.79 80 13:27 01.03.2022
5052 Clear 17 1023 59 10000 2.06 80 12:38 01.03.2022
5053 Clear 17 1023 59 10000 1.03 60 11:58 01.03.2022
5054 Clear 14 1022 67 10000 2.06 100 10:26 01.03.2022
5055 Clear 10 1021 76 8000 1.03 0 08:36 01.03.2022
5056 Clear 10 1021 71 8000 1.03 0 07:35 01.03.2022
5057 Clear 11 1021 69 10000 5.06 50 04:28 01.03.2022
5058 Clear 16 1021 77 10000 4.02 80 00:59 01.03.2022
5059 Clear 16 1021 77 10000 4.02 80 23:48 28.02.2022
5060 Clear 16 1021 77 10000 4.02 80 22:52 28.02.2022
5061 Clear 16 1021 77 10000 4.02 80 21:48 28.02.2022
5062 Clear 16 1012 77 10000 4.02 80 21:24 28.02.2022
5063 Clear 17 1020 82 8000 5.14 80 19:52 28.02.2022
5064 Clear 18 1020 82 8000 5.14 80 19:22 28.02.2022
5065 Clear 20 1020 55 8000 4.12 40 18:36 28.02.2022
5066 Clear 20 1020 68 10000 4.92 60 17:23 28.02.2022
5067 Clear 20 1021 68 6000 5.14 60 16:32 28.02.2022
5068 Clear 20 1021 68 8000 5.14 40 15:23 28.02.2022
5069 Clear 21 1021 68 8000 1.03 140 14:30 28.02.2022
5070 Clouds 20 1022 72 10000 4.12 320 13:34 28.02.2022
5071 Clouds 20 1022 68 10000 1.03 140 12:31 28.02.2022
5072 Clouds 18 1022 72 8000 1.03 220 11:37 28.02.2022
5073 Clouds 17 1021 77 8000 1.03 100 10:24 28.02.2022
5074 Clouds 16 1021 77 8000 1.03 100 09:59 28.02.2022
5075 Clouds 16 1021 77 8000 1.03 100 09:30 28.02.2022
5076 Clouds 15 1020 88 8000 1.54 40 08:26 28.02.2022
5077 Clouds 15 1020 88 8000 1.54 40 08:26 28.02.2022
5078 Clouds 15 1020 94 10000 1.03 180 07:19 28.02.2022
5079 Clouds 16 1018 82 10000 2.3 29 04:31 28.02.2022
5080 Clouds 15 1019 83 10000 3.24 16 03:30 28.02.2022
5081 Clouds 17 1019 86 10000 5.79 17 23:26 27.02.2022
5082 Clouds 17 1019 86 10000 5.79 17 22:33 27.02.2022
5083 Clouds 17 1019 85 10000 6.72 22 21:47 27.02.2022
5084 Clouds 17 1018 88 8000 5.14 40 20:54 27.02.2022
5085 Clouds 17 1018 88 8000 5.14 40 20:27 27.02.2022
5086 Clouds 17 1018 88 8000 5.14 40 19:56 27.02.2022
5087 Clouds 17 1018 88 8000 5.14 40 19:26 27.02.2022
5088 Clouds 18 1017 82 8000 6.17 40 18:39 27.02.2022
5089 Clouds 18 1017 82 8000 4.12 20 17:54 27.02.2022
5090 Clouds 19 1013 74 8000 5.14 40 16:37 27.02.2022
5091 Clouds 19 1018 75 10000 4.92 20 15:55 27.02.2022
5092 Clouds 17 1016 88 6000 3.09 240 12:53 27.02.2022
5093 Clouds 17 1016 87 6000 3.58 200 12:29 27.02.2022
5094 Clouds 16 1016 87 6000 3.6 280 10:50 27.02.2022
5095 Clouds 16 1016 87 6000 4.63 360 09:58 27.02.2022
5096 Clouds 16 1016 87 6000 4.63 360 09:37 27.02.2022
5097 Clouds 16 1016 87 6000 4.63 360 09:18 27.02.2022
5098 Clouds 16 1016 88 10000 1.72 350 06:44 27.02.2022
5099 Clouds 16 1015 89 10000 2.51 350 05:36 27.02.2022
5100 Clouds 17 1014 88 10000 1.79 20 00:52 27.02.2022
5101 Clouds 16 1014 88 10000 1.79 20 22:58 26.02.2022
5102 Clouds 17 1014 88 10000 1.79 20 21:44 26.02.2022
5103 Clouds 17 1014 88 6000 2.06 20 20:52 26.02.2022
5104 Clouds 17 1013 88 6000 3.58 340 20:19 26.02.2022
5105 Clouds 17 1013 88 6000 3.6 340 19:41 26.02.2022
5106 Clouds 17 1013 88 6000 3.6 340 19:19 26.02.2022
5107 Clouds 19 1013 77 6000 3.09 320 17:45 26.02.2022
5108 Clouds 20 1013 72 6000 4.12 320 16:51 26.02.2022
5109 Clouds 20 1013 72 6000 2.57 340 15:57 26.02.2022
5110 Clouds 20 1013 72 6000 2.57 340 15:23 26.02.2022
5111 Clouds 20 1013 72 6000 1.54 320 14:54 26.02.2022
5112 Clouds 20 1013 72 6000 1.54 320 14:33 26.02.2022
5113 Clouds 19 1013 77 8000 3.09 300 13:19 26.02.2022
5114 Clouds 17 1014 82 6000 2.06 300 12:23 26.02.2022
5115 Clouds 17 1014 82 6000 2.06 300 11:28 26.02.2022
5116 Clouds 16 1014 82 6000 2.06 340 10:40 26.02.2022
5117 Clouds 16 1013 87 6000 2.06 320 08:53 26.02.2022
5118 Clouds 15 1012 92 10000 1 214 06:51 26.02.2022
5119 Clouds 16 1014 82 10000 1.79 360 00:56 26.02.2022
5120 Clouds 16 1014 82 10000 1.79 360 22:55 25.02.2022
5121 Clouds 17 1014 82 10000 1.79 360 21:43 25.02.2022
5122 Clouds 17 1014 82 10000 1.79 360 21:25 25.02.2022
5123 Clouds 17 1014 82 6000 2.06 360 20:33 25.02.2022
5124 Clouds 17 1013 82 6000 1.03 20 19:18 25.02.2022
5125 Clouds 20 1013 82 6000 3.09 60 17:29 25.02.2022
5126 Clouds 20 1013 82 6000 3.09 200 16:32 25.02.2022
5127 Clouds 20 1013 77 6000 3.09 340 15:48 25.02.2022
5128 Clouds 20 1015 77 6000 3.09 340 15:22 25.02.2022
5129 Clouds 21 1014 64 6000 3.09 200 14:42 25.02.2022
5130 Mist 22 1014 83 5000 3.09 40 13:51 25.02.2022
5131 Mist 22 1014 83 5000 3.09 40 13:19 25.02.2022
5132 Mist 17 1016 91 3000 2.06 300 11:28 25.02.2022
5133 Mist 16 1015 88 3000 2.06 240 10:43 25.02.2022
5134 Clouds 16 1015 82 6000 2.06 180 10:22 25.02.2022
5135 Clouds 15 1015 87 6000 2.06 180 09:30 25.02.2022
5136 Clouds 15 1015 87 6000 2.06 180 07:42 25.02.2022
5137 Clouds 14 1013 86 10000 2.75 87 05:51 25.02.2022
5138 Clouds 14 1013 86 10000 2.75 87 05:31 25.02.2022
5139 Clouds 17 1016 88 10000 4.97 121 00:27 25.02.2022
5140 Clouds 17 1017 90 10000 6.05 111 21:59 24.02.2022
5141 Clouds 17 1017 90 10000 6.05 111 21:40 24.02.2022
5142 Clouds 17 1017 91 10000 5.57 106 21:20 24.02.2022
5143 Clouds 19 1015 63 6000 2.06 200 19:53 24.02.2022
5144 Clouds 19 1015 73 6000 6.17 200 18:45 24.02.2022
5145 Clouds 19 1015 73 6000 6.17 200 18:19 24.02.2022
5146 Clouds 18 1015 82 6000 3.09 120 17:40 24.02.2022
5147 Clouds 18 1015 82 6000 4.12 140 16:50 24.02.2022
5148 Clouds 18 1015 82 6000 4.12 140 16:24 24.02.2022
5149 Clouds 18 1019 88 6000 3.09 60 14:56 24.02.2022
5150 Clouds 17 1019 88 6000 3.09 60 14:36 24.02.2022
5151 Clouds 18 1020 82 8000 3.09 80 13:41 24.02.2022
5152 Clouds 18 1020 82 8000 3.09 80 13:21 24.02.2022
5153 Clouds 16 1020 87 6000 1.54 100 10:41 24.02.2022
5154 Clouds 16 1019 87 6000 2.06 60 09:40 24.02.2022
5155 Clouds 16 1019 87 6000 2.06 60 08:42 24.02.2022
5156 Clouds 15 1017 93 10000 4.99 68 05:59 24.02.2022
5157 Clouds 15 1020 90 10000 1.58 269 02:59 24.02.2022
5158 Clouds 16 1022 93 10000 4.69 244 23:45 23.02.2022
5159 Clouds 19 1019 93 10000 3.91 330 21:55 23.02.2022
5160 Clouds 20 1021 77 8000 4.12 260 20:32 23.02.2022
5161 Clouds 22 1018 33 8000 1.03 60 19:55 23.02.2022
5162 Clear 24 1018 33 10000 1.03 40 18:57 23.02.2022
5163 Clear 25 1018 29 10000 2.06 40 17:46 23.02.2022
5164 Clear 25 1018 33 10000 1.54 320 15:28 23.02.2022
5165 Clear 25 1019 36 10000 2.06 240 13:34 23.02.2022
5166 Clear 24 1020 35 10000 2.06 280 12:28 23.02.2022
5167 Clear 20 1019 42 10000 1.03 260 10:55 23.02.2022
5168 Clouds 17 1018 48 8000 3.09 180 09:31 23.02.2022
5169 Clouds 17 1018 55 8000 2.06 220 08:28 23.02.2022
5170 Clouds 17 1017 51 8000 2.06 220 07:19 23.02.2022
5171 Clouds 17 1017 51 8000 2.06 220 07:19 23.02.2022
5172 Clouds 17 1019 63 10000 1.79 20 01:22 23.02.2022
5173 Clouds 17 1019 63 10000 1.79 20 23:40 22.02.2022
5174 Clouds 17 1019 63 10000 1.79 20 22:59 22.02.2022
5175 Clouds 17 1019 63 10000 1.79 20 21:58 22.02.2022
5176 Clouds 17 1014 63 10000 1.79 20 21:40 22.02.2022
5177 Clouds 17 1019 63 10000 1.79 20 21:19 22.02.2022
5178 Clouds 18 1019 63 8000 2.06 20 20:31 22.02.2022
5179 Clouds 19 1019 63 8000 2.06 20 19:53 22.02.2022
5180 Clouds 19 1019 63 8000 2.06 20 19:33 22.02.2022
5181 Clouds 20 1020 55 8000 2.06 20 18:27 22.02.2022
5182 Clouds 22 1020 52 8000 2.06 20 17:26 22.02.2022
5183 Clouds 22 1020 43 8000 2.06 20 16:42 22.02.2022
5184 Clouds 21 1021 46 8000 3.09 60 15:59 22.02.2022
5185 Clouds 21 1021 46 8000 3.09 60 15:18 22.02.2022
5186 Clouds 20 1023 52 8000 2.06 80 13:37 22.02.2022
5187 Clear 15 1023 82 6000 2.06 60 10:54 22.02.2022
5188 Clouds 11 1022 87 6000 1.03 160 08:56 22.02.2022
5189 Clouds 12 1022 87 6000 1.03 0 07:28 22.02.2022
5190 Clear 9 1023 77 10000 1.83 72 06:53 22.02.2022
5191 Clear 15 1022 87 10000 2.68 60 02:48 22.02.2022
5192 Clear 15 1022 87 10000 2.68 60 23:18 21.02.2022
5193 Clear 15 1022 87 10000 2.68 60 21:56 21.02.2022
5194 Clouds 16 1022 87 10000 3.09 60 20:38 21.02.2022
5195 Clear 19 1022 77 10000 4.12 40 18:47 21.02.2022
5196 Clear 19 1022 77 10000 4.12 40 18:18 21.02.2022
5197 Clear 21 1022 52 10000 4.12 60 15:36 21.02.2022
5198 Clear 19 1023 63 10000 3.09 40 14:22 21.02.2022
5199 Clear 18 1025 61 10000 4.47 20 13:31 21.02.2022
5200 Clear 18 1025 67 10000 4.47 20 12:41 21.02.2022
5201 Clear 18 1025 67 10000 4.47 20 12:20 21.02.2022
5202 Clear 14 1022 82 8000 1.54 200 10:26 21.02.2022
5203 Clouds 9 1022 80 10000 3.12 60 05:40 21.02.2022
5204 Clouds 14 1015 77 10000 2.68 80 00:30 21.02.2022
5205 Clouds 16 1022 77 10000 2.68 80 22:32 20.02.2022
5206 Clouds 16 1022 77 10000 2.68 80 21:43 20.02.2022
5207 Clouds 16 1021 77 10000 2.68 80 21:21 20.02.2022
5208 Clouds 16 1021 77 10000 3.09 80 20:43 20.02.2022
5209 Clouds 16 1021 82 10000 3.09 60 19:48 20.02.2022
5210 Clear 17 1020 77 10000 3.6 80 18:55 20.02.2022
5211 Clear 17 1020 77 10000 3.6 80 18:34 20.02.2022
5212 Clear 17 1020 77 10000 3.6 80 18:34 20.02.2022
5213 Clear 18 1020 72 10000 3.09 80 17:55 20.02.2022
5214 Clouds 17 1021 72 10000 4.63 80 16:18 20.02.2022
5215 Clouds 17 1022 72 10000 5.14 60 14:53 20.02.2022
5216 Clouds 17 1023 72 8000 6.17 80 13:58 20.02.2022
5217 Clouds 15 1023 74 8000 4.02 80 12:35 20.02.2022
5218 Clouds 12 1023 82 6000 3.09 80 10:52 20.02.2022
5219 Clouds 12 1023 82 6000 3.09 80 10:20 20.02.2022
5220 Mist 8 1022 93 3000 2.06 200 08:58 20.02.2022
5221 Clouds 8 1023 72 10000 1.95 124 01:19 20.02.2022
5222 Clouds 9 1023 71 10000 2 135 00:30 20.02.2022
5223 Clouds 9 1023 65 10000 0.34 167 23:19 19.02.2022
5224 Clouds 12 1022 66 10000 1.79 360 22:23 19.02.2022
5225 Clouds 13 1022 66 10000 1.79 360 21:45 19.02.2022
5226 Clouds 14 1022 62 8000 3.09 340 19:58 19.02.2022
5227 Clouds 14 1022 62 8000 3.09 340 19:33 19.02.2022
5228 Clouds 15 1022 58 8000 3.09 360 18:38 19.02.2022
5229 Clouds 15 1022 58 8000 3.09 360 17:37 19.02.2022
5230 Clouds 15 1022 62 8000 4.12 360 16:44 19.02.2022
5231 Clouds 15 1022 67 8000 3.09 20 15:20 19.02.2022
5232 Clouds 15 1023 67 8000 5.14 20 14:52 19.02.2022
5233 Clouds 14 1023 76 8000 4.12 200 13:47 19.02.2022
5234 Clouds 14 1022 87 8000 3.09 300 11:39 19.02.2022
5235 Clouds 15 1022 87 8000 4.12 360 10:30 19.02.2022
5236 Clouds 13 1021 93 8000 2.06 240 07:56 19.02.2022
5237 Clouds 13 1020 83 10000 2.84 317 06:30 19.02.2022
5238 Clouds 14 1020 77 10000 1.79 320 23:45 18.02.2022
5239 Clouds 15 1022 77 10000 1.79 320 21:54 18.02.2022
5240 Clouds 15 1021 77 10000 2.06 320 20:57 18.02.2022
5241 Clouds 16 1021 72 10000 2.06 320 19:54 18.02.2022
5242 Clouds 17 1021 67 10000 2.06 320 18:50 18.02.2022
5243 Clouds 17 1021 67 10000 2.06 320 18:22 18.02.2022
5244 Clouds 18 1021 59 10000 2.06 340 17:55 18.02.2022
5245 Clouds 19 1020 63 10000 3.09 20 15:23 18.02.2022
5246 Clouds 18 1023 67 10000 3.09 340 13:55 18.02.2022
5247 Clouds 17 1023 67 10000 3.09 340 13:25 18.02.2022
5248 Clouds 17 1023 65 10000 2.06 340 12:40 18.02.2022
5249 Clouds 16 1023 67 10000 2.06 320 11:40 18.02.2022
5250 Clouds 16 1022 67 8000 1.03 220 10:23 18.02.2022
5251 Clear 14 1021 92 10000 2.04 183 06:57 18.02.2022
5252 Clear 14 1021 92 10000 1.95 182 05:41 18.02.2022
5253 Clear 15 1022 77 10000 4.02 40 23:43 17.02.2022
5254 Clear 15 1022 77 10000 4.02 40 21:46 17.02.2022
5255 Clear 15 1022 77 10000 4.02 40 21:20 17.02.2022
5256 Clouds 15 1022 77 10000 4.12 40 20:39 17.02.2022
5257 Clouds 16 1021 72 10000 4.12 40 19:50 17.02.2022
5258 Clear 17 1022 77 10000 3.09 40 18:52 17.02.2022
5259 Clear 18 1022 72 10000 4.12 40 17:55 17.02.2022
5260 Clear 19 1023 63 10000 4.12 80 16:42 17.02.2022
5261 Clear 19 1024 67 10000 6.17 60 15:38 17.02.2022
5262 Clear 19 1025 67 10000 6.17 60 14:28 17.02.2022
5263 Clear 18 1027 63 10000 5.14 60 12:43 17.02.2022
5264 Clouds 16 1028 72 8000 3.09 100 11:27 17.02.2022
5265 Clear 10 1028 81 8000 2.06 200 09:18 17.02.2022
5266 Clouds 11 1029 81 10000 3.5 78 04:20 17.02.2022
5267 Clear 13 1030 71 10000 1.79 60 23:21 16.02.2022
5268 Clear 13 1030 71 10000 1.79 60 21:44 16.02.2022
5269 Clear 15 1030 72 10000 3.6 80 19:57 16.02.2022
5270 Clear 17 1029 59 10000 3.09 80 18:43 16.02.2022
5271 Clear 18 1029 63 10000 3.09 60 17:53 16.02.2022
5272 Clear 18 1030 59 10000 2.06 80 15:40 16.02.2022
5273 Clear 18 1031 59 10000 4.92 40 15:19 16.02.2022
5274 Clouds 18 1032 51 10000 2.06 80 13:31 16.02.2022
5275 Clouds 17 1032 55 10000 3.09 80 12:20 16.02.2022
5276 Clouds 15 1031 74 8000 2.06 110 11:28 16.02.2022
5277 Clouds 13 1031 76 6000 2.06 180 10:34 16.02.2022
5278 Clouds 9 1030 87 6000 2.06 160 08:20 16.02.2022
5279 Clear 5 1029 76 10000 2.99 82 06:29 16.02.2022
5280 Clear 14 1027 58 10000 7.15 80 23:45 15.02.2022
5281 Clear 14 1027 58 10000 7.15 80 22:30 15.02.2022
5282 Clear 14 1027 58 10000 7.15 80 21:47 15.02.2022
5283 Clear 14 1027 58 10000 7.15 80 21:27 15.02.2022
5284 Clouds 15 1027 58 10000 7.2 80 20:56 15.02.2022
5285 Clouds 15 1027 58 10000 7.2 60 19:57 15.02.2022
5286 Clouds 15 1027 58 10000 7.15 60 19:21 15.02.2022
5287 Clouds 16 1027 55 10000 7.2 60 18:23 15.02.2022
5288 Clouds 16 1026 59 10000 5.14 50 17:50 15.02.2022
5289 Clouds 17 1026 53 10000 5.14 60 17:19 15.02.2022
5290 Clouds 18 1027 51 10000 4.12 60 15:30 15.02.2022
5291 Clear 17 1029 48 10000 4.12 80 13:28 15.02.2022
5292 Clear 17 1029 55 10000 2.68 60 12:37 15.02.2022
5293 Clear 15 1028 72 10000 1.03 180 11:40 15.02.2022
5294 Clear 11 1027 81 8000 1.03 160 09:47 15.02.2022
5295 Clear 10 1026 75 10000 3.87 79 06:59 15.02.2022
5296 Clouds 10 1026 76 10000 4.1 73 05:32 15.02.2022
5297 Clouds 15 1024 82 10000 2.68 20 23:33 14.02.2022
5298 Clouds 15 1024 82 10000 2.68 20 21:47 14.02.2022
5299 Clouds 15 1024 82 10000 3.09 20 20:40 14.02.2022
5300 Clouds 16 1024 77 10000 3.09 20 19:44 14.02.2022
5301 Clouds 16 1024 77 10000 3.09 20 19:25 14.02.2022
5302 Clouds 17 1023 67 10000 3.09 320 18:23 14.02.2022
5303 Clouds 18 1023 63 10000 3.09 340 17:26 14.02.2022
5304 Clouds 19 1023 59 10000 3.09 340 16:25 14.02.2022
5305 Clouds 19 1024 63 10000 2.06 20 14:31 14.02.2022
5306 Clouds 19 1025 63 10000 1.03 20 13:33 14.02.2022
5307 Clouds 19 1025 63 10000 1.03 20 13:33 14.02.2022
5308 Clouds 18 1025 63 8000 2.06 300 12:52 14.02.2022
5309 Clouds 17 1025 77 8000 3.09 220 11:55 14.02.2022
5310 Clouds 14 1024 85 6000 2.68 200 10:56 14.02.2022
5311 Clouds 11 1023 87 6000 2.06 200 08:45 14.02.2022
5312 Clouds 11 1023 93 6000 2.06 140 07:32 14.02.2022
5313 Clouds 14 1022 82 10000 2.24 340 02:27 14.02.2022
5314 Clouds 15 1022 82 10000 2.24 340 22:42 13.02.2022
5315 Clouds 15 1022 82 10000 2.24 340 22:24 13.02.2022
5316 Clouds 15 1022 82 10000 2.24 340 21:32 13.02.2022
5317 Clouds 16 1022 82 10000 2.57 340 20:40 13.02.2022
5318 Clouds 17 1021 77 10000 3.6 340 19:45 13.02.2022
5319 Clear 18 1021 67 10000 1.54 20 18:54 13.02.2022
5320 Clear 19 1021 67 10000 1.54 20 18:35 13.02.2022
5321 Clear 21 1021 60 10000 1.03 20 16:34 13.02.2022
5322 Clear 20 1021 59 10000 1.54 20 15:25 13.02.2022
5323 Clear 20 1022 72 10000 2.06 300 14:36 13.02.2022
5324 Clear 19 1024 63 10000 1.03 340 12:51 13.02.2022
5325 Clear 18 1023 61 10000 1.35 290 11:58 13.02.2022
5326 Clear 12 1023 76 10000 1.03 200 10:35 13.02.2022
5327 Clear 10 1022 81 10000 1.03 220 09:47 13.02.2022
5328 Clear 10 1021 71 10000 1.03 260 07:51 13.02.2022
5329 Clouds 15 1022 82 10000 4.02 40 00:36 13.02.2022
5330 Clouds 15 1022 82 10000 4.02 40 23:53 12.02.2022
5331 Clouds 15 1022 82 10000 4.02 40 22:33 12.02.2022
5332 Clear 15 1022 82 10000 4.02 40 21:31 12.02.2022
5333 Clear 16 1022 82 8000 4.12 40 20:52 12.02.2022
5334 Clear 16 1022 82 10000 2.06 20 19:47 12.02.2022
5335 Clear 18 1021 72 10000 3.09 20 18:53 12.02.2022
5336 Clear 18 1021 72 10000 3.09 20 18:35 12.02.2022
5337 Clouds 19 1022 72 10000 4.12 40 17:37 12.02.2022
5338 Clouds 19 1021 72 10000 3.09 40 16:43 12.02.2022
5339 Clear 19 1022 72 10000 4.12 20 15:51 12.02.2022
5340 Clouds 19 1023 67 8000 2.06 60 14:55 12.02.2022
5341 Clouds 19 1023 67 8000 2.06 60 14:24 12.02.2022
5342 Mist 16 1023 82 3000 2.06 180 11:18 12.02.2022
5343 Fog 13 1023 82 400 2.06 180 10:23 12.02.2022
5344 Fog 12 1023 93 400 2.06 200 09:32 12.02.2022
5345 Fog 12 1022 93 400 2.06 160 08:45 12.02.2022
5346 Clear 9 1022 87 10000 1.76 89 05:41 12.02.2022
5347 Clear 9 1022 87 10000 1.89 89 04:36 12.02.2022
5348 Clear 10 1023 88 10000 1.88 89 02:19 12.02.2022
5349 Clear 14 1024 85 10000 2.73 55 22:58 11.02.2022
5350 Clear 14 1024 84 10000 3.25 40 22:20 11.02.2022
5351 Clear 15 1024 84 10000 3.58 29 21:18 11.02.2022
5352 Clouds 15 1023 82 6000 3.09 40 20:21 11.02.2022
5353 Clouds 17 1022 74 8000 4.12 20 19:27 11.02.2022
5354 Clouds 17 1022 72 8000 4.12 360 18:29 11.02.2022
5355 Clouds 18 1022 67 8000 4.12 360 17:26 11.02.2022
5356 Clouds 18 1022 72 8000 4.12 20 16:26 11.02.2022
5357 Clouds 16 1023 66 10000 4.38 345 14:59 11.02.2022
5358 Clouds 16 1023 66 10000 4.38 345 14:37 11.02.2022
5359 Clouds 17 1024 70 10000 3.87 341 14:18 11.02.2022
5360 Clouds 17 1024 70 10000 3.87 341 13:40 11.02.2022
5361 Clouds 16 1025 70 10000 3.77 333 12:37 11.02.2022
5362 Clouds 14 1024 87 8000 1.03 260 10:30 11.02.2022
5363 Clouds 13 1024 91 8000 2.06 260 09:22 11.02.2022
5364 Clouds 12 1024 85 10000 2.37 96 08:28 11.02.2022
5365 Clouds 12 1024 85 10000 2.37 96 07:39 11.02.2022
5366 Clouds 14 1024 77 10000 1.79 340 02:40 11.02.2022
5367 Clouds 15 1024 77 10000 1.79 340 02:20 11.02.2022
5368 Clouds 15 1024 77 10000 1.79 340 23:40 10.02.2022
5369 Clouds 16 1024 77 10000 1.79 340 21:55 10.02.2022
5370 Clouds 16 1024 77 10000 1.79 340 21:26 10.02.2022
5371 Clouds 16 1024 77 8000 2.06 340 20:48 10.02.2022
5372 Clouds 16 1023 82 8000 2.06 340 19:49 10.02.2022
5373 Clouds 16 1023 82 8000 2.06 340 19:20 10.02.2022
5374 Clouds 19 1023 72 8000 2.06 360 17:43 10.02.2022
5375 Clouds 19 1023 75 8000 2.68 360 17:20 10.02.2022
5376 Clouds 19 1023 77 8000 3.09 360 16:23 10.02.2022
5377 Clouds 19 1023 77 8000 2.06 320 15:34 10.02.2022
5378 Clouds 19 1024 77 8000 2.06 340 14:49 10.02.2022
5379 Clouds 19 1024 77 8000 2.06 340 14:30 10.02.2022
5380 Clouds 18 1025 77 8000 2.06 340 13:33 10.02.2022
5381 Clouds 18 1026 82 6000 2.06 340 12:51 10.02.2022
5382 Clouds 16 1025 88 6000 2.06 240 11:44 10.02.2022
5383 Clouds 16 1025 87 6000 2.06 240 11:25 10.02.2022
5384 Mist 12 1025 100 4000 2.06 200 10:19 10.02.2022
5385 Mist 11 1025 93 2000 1.03 200 09:25 10.02.2022
5386 Clouds 8 1025 76 10000 1.28 177 07:40 10.02.2022
5387 Clear 7 1024 76 10000 0.48 172 05:52 10.02.2022
5388 Clear 16 1024 67 10000 1.79 80 01:57 10.02.2022
5389 Clear 16 1024 67 10000 1.79 80 00:50 10.02.2022
5390 Clear 16 1024 67 10000 1.79 80 00:50 10.02.2022
5391 Clear 16 1024 67 10000 1.79 80 00:29 10.02.2022
5392 Clear 16 1024 67 10000 1.79 80 23:28 09.02.2022
5393 Clear 16 1024 67 10000 1.79 80 22:38 09.02.2022
5394 Clear 16 1024 67 10000 1.79 80 21:56 09.02.2022
5395 Clear 17 1024 67 10000 1.79 80 21:32 09.02.2022
5396 Clear 17 1024 67 10000 2.06 80 20:51 09.02.2022
5397 Clear 17 1024 67 10000 2.06 80 20:31 09.02.2022
5398 Clear 18 1024 63 10000 1.54 80 19:59 09.02.2022
5399 Clear 19 1024 63 10000 1.54 80 19:38 09.02.2022
5400 Clear 22 1023 60 10000 2.06 60 17:39 09.02.2022
5401 Clear 22 1024 56 10000 3.09 20 16:53 09.02.2022
5402 Clear 24 1024 46 10000 3.09 20 15:52 09.02.2022
5403 Clear 25 1024 36 10000 2.57 100 14:42 09.02.2022
5404 Clear 23 1025 37 10000 2.06 140 12:30 09.02.2022
5405 Clear 21 1025 40 10000 3.09 200 11:19 09.02.2022
5406 Clear 16 1025 51 10000 3.09 200 10:30 09.02.2022
5407 Clear 13 1024 58 10000 3.09 200 09:42 09.02.2022
5408 Clear 13 1024 58 10000 3.09 200 09:19 09.02.2022
5409 Clear 9 1024 65 10000 1.92 150 07:56 09.02.2022
5410 Clear 10 1023 70 10000 1.08 130 05:30 09.02.2022
5411 Clear 16 1022 77 10000 1.79 80 03:50 09.02.2022
5412 Clear 16 1022 77 10000 1.79 80 01:27 09.02.2022
5413 Clear 17 1022 77 10000 1.79 80 23:34 08.02.2022
5414 Clear 16 1022 77 10000 1.79 80 22:50 08.02.2022
5415 Clear 16 1022 77 10000 1.79 80 22:22 08.02.2022
5416 Clear 17 1022 77 10000 1.79 80 21:50 08.02.2022
5417 Clear 17 1022 77 10000 1.79 80 21:21 08.02.2022
5418 Clouds 17 1022 77 6000 2.06 80 20:45 08.02.2022
5419 Clouds 20 1022 63 8000 2.06 60 19:46 08.02.2022
5420 Clear 18 1022 67 10000 3.35 36 18:48 08.02.2022
5421 Clouds 23 1022 46 8000 2.06 40 17:50 08.02.2022
5422 Clear 23 1022 35 10000 1.79 20 16:34 08.02.2022
5423 Clear 23 1022 35 10000 1.79 20 15:30 08.02.2022
5424 Clouds 24 1022 35 6000 2.06 20 14:44 08.02.2022
5425 Clouds 23 1023 40 6000 4.12 20 13:29 08.02.2022
5426 Clouds 20 1023 59 6000 3.09 200 11:55 08.02.2022
5427 Clouds 15 1022 67 6000 3.09 200 10:23 08.02.2022
5428 Clouds 15 1022 67 6000 3.09 200 10:23 08.02.2022
5429 Mist 13 1019 76 2000 2.06 200 09:45 08.02.2022
5430 Clouds 13 1021 67 6000 2.06 180 07:55 08.02.2022
5431 Clear 10 1021 65 10000 1.95 122 05:41 08.02.2022
5432 Clear 15 1021 72 10000 1.79 60 04:39 08.02.2022
5433 Clear 15 1021 72 10000 1.79 60 04:21 08.02.2022
5434 Clear 15 1021 72 10000 1.79 60 03:36 08.02.2022
5435 Clear 15 1021 72 10000 1.79 60 03:18 08.02.2022
5436 Clear 15 1021 72 10000 1.79 60 02:59 08.02.2022
5437 Clear 15 1021 72 10000 1.79 60 02:36 08.02.2022
5438 Clear 15 1021 72 10000 1.79 60 02:18 08.02.2022
5439 Clear 15 1021 72 10000 1.79 60 02:18 08.02.2022
5440 Clear 15 1021 72 10000 1.79 60 01:44 08.02.2022
5441 Clear 15 1021 72 10000 1.79 60 01:24 08.02.2022
5442 Clear 15 1021 72 10000 1.79 60 00:54 08.02.2022
5443 Clear 16 1016 72 10000 1.79 60 23:57 07.02.2022
5444 Clear 15 1016 72 10000 1.79 60 23:39 07.02.2022
5445 Clear 15 1016 72 10000 1.79 60 23:18 07.02.2022
5446 Clear 15 1021 72 10000 1.79 60 22:42 07.02.2022
5447 Clear 15 1021 72 10000 1.79 60 22:18 07.02.2022
5448 Clear 15 1021 72 10000 1.79 60 21:43 07.02.2022
5449 Clear 16 1021 72 10000 1.79 60 21:25 07.02.2022
5450 Clear 16 1021 72 8000 2.06 60 20:41 07.02.2022
5451 Clear 18 1020 67 10000 1.54 60 19:54 07.02.2022
5452 Clear 18 1020 67 10000 1.54 60 19:36 07.02.2022
5453 Clear 20 1020 62 10000 2.68 40 18:18 07.02.2022
5454 Clear 20 1020 68 10000 2.06 40 16:53 07.02.2022
5455 Clear 21 1020 64 10000 2.06 20 15:49 07.02.2022
5456 Clear 21 1021 68 10000 2.57 360 14:56 07.02.2022
5457 Clear 19 1022 68 8000 1.03 20 13:28 07.02.2022
5458 Clear 18 1022 72 8000 1.03 20 12:52 07.02.2022
5459 Clear 16 1022 72 8000 1.03 160 11:58 07.02.2022
5460 Clear 15 1022 72 8000 1.03 160 11:35 07.02.2022
5461 Clear 13 1022 82 8000 1.03 180 10:50 07.02.2022
5462 Clear 13 1022 82 8000 0.89 180 10:30 07.02.2022
5463 Clear 11 1021 87 8000 1.03 180 09:53 07.02.2022
5464 Clear 11 1021 87 8000 0.89 180 09:18 07.02.2022
5465 Clear 11 1021 87 8000 0.89 180 08:38 07.02.2022
5466 Clear 7 1020 82 10000 2.41 140 06:58 07.02.2022
5467 Clear 7 1020 82 10000 2.41 140 06:34 07.02.2022
5468 Clear 15 1022 82 10000 1.79 40 02:59 07.02.2022
5469 Clouds 15 1022 82 10000 1.79 40 00:45 07.02.2022
5470 Clouds 15 1022 82 10000 1.79 40 00:45 07.02.2022
5471 Clouds 14 1022 82 10000 1.79 40 23:48 06.02.2022
5472 Clouds 15 1022 82 10000 1.79 40 22:48 06.02.2022
5473 Clouds 15 1022 82 10000 1.79 40 21:55 06.02.2022
5474 Clouds 15 1022 82 10000 1.79 40 21:35 06.02.2022
5475 Clear 15 1022 82 10000 1.79 40 20:54 06.02.2022
5476 Clear 15 1021 79 10000 2.68 20 20:31 06.02.2022
5477 Clear 16 1021 77 10000 2.68 20 19:38 06.02.2022
5478 Clear 17 1021 72 10000 2.68 20 18:40 06.02.2022
5479 Clear 17 1021 72 10000 2.68 20 17:56 06.02.2022
5480 Clear 18 1022 72 10000 4.92 20 17:19 06.02.2022
5481 Clear 18 1022 72 10000 4.92 20 16:38 06.02.2022
5482 Clear 18 1022 72 10000 4.02 20 15:49 06.02.2022
5483 Clear 18 1022 72 10000 4.02 20 15:26 06.02.2022
5484 Clear 18 1022 67 10000 2.68 60 14:36 06.02.2022
5485 Clear 17 1023 72 10000 1.79 60 13:26 06.02.2022
5486 Clouds 17 1024 77 8000 1.79 60 12:52 06.02.2022
5487 Clouds 15 1024 82 8000 1.79 80 11:32 06.02.2022
5488 Clouds 13 1023 87 6000 1.79 120 10:30 06.02.2022
5489 Clouds 11 1023 93 6000 1.79 160 08:59 06.02.2022
5490 Clouds 11 1023 93 6000 1.79 160 08:30 06.02.2022
5491 Clouds 11 1022 83 10000 3.01 54 05:31 06.02.2022
5492 Clouds 15 1023 82 10000 4.02 60 02:49 06.02.2022
5493 Clouds 15 1023 82 10000 4.02 60 02:24 06.02.2022
5494 Clouds 15 1023 82 10000 4.02 60 00:27 06.02.2022
5495 Clouds 15 1023 82 10000 4.02 60 22:22 05.02.2022
5496 Clouds 15 1023 82 10000 4.02 60 21:18 05.02.2022
5497 Clouds 16 1023 82 6000 4.02 60 20:24 05.02.2022
5498 Clouds 16 1022 82 6000 4.02 40 19:46 05.02.2022
5499 Clouds 16 1022 82 6000 4.02 60 18:58 05.02.2022
5500 Clouds 18 1022 72 6000 4.02 60 17:39 05.02.2022
5501 Clouds 18 1022 72 6000 4.02 60 17:39 05.02.2022
5502 Clouds 18 1022 72 6000 4.92 40 16:58 05.02.2022
5503 Clouds 18 1022 55 6000 4.02 60 15:34 05.02.2022
5504 Clouds 19 1023 59 6000 2.68 80 14:55 05.02.2022
5505 Clouds 15 1024 71 6000 4.12 60 12:47 05.02.2022
5506 Clouds 16 1023 65 6000 1.34 80 12:22 05.02.2022
5507 Clouds 14 1024 71 6000 0.89 40 10:48 05.02.2022
5508 Clouds 12 1023 76 6000 1.03 100 09:53 05.02.2022
5509 Clouds 12 1023 76 6000 0.89 100 09:30 05.02.2022
5510 Clouds 12 1023 76 6000 0.89 60 07:38 05.02.2022
5511 Clouds 11 1023 73 10000 4.85 67 06:56 05.02.2022
5512 Clouds 14 1023 82 10000 1.79 60 04:28 05.02.2022
5513 Clouds 15 1023 82 10000 1.79 60 01:19 05.02.2022
5514 Clouds 15 1023 82 10000 1.79 60 00:52 05.02.2022
5515 Clouds 15 1023 82 10000 1.79 60 23:39 04.02.2022
5516 Clouds 15 1023 82 10000 1.79 60 23:21 04.02.2022
5517 Clouds 15 1023 82 10000 1.79 60 21:54 04.02.2022
5518 Clouds 16 1023 82 10000 1.79 60 21:36 04.02.2022
5519 Clouds 16 1023 82 10000 1.79 60 21:18 04.02.2022
5520 Clear 17 1023 63 10000 1.79 60 19:36 04.02.2022
5521 Clear 19 1022 63 10000 4.02 80 17:28 04.02.2022
5522 Clear 20 1022 48 10000 4.02 80 15:39 04.02.2022
5523 Clouds 20 1023 52 10000 4.47 80 14:52 04.02.2022
5524 Clear 20 1024 59 10000 4.02 60 13:24 04.02.2022
5525 Clouds 18 1024 72 8000 1.79 60 12:42 04.02.2022
5526 Clouds 17 1024 82 8000 2.06 100 11:41 04.02.2022
5527 Clouds 15 1024 87 6000 1.79 80 10:32 04.02.2022
5528 Clouds 15 1024 93 6000 0.89 320 08:34 04.02.2022
5529 Clouds 14 1022 67 10000 2.89 61 05:23 04.02.2022
5530 Clouds 16 1023 72 10000 2.68 360 02:40 04.02.2022
5531 Clouds 16 1023 72 10000 2.68 360 00:31 04.02.2022
5532 Clouds 16 1023 72 10000 2.68 360 23:21 03.02.2022
5533 Clouds 16 1023 72 10000 2.68 360 22:31 03.02.2022
5534 Clouds 16 1023 72 10000 2.68 360 21:48 03.02.2022
5535 Clear 17 1023 72 10000 2.68 360 20:27 03.02.2022
5536 Clear 17 1023 72 10000 1.79 80 19:59 03.02.2022
5537 Clear 17 1023 72 10000 1.79 80 19:26 03.02.2022
5538 Clear 19 1023 67 10000 4.02 40 18:26 03.02.2022
5539 Clear 19 1022 55 10000 4.02 40 17:32 03.02.2022
5540 Clear 25 1022 27 10000 2.06 140 15:52 03.02.2022
5541 Clear 23 1022 37 10000 2.68 180 14:26 03.02.2022
5542 Clouds 19 1025 67 8000 0.89 320 12:37 03.02.2022
5543 Clouds 11 1023 71 8000 2.06 300 09:29 03.02.2022
5544 Clouds 11 1022 71 8000 1.79 180 08:19 03.02.2022
5545 Clouds 15 1022 67 10000 1.79 60 02:56 03.02.2022
5546 Clouds 15 1010 67 10000 1.79 60 00:29 03.02.2022
5547 Clouds 15 1010 67 10000 1.79 60 22:47 02.02.2022
5548 Clouds 15 1018 67 10000 1.79 60 21:53 02.02.2022
5549 Clouds 15 1018 67 10000 1.79 60 21:29 02.02.2022
5550 Clouds 16 1022 67 8000 1.79 60 20:28 02.02.2022
5551 Clouds 17 1022 63 8000 1.79 40 19:49 02.02.2022
5552 Clouds 18 1015 61 8000 1.79 60 19:20 02.02.2022
5553 Clouds 19 1020 59 8000 1.79 60 18:25 02.02.2022
5554 Clouds 19 1022 59 8000 2.68 40 17:23 02.02.2022
5555 Clouds 20 1022 59 6000 1.79 20 16:59 02.02.2022
5556 Clouds 20 1022 59 6000 1.79 20 16:20 02.02.2022
5557 Clouds 20 1024 59 5000 3.09 40 12:50 02.02.2022
5558 Clouds 15 1024 77 5000 2.06 160 11:51 02.02.2022
5559 Clouds 15 1024 77 5000 2.06 160 11:51 02.02.2022
5560 Clouds 14 1022 76 5000 1.79 160 11:30 02.02.2022
5561 Clouds 9 1024 87 6000 2.06 180 09:22 02.02.2022
5562 Clear 6 1023 60 10000 3.3 72 05:29 02.02.2022
5563 Clear 15 1025 67 10000 2.68 40 22:36 01.02.2022
5564 Clouds 16 1025 67 8000 2.68 40 20:58 01.02.2022
5565 Clouds 18 1024 59 8000 1.79 40 19:39 01.02.2022
5566 Clear 21 1024 40 8000 1.79 60 17:38 01.02.2022
5567 Clear 21 1024 45 8000 2.68 20 16:31 01.02.2022
5568 Clear 20 1027 40 6000 2.68 20 13:27 01.02.2022
5569 Clear 19 1027 42 5000 2.68 20 12:28 01.02.2022
5570 Clear 14 1026 58 5000 1.03 80 10:42 01.02.2022
5571 Clear 15 1025 87 10000 2.68 60 02:24 01.02.2022
5572 Clear 15 1025 87 10000 2.68 60 23:39 31.01.2022
5573 Clear 15 1025 87 10000 2.68 60 22:42 31.01.2022
5574 Clear 16 1025 87 10000 2.68 60 21:36 31.01.2022
5575 Clear 16 1025 87 5000 2.68 60 20:35 31.01.2022
5576 Clear 16 1024 87 5000 4.92 40 19:59 31.01.2022
5577 Clear 18 1024 82 6000 4.02 40 18:47 31.01.2022
5578 Clouds 18 1024 82 6000 4.02 40 18:18 31.01.2022
5579 Clouds 19 1024 82 6000 5.81 20 17:24 31.01.2022
5580 Clouds 20 1024 77 6000 4.02 20 16:25 31.01.2022
5581 Clouds 22 1026 56 10000 4.92 60 14:54 31.01.2022
5582 Clouds 21 1026 56 6000 4.92 60 13:43 31.01.2022
5583 Clouds 21 1026 60 6000 2.68 80 12:38 31.01.2022
5584 Clouds 18 1026 63 6000 1.79 140 11:31 31.01.2022
5585 Mist 14 1025 72 3000 2.06 140 10:48 31.01.2022
5586 Mist 10 1024 81 3000 2.06 160 09:38 31.01.2022
5587 Mist 10 1024 81 3000 2.06 340 08:56 31.01.2022
5588 Clouds 11 1024 66 6000 2.06 160 08:38 31.01.2022
5589 Clouds 11 1024 66 6000 2.06 160 08:19 31.01.2022
5590 Clouds 11 1024 64 10000 2.32 64 06:18 31.01.2022
5591 Clouds 16 1021 63 10000 0.89 60 00:43 31.01.2022
5592 Clouds 16 1021 63 10000 0.89 60 22:34 30.01.2022
5593 Clouds 16 1021 63 10000 0.89 60 21:47 30.01.2022
5594 Clouds 17 1021 55 10000 0.89 20 21:26 30.01.2022
5595 Clouds 17 1021 55 10000 0.89 20 20:55 30.01.2022
5596 Clouds 17 1021 55 10000 0.89 20 20:31 30.01.2022
5597 Clouds 18 1021 55 8000 0.89 20 19:58 30.01.2022
5598 Clouds 20 1020 48 8000 0.89 36 18:52 30.01.2022
5599 Clouds 20 1020 48 8000 0.89 36 18:26 30.01.2022
5600 Clouds 21 1020 49 8000 1.79 20 17:31 30.01.2022
5601 Clouds 21 1020 49 8000 1.79 20 17:31 30.01.2022
5602 Clouds 22 1021 43 8000 4.92 360 16:44 30.01.2022
5603 Clouds 22 1021 43 8000 4.92 360 16:23 30.01.2022
5604 Clouds 23 1021 43 8000 4.92 360 15:55 30.01.2022
5605 Clouds 23 1021 43 8000 4.92 360 15:37 30.01.2022
5606 Clouds 23 1021 43 8000 4.92 360 15:19 30.01.2022
5607 Clouds 23 1022 43 8000 4.92 360 14:44 30.01.2022
5608 Clear 23 1023 37 8000 1.34 280 12:46 30.01.2022
5609 Clear 19 1023 42 10000 4.02 200 11:49 30.01.2022
5610 Clear 16 1022 44 10000 4.02 200 10:26 30.01.2022
5611 Clear 12 1022 58 10000 2.06 120 09:26 30.01.2022
5612 Clear 12 1021 58 10000 1.03 140 08:32 30.01.2022
5613 Clouds 17 1020 63 10000 1.79 80 02:58 30.01.2022
5614 Clouds 16 1020 63 10000 1.79 80 01:54 30.01.2022
5615 Clouds 16 1020 63 10000 1.79 80 23:49 29.01.2022
5616 Clouds 17 1020 63 10000 1.79 80 22:58 29.01.2022
5617 Clouds 18 1020 63 10000 1.79 80 21:35 29.01.2022
5618 Clouds 18 1020 63 10000 1.79 80 21:00 29.01.2022
5619 Clear 18 1020 63 6000 1.79 80 20:20 29.01.2022
5620 Clear 19 1020 52 6000 2.68 60 19:33 29.01.2022
5621 Clouds 21 1020 49 6000 4.12 60 18:44 29.01.2022
5622 Clouds 22 1020 43 6000 2.68 80 17:56 29.01.2022
5623 Clouds 22 1020 43 6000 2.68 80 17:19 29.01.2022
5624 Clouds 21 1021 55 6000 5.81 20 15:35 29.01.2022
5625 Clouds 22 1022 40 6000 1.79 20 13:58 29.01.2022
5626 Clouds 22 1022 40 6000 1.79 20 13:28 29.01.2022
5627 Clouds 19 1022 52 6000 4.02 100 12:59 29.01.2022
5628 Clouds 16 1022 55 6000 2.06 120 11:39 29.01.2022
5629 Clouds 13 1022 62 6000 3.09 140 10:34 29.01.2022
5630 Clouds 13 1022 56 10000 1.78 158 08:20 29.01.2022
5631 Clouds 13 1022 70 10000 2.38 164 02:48 29.01.2022
5632 Clouds 14 1022 75 10000 2.86 100 00:32 29.01.2022
5633 Clouds 15 1021 72 10000 3.1 87 23:31 28.01.2022
5634 Clear 15 1021 68 10000 3.72 83 22:47 28.01.2022
5635 Clear 17 1019 63 10000 4.02 60 22:19 28.01.2022
5636 Clear 18 1019 63 10000 4.02 60 20:41 28.01.2022
5637 Clear 19 1018 52 10000 4.02 40 19:58 28.01.2022
5638 Clear 20 1018 52 10000 4.02 40 18:52 28.01.2022
5639 Clear 20 1018 52 10000 4.02 40 18:34 28.01.2022
5640 Clear 22 1018 46 10000 4.92 20 16:23 28.01.2022
5641 Clear 23 1019 43 10000 4.02 20 14:58 28.01.2022
5642 Clear 22 1020 40 10000 1.79 80 13:21 28.01.2022
5643 Clear 18 1021 59 10000 2.06 160 11:50 28.01.2022
5644 Clear 14 1020 71 10000 0.89 140 10:27 28.01.2022
5645 Clouds 13 1020 71 8000 1.79 180 09:47 28.01.2022
5646 Clouds 13 1019 67 8000 1.03 200 07:42 28.01.2022
5647 Clouds 14 1020 64 10000 1.3 128 06:29 28.01.2022
5648 Clouds 16 1018 82 10000 4.92 40 03:51 28.01.2022
5649 Clouds 15 1018 82 10000 4.92 40 02:27 28.01.2022
5650 Clouds 15 1018 82 10000 4.92 40 01:37 28.01.2022
5651 Clouds 15 1018 82 10000 4.92 40 01:37 28.01.2022
5652 Clouds 15 1018 82 10000 4.92 40 00:46 28.01.2022
5653 Clouds 15 1018 82 10000 4.92 40 22:20 27.01.2022
5654 Clouds 15 1018 82 10000 4.92 40 21:37 27.01.2022
5655 Clouds 16 1018 82 8000 4.92 40 20:59 27.01.2022
5656 Clouds 16 1018 82 8000 4.92 40 20:59 27.01.2022
5657 Clouds 16 1017 77 8000 4.02 60 19:38 27.01.2022
5658 Clouds 18 1017 67 8000 4.92 20 18:20 27.01.2022
5659 Clouds 20 1017 55 7000 4.92 20 16:55 27.01.2022
5660 Clouds 20 1020 63 7000 4.02 340 13:58 27.01.2022
5661 Clouds 19 1020 72 8000 2.68 340 12:49 27.01.2022
5662 Clouds 19 1020 72 8000 2.68 340 12:49 27.01.2022
5663 Clouds 19 1020 63 8000 1.79 60 11:54 27.01.2022
5664 Clouds 13 1019 71 8000 1.79 240 09:48 27.01.2022
5665 Clouds 12 1019 81 10000 1.34 200 08:40 27.01.2022
5666 Clouds 12 1018 76 10000 2.68 180 07:52 27.01.2022
5667 Clouds 14 1017 87 10000 1.79 20 03:34 27.01.2022
5668 Clouds 14 1017 87 10000 1.79 20 00:24 27.01.2022
5669 Clouds 15 1017 87 10000 1.79 20 22:28 26.01.2022
5670 Clouds 15 1017 87 10000 1.79 20 21:44 26.01.2022
5671 Clouds 15 1017 87 10000 1.79 20 20:49 26.01.2022
5672 Clouds 15 1017 87 10000 1.79 20 20:31 26.01.2022
5673 Clear 16 1017 82 10000 2.68 20 19:38 26.01.2022
5674 Clear 16 1017 82 10000 2.68 20 18:47 26.01.2022
5675 Clear 17 1017 82 10000 2.68 20 18:18 26.01.2022
5676 Clear 18 1016 72 10000 4.92 360 17:33 26.01.2022
5677 Clear 19 1016 67 10000 3.58 20 16:47 26.01.2022
5678 Clear 20 1017 63 10000 4.92 320 15:56 26.01.2022
5679 Clear 19 1017 67 10000 4.92 360 14:32 26.01.2022
5680 Clouds 19 1019 63 8000 1.79 20 12:18 26.01.2022
5681 Clouds 14 1018 82 8000 0.89 180 10:50 26.01.2022
5682 Clear 11 1018 87 10000 2.06 160 09:52 26.01.2022
5683 Clear 10 1018 87 10000 1.79 200 08:46 26.01.2022
5684 Clouds 11 1018 82 10000 2.28 202 06:36 26.01.2022
5685 Clouds 14 1019 82 10000 1.79 360 00:21 26.01.2022
5686 Clouds 15 1019 82 10000 1.79 360 23:37 25.01.2022
5687 Clouds 15 1019 82 10000 1.79 360 22:48 25.01.2022
5688 Clouds 14 1019 82 10000 1.79 360 22:18 25.01.2022
5689 Clouds 14 1019 82 10000 1.79 360 21:23 25.01.2022
5690 Clouds 15 1019 82 6000 1.79 360 20:45 25.01.2022
5691 Clouds 15 1019 87 6000 4.92 360 19:54 25.01.2022
5692 Clouds 16 1018 87 6000 4.92 360 18:51 25.01.2022
5693 Clouds 17 1018 82 6000 4.92 360 17:47 25.01.2022
5694 Clouds 17 1018 82 6000 4.92 360 17:18 25.01.2022
5695 Clouds 18 1019 82 6000 4.02 360 16:34 25.01.2022
5696 Clouds 18 1019 77 6000 4.02 20 15:39 25.01.2022
5697 Clouds 18 1019 77 6000 4.02 20 15:18 25.01.2022
5698 Clouds 18 1020 77 6000 4.92 360 14:43 25.01.2022
5699 Clouds 14 1021 93 6000 2.68 180 11:52 25.01.2022
5700 Clouds 11 1019 93 6000 1.79 120 09:21 25.01.2022
5701 Clouds 10 1019 93 6000 1.79 200 07:47 25.01.2022
5702 Clear 11 1020 87 10000 2.67 177 06:54 25.01.2022
5703 Clear 10 1020 89 10000 3.29 185 05:23 25.01.2022
5704 Clouds 15 1020 87 10000 1.79 300 00:28 25.01.2022
5705 Clouds 15 1020 87 10000 1.79 300 23:36 24.01.2022
5706 Clouds 15 1020 87 10000 1.79 300 23:18 24.01.2022
5707 Clouds 15 1020 87 10000 1.79 300 23:18 24.01.2022
5708 Clouds 15 1020 87 10000 1.79 300 22:42 24.01.2022
5709 Clouds 15 1020 87 10000 1.79 300 21:57 24.01.2022
5710 Clouds 15 1020 87 10000 1.79 300 21:32 24.01.2022
5711 Clouds 16 1020 87 10000 1.79 300 20:38 24.01.2022
5712 Clouds 16 1020 85 10000 2.68 280 20:20 24.01.2022
5713 Clouds 17 1020 82 10000 2.68 280 19:38 24.01.2022
5714 Clouds 18 1020 82 10000 4.92 280 18:47 24.01.2022
5715 Clouds 19 1020 72 10000 5.81 300 17:24 24.01.2022
5716 Clouds 20 1020 72 10000 8.05 300 16:58 24.01.2022
5717 Clouds 20 1020 72 10000 8.05 300 16:58 24.01.2022
5718 Clouds 20 1020 72 10000 8.05 300 16:58 24.01.2022
5719 Clouds 19 1020 72 10000 8.05 300 16:30 24.01.2022
5720 Clouds 21 1020 64 10000 5.81 280 14:54 24.01.2022
5721 Clouds 19 1021 72 10000 4.92 260 13:39 24.01.2022
5722 Clouds 18 1021 77 8000 4.02 220 12:33 24.01.2022
5723 Clouds 16 1021 87 6000 4.92 200 11:21 24.01.2022
5724 Mist 14 1022 93 4000 1.79 200 09:50 24.01.2022
5725 Mist 14 1022 93 4000 1.79 200 09:25 24.01.2022
5726 Clouds 14 1020 92 10000 5.11 206 07:40 24.01.2022
5727 Clear 15 1019 72 10000 4.02 280 01:38 24.01.2022
5728 Clouds 15 1019 72 10000 4.02 280 00:47 24.01.2022
5729 Clouds 15 1019 72 10000 4.02 280 00:28 24.01.2022
5730 Clouds 15 1019 72 10000 4.02 280 22:46 23.01.2022
5731 Clouds 16 1015 72 10000 4.02 280 21:51 23.01.2022
5732 Clouds 16 1015 72 10000 4.02 280 21:27 23.01.2022
5733 Clouds 17 1019 72 8000 4.02 280 20:54 23.01.2022
5734 Clouds 17 1019 72 8000 4.92 320 19:55 23.01.2022
5735 Clouds 20 1018 68 8000 4.92 320 18:52 23.01.2022
5736 Clear 20 1018 68 8000 4.92 300 17:56 23.01.2022
5737 Clear 21 1018 64 8000 4.92 300 16:54 23.01.2022
5738 Clear 22 1019 64 6000 5.81 320 15:45 23.01.2022
5739 Clouds 22 1019 64 6000 4.92 320 14:34 23.01.2022
5740 Clouds 22 1020 64 5000 4.92 320 13:43 23.01.2022
5741 Clouds 18 1021 67 5000 1.79 220 12:40 23.01.2022
5742 Clouds 18 1021 67 5000 1.79 220 12:18 23.01.2022
5743 Clouds 17 1020 67 5000 1.34 220 11:25 23.01.2022
5744 Clouds 15 1020 72 5000 1.54 180 10:57 23.01.2022
5745 Clouds 15 1020 71 5000 1.34 180 10:23 23.01.2022
5746 Clouds 12 1019 66 6000 1.54 140 09:25 23.01.2022
5747 Clouds 16 1018 49 10000 4.28 216 05:59 23.01.2022
5748 Clouds 17 1018 63 10000 1.79 80 03:20 23.01.2022
5749 Clouds 17 1018 63 10000 1.79 80 01:36 23.01.2022
5750 Clouds 16 1018 63 10000 1.79 80 00:42 23.01.2022
5751 Clouds 17 1018 63 10000 1.79 80 23:57 22.01.2022
5752 Clouds 16 1018 63 10000 1.79 80 22:48 22.01.2022
5753 Clouds 16 1018 63 10000 1.79 80 22:19 22.01.2022
5754 Clouds 18 1018 63 8000 1.79 80 20:29 22.01.2022
5755 Clouds 19 1017 55 8000 1.79 40 19:37 22.01.2022
5756 Clear 20 1017 48 10000 2.68 60 18:37 22.01.2022
5757 Clear 20 1017 39 10000 4.02 40 17:42 22.01.2022
5758 Clear 20 1017 39 10000 4.02 40 17:18 22.01.2022
5759 Clear 20 1017 45 10000 4.02 40 16:22 22.01.2022
5760 Clear 21 1017 46 10000 2.68 40 15:44 22.01.2022
5761 Clear 21 1019 31 10000 1.79 80 14:22 22.01.2022
5762 Clouds 20 1019 32 8000 1.79 80 13:27 22.01.2022
5763 Clouds 18 1019 39 8000 0.89 120 12:32 22.01.2022
5764 Clouds 14 1019 58 8000 1.03 160 11:58 22.01.2022
5765 Clouds 10 1019 76 8000 1.03 200 10:39 22.01.2022
5766 Clouds 10 1019 76 8000 1.03 200 10:19 22.01.2022
5767 Clouds 7 1019 81 8000 2.06 180 08:54 22.01.2022
5768 Clouds 7 1019 81 8000 2.06 180 08:31 22.01.2022
5769 Clear 5 1018 57 10000 2.79 95 05:20 22.01.2022
5770 Clear 13 1019 82 10000 2.68 60 02:27 22.01.2022
5771 Clear 12 1019 82 10000 2.68 60 23:49 21.01.2022
5772 Clear 12 1019 82 10000 2.68 60 22:59 21.01.2022
5773 Clear 14 1019 82 10000 2.68 60 20:48 21.01.2022
5774 Clear 14 1019 82 10000 2.68 40 19:30 21.01.2022
5775 Clear 17 1019 72 10000 5.81 20 17:50 21.01.2022
5776 Clear 18 1019 67 8000 4.02 300 15:54 21.01.2022
5777 Clear 19 1020 67 8000 2.68 300 14:41 21.01.2022
5778 Clear 16 1021 67 6000 3.09 200 12:43 21.01.2022
5779 Clear 12 1018 66 6000 2.68 180 11:29 21.01.2022
5780 Clouds 9 1021 81 6000 3.09 180 10:33 21.01.2022
5781 Clouds 4 1020 93 6000 2.06 160 08:58 21.01.2022
5782 Clear 5 1020 93 6000 2.06 160 07:48 21.01.2022
5783 Clouds 12 1021 71 10000 1.79 20 01:51 21.01.2022
5784 Clouds 11 1021 71 10000 1.79 20 22:47 20.01.2022
5785 Clouds 12 1021 71 10000 1.79 20 21:49 20.01.2022
5786 Clouds 13 1021 71 10000 1.79 20 21:25 20.01.2022
5787 Clear 14 1021 71 10000 2.68 20 19:47 20.01.2022
5788 Clear 14 1021 71 10000 2.68 20 19:18 20.01.2022
5789 Clear 17 1021 51 10000 4.02 40 17:37 20.01.2022
5790 Clear 17 1021 59 10000 2.68 40 16:19 20.01.2022
5791 Clear 18 1022 59 10000 4.02 360 15:29 20.01.2022
5792 Clear 18 1022 55 10000 2.68 40 14:19 20.01.2022
5793 Clouds 17 1024 55 8000 1.79 160 12:49 20.01.2022
5794 Clouds 16 1024 55 8000 1.79 160 12:29 20.01.2022
5795 Clouds 13 1024 66 8000 1.79 160 11:19 20.01.2022
5796 Clouds 4 1024 93 8000 2.06 180 09:50 20.01.2022
5797 Clear 4 1024 93 8000 2.06 120 08:45 20.01.2022
5798 Clear 2 1024 74 10000 1.86 94 06:49 20.01.2022
5799 Clear 14 1025 72 10000 2.68 40 00:40 20.01.2022
5800 Clear 13 1025 72 10000 2.68 40 22:38 19.01.2022
5801 Clear 14 1025 72 10000 2.68 40 21:34 19.01.2022
5802 Clear 15 1025 72 10000 2.68 40 20:56 19.01.2022
5803 Clear 15 1025 72 10000 2.68 40 20:30 19.01.2022
5804 Clear 17 1025 63 10000 4.02 20 18:52 19.01.2022
5805 Clear 18 1025 59 10000 4.92 20 17:51 19.01.2022
5806 Clear 18 1025 59 10000 4.92 20 17:18 19.01.2022
5807 Clear 18 1025 59 10000 4.92 20 17:18 19.01.2022
5808 Clear 18 1025 59 10000 4.92 20 17:18 19.01.2022
5809 Clear 19 1026 63 10000 4.02 20 15:31 19.01.2022
5810 Clear 18 1027 63 10000 2.68 60 13:20 19.01.2022
5811 Clouds 14 1028 62 8000 2.06 140 11:58 19.01.2022
5812 Clouds 13 1028 62 8000 2.06 140 11:38 19.01.2022
5813 Clouds 5 1027 93 8000 2.06 160 09:35 19.01.2022
5814 Clouds 6 1027 87 8000 2.06 180 08:33 19.01.2022
5815 Clouds 5 1027 72 10000 1.89 92 05:19 19.01.2022
5816 Clouds 12 1027 87 10000 1.79 40 00:18 19.01.2022
5817 Clouds 13 1027 87 10000 1.79 40 23:18 18.01.2022
5818 Clouds 14 1027 87 10000 1.79 40 21:44 18.01.2022
5819 Clouds 14 1027 87 6000 1.79 40 20:22 18.01.2022
5820 Clouds 15 1027 82 6000 1.34 40 19:45 18.01.2022
5821 Clouds 15 1027 82 6000 1.34 40 19:25 18.01.2022
5822 Clouds 16 1027 77 8000 2.68 20 18:19 18.01.2022
5823 Clouds 17 1026 82 8000 3.58 20 17:32 18.01.2022
5824 Clouds 18 1026 67 8000 3.58 20 16:20 18.01.2022
5825 Clouds 17 1027 82 8000 2.68 340 15:25 18.01.2022
5826 Clouds 17 1020 51 5000 2.68 320 14:22 18.01.2022
5827 Clouds 17 1020 51 5000 2.68 320 14:22 18.01.2022
5828 Mist 11 1027 71 3000 3.09 240 11:37 18.01.2022
5829 Mist 9 1027 81 3000 2.06 120 10:25 18.01.2022
5830 Clouds 8 1026 87 5000 1.54 180 08:29 18.01.2022
5831 Mist 8 1025 93 3000 2.06 180 07:43 18.01.2022
5832 Clouds 14 1011 87 10000 1.79 40 00:39 18.01.2022
5833 Clouds 14 1011 87 10000 1.79 40 22:40 17.01.2022
5834 Clouds 13 1011 87 10000 1.79 40 21:42 17.01.2022
5835 Clouds 13 1022 87 10000 1.79 40 21:24 17.01.2022
5836 Clouds 17 1025 77 8000 2.68 340 18:51 17.01.2022
5837 Clouds 17 1025 77 8000 2.68 340 18:25 17.01.2022
5838 Clouds 19 1026 70 8000 7.15 280 17:22 17.01.2022
5839 Clouds 19 1026 67 8000 5.81 300 15:54 17.01.2022
5840 Clouds 19 1026 67 8000 4.02 300 14:58 17.01.2022
5841 Clouds 18 1026 67 8000 4.02 300 14:31 17.01.2022
5842 Clouds 18 1028 67 8000 1.79 240 13:18 17.01.2022
5843 Clouds 13 1028 76 6000 2.06 180 11:53 17.01.2022
5844 Clouds 10 1028 81 5000 3.09 160 10:52 17.01.2022
5845 Clouds 8 1028 87 5000 3.09 180 09:46 17.01.2022
5846 Clouds 8 1027 87 5000 3.09 180 08:43 17.01.2022
5847 Clouds 7 1027 93 5000 2.06 200 07:20 17.01.2022
5848 Clouds 15 1026 77 10000 3.58 60 00:59 17.01.2022
5849 Clouds 14 1026 77 10000 3.58 60 23:33 16.01.2022
5850 Clear 15 1026 77 10000 3.58 60 20:51 16.01.2022
5851 Clear 16 1026 72 10000 5.81 60 19:56 16.01.2022
5852 Clear 17 1026 67 10000 4.02 40 18:45 16.01.2022
5853 Clear 19 1026 63 10000 4.47 40 17:47 16.01.2022
5854 Clear 20 1025 55 10000 5.36 60 16:52 16.01.2022
5855 Clear 20 1026 52 10000 3.58 40 15:39 16.01.2022
5856 Clear 19 1027 50 10000 3.58 40 14:29 16.01.2022
5857 Clear 19 1028 45 10000 1.34 40 13:21 16.01.2022
5858 Clear 16 1028 54 10000 1.54 160 11:56 16.01.2022
5859 Clear 15 1028 54 10000 1.34 160 11:27 16.01.2022
5860 Clear 10 1027 71 10000 1.54 180 10:27 16.01.2022
5861 Clear 8 1027 76 8000 2.06 160 09:57 16.01.2022
5862 Clear 8 1027 76 8000 2.06 160 09:23 16.01.2022
5863 Clear 6 1025 87 5000 1.54 160 08:53 16.01.2022
5864 Clear 6 1025 68 10000 2.97 88 05:51 16.01.2022
5865 Clear 14 1025 76 10000 1.79 100 00:18 16.01.2022
5866 Clear 14 1025 76 10000 1.79 100 22:38 15.01.2022
5867 Clear 13 1025 76 10000 1.79 100 21:21 15.01.2022
5868 Clear 14 1025 76 10000 1.79 100 20:43 15.01.2022
5869 Clear 14 1025 76 10000 1.79 100 20:18 15.01.2022
5870 Clear 16 1025 67 10000 1.79 40 19:25 15.01.2022
5871 Clear 21 1024 45 10000 4.12 20 17:52 15.01.2022
5872 Clear 21 1024 34 10000 2.68 340 16:42 15.01.2022
5873 Clear 21 1025 32 10000 1.79 300 14:32 15.01.2022
5874 Clear 21 1025 32 10000 1.79 300 14:32 15.01.2022
5875 Clear 19 1027 34 10000 0.89 220 12:33 15.01.2022
5876 Clear 16 1027 47 10000 2.68 140 11:19 15.01.2022
5877 Clouds 9 1026 57 8000 3.09 160 09:35 15.01.2022
5878 Clear 14 1025 67 10000 0.89 180 01:25 15.01.2022
5879 Clear 14 1025 67 10000 0.89 180 21:57 14.01.2022
5880 Clear 14 1025 67 10000 0.89 180 20:52 14.01.2022
5881 Clear 14 1025 67 10000 0.89 180 20:23 14.01.2022
5882 Clear 16 1025 59 10000 0.89 360 19:49 14.01.2022
5883 Clear 19 1024 55 10000 2.68 20 18:33 14.01.2022
5884 Clear 21 1024 35 10000 4.02 360 16:51 14.01.2022
5885 Clear 21 1024 35 10000 4.02 360 16:33 14.01.2022
5886 Clear 21 1025 40 10000 0.89 160 14:47 14.01.2022
5887 Clear 21 1025 43 10000 2.68 220 13:48 14.01.2022
5888 Clear 19 1022 42 10000 1.79 200 12:34 14.01.2022
5889 Clear 16 1025 51 10000 4.12 200 11:29 14.01.2022
5890 Clear 9 1025 76 10000 2.06 180 09:51 14.01.2022
5891 Clear 8 1024 76 10000 2.06 180 08:52 14.01.2022
5892 Clear 6 1024 60 10000 2.48 192 07:27 14.01.2022
5893 Clear 12 1023 82 10000 0.89 180 01:43 14.01.2022
5894 Clear 13 1023 82 10000 0.89 180 23:36 13.01.2022
5895 Clear 14 1023 82 10000 0.89 180 21:42 13.01.2022
5896 Clear 13 1023 82 10000 0.89 180 21:23 13.01.2022
5897 Clear 16 1023 77 6000 1.34 20 19:44 13.01.2022
5898 Clear 16 1023 77 6000 1.34 20 19:22 13.01.2022
5899 Clear 21 1022 52 10000 2.24 280 17:56 13.01.2022
5900 Clear 22 1021 46 10000 3.58 340 16:22 13.01.2022
5901 Clear 22 1021 46 10000 3.58 340 15:38 13.01.2022
5902 Clear 22 1022 37 10000 1.79 240 14:50 13.01.2022
5903 Clear 19 1023 48 8000 1.34 180 12:54 13.01.2022
5904 Clear 11 1022 82 5000 1.03 160 10:25 13.01.2022
5905 Clear 9 1022 87 5000 2.06 180 09:20 13.01.2022
5906 Mist 6 1021 100 3000 2.57 180 08:28 13.01.2022
5907 Mist 7 1021 100 3000 2.06 160 07:25 13.01.2022
5908 Clear 6 1021 71 10000 2.14 175 06:41 13.01.2022
5909 Clouds 7 1021 69 10000 2.05 188 05:20 13.01.2022
5910 Clouds 14 1020 82 10000 1.79 20 03:24 13.01.2022
5911 Clouds 15 1020 82 10000 1.79 20 00:56 13.01.2022
5912 Clouds 15 1020 82 10000 1.79 20 23:53 12.01.2022
5913 Clouds 15 1020 82 10000 1.79 20 23:32 12.01.2022
5914 Clouds 15 1020 82 10000 1.79 20 21:58 12.01.2022
5915 Clouds 15 1020 82 10000 1.79 20 21:23 12.01.2022
5916 Clouds 14 1020 82 10000 1.79 20 20:57 12.01.2022
5917 Clouds 15 1020 82 10000 1.79 20 20:19 12.01.2022
5918 Clear 16 1020 77 10000 1.79 360 18:48 12.01.2022
5919 Clear 17 1019 67 10000 4.02 360 17:51 12.01.2022
5920 Clear 18 1019 63 10000 4.92 20 16:39 12.01.2022
5921 Clear 17 1020 67 10000 2.68 320 14:49 12.01.2022
5922 Clouds 17 1020 67 8000 2.68 320 13:37 12.01.2022
5923 Clouds 16 1021 67 8000 0.89 100 12:35 12.01.2022
5924 Fog 8 1020 100 800 2.06 140 08:50 12.01.2022
5925 Clouds 8 1020 100 800 1.03 0 07:52 12.01.2022
5926 Clouds 6 1020 83 10000 1.52 125 07:32 12.01.2022
5927 Clouds 15 1019 77 10000 1.79 360 01:33 12.01.2022
5928 Clouds 15 1019 77 10000 1.79 360 23:25 11.01.2022
5929 Clouds 15 1019 77 10000 1.79 360 22:24 11.01.2022
5930 Clouds 15 1019 77 10000 1.79 360 21:28 11.01.2022
5931 Clouds 15 1019 77 10000 1.79 360 20:35 11.01.2022
5932 Clouds 16 1017 77 10000 2.68 360 18:52 11.01.2022
5933 Clouds 16 1017 72 10000 2.68 20 17:46 11.01.2022
5934 Clouds 16 1017 77 10000 2.68 340 16:39 11.01.2022
5935 Clouds 16 1017 77 10000 2.68 340 16:18 11.01.2022
5936 Clouds 17 1018 67 10000 1.79 20 14:44 11.01.2022
5937 Clouds 17 1018 67 10000 1.79 20 14:18 11.01.2022
5938 Clouds 16 1018 72 10000 1.34 120 13:42 11.01.2022
5939 Clouds 16 1018 72 10000 1.34 120 13:24 11.01.2022
5940 Clouds 15 1019 77 10000 1.79 100 12:23 11.01.2022
5941 Clouds 14 1018 82 10000 1.34 160 10:25 11.01.2022
5942 Clouds 13 1019 84 10000 2.31 92 07:38 11.01.2022
5943 Clouds 14 1021 72 10000 4.02 60 02:57 11.01.2022
5944 Clouds 15 1019 72 10000 4.02 60 00:24 11.01.2022
5945 Clouds 15 1021 72 10000 4.02 60 23:38 10.01.2022
5946 Clouds 15 1021 72 10000 4.02 60 22:20 10.01.2022
5947 Clouds 15 1021 72 10000 4.02 60 21:56 10.01.2022
5948 Clouds 15 1021 72 10000 4.02 60 21:33 10.01.2022
5949 Clouds 15 1021 72 10000 4.02 60 20:58 10.01.2022
5950 Clouds 15 1021 72 10000 4.02 60 20:29 10.01.2022
5951 Clouds 15 1021 72 10000 4.02 40 19:48 10.01.2022
5952 Clouds 15 1021 72 10000 4.02 40 19:23 10.01.2022
5953 Clouds 15 1014 72 10000 4.92 40 18:55 10.01.2022
5954 Clouds 15 1014 72 10000 4.92 40 18:37 10.01.2022
5955 Clouds 16 1021 67 10000 5.81 20 16:48 10.01.2022
5956 Clouds 16 1021 67 10000 5.81 20 16:18 10.01.2022
5957 Clouds 16 1022 67 10000 4.92 40 14:42 10.01.2022
5958 Clouds 15 1023 62 8000 4.02 60 12:50 10.01.2022
5959 Clouds 13 1024 76 8000 2.68 80 11:55 10.01.2022
5960 Clouds 11 1024 76 8000 4.12 100 10:46 10.01.2022
5961 Clouds 9 1023 93 6000 1.79 100 08:59 10.01.2022
5962 Clear 0 1024 75 10000 3.75 66 05:51 10.01.2022
5963 Clear 10 1026 71 10000 4.02 40 02:30 10.01.2022
5964 Clear 13 1026 71 10000 4.02 40 01:20 10.01.2022
5965 Clear 11 1026 71 10000 4.02 40 00:19 10.01.2022
5966 Clear 13 1026 71 10000 4.02 40 22:44 09.01.2022
5967 Clear 13 1026 71 10000 4.02 40 21:57 09.01.2022
5968 Clear 13 1026 71 10000 4.02 40 21:37 09.01.2022
5969 Clear 13 1026 71 10000 4.02 40 21:18 09.01.2022
5970 Clear 14 1026 71 10000 4.02 40 20:45 09.01.2022
5971 Clear 14 1026 71 10000 4.02 40 20:26 09.01.2022
5972 Clear 15 1025 62 10000 4.92 40 19:38 09.01.2022
5973 Clear 15 1025 62 10000 4.92 40 19:20 09.01.2022
5974 Clear 16 1025 62 10000 4.92 40 18:37 09.01.2022
5975 Clear 17 1026 55 10000 4.02 40 17:48 09.01.2022
5976 Clear 18 1026 55 10000 4.02 40 17:29 09.01.2022
5977 Clear 18 1026 59 10000 4.92 20 16:43 09.01.2022
5978 Clear 19 1026 45 10000 1.79 60 15:42 09.01.2022
5979 Clear 18 1027 48 10000 4.02 80 14:58 09.01.2022
5980 Clear 18 1027 48 10000 4.02 80 14:24 09.01.2022
5981 Clear 17 1027 59 10000 4.92 60 13:48 09.01.2022
5982 Clear 13 1028 66 8000 1.54 100 11:56 09.01.2022
5983 Clear 12 1028 66 8000 1.34 100 11:26 09.01.2022
5984 Clear 6 1026 87 10000 3.09 180 09:55 09.01.2022
5985 Clear 6 1026 87 10000 1.54 180 08:59 09.01.2022
5986 Clear 2 1027 59 10000 2.88 77 06:57 09.01.2022
5987 Clear 12 1026 66 10000 2.68 80 01:30 09.01.2022
5988 Clear 12 1026 66 10000 2.68 80 00:38 09.01.2022
5989 Clear 12 1026 66 10000 2.68 80 23:34 08.01.2022
5990 Clear 13 1026 66 10000 2.68 80 22:48 08.01.2022
5991 Clear 13 1026 66 10000 2.68 80 21:28 08.01.2022
5992 Clear 13 1026 66 10000 2.68 80 20:44 08.01.2022
5993 Clear 13 1026 66 10000 2.68 80 20:22 08.01.2022
5994 Clear 15 1026 62 10000 4.02 60 19:22 08.01.2022
5995 Clear 17 1026 63 10000 4.92 60 17:38 08.01.2022
5996 Clear 17 1026 63 10000 4.92 80 16:45 08.01.2022
5997 Clear 17 1026 63 10000 4.02 40 15:33 08.01.2022
5998 Clear 16 1027 63 10000 4.92 20 14:25 08.01.2022
5999 Clouds 14 1027 71 8000 1.79 120 11:43 08.01.2022
6000 Clouds 10 1026 81 8000 2.06 200 10:40 08.01.2022
6001 Clouds 9 1026 81 8000 1.79 200 10:22 08.01.2022
6002 Clouds 7 1026 93 8000 2.06 160 09:34 08.01.2022
6003 Clouds 8 1024 78 10000 3.82 47 06:18 08.01.2022
6004 Clouds 12 1024 76 10000 4.02 40 01:46 08.01.2022
6005 Clouds 13 1024 76 10000 4.02 40 23:36 07.01.2022
6006 Clouds 13 1024 76 10000 4.02 40 21:49 07.01.2022
6007 Clear 14 1024 76 10000 4.02 40 20:34 07.01.2022
6008 Clear 14 1024 67 10000 2.68 40 19:27 07.01.2022
6009 Clear 15 1024 67 10000 5.81 40 18:49 07.01.2022
6010 Clear 15 1024 67 10000 5.81 40 18:24 07.01.2022
6011 Clear 16 1023 67 10000 4.92 40 17:24 07.01.2022
6012 Clouds 17 1024 55 10000 4.02 40 14:56 07.01.2022
6013 Clear 17 1025 59 10000 4.02 60 13:52 07.01.2022
6014 Clear 17 1025 59 10000 4.02 60 13:52 07.01.2022
6015 Clear 16 1026 59 10000 4.92 100 12:51 07.01.2022
6016 Clear 14 1026 71 8000 2.68 140 11:58 07.01.2022
6017 Clear 6 1023 76 10000 2.8 61 04:56 07.01.2022
6018 Clear 11 1023 62 10000 0.89 20 02:53 07.01.2022
6019 Clear 12 1023 62 10000 0.89 20 01:50 07.01.2022
6020 Clear 13 1023 62 10000 0.89 20 01:26 07.01.2022
6021 Clear 12 1013 62 10000 0.89 20 00:31 07.01.2022
6022 Clear 12 1023 62 10000 0.89 20 22:42 06.01.2022
6023 Clouds 14 1023 62 10000 0.89 20 20:54 06.01.2022
6024 Clouds 14 1023 62 10000 0.89 20 20:18 06.01.2022
6025 Clouds 14 1022 58 10000 2.06 20 19:39 06.01.2022
6026 Clouds 17 1021 59 10000 5.81 40 17:52 06.01.2022
6027 Clouds 17 1021 59 10000 5.81 40 17:28 06.01.2022
6028 Clouds 17 1021 59 8000 5.81 40 16:38 06.01.2022
6029 Clouds 16 1021 63 8000 5.81 20 15:44 06.01.2022
6030 Clouds 16 1021 63 8000 5.81 20 15:23 06.01.2022
6031 Clouds 15 1022 87 6000 5.36 300 14:20 06.01.2022
6032 Clouds 14 1022 87 8000 1.79 240 13:41 06.01.2022
6033 Clouds 14 1018 82 6000 4.02 220 12:32 06.01.2022
6034 Clouds 13 1018 82 6000 4.02 220 11:41 06.01.2022
6035 Clouds 13 1018 82 6000 4.02 220 11:19 06.01.2022
6036 Clouds 8 1022 73 10000 3.74 214 06:59 06.01.2022
6037 Clear 12 1023 67 10000 1.79 360 00:35 06.01.2022
6038 Clear 13 1023 67 10000 1.79 360 23:34 05.01.2022
6039 Clear 12 1023 67 10000 1.79 360 22:48 05.01.2022
6040 Clear 13 1023 67 10000 1.79 360 22:29 05.01.2022
6041 Clear 13 1023 67 10000 1.79 360 21:44 05.01.2022
6042 Clouds 14 1023 67 10000 1.79 360 20:44 05.01.2022
6043 Clouds 14 1023 67 10000 4.02 360 19:46 05.01.2022
6044 Clouds 15 1022 67 10000 4.02 20 18:27 05.01.2022
6045 Clouds 16 1022 63 10000 7.15 20 16:58 05.01.2022
6046 Clouds 16 1022 63 10000 7.15 20 16:22 05.01.2022
6047 Clouds 17 1023 59 10000 5.81 20 15:20 05.01.2022
6048 Clouds 17 1024 63 10000 4.02 40 13:37 05.01.2022
6049 Clouds 17 1025 59 10000 3.58 20 12:46 05.01.2022
6050 Clouds 13 1024 76 10000 1.34 140 08:57 05.01.2022
6051 Clouds 11 1025 69 10000 4.07 35 07:31 05.01.2022
6052 Clouds 16 1024 82 10000 7.15 340 01:59 05.01.2022
6053 Clouds 16 1024 82 10000 7.15 340 23:50 04.01.2022
6054 Clouds 16 1024 82 10000 7.15 340 23:26 04.01.2022
6055 Clouds 16 1024 82 10000 7.15 340 22:21 04.01.2022
6056 Clouds 17 1024 82 6000 7.15 340 20:50 04.01.2022
6057 Clouds 18 1023 77 6000 4.02 280 18:46 04.01.2022
6058 Clouds 18 1022 77 6000 5.81 260 17:37 04.01.2022
6059 Clouds 18 1023 77 6000 7.6 280 16:39 04.01.2022
6060 Clouds 19 1022 74 6000 4.92 300 16:20 04.01.2022
6061 Clouds 18 1022 77 5000 4.92 220 14:46 04.01.2022
6062 Clouds 18 1022 77 5000 4.92 220 14:23 04.01.2022
6063 Mist 14 1024 100 3000 4.12 200 12:37 04.01.2022
6064 Fog 12 1023 100 400 2.68 200 10:28 04.01.2022
6065 Fog 9 1022 100 400 2.06 200 08:59 04.01.2022
6066 Clouds 5 1021 70 10000 3.27 222 06:46 04.01.2022
6067 Clear 11 1024 93 10000 0.89 340 00:50 04.01.2022
6068 Clear 11 1024 93 10000 0.89 340 00:31 04.01.2022
6069 Clear 12 1024 93 10000 0.89 340 22:30 03.01.2022
6070 Clear 12 1024 93 10000 0.89 340 21:41 03.01.2022
6071 Clear 13 1024 93 10000 0.89 340 20:51 03.01.2022
6072 Mist 13 1024 93 3000 0.89 340 19:44 03.01.2022
6073 Mist 15 1024 87 3000 2.68 340 18:32 03.01.2022
6074 Mist 17 1023 87 3000 1.79 40 17:40 03.01.2022
6075 Mist 17 1024 72 2000 3.58 360 16:56 03.01.2022
6076 Mist 18 1025 77 2000 2.06 340 14:54 03.01.2022
6077 Mist 17 1026 77 2000 2.68 320 13:25 03.01.2022
6078 Mist 15 1027 82 2000 2.06 360 12:28 03.01.2022
6079 Mist 14 1027 93 2000 1.79 360 11:30 03.01.2022
6080 Mist 13 1026 93 2000 1.79 160 09:41 03.01.2022
6081 Mist 12 1026 93 2000 2.24 120 08:18 03.01.2022
6082 Clouds 12 1025 74 10000 1.32 72 05:21 03.01.2022
6083 Clouds 15 1027 93 10000 1.79 20 23:45 02.01.2022
6084 Clouds 15 1027 93 10000 1.79 20 22:57 02.01.2022
6085 Clouds 15 1027 93 10000 1.79 20 22:37 02.01.2022
6086 Clouds 15 1027 93 10000 1.79 20 21:26 02.01.2022
6087 Clouds 15 1027 93 6000 1.79 20 20:30 02.01.2022
6088 Clouds 15 1027 93 6000 2.65 38 19:49 02.01.2022
6089 Clouds 15 1027 93 6000 2.85 31 19:25 02.01.2022
6090 Clouds 16 1027 87 6000 1.79 20 18:30 02.01.2022
6091 Clear 17 1026 88 6000 1.79 20 17:43 02.01.2022
6092 Clear 18 1026 88 6000 1.79 20 17:21 02.01.2022
6093 Clouds 17 1027 88 6000 2.99 18 16:30 02.01.2022
6094 Clear 19 1027 72 6000 4.92 20 15:49 02.01.2022
6095 Clear 18 1028 82 6000 2.06 20 13:57 02.01.2022
6096 Mist 16 1029 94 4000 1.03 40 12:33 02.01.2022
6097 Fog 14 1029 100 800 3.09 320 11:55 02.01.2022
6098 Fog 12 1028 100 800 1.03 0 10:55 02.01.2022
6099 Fog 12 1028 100 800 1.03 0 10:18 02.01.2022
6100 Fog 13 1025 100 800 1.03 0 07:44 02.01.2022
6101 Clouds 14 1026 72 10000 1.34 360 02:57 02.01.2022
6102 Clear 15 1026 72 10000 1.34 360 23:50 01.01.2022
6103 Clear 15 1026 72 10000 1.34 360 23:27 01.01.2022
6104 Clear 15 1026 72 10000 1.34 360 22:26 01.01.2022
6105 Clear 15 1026 72 10000 1.34 360 21:54 01.01.2022
6106 Clear 15 1026 72 10000 1.34 360 21:36 01.01.2022
6107 Clear 15 1026 72 6000 1.34 360 20:27 01.01.2022
6108 Clear 17 1026 67 6000 0.89 120 19:45 01.01.2022
6109 Clear 19 1025 59 6000 2.24 360 18:52 01.01.2022
6110 Clear 22 1025 52 6000 2.68 20 17:41 01.01.2022
6111 Clear 23 1025 46 6000 3.58 340 16:35 01.01.2022
6112 Clear 24 1025 49 6000 1.79 300 15:42 01.01.2022
6113 Clear 23 1025 49 6000 3.58 320 14:40 01.01.2022
6114 Clear 23 1026 49 10000 1.34 260 13:42 01.01.2022
6115 Clear 21 1026 52 10000 1.79 160 12:25 01.01.2022
6116 Clear 18 1026 59 8000 1.34 140 11:26 01.01.2022
6117 Clear 14 1026 76 5000 2.57 80 10:59 01.01.2022
6118 Clear 9 1025 93 5000 1.54 120 09:48 01.01.2022
6119 Clear 8 1025 87 5000 0 0 08:45 01.01.2022
6120 Clear 8 1025 87 5000 0 0 08:18 01.01.2022
6121 Clear 9 1024 87 5000 1.54 160 07:39 01.01.2022
6122 Clouds 8 1024 47 10000 1.88 164 06:44 01.01.2022
6123 Clouds 9 1024 49 10000 1.07 197 05:24 01.01.2022
6124 Clouds 15 1024 87 10000 0.89 320 04:35 01.01.2022
6125 Clear 15 1024 87 10000 0.89 320 00:23 01.01.2022
6126 Clear 15 1024 87 10000 0.89 320 22:30 31.12.2021
6127 Clear 16 1024 87 10000 0.89 320 21:47 31.12.2021
6128 Clear 17 1023 77 10000 1.79 360 19:48 31.12.2021
6129 Clear 17 1023 77 10000 1.79 360 19:28 31.12.2021
6130 Clear 20 1023 68 10000 2.06 20 18:18 31.12.2021
6131 Clear 22 1023 60 10000 1.79 360 17:28 31.12.2021
6132 Clear 24 1022 33 10000 4.02 360 16:52 31.12.2021
6133 Clear 23 1022 33 10000 4.02 360 16:18 31.12.2021
6134 Clear 23 1022 38 10000 1.79 40 15:50 31.12.2021
6135 Clear 23 1022 38 10000 1.79 40 15:27 31.12.2021
6136 Clear 24 1022 33 10000 1.79 20 14:41 31.12.2021
6137 Clear 23 1023 40 8000 1.79 340 13:55 31.12.2021
6138 Clear 21 1024 37 8000 1.79 360 12:53 31.12.2021
6139 Clear 22 1024 37 8000 1.79 360 12:26 31.12.2021
6140 Clear 19 1024 48 8000 1.03 0 11:42 31.12.2021
6141 Clear 15 1024 58 8000 1.03 0 10:56 31.12.2021
6142 Clouds 14 1024 58 8000 1.03 0 10:28 31.12.2021
6143 Clouds 10 1023 71 8000 1.03 0 09:35 31.12.2021
6144 Clouds 11 1023 71 8000 2.06 120 08:54 31.12.2021
6145 Clouds 11 1023 71 8000 2.06 160 07:59 31.12.2021
6146 Clear 9 1022 51 10000 2.03 103 06:24 31.12.2021
6147 Clear 18 1023 77 10000 0.89 200 23:19 30.12.2021
6148 Clear 18 1023 77 10000 0.89 200 22:32 30.12.2021
6149 Clear 18 1023 77 10000 0.89 200 21:40 30.12.2021
6150 Clear 18 1023 77 10000 0.89 200 21:20 30.12.2021
6151 Clear 18 1023 77 10000 0.89 200 20:40 30.12.2021
6152 Clear 19 1023 77 10000 1.79 100 19:58 30.12.2021
6153 Clear 20 1023 77 10000 1.79 100 19:34 30.12.2021
6154 Clear 23 1022 64 10000 1.79 60 18:29 30.12.2021
6155 Clear 25 1022 60 10000 2.68 60 17:34 30.12.2021
6156 Clear 26 1021 61 10000 2.68 20 15:54 30.12.2021
6157 Clear 26 1021 61 10000 2.68 20 15:21 30.12.2021
6158 Clear 26 1021 57 10000 1.79 180 14:36 30.12.2021
6159 Clear 24 1022 64 10000 2.68 200 13:26 30.12.2021
6160 Clear 19 1023 77 6000 4.12 180 11:58 30.12.2021
6161 Clear 15 1022 82 6000 5.14 180 10:40 30.12.2021
6162 Clear 11 1022 93 6000 1.03 140 09:50 30.12.2021
6163 Clear 11 1022 93 6000 1.03 140 09:50 30.12.2021
6164 Clear 10 1021 93 6000 2.06 140 07:25 30.12.2021
6165 Clear 9 1021 59 10000 2.17 157 06:32 30.12.2021
6166 Clear 14 1022 93 10000 1.79 20 03:41 30.12.2021
6167 Clear 14 1022 93 10000 1.79 20 02:35 30.12.2021
6168 Clear 14 1022 93 10000 1.79 20 23:40 29.12.2021
6169 Clear 14 1022 93 10000 1.79 20 22:59 29.12.2021
6170 Clear 14 1022 93 10000 1.79 20 22:18 29.12.2021
6171 Clear 14 1022 93 10000 1.79 20 21:19 29.12.2021
6172 Clear 15 1022 93 8000 1.79 20 20:30 29.12.2021
6173 Clear 15 1022 93 8000 1.79 20 20:30 29.12.2021
6174 Clouds 15 1022 93 8000 0.89 60 19:43 29.12.2021
6175 Clouds 16 1022 87 10000 4.02 60 18:44 29.12.2021
6176 Clouds 17 1021 82 10000 4.02 60 17:52 29.12.2021
6177 Clouds 17 1021 82 10000 4.12 60 17:27 29.12.2021
6178 Clouds 17 1022 88 10000 4.12 40 16:23 29.12.2021
6179 Clouds 17 1022 88 10000 6.17 40 15:42 29.12.2021
6180 Clear 18 1024 72 6000 2.68 60 13:53 29.12.2021
6181 Clouds 17 1024 77 5000 4.47 100 12:36 29.12.2021
6182 Clouds 14 1025 94 5000 4.63 60 11:26 29.12.2021
6183 Clouds 12 1025 94 5000 2.06 80 09:46 29.12.2021
6184 Clear 12 1024 87 6000 2.68 100 07:51 29.12.2021
6185 Clear 12 1023 83 10000 4.19 74 06:38 29.12.2021
6186 Clear 13 1023 83 10000 4.53 76 05:58 29.12.2021
6187 Clear 13 1023 83 10000 4.53 76 05:36 29.12.2021
6188 Clear 16 1024 93 10000 4.02 60 02:22 29.12.2021
6189 Clear 16 1024 93 10000 4.02 60 00:19 29.12.2021
6190 Clear 16 1024 93 10000 4.02 60 23:31 28.12.2021
6191 Clear 15 1024 93 10000 4.02 60 22:42 28.12.2021
6192 Clear 15 1024 93 10000 4.02 60 22:23 28.12.2021
6193 Clear 15 1024 93 10000 4.02 60 21:36 28.12.2021
6194 Clouds 16 1024 93 7000 4.02 60 20:36 28.12.2021
6195 Clouds 17 1024 88 7000 4.02 40 19:22 28.12.2021
6196 Clouds 18 1024 82 7000 4.92 40 18:35 28.12.2021
6197 Clouds 18 1024 82 7000 4.02 40 17:57 28.12.2021
6198 Clouds 19 1024 77 7000 7.15 80 16:34 28.12.2021
6199 Clouds 19 1024 77 7000 5.81 40 15:49 28.12.2021
6200 Clouds 19 1024 77 7000 5.81 40 15:20 28.12.2021
6201 Clouds 19 1025 77 6000 4.02 40 14:46 28.12.2021
6202 Clouds 19 1025 77 6000 4.02 40 14:20 28.12.2021
6203 Clouds 18 1026 88 6000 5.81 60 13:42 28.12.2021
6204 Clouds 18 1026 88 6000 5.81 60 13:24 28.12.2021
6205 Mist 17 1027 94 3000 5.14 80 12:48 28.12.2021
6206 Mist 17 1027 93 3000 4.92 80 11:33 28.12.2021
6207 Clouds 16 1024 93 5000 1.79 100 07:41 28.12.2021
6208 Clouds 16 1024 90 10000 2.29 72 06:41 28.12.2021
6209 Clouds 18 1023 82 10000 1.79 60 23:43 27.12.2021
6210 Clouds 18 1023 82 10000 1.79 60 22:58 27.12.2021
6211 Clouds 18 1022 82 10000 1.79 60 21:38 27.12.2021
6212 Clouds 18 1023 82 8000 1.79 60 20:57 27.12.2021
6213 Clouds 18 1022 82 8000 1.79 80 19:58 27.12.2021
6214 Clouds 18 1022 82 8000 1.79 80 19:39 27.12.2021
6215 Clouds 18 1022 82 8000 2.68 20 18:23 27.12.2021
6216 Clouds 18 1009 88 10000 2.68 360 17:46 27.12.2021
6217 Clouds 19 1021 82 8000 2.68 360 16:38 27.12.2021
6218 Clouds 19 1021 82 8000 2.68 360 15:51 27.12.2021
6219 Clouds 18 1022 88 8000 4.02 340 14:32 27.12.2021
6220 Clouds 19 1022 82 8000 0.89 200 13:39 27.12.2021
6221 Clouds 18 1023 88 8000 1.34 180 12:19 27.12.2021
6222 Clouds 17 1022 93 8000 0.89 200 10:31 27.12.2021
6223 Clouds 17 1021 88 8000 1.79 180 09:47 27.12.2021
6224 Clouds 17 1022 91 10000 1.85 231 07:35 27.12.2021
6225 Clouds 17 1021 91 10000 1.94 236 06:56 27.12.2021
6226 Clouds 17 1021 95 10000 2.73 211 02:18 27.12.2021
6227 Clouds 16 1021 95 10000 2.7 238 23:58 26.12.2021
6228 Clouds 15 1021 95 10000 2.7 238 23:35 26.12.2021
6229 Clouds 16 1021 93 10000 3.27 257 22:23 26.12.2021
6230 Clouds 17 1020 88 8000 2.06 260 20:54 26.12.2021
6231 Clouds 19 1020 82 8000 8.05 300 19:47 26.12.2021
6232 Clouds 19 1020 82 8000 8.05 300 19:47 26.12.2021
6233 Clouds 20 1019 77 8000 8.05 300 18:24 26.12.2021
6234 Clouds 21 1019 77 10000 5.81 180 16:55 26.12.2021
6235 Clouds 20 1020 75 10000 3.58 220 14:28 26.12.2021
6236 Clouds 19 1020 77 10000 3.58 220 13:40 26.12.2021
6237 Clouds 19 1020 77 10000 3.58 220 13:19 26.12.2021
6238 Clouds 19 1020 82 8000 4.92 200 12:33 26.12.2021
6239 Clouds 16 1020 93 5000 3.58 180 10:34 26.12.2021
6240 Clouds 15 1019 93 6000 3.58 180 09:21 26.12.2021
6241 Clouds 15 1014 93 6000 2.24 200 08:44 26.12.2021
6242 Clouds 16 1018 100 6000 3.09 220 07:49 26.12.2021
6243 Clouds 16 1015 88 10000 2.68 200 01:29 26.12.2021
6244 Clouds 17 1015 88 10000 2.68 200 23:56 25.12.2021
6245 Clouds 17 1010 88 10000 2.68 200 23:27 25.12.2021
6246 Clouds 17 1015 88 10000 2.68 200 22:26 25.12.2021
6247 Clouds 17 1015 88 6000 2.68 200 20:59 25.12.2021
6248 Clouds 17 1017 93 6000 4.02 240 19:26 25.12.2021
6249 Clouds 16 1014 94 6000 7.2 220 18:55 25.12.2021
6250 Clouds 17 1014 88 6000 6.17 220 17:37 25.12.2021
6251 Clouds 18 1013 82 8000 8.23 220 16:36 25.12.2021
6252 Clouds 17 1013 82 8000 9.26 220 15:24 25.12.2021
6253 Clouds 17 1018 88 6000 7.15 200 13:31 25.12.2021
6254 Clouds 16 1017 85 6000 4.02 220 11:53 25.12.2021
6255 Clouds 16 1017 77 8000 5.81 240 09:57 25.12.2021
6256 Clouds 16 1017 77 8000 5.81 240 09:37 25.12.2021
6257 Clouds 17 1015 77 10000 2.68 240 04:34 25.12.2021
6258 Clouds 17 1015 77 10000 2.68 240 01:25 25.12.2021
6259 Clouds 16 1015 77 10000 2.68 240 23:42 24.12.2021
6260 Clouds 17 1015 77 10000 2.68 260 19:46 24.12.2021
6261 Clouds 17 1015 77 10000 2.68 260 19:23 24.12.2021
6262 Clouds 21 1015 56 10000 1.79 240 16:59 24.12.2021
6263 Clouds 21 1015 56 10000 1.79 240 16:22 24.12.2021
6264 Clouds 21 1013 60 10000 2.68 320 15:48 24.12.2021
6265 Clouds 21 1013 60 10000 2.68 320 15:18 24.12.2021
6266 Clouds 21 1017 60 10000 4.02 200 14:31 24.12.2021
6267 Clouds 19 1018 72 10000 4.92 220 13:42 24.12.2021
6268 Clouds 18 1019 77 8000 4.92 260 12:49 24.12.2021
6269 Clouds 18 1015 77 8000 4.92 260 12:21 24.12.2021
6270 Clouds 18 1019 77 8000 4.92 220 11:30 24.12.2021
6271 Clouds 16 1017 82 8000 2.68 200 10:59 24.12.2021
6272 Clouds 16 1017 82 8000 2.68 200 10:31 24.12.2021
6273 Clouds 14 1017 93 6000 1.79 200 08:28 24.12.2021
6274 Clouds 14 1016 93 6000 1.79 220 07:57 24.12.2021
6275 Clouds 13 1017 82 10000 4 196 06:18 24.12.2021
6276 Clouds 15 1019 93 10000 1.79 240 00:20 24.12.2021
6277 Clouds 16 1019 93 10000 1.79 240 23:33 23.12.2021
6278 Clouds 16 1019 93 10000 1.79 240 22:44 23.12.2021
6279 Clouds 16 1019 93 10000 1.79 240 22:21 23.12.2021
6280 Clouds 16 1019 93 10000 1.79 240 21:34 23.12.2021
6281 Mist 16 1019 93 3000 1.79 240 20:21 23.12.2021
6282 Clouds 16 1019 93 5000 4.92 280 19:27 23.12.2021
6283 Clouds 19 1019 88 5000 4.02 300 17:58 23.12.2021
6284 Clouds 19 1019 88 5000 4.02 300 17:18 23.12.2021
6285 Clouds 20 1014 82 7000 2.68 280 16:26 23.12.2021
6286 Clouds 20 1019 88 7000 2.68 300 15:32 23.12.2021
6287 Clouds 20 1015 82 7000 4.02 300 14:56 23.12.2021
6288 Clouds 20 1020 82 7000 4.02 300 14:38 23.12.2021
6289 Clouds 20 1021 77 7000 2.68 260 13:23 23.12.2021
6290 Mist 16 1021 93 3000 7.15 180 10:54 23.12.2021
6291 Mist 15 1021 93 3000 5.81 180 09:52 23.12.2021
6292 Mist 15 1020 93 3000 5.81 180 09:31 23.12.2021
6293 Clouds 15 1020 93 6000 5.81 200 08:25 23.12.2021
6294 Clouds 16 1020 88 10000 0.89 200 04:39 23.12.2021
6295 Clouds 17 1022 88 10000 0.89 200 23:43 22.12.2021
6296 Clouds 17 1022 88 10000 0.89 200 22:49 22.12.2021
6297 Clouds 17 1020 88 10000 0.89 200 21:57 22.12.2021
6298 Clouds 17 1020 88 10000 0.89 200 21:30 22.12.2021
6299 Clouds 17 1020 88 5000 0.89 200 20:52 22.12.2021
6300 Clouds 17 1020 88 5000 0.89 200 20:33 22.12.2021
6301 Clouds 18 1020 88 5000 2.24 200 19:37 22.12.2021
6302 Clouds 18 1020 82 5000 0.89 260 18:19 22.12.2021
6303 Clouds 17 1019 88 5000 2.24 260 17:37 22.12.2021
6304 Clouds 17 1019 82 6000 3.58 180 15:49 22.12.2021
6305 Clouds 17 1015 82 6000 4.02 180 13:57 22.12.2021
6306 Clouds 16 1022 87 6000 5.81 180 12:47 22.12.2021
6307 Clouds 17 1022 82 6000 2.68 180 11:37 22.12.2021
6308 Clouds 17 1016 72 8000 2.68 220 09:43 22.12.2021
6309 Clouds 17 1019 72 8000 2.68 180 07:55 22.12.2021
6310 Clouds 17 1019 71 10000 3.58 217 05:51 22.12.2021
6311 Clouds 17 1019 71 10000 3.58 217 05:31 22.12.2021
6312 Clouds 17 1019 71 10000 3.68 205 04:55 22.12.2021
6313 Clouds 17 1019 71 10000 3.68 205 04:31 22.12.2021
6314 Clouds 17 1019 74 10000 3.36 189 03:34 22.12.2021
6315 Clouds 19 1019 64 10000 4.02 260 02:25 22.12.2021
6316 Clouds 19 1019 64 10000 4.02 260 23:47 21.12.2021
6317 Clouds 19 1019 64 10000 4.02 260 22:29 21.12.2021
6318 Clouds 19 1019 64 10000 4.02 260 21:53 21.12.2021
6319 Clouds 19 1019 64 10000 4.02 260 21:31 21.12.2021
6320 Clouds 20 1019 64 10000 4.02 260 20:24 21.12.2021
6321 Clouds 21 1018 52 10000 7.15 260 19:52 21.12.2021
6322 Clouds 21 1018 52 10000 7.15 260 19:31 21.12.2021
6323 Clouds 24 1017 43 10000 4.12 220 18:23 21.12.2021
6324 Clouds 24 1017 45 10000 2.68 220 17:52 21.12.2021
6325 Clouds 23 1017 46 10000 2.68 220 16:47 21.12.2021
6326 Clouds 24 1017 43 10000 7.2 260 15:33 21.12.2021
6327 Clouds 27 1018 36 10000 3.09 200 13:51 21.12.2021
6328 Clouds 27 1018 36 10000 3.09 200 13:32 21.12.2021
6329 Clear 25 1018 41 10000 1.79 160 12:25 21.12.2021
6330 Clear 18 1018 55 10000 7.15 180 10:38 21.12.2021
6331 Clouds 16 1018 63 8000 5.81 180 09:41 21.12.2021
6332 Clouds 14 1018 67 8000 2.06 140 08:39 21.12.2021
6333 Clouds 12 1018 59 10000 4.51 136 07:35 21.12.2021
6334 Clouds 12 1018 59 10000 4.33 134 06:56 21.12.2021
6335 Clouds 18 1019 72 10000 1.79 300 03:22 21.12.2021
6336 Clouds 18 1019 72 10000 1.79 300 01:19 21.12.2021
6337 Clouds 18 1019 72 10000 1.79 300 23:54 20.12.2021
6338 Clouds 18 1019 72 10000 1.79 300 22:35 20.12.2021
6339 Clouds 18 1019 72 10000 1.79 300 21:48 20.12.2021
6340 Clouds 18 1019 72 10000 1.79 300 21:24 20.12.2021
6341 Clear 19 1019 72 10000 1.79 300 20:50 20.12.2021
6342 Clear 20 1019 68 10000 1.79 300 19:55 20.12.2021
6343 Clear 20 1019 68 10000 1.79 300 19:36 20.12.2021
6344 Clear 20 1019 68 10000 1.79 300 19:18 20.12.2021
6345 Clear 21 1019 52 10000 1.79 300 18:28 20.12.2021
6346 Clear 23 1019 46 10000 4.12 320 17:49 20.12.2021
6347 Clear 26 1019 38 10000 6.17 320 16:45 20.12.2021
6348 Clear 27 1019 41 10000 4.12 320 15:55 20.12.2021
6349 Clear 26 1019 41 10000 4.12 320 15:31 20.12.2021
6350 Clear 26 1020 44 10000 4.02 180 13:31 20.12.2021
6351 Clear 19 1021 45 10000 2.68 160 11:36 20.12.2021
6352 Clear 12 1020 71 10000 2.06 140 09:56 20.12.2021
6353 Clear 11 1020 71 10000 2.06 140 09:32 20.12.2021
6354 Clear 11 1020 71 10000 2.06 140 08:43 20.12.2021
6355 Clear 11 1019 71 10000 2.06 140 07:57 20.12.2021
6356 Clear 11 1019 71 10000 2.06 140 07:31 20.12.2021
6357 Clouds 11 1019 63 10000 2.06 141 05:25 20.12.2021
6358 Clouds 16 1018 55 10000 2.68 260 00:19 20.12.2021
6359 Clouds 16 1018 55 10000 2.68 260 22:55 19.12.2021
6360 Clouds 17 1018 55 10000 2.68 260 21:55 19.12.2021
6361 Clouds 17 1018 55 10000 2.68 260 21:31 19.12.2021
6362 Clear 18 1018 55 10000 2.68 260 20:34 19.12.2021
6363 Clear 19 1017 52 10000 2.68 280 19:52 19.12.2021
6364 Clear 19 1017 52 10000 2.68 280 19:32 19.12.2021
6365 Clear 20 1016 49 10000 2.68 300 18:30 19.12.2021
6366 Clear 22 1016 49 10000 5.81 280 17:53 19.12.2021
6367 Clear 22 1016 49 10000 5.81 280 17:21 19.12.2021
6368 Clear 23 1016 38 10000 5.81 280 16:27 19.12.2021
6369 Clear 24 1016 40 10000 2.68 320 15:50 19.12.2021
6370 Clear 24 1016 40 10000 2.68 320 15:23 19.12.2021
6371 Clear 23 1016 40 10000 4.47 280 14:44 19.12.2021
6372 Clear 26 1016 31 10000 1.54 280 13:26 19.12.2021
6373 Clear 22 1017 37 10000 2.68 160 12:47 19.12.2021
6374 Clear 22 1017 37 10000 2.68 160 12:28 19.12.2021
6375 Clear 18 1017 42 10000 2.68 160 11:26 19.12.2021
6376 Clear 14 1016 67 10000 1.54 160 10:28 19.12.2021
6377 Clear 10 1016 66 10000 1.03 120 09:48 19.12.2021
6378 Clear 8 1016 66 10000 1.03 180 08:43 19.12.2021
6379 Clouds 14 1018 72 10000 2.24 80 04:45 19.12.2021
6380 Clouds 15 1018 72 10000 2.24 80 01:34 19.12.2021
6381 Clouds 15 1018 72 10000 2.24 80 00:53 19.12.2021
6382 Clear 15 1018 72 10000 2.24 80 22:42 18.12.2021
6383 Clear 15 1018 72 10000 2.24 80 22:20 18.12.2021
6384 Clear 15 1018 72 10000 2.24 80 21:36 18.12.2021
6385 Clouds 15 1018 72 6000 2.24 80 20:44 18.12.2021
6386 Clouds 15 1018 72 6000 2.24 80 20:19 18.12.2021
6387 Clear 16 1018 72 6000 2.24 60 19:25 18.12.2021
6388 Clear 17 1018 72 6000 3.58 40 18:22 18.12.2021
6389 Clear 19 1018 63 6000 4.02 60 17:48 18.12.2021
6390 Clear 20 1018 48 6000 4.47 60 16:26 18.12.2021
6391 Clear 21 1018 45 8000 2.68 40 15:28 18.12.2021
6392 Clear 21 1019 43 8000 2.24 20 14:51 18.12.2021
6393 Clear 20 1020 42 10000 0.89 80 13:28 18.12.2021
6394 Clear 14 1021 67 6000 1.79 160 11:23 18.12.2021
6395 Mist 7 1021 100 3000 2.06 160 09:40 18.12.2021
6396 Mist 7 1020 100 3000 2.06 140 08:47 18.12.2021
6397 Mist 7 1020 100 3000 2.06 140 08:24 18.12.2021
6398 Clear 14 1015 93 10000 1.79 60 03:58 18.12.2021
6399 Clear 15 1021 93 10000 1.79 60 00:30 18.12.2021
6400 Clear 15 1016 93 10000 1.79 60 23:46 17.12.2021
6401 Clear 15 1021 93 10000 1.79 60 21:58 17.12.2021
6402 Clear 15 1021 93 10000 1.79 60 21:20 17.12.2021
6403 Mist 15 1021 93 4000 1.79 60 20:41 17.12.2021
6404 Clouds 15 1021 87 5000 1.79 40 19:28 17.12.2021
6405 Clouds 17 1020 87 5000 5.81 360 18:39 17.12.2021
6406 Clouds 19 1020 77 7000 4.02 360 17:33 17.12.2021
6407 Clouds 20 1020 68 7000 4.92 360 16:49 17.12.2021
6408 Clouds 20 1020 68 7000 4.92 360 16:22 17.12.2021
6409 Clouds 20 1020 68 7000 4.02 340 15:25 17.12.2021
6410 Clouds 21 1020 60 6000 4.02 360 14:40 17.12.2021
6411 Clouds 21 1021 60 6000 1.79 300 13:21 17.12.2021
6412 Clouds 16 1022 88 5000 2.06 160 11:50 17.12.2021
6413 Clouds 12 1021 87 5000 2.06 160 10:37 17.12.2021
6414 Clouds 10 1021 93 5000 4.12 180 09:34 17.12.2021
6415 Clouds 10 1021 93 5000 4.12 180 09:34 17.12.2021
6416 Clouds 8 1020 100 5000 2.06 160 08:30 17.12.2021
6417 Clouds 7 1020 68 10000 1.19 161 06:47 17.12.2021
6418 Clouds 15 1017 87 10000 1.79 300 04:39 17.12.2021
6419 Clouds 15 1017 87 10000 1.79 300 23:47 16.12.2021
6420 Clouds 16 1017 87 10000 1.79 300 22:24 16.12.2021
6421 Clouds 16 1017 87 10000 1.79 300 22:24 16.12.2021
6422 Clouds 16 1017 87 10000 1.79 300 21:51 16.12.2021
6423 Clouds 15 1017 87 10000 1.79 300 21:30 16.12.2021
6424 Clouds 16 1017 87 8000 1.79 300 20:31 16.12.2021
6425 Clouds 17 1017 82 8000 1.79 300 19:49 16.12.2021
6426 Clouds 19 1016 72 8000 1.79 320 18:40 16.12.2021
6427 Clouds 20 1016 56 8000 0.89 180 17:57 16.12.2021
6428 Clouds 20 1016 56 8000 0.89 180 17:31 16.12.2021
6429 Clouds 20 1016 72 8000 2.68 360 16:22 16.12.2021
6430 Clouds 20 1017 72 8000 1.79 360 14:51 16.12.2021
6431 Clouds 20 1017 72 8000 4.02 20 13:29 16.12.2021
6432 Clouds 16 1018 93 6000 1.79 140 11:20 16.12.2021
6433 Clouds 15 1017 93 6000 2.68 260 10:59 16.12.2021
6434 Clouds 15 1017 93 6000 2.68 260 10:20 16.12.2021
6435 Clouds 14 1018 93 6000 1.79 200 08:25 16.12.2021
6436 Clouds 13 1016 68 10000 1.87 254 06:22 16.12.2021
6437 Clouds 16 1016 82 10000 0.89 360 01:25 16.12.2021
6438 Clouds 17 1019 82 10000 0.89 360 23:33 15.12.2021
6439 Clouds 17 1016 82 10000 0.89 360 22:43 15.12.2021
6440 Clouds 17 1016 82 10000 0.89 360 21:56 15.12.2021
6441 Clouds 17 1016 82 10000 0.89 360 21:27 15.12.2021
6442 Clouds 17 1023 82 8000 0.89 360 20:18 15.12.2021
6443 Clouds 16 1016 93 8000 0.89 300 19:50 15.12.2021
6444 Clouds 17 1017 94 8000 2.57 340 18:37 15.12.2021
6445 Clouds 18 1015 82 8000 2.06 340 17:53 15.12.2021
6446 Clouds 18 1015 82 8000 2.06 340 17:34 15.12.2021
6447 Clouds 17 1014 82 8000 2.68 360 16:28 15.12.2021
6448 Clouds 17 1015 82 10000 2.68 340 15:47 15.12.2021
6449 Clouds 17 1015 82 10000 2.68 340 15:27 15.12.2021
6450 Clear 18 1016 77 10000 4.92 340 14:29 15.12.2021
6451 Clouds 17 1018 67 8000 1.79 60 12:46 15.12.2021
6452 Clouds 11 1018 87 6000 2.06 140 10:42 15.12.2021
6453 Clouds 7 1017 100 6000 1.03 160 08:55 15.12.2021
6454 Clear 8 1017 93 10000 2.06 140 07:25 15.12.2021
6455 Clouds 15 1019 93 10000 2.24 80 01:20 15.12.2021
6456 Clouds 15 1019 93 10000 2.24 80 23:42 14.12.2021
6457 Clouds 15 1019 93 10000 2.24 80 22:49 14.12.2021
6458 Clouds 15 1019 93 10000 2.24 80 22:24 14.12.2021
6459 Clouds 15 1019 93 5000 2.24 80 20:29 14.12.2021
6460 Clouds 16 1019 87 5000 3.58 80 19:43 14.12.2021
6461 Clouds 16 1019 87 5000 3.58 80 19:19 14.12.2021
6462 Clouds 17 1018 82 6000 2.24 20 18:25 14.12.2021
6463 Clouds 18 1018 72 8000 2.24 20 17:33 14.12.2021
6464 Clouds 20 1018 68 8000 2.24 40 16:40 14.12.2021
6465 Clouds 20 1018 63 8000 2.68 40 15:36 14.12.2021
6466 Clouds 20 1020 63 5000 4.02 60 13:31 14.12.2021
6467 Clouds 18 1021 82 10000 0.89 120 12:00 14.12.2021
6468 Mist 17 1021 82 3000 0.89 120 11:24 14.12.2021
6469 Mist 15 1021 87 3000 1.79 160 10:23 14.12.2021
6470 Mist 13 1020 94 3000 2.06 160 09:43 14.12.2021
6471 Clouds 12 1020 94 5000 3.6 240 08:27 14.12.2021
6472 Clouds 12 1020 94 5000 1.03 360 07:43 14.12.2021
6473 Clouds 14 1021 87 10000 1.79 360 02:37 14.12.2021
6474 Clouds 14 1021 87 10000 1.79 360 22:56 13.12.2021
6475 Clouds 14 1021 87 10000 1.79 360 21:53 13.12.2021
6476 Clouds 15 1021 87 10000 1.79 360 21:32 13.12.2021
6477 Clouds 15 1021 87 8000 1.79 360 20:43 13.12.2021
6478 Clouds 16 1021 87 8000 1.79 360 19:53 13.12.2021
6479 Clouds 17 1019 82 8000 2.68 340 18:33 13.12.2021
6480 Clouds 19 1019 82 8000 2.68 360 17:26 13.12.2021
6481 Clouds 20 1020 72 8000 4.02 320 15:54 13.12.2021
6482 Clouds 20 1020 72 8000 4.02 320 15:32 13.12.2021
6483 Clouds 19 1022 72 7000 1.79 360 13:45 13.12.2021
6484 Clouds 18 1023 77 6000 1.03 0 12:49 13.12.2021
6485 Clouds 15 1023 94 6000 3.09 160 11:59 13.12.2021
6486 Clouds 15 1023 94 6000 3.09 160 11:35 13.12.2021
6487 Fog 13 1023 100 100 4.12 180 10:47 13.12.2021
6488 Fog 11 1022 100 100 2.06 160 09:32 13.12.2021
6489 Mist 9 1022 100 3000 1.03 0 07:53 13.12.2021
6490 Clear 8 1020 70 10000 1.73 205 05:36 13.12.2021
6491 Clear 15 1021 82 10000 4.92 360 03:28 13.12.2021
6492 Clear 15 1021 82 10000 4.92 360 23:22 12.12.2021
6493 Clear 15 1021 82 10000 4.92 360 21:40 12.12.2021
6494 Clouds 15 1021 82 8000 4.92 360 20:18 12.12.2021
6495 Clouds 17 1020 77 8000 1.79 40 18:43 12.12.2021
6496 Clouds 19 1020 67 8000 4.02 10 17:38 12.12.2021
6497 Clouds 21 1020 68 8000 2.68 360 16:28 12.12.2021
6498 Clouds 20 1020 63 8000 2.68 360 15:46 12.12.2021
6499 Clouds 20 1020 63 8000 2.68 360 15:25 12.12.2021
6500 Clouds 19 1021 59 8000 2.68 320 14:34 12.12.2021
6501 Clear 19 1021 63 10000 2.24 300 13:26 12.12.2021
6502 Clear 19 1022 59 5000 1.79 120 12:30 12.12.2021
6503 Clear 16 1022 72 5000 1.34 140 11:44 12.12.2021
6504 Clear 16 1022 72 5000 1.34 140 11:22 12.12.2021
6505 Clear 12 1021 87 5000 1.03 140 10:22 12.12.2021
6506 Clear 9 1021 93 5000 1.54 120 09:38 12.12.2021
6507 Clear 15 1008 72 5000 1.34 180 07:57 12.12.2021
6508 Clear 6 1020 84 10000 1.95 93 06:19 12.12.2021
6509 Clear 7 1020 85 10000 2.46 80 04:56 12.12.2021
6510 Clear 13 1021 72 10000 4.02 40 03:31 12.12.2021
6511 Clear 15 1021 72 10000 4.02 40 23:44 11.12.2021
6512 Clear 15 1021 72 10000 4.02 40 22:22 11.12.2021
6513 Clear 15 1021 72 10000 4.02 40 21:52 11.12.2021
6514 Clear 15 1021 72 10000 4.02 40 20:51 11.12.2021
6515 Clear 16 1021 67 10000 4.02 40 19:27 11.12.2021
6516 Clear 16 1021 72 10000 4.92 40 18:52 11.12.2021
6517 Clear 16 1021 72 10000 4.92 40 18:25 11.12.2021
6518 Clear 18 1021 63 10000 5.81 40 17:21 11.12.2021
6519 Clear 19 1021 59 10000 5.81 40 15:55 11.12.2021
6520 Clear 19 1021 59 10000 5.81 40 15:28 11.12.2021
6521 Clear 18 1024 63 10000 4.02 60 12:59 11.12.2021
6522 Clear 17 1025 63 10000 2.68 100 11:26 11.12.2021
6523 Clouds 13 1023 87 10000 2.68 140 09:47 11.12.2021
6524 Clouds 13 1024 88 10000 2.06 180 08:28 11.12.2021
6525 Clouds 13 1025 76 10000 2.83 60 02:29 11.12.2021
6526 Clouds 13 1026 77 10000 3.38 57 00:40 11.12.2021
6527 Clouds 14 1027 72 10000 4.01 49 23:23 10.12.2021
6528 Clouds 13 1027 71 10000 4.67 43 21:57 10.12.2021
6529 Clouds 13 1027 71 10000 4.67 43 21:31 10.12.2021
6530 Clouds 16 1027 67 10000 4.92 80 19:22 10.12.2021
6531 Clouds 16 1026 67 10000 4.92 60 18:21 10.12.2021
6532 Clouds 17 1026 67 10000 4.02 40 16:57 10.12.2021
6533 Clouds 17 1026 67 10000 4.02 40 16:29 10.12.2021
6534 Clouds 17 1027 67 10000 4.02 60 15:41 10.12.2021
6535 Clouds 17 1027 67 10000 4.02 60 15:21 10.12.2021
6536 Clouds 17 1028 51 10000 2.24 40 13:52 10.12.2021
6537 Clouds 17 1028 51 10000 2.24 40 13:26 10.12.2021
6538 Clouds 16 1029 58 10000 0.89 40 12:45 10.12.2021
6539 Clouds 14 1029 76 10000 0.89 140 11:29 10.12.2021
6540 Clouds 12 1028 76 10000 2.24 160 10:38 10.12.2021
6541 Clouds 9 1027 93 10000 1.54 160 08:58 10.12.2021
6542 Clouds 9 1027 82 10000 3.13 69 06:56 10.12.2021
6543 Clouds 14 1028 76 10000 2.68 40 02:50 10.12.2021
6544 Clear 13 1028 76 10000 2.68 40 00:55 10.12.2021
6545 Clear 13 1028 76 10000 2.68 40 23:23 09.12.2021
6546 Clear 13 1028 76 10000 2.68 40 22:28 09.12.2021
6547 Clear 13 1028 76 10000 2.68 40 21:59 09.12.2021
6548 Clear 13 1028 76 10000 2.68 40 21:19 09.12.2021
6549 Clouds 14 1028 76 10000 2.68 40 20:28 09.12.2021
6550 Clouds 15 1027 72 10000 2.68 40 19:22 09.12.2021
6551 Clear 15 1027 72 10000 7.15 40 18:49 09.12.2021
6552 Clouds 16 1027 72 10000 5.81 40 17:57 09.12.2021
6553 Clouds 16 1027 72 10000 5.81 40 17:27 09.12.2021
6554 Clouds 17 1027 67 10000 8.05 40 16:56 09.12.2021
6555 Clouds 17 1027 67 10000 5.81 40 15:57 09.12.2021
6556 Clouds 17 1028 67 10000 6.71 40 14:51 09.12.2021
6557 Clouds 17 1029 67 10000 5.81 40 13:39 09.12.2021
6558 Clouds 17 1029 67 10000 4.02 40 12:47 09.12.2021
6559 Clouds 15 1029 77 10000 1.34 60 11:24 09.12.2021
6560 Clouds 11 1028 93 5000 1.54 180 09:44 09.12.2021
6561 Clouds 11 1027 68 10000 5.49 34 06:51 09.12.2021
6562 Clouds 15 1026 93 10000 1.79 60 03:43 09.12.2021
6563 Clouds 15 1012 93 10000 1.79 60 23:46 08.12.2021
6564 Clouds 15 1012 93 10000 1.79 60 23:26 08.12.2021
6565 Clouds 15 1026 93 10000 1.79 60 22:50 08.12.2021
6566 Clouds 15 1026 93 10000 1.79 60 21:46 08.12.2021
6567 Clouds 15 1026 93 10000 1.79 60 21:28 08.12.2021
6568 Clouds 15 1026 93 6000 1.79 60 20:18 08.12.2021
6569 Clouds 15 1025 93 6000 7.15 20 19:37 08.12.2021
6570 Clouds 15 1025 93 6000 7.15 20 18:53 08.12.2021
6571 Drizzle 16 1024 93 4000 4.02 300 17:47 08.12.2021
6572 Clouds 20 1024 64 10000 5.81 260 15:58 08.12.2021
6573 Clouds 20 1024 64 10000 5.81 260 15:29 08.12.2021
6574 Clouds 20 1025 68 10000 4.92 260 14:50 08.12.2021
6575 Clouds 18 1026 63 8000 4.02 180 12:32 08.12.2021
6576 Clouds 13 1026 87 6000 2.06 160 10:32 08.12.2021
6577 Clouds 11 1026 87 6000 1.79 180 09:30 08.12.2021
6578 Mist 11 1025 93 3000 1.79 180 07:29 08.12.2021
6579 Clear 8 1025 81 10000 3.05 216 04:57 08.12.2021
6580 Clouds 14 1023 87 10000 2.68 320 23:34 07.12.2021
6581 Clouds 14 1023 87 10000 2.68 320 22:27 07.12.2021
6582 Clouds 14 1023 87 10000 2.68 320 21:23 07.12.2021
6583 Clouds 14 1023 87 10000 2.68 320 21:23 07.12.2021
6584 Clouds 14 1023 87 10000 2.68 320 20:24 07.12.2021
6585 Clouds 15 1024 82 10000 2.68 20 18:55 07.12.2021
6586 Clouds 16 1024 72 10000 4.02 20 17:53 07.12.2021
6587 Clouds 16 1024 72 10000 4.02 20 17:20 07.12.2021
6588 Clear 17 1024 67 10000 4.02 20 16:34 07.12.2021
6589 Clear 17 1023 63 10000 4.02 340 15:34 07.12.2021
6590 Clear 18 1024 55 10000 4.02 20 14:30 07.12.2021
6591 Clear 16 1025 67 10000 1.79 80 12:56 07.12.2021
6592 Clear 16 1025 67 10000 1.79 80 12:56 07.12.2021
6593 Clear 14 1025 76 10000 1.79 100 11:52 07.12.2021
6594 Clear 12 1024 81 10000 1.79 160 10:43 07.12.2021
6595 Clear 7 1024 93 10000 1.03 160 08:42 07.12.2021
6596 Clear 6 1024 77 10000 2.22 84 06:21 07.12.2021
6597 Clear 5 1024 77 10000 2.22 84 05:39 07.12.2021
6598 Clear 15 1026 72 10000 5.81 60 23:49 06.12.2021
6599 Clear 15 1026 72 10000 5.81 60 22:58 06.12.2021
6600 Clear 15 1026 72 10000 5.81 60 22:37 06.12.2021
6601 Clear 15 1026 72 10000 5.81 60 21:52 06.12.2021
6602 Clear 15 1026 72 10000 5.81 60 20:40 06.12.2021
6603 Clear 15 1026 72 10000 5.81 60 20:22 06.12.2021
6604 Clear 16 1025 67 10000 5.81 60 19:22 06.12.2021
6605 Clear 16 1025 67 10000 5.81 60 18:29 06.12.2021
6606 Clear 17 1025 100 10000 4.02 20 17:41 06.12.2021
6607 Clear 17 1025 55 10000 7.15 40 16:49 06.12.2021
6608 Clear 18 1025 48 10000 4.92 60 15:41 06.12.2021
6609 Clear 18 1027 52 10000 4.92 60 13:46 06.12.2021
6610 Clear 17 1029 55 10000 7.15 100 12:40 06.12.2021
6611 Clear 16 1029 63 10000 5.81 100 11:48 06.12.2021
6612 Clouds 12 1023 76 10000 2.68 120 09:20 06.12.2021
6613 Clear 8 1028 77 10000 3.63 71 06:43 06.12.2021
6614 Clear 15 1027 72 10000 3.58 40 23:52 05.12.2021
6615 Clear 16 1027 72 10000 3.58 40 21:52 05.12.2021
6616 Clear 16 1027 72 10000 3.58 40 21:24 05.12.2021
6617 Clouds 16 1027 72 10000 3.58 40 20:19 05.12.2021
6618 Clouds 16 1027 72 10000 4.92 40 19:36 05.12.2021
6619 Clouds 16 1027 72 10000 4.92 40 19:18 05.12.2021
6620 Clouds 16 1026 82 10000 7.15 40 18:20 05.12.2021
6621 Clouds 17 1026 77 10000 5.81 20 17:48 05.12.2021
6622 Clouds 19 1026 63 10000 4.92 340 16:50 05.12.2021
6623 Clouds 19 1026 63 10000 4.92 340 16:27 05.12.2021
6624 Clouds 19 1025 59 10000 4.92 20 15:49 05.12.2021
6625 Clouds 19 1027 59 10000 4.92 40 14:43 05.12.2021
6626 Clouds 19 1027 59 10000 4.92 40 14:25 05.12.2021
6627 Clear 19 1028 59 10000 2.68 60 13:27 05.12.2021
6628 Clear 18 1028 59 10000 2.68 180 12:40 05.12.2021
6629 Clear 18 1028 59 10000 2.68 180 12:18 05.12.2021
6630 Clear 16 1028 72 10000 4.02 140 11:34 05.12.2021
6631 Clear 14 1028 76 10000 4.02 160 10:18 05.12.2021
6632 Clouds 10 1027 93 6000 2.06 180 08:45 05.12.2021
6633 Clouds 8 1027 79 10000 3.18 43 04:56 05.12.2021
6634 Clouds 14 1028 82 10000 1.79 40 00:48 05.12.2021
6635 Clear 14 1028 82 10000 1.79 40 22:24 04.12.2021
6636 Clear 14 1028 82 10000 1.79 40 21:20 04.12.2021
6637 Clouds 14 1028 82 10000 1.79 40 20:27 04.12.2021
6638 Clouds 15 1027 77 10000 2.68 20 19:32 04.12.2021
6639 Clear 15 1027 72 10000 5.81 40 18:22 04.12.2021
6640 Clear 17 1027 63 10000 5.81 20 17:42 04.12.2021
6641 Clear 17 1027 63 10000 5.81 20 17:19 04.12.2021
6642 Clear 17 1028 63 10000 4.02 40 16:42 04.12.2021
6643 Clear 17 1028 63 10000 4.02 40 16:23 04.12.2021
6644 Clear 14 1029 67 8000 1.79 100 11:56 04.12.2021
6645 Clear 14 1029 67 8000 1.79 100 11:33 04.12.2021
6646 Clouds 11 1029 71 6000 2.68 180 10:56 04.12.2021